<?xml version="1.0" encoding="UTF-8" standalone="no" ?>
<gpx xmlns="http://www.topografix.com/GPX/1/1" xmlns:xsi="http://www.w3.org/2001/XMLSchema-instance" xsi:schemaLocation="http://www.topografix.com/GPX/1/1 http://www.topografix.com/GPX/1/1/gpx.xsd" version="1.1" creator="VisuGPX - https://www.visugpx.com">
  <metadata>
    <name>Des Mouettes aux Cigales 2021</name>
  </metadata>
  <trk>
    <name><![CDATA[Étape 6 : Cosne-sur-Loire - Decize]]></name>
    <extensions>
      <line xmlns="http://www.topografix.com/GPX/gpx_style/0/2">
        <color>000088</color>
        <width>4</width>
      </line>
    </extensions>
    <trkseg>
      <trkpt lat="47.40904" lon="2.91771">
        <ele>143.025707</ele>
        <time>2021-09-10T06:20:36.000Z</time>
      </trkpt>
      <trkpt lat="47.40925" lon="2.91772">
        <ele>143.025707</ele>
        <time>2021-09-10T06:20:41.000Z</time>
      </trkpt>
      <trkpt lat="47.40941" lon="2.91773">
        <ele>143.025707</ele>
        <time>2021-09-10T06:20:45.000Z</time>
      </trkpt>
      <trkpt lat="47.40956" lon="2.91773">
        <ele>143.025707</ele>
        <time>2021-09-10T06:20:50.000Z</time>
      </trkpt>
      <trkpt lat="47.40977" lon="2.91774">
        <ele>143.025707</ele>
        <time>2021-09-10T06:20:54.000Z</time>
      </trkpt>
      <trkpt lat="47.40991" lon="2.91775">
        <ele>143.025707</ele>
        <time>2021-09-10T06:20:57.000Z</time>
      </trkpt>
      <trkpt lat="47.41019" lon="2.91776">
        <ele>142.891878</ele>
        <time>2021-09-10T06:21:03.000Z</time>
      </trkpt>
      <trkpt lat="47.41044" lon="2.91776">
        <ele>142.755286</ele>
        <time>2021-09-10T06:21:10.000Z</time>
      </trkpt>
      <trkpt lat="47.41065" lon="2.91777">
        <ele>142.639462</ele>
        <time>2021-09-10T06:21:14.000Z</time>
      </trkpt>
      <trkpt lat="47.41073" lon="2.91777">
        <ele>142.595205</ele>
        <time>2021-09-10T06:21:16.000Z</time>
      </trkpt>
      <trkpt lat="47.41082" lon="2.91778">
        <ele>142.54658</ele>
        <time>2021-09-10T06:21:18.000Z</time>
      </trkpt>
      <trkpt lat="47.41096" lon="2.91778">
        <ele>142.468469</ele>
        <time>2021-09-10T06:21:21.000Z</time>
      </trkpt>
      <trkpt lat="47.41101" lon="2.91776">
        <ele>142.439913</ele>
        <time>2021-09-10T06:21:22.000Z</time>
      </trkpt>
      <trkpt lat="47.41111" lon="2.91773">
        <ele>142.38616</ele>
        <time>2021-09-10T06:21:24.000Z</time>
      </trkpt>
      <trkpt lat="47.41116" lon="2.91763">
        <ele>142.339875</ele>
        <time>2021-09-10T06:21:25.000Z</time>
      </trkpt>
      <trkpt lat="47.41117" lon="2.91756">
        <ele>142.314391</ele>
        <time>2021-09-10T06:21:26.000Z</time>
      </trkpt>
      <trkpt lat="47.4112" lon="2.91738">
        <ele>142.24515</ele>
        <time>2021-09-10T06:21:29.000Z</time>
      </trkpt>
      <trkpt lat="47.41128" lon="2.91712">
        <ele>142.137555</ele>
        <time>2021-09-10T06:21:36.000Z</time>
      </trkpt>
      <trkpt lat="47.41131" lon="2.9171">
        <ele>142.121666</ele>
        <time>2021-09-10T06:21:40.000Z</time>
      </trkpt>
      <trkpt lat="47.41135" lon="2.91708">
        <ele>142.099741</ele>
        <time>2021-09-10T06:21:46.000Z</time>
      </trkpt>
      <trkpt lat="47.41135" lon="2.91703">
        <ele>142.08413</ele>
        <time>2021-09-10T06:21:47.000Z</time>
      </trkpt>
      <trkpt lat="47.41135" lon="2.91693">
        <ele>142.046781</ele>
        <time>2021-09-10T06:21:49.000Z</time>
      </trkpt>
      <trkpt lat="47.41134" lon="2.91657">
        <ele>142.189406</ele>
        <time>2021-09-10T06:21:55.000Z</time>
      </trkpt>
      <trkpt lat="47.41133" lon="2.916">
        <ele>142.427355</ele>
        <time>2021-09-10T06:22:03.000Z</time>
      </trkpt>
      <trkpt lat="47.41131" lon="2.9153">
        <ele>142.714625</ele>
        <time>2021-09-10T06:22:11.000Z</time>
      </trkpt>
      <trkpt lat="47.41131" lon="2.91497">
        <ele>142.852255</ele>
        <time>2021-09-10T06:22:16.000Z</time>
      </trkpt>
      <trkpt lat="47.4113" lon="2.91484">
        <ele>142.906979</ele>
        <time>2021-09-10T06:22:18.000Z</time>
      </trkpt>
      <trkpt lat="47.4113" lon="2.91477">
        <ele>142.934333</ele>
        <time>2021-09-10T06:22:19.000Z</time>
      </trkpt>
      <trkpt lat="47.4113" lon="2.91456">
        <ele>143.022228</ele>
        <time>2021-09-10T06:22:22.000Z</time>
      </trkpt>
      <trkpt lat="47.41129" lon="2.91434">
        <ele>143.113003</ele>
        <time>2021-09-10T06:22:26.000Z</time>
      </trkpt>
      <trkpt lat="47.41129" lon="2.91421">
        <ele>143.176222</ele>
        <time>2021-09-10T06:22:27.000Z</time>
      </trkpt>
      <trkpt lat="47.41128" lon="2.91376">
        <ele>143.422864</ele>
        <time>2021-09-10T06:22:33.000Z</time>
      </trkpt>
      <trkpt lat="47.41128" lon="2.91352">
        <ele>143.554667</ele>
        <time>2021-09-10T06:22:36.000Z</time>
      </trkpt>
      <trkpt lat="47.41127" lon="2.91326">
        <ele>143.694119</ele>
        <time>2021-09-10T06:22:39.000Z</time>
      </trkpt>
      <trkpt lat="47.41125" lon="2.91229">
        <ele>144.224061</ele>
        <time>2021-09-10T06:22:50.000Z</time>
      </trkpt>
      <trkpt lat="47.41125" lon="2.9122">
        <ele>144.272739</ele>
        <time>2021-09-10T06:22:51.000Z</time>
      </trkpt>
      <trkpt lat="47.41123" lon="2.91147">
        <ele>144.70966</ele>
        <time>2021-09-10T06:22:59.000Z</time>
      </trkpt>
      <trkpt lat="47.41122" lon="2.91064">
        <ele>145.393913</ele>
        <time>2021-09-10T06:23:08.000Z</time>
      </trkpt>
      <trkpt lat="47.4112" lon="2.90992">
        <ele>145.992537</ele>
        <time>2021-09-10T06:23:17.000Z</time>
      </trkpt>
      <trkpt lat="47.41119" lon="2.90919">
        <ele>146.594451</ele>
        <time>2021-09-10T06:23:25.000Z</time>
      </trkpt>
      <trkpt lat="47.41118" lon="2.90866">
        <ele>146.986784</ele>
        <time>2021-09-10T06:23:32.000Z</time>
      </trkpt>
      <trkpt lat="47.41118" lon="2.9086">
        <ele>147.034852</ele>
        <time>2021-09-10T06:23:33.000Z</time>
      </trkpt>
      <trkpt lat="47.41117" lon="2.90846">
        <ele>147.128232</ele>
        <time>2021-09-10T06:23:35.000Z</time>
      </trkpt>
      <trkpt lat="47.41117" lon="2.90839">
        <ele>147.179117</ele>
        <time>2021-09-10T06:23:36.000Z</time>
      </trkpt>
      <trkpt lat="47.41116" lon="2.90782">
        <ele>147.575644</ele>
        <time>2021-09-10T06:23:43.000Z</time>
      </trkpt>
      <trkpt lat="47.41114" lon="2.90721">
        <ele>147.997231</ele>
        <time>2021-09-10T06:23:51.000Z</time>
      </trkpt>
      <trkpt lat="47.41114" lon="2.90714">
        <ele>148.049508</ele>
        <time>2021-09-10T06:23:52.000Z</time>
      </trkpt>
      <trkpt lat="47.41113" lon="2.90673">
        <ele>148.332433</ele>
        <time>2021-09-10T06:23:57.000Z</time>
      </trkpt>
      <trkpt lat="47.41112" lon="2.90616">
        <ele>148.634357</ele>
        <time>2021-09-10T06:24:04.000Z</time>
      </trkpt>
      <trkpt lat="47.41111" lon="2.90596">
        <ele>148.631764</ele>
        <time>2021-09-10T06:24:07.000Z</time>
      </trkpt>
      <trkpt lat="47.41107" lon="2.90594">
        <ele>148.630954</ele>
        <time>2021-09-10T06:24:08.000Z</time>
      </trkpt>
      <trkpt lat="47.41103" lon="2.90593">
        <ele>148.630109</ele>
        <time>2021-09-10T06:24:09.000Z</time>
      </trkpt>
      <trkpt lat="47.41097" lon="2.90592">
        <ele>148.629074</ele>
        <time>2021-09-10T06:24:10.000Z</time>
      </trkpt>
      <trkpt lat="47.4106" lon="2.90585">
        <ele>148.622141</ele>
        <time>2021-09-10T06:24:16.000Z</time>
      </trkpt>
      <trkpt lat="47.41003" lon="2.90574">
        <ele>148.611309</ele>
        <time>2021-09-10T06:24:25.000Z</time>
      </trkpt>
      <trkpt lat="47.4099" lon="2.90571">
        <ele>148.608878</ele>
        <time>2021-09-10T06:24:27.000Z</time>
      </trkpt>
      <trkpt lat="47.40932" lon="2.9056">
        <ele>148.575793</ele>
        <time>2021-09-10T06:24:36.000Z</time>
      </trkpt>
      <trkpt lat="47.4092" lon="2.90558">
        <ele>148.56148</ele>
        <time>2021-09-10T06:24:38.000Z</time>
      </trkpt>
      <trkpt lat="47.40901" lon="2.90555">
        <ele>148.540289</ele>
        <time>2021-09-10T06:24:41.000Z</time>
      </trkpt>
      <trkpt lat="47.40857" lon="2.90547">
        <ele>148.491147</ele>
        <time>2021-09-10T06:24:48.000Z</time>
      </trkpt>
      <trkpt lat="47.40802" lon="2.90538">
        <ele>148.429395</ele>
        <time>2021-09-10T06:24:57.000Z</time>
      </trkpt>
      <trkpt lat="47.40754" lon="2.90529">
        <ele>148.395387</ele>
        <time>2021-09-10T06:25:05.000Z</time>
      </trkpt>
      <trkpt lat="47.40699" lon="2.9052">
        <ele>148.381956</ele>
        <time>2021-09-10T06:25:14.000Z</time>
      </trkpt>
      <trkpt lat="47.4065" lon="2.90511">
        <ele>148.37006</ele>
        <time>2021-09-10T06:25:22.000Z</time>
      </trkpt>
      <trkpt lat="47.406" lon="2.90502">
        <ele>148.357873</ele>
        <time>2021-09-10T06:25:30.000Z</time>
      </trkpt>
      <trkpt lat="47.40557" lon="2.90495">
        <ele>148.318948</ele>
        <time>2021-09-10T06:25:37.000Z</time>
      </trkpt>
      <trkpt lat="47.40538" lon="2.90492">
        <ele>148.301773</ele>
        <time>2021-09-10T06:25:40.000Z</time>
      </trkpt>
      <trkpt lat="47.40526" lon="2.9049">
        <ele>148.290572</ele>
        <time>2021-09-10T06:25:42.000Z</time>
      </trkpt>
      <trkpt lat="47.40469" lon="2.9048">
        <ele>148.23879</ele>
        <time>2021-09-10T06:25:51.000Z</time>
      </trkpt>
      <trkpt lat="47.40412" lon="2.9047">
        <ele>148.180207</ele>
        <time>2021-09-10T06:26:00.000Z</time>
      </trkpt>
      <trkpt lat="47.40355" lon="2.90459">
        <ele>148.088163</ele>
        <time>2021-09-10T06:26:09.000Z</time>
      </trkpt>
      <trkpt lat="47.40305" lon="2.90444">
        <ele>148.007224</ele>
        <time>2021-09-10T06:26:17.000Z</time>
      </trkpt>
      <trkpt lat="47.40259" lon="2.9042">
        <ele>147.927692</ele>
        <time>2021-09-10T06:26:25.000Z</time>
      </trkpt>
      <trkpt lat="47.40223" lon="2.90401">
        <ele>147.839123</ele>
        <time>2021-09-10T06:26:31.000Z</time>
      </trkpt>
      <trkpt lat="47.40218" lon="2.90397">
        <ele>147.821413</ele>
        <time>2021-09-10T06:26:32.000Z</time>
      </trkpt>
      <trkpt lat="47.40158" lon="2.90366">
        <ele>147.643906</ele>
        <time>2021-09-10T06:26:42.000Z</time>
      </trkpt>
      <trkpt lat="47.40123" lon="2.90346">
        <ele>147.537691</ele>
        <time>2021-09-10T06:26:48.000Z</time>
      </trkpt>
      <trkpt lat="47.4008" lon="2.90306">
        <ele>147.39733</ele>
        <time>2021-09-10T06:26:56.000Z</time>
      </trkpt>
      <trkpt lat="47.40047" lon="2.90265">
        <ele>147.341488</ele>
        <time>2021-09-10T06:27:03.000Z</time>
      </trkpt>
      <trkpt lat="47.40028" lon="2.90241">
        <ele>147.309666</ele>
        <time>2021-09-10T06:27:07.000Z</time>
      </trkpt>
      <trkpt lat="47.40018" lon="2.9023">
        <ele>147.293908</ele>
        <time>2021-09-10T06:27:09.000Z</time>
      </trkpt>
      <trkpt lat="47.39989" lon="2.90194">
        <ele>147.245868</ele>
        <time>2021-09-10T06:27:15.000Z</time>
      </trkpt>
      <trkpt lat="47.39955" lon="2.90153">
        <ele>147.189916</ele>
        <time>2021-09-10T06:27:22.000Z</time>
      </trkpt>
      <trkpt lat="47.3995" lon="2.90147">
        <ele>147.181862</ele>
        <time>2021-09-10T06:27:23.000Z</time>
      </trkpt>
      <trkpt lat="47.39913" lon="2.901">
        <ele>147.198644</ele>
        <time>2021-09-10T06:27:31.000Z</time>
      </trkpt>
      <trkpt lat="47.39875" lon="2.90051">
        <ele>147.236295</ele>
        <time>2021-09-10T06:27:39.000Z</time>
      </trkpt>
      <trkpt lat="47.39867" lon="2.9004">
        <ele>147.245024</ele>
        <time>2021-09-10T06:27:41.000Z</time>
      </trkpt>
      <trkpt lat="47.39849" lon="2.90018">
        <ele>147.262697</ele>
        <time>2021-09-10T06:27:45.000Z</time>
      </trkpt>
      <trkpt lat="47.39812" lon="2.8997">
        <ele>147.299437</ele>
        <time>2021-09-10T06:27:53.000Z</time>
      </trkpt>
      <trkpt lat="47.3978" lon="2.89929">
        <ele>147.40185</ele>
        <time>2021-09-10T06:28:00.000Z</time>
      </trkpt>
      <trkpt lat="47.39756" lon="2.89899">
        <ele>147.487039</ele>
        <time>2021-09-10T06:28:05.000Z</time>
      </trkpt>
      <trkpt lat="47.39747" lon="2.89887">
        <ele>147.521568</ele>
        <time>2021-09-10T06:28:07.000Z</time>
      </trkpt>
      <trkpt lat="47.39719" lon="2.89853">
        <ele>147.620197</ele>
        <time>2021-09-10T06:28:13.000Z</time>
      </trkpt>
      <trkpt lat="47.39682" lon="2.89806">
        <ele>147.75446</ele>
        <time>2021-09-10T06:28:21.000Z</time>
      </trkpt>
      <trkpt lat="47.3965" lon="2.89766">
        <ele>147.827722</ele>
        <time>2021-09-10T06:28:28.000Z</time>
      </trkpt>
      <trkpt lat="47.39619" lon="2.89726">
        <ele>147.875906</ele>
        <time>2021-09-10T06:28:35.000Z</time>
      </trkpt>
      <trkpt lat="47.39586" lon="2.89685">
        <ele>147.927024</ele>
        <time>2021-09-10T06:28:42.000Z</time>
      </trkpt>
      <trkpt lat="47.39581" lon="2.89679">
        <ele>147.934158</ele>
        <time>2021-09-10T06:28:43.000Z</time>
      </trkpt>
      <trkpt lat="47.39559" lon="2.89651">
        <ele>147.968924</ele>
        <time>2021-09-10T06:28:48.000Z</time>
      </trkpt>
      <trkpt lat="47.39521" lon="2.89603">
        <ele>148.036141</ele>
        <time>2021-09-10T06:28:56.000Z</time>
      </trkpt>
      <trkpt lat="47.39479" lon="2.8955">
        <ele>148.131329</ele>
        <time>2021-09-10T06:29:05.000Z</time>
      </trkpt>
      <trkpt lat="47.39471" lon="2.89538">
        <ele>148.151369</ele>
        <time>2021-09-10T06:29:07.000Z</time>
      </trkpt>
      <trkpt lat="47.39457" lon="2.89521">
        <ele>148.181804</ele>
        <time>2021-09-10T06:29:10.000Z</time>
      </trkpt>
      <trkpt lat="47.39426" lon="2.89481">
        <ele>148.253013</ele>
        <time>2021-09-10T06:29:17.000Z</time>
      </trkpt>
      <trkpt lat="47.39393" lon="2.89439">
        <ele>148.317115</ele>
        <time>2021-09-10T06:29:24.000Z</time>
      </trkpt>
      <trkpt lat="47.39365" lon="2.89393">
        <ele>148.310872</ele>
        <time>2021-09-10T06:29:31.000Z</time>
      </trkpt>
      <trkpt lat="47.39362" lon="2.89387">
        <ele>148.310068</ele>
        <time>2021-09-10T06:29:32.000Z</time>
      </trkpt>
      <trkpt lat="47.39348" lon="2.89363">
        <ele>148.306942</ele>
        <time>2021-09-10T06:29:36.000Z</time>
      </trkpt>
      <trkpt lat="47.39335" lon="2.8934">
        <ele>148.303911</ele>
        <time>2021-09-10T06:29:40.000Z</time>
      </trkpt>
      <trkpt lat="47.39325" lon="2.89323">
        <ele>148.301668</ele>
        <time>2021-09-10T06:29:43.000Z</time>
      </trkpt>
      <trkpt lat="47.39305" lon="2.89286">
        <ele>148.296866</ele>
        <time>2021-09-10T06:29:49.000Z</time>
      </trkpt>
      <trkpt lat="47.39294" lon="2.89266">
        <ele>148.294314</ele>
        <time>2021-09-10T06:29:52.000Z</time>
      </trkpt>
      <trkpt lat="47.39287" lon="2.89254">
        <ele>148.292707</ele>
        <time>2021-09-10T06:29:54.000Z</time>
      </trkpt>
      <trkpt lat="47.39267" lon="2.89217">
        <ele>148.243184</ele>
        <time>2021-09-10T06:30:00.000Z</time>
      </trkpt>
      <trkpt lat="47.39264" lon="2.89211">
        <ele>148.232403</ele>
        <time>2021-09-10T06:30:01.000Z</time>
      </trkpt>
      <trkpt lat="47.39242" lon="2.89174">
        <ele>148.160529</ele>
        <time>2021-09-10T06:30:08.000Z</time>
      </trkpt>
      <trkpt lat="47.39239" lon="2.8917">
        <ele>148.151429</ele>
        <time>2021-09-10T06:30:09.000Z</time>
      </trkpt>
      <trkpt lat="47.39231" lon="2.89156">
        <ele>148.125207</ele>
        <time>2021-09-10T06:30:12.000Z</time>
      </trkpt>
      <trkpt lat="47.39226" lon="2.89141">
        <ele>148.099627</ele>
        <time>2021-09-10T06:30:15.000Z</time>
      </trkpt>
      <trkpt lat="47.39224" lon="2.89125">
        <ele>148.076963</ele>
        <time>2021-09-10T06:30:17.000Z</time>
      </trkpt>
      <trkpt lat="47.3923" lon="2.8909">
        <ele>148.02358</ele>
        <time>2021-09-10T06:30:21.000Z</time>
      </trkpt>
      <trkpt lat="47.39237" lon="2.89052">
        <ele>147.96556</ele>
        <time>2021-09-10T06:30:25.000Z</time>
      </trkpt>
      <trkpt lat="47.3924" lon="2.89035">
        <ele>147.939233</ele>
        <time>2021-09-10T06:30:27.000Z</time>
      </trkpt>
      <trkpt lat="47.39241" lon="2.89026">
        <ele>147.926112</ele>
        <time>2021-09-10T06:30:28.000Z</time>
      </trkpt>
      <trkpt lat="47.39243" lon="2.88994">
        <ele>147.84908</ele>
        <time>2021-09-10T06:30:32.000Z</time>
      </trkpt>
      <trkpt lat="47.39242" lon="2.88988">
        <ele>147.828009</ele>
        <time>2021-09-10T06:30:33.000Z</time>
      </trkpt>
      <trkpt lat="47.39238" lon="2.88971">
        <ele>147.76174</ele>
        <time>2021-09-10T06:30:36.000Z</time>
      </trkpt>
      <trkpt lat="47.39228" lon="2.88953">
        <ele>147.68075</ele>
        <time>2021-09-10T06:30:40.000Z</time>
      </trkpt>
      <trkpt lat="47.39221" lon="2.88945">
        <ele>147.636049</ele>
        <time>2021-09-10T06:30:42.000Z</time>
      </trkpt>
      <trkpt lat="47.39209" lon="2.88937">
        <ele>147.564254</ele>
        <time>2021-09-10T06:30:45.000Z</time>
      </trkpt>
      <trkpt lat="47.39199" lon="2.88934">
        <ele>147.512187</ele>
        <time>2021-09-10T06:30:47.000Z</time>
      </trkpt>
      <trkpt lat="47.39178" lon="2.88926">
        <ele>147.402569</ele>
        <time>2021-09-10T06:30:51.000Z</time>
      </trkpt>
      <trkpt lat="47.39173" lon="2.88924">
        <ele>147.372442</ele>
        <time>2021-09-10T06:30:52.000Z</time>
      </trkpt>
      <trkpt lat="47.39162" lon="2.88919">
        <ele>147.313133</ele>
        <time>2021-09-10T06:30:54.000Z</time>
      </trkpt>
      <trkpt lat="47.39152" lon="2.88913">
        <ele>147.257543</ele>
        <time>2021-09-10T06:30:56.000Z</time>
      </trkpt>
      <trkpt lat="47.39129" lon="2.88898">
        <ele>147.128583</ele>
        <time>2021-09-10T06:31:01.000Z</time>
      </trkpt>
      <trkpt lat="47.39125" lon="2.88895">
        <ele>147.103891</ele>
        <time>2021-09-10T06:31:02.000Z</time>
      </trkpt>
      <trkpt lat="47.39115" lon="2.88886">
        <ele>147.040941</ele>
        <time>2021-09-10T06:31:05.000Z</time>
      </trkpt>
      <trkpt lat="47.39112" lon="2.88884">
        <ele>147.023432</ele>
        <time>2021-09-10T06:31:06.000Z</time>
      </trkpt>
      <trkpt lat="47.39109" lon="2.88882">
        <ele>147.008436</ele>
        <time>2021-09-10T06:31:08.000Z</time>
      </trkpt>
      <trkpt lat="47.39104" lon="2.88875">
        <ele>146.972846</ele>
        <time>2021-09-10T06:31:11.000Z</time>
      </trkpt>
      <trkpt lat="47.3909" lon="2.88856">
        <ele>147.054435</ele>
        <time>2021-09-10T06:31:17.000Z</time>
      </trkpt>
      <trkpt lat="47.39059" lon="2.88833">
        <ele>147.239129</ele>
        <time>2021-09-10T06:31:26.000Z</time>
      </trkpt>
      <trkpt lat="47.39049" lon="2.88822">
        <ele>147.302762</ele>
        <time>2021-09-10T06:31:29.000Z</time>
      </trkpt>
      <trkpt lat="47.39046" lon="2.88812">
        <ele>147.340611</ele>
        <time>2021-09-10T06:31:31.000Z</time>
      </trkpt>
      <trkpt lat="47.39048" lon="2.88797">
        <ele>147.39404</ele>
        <time>2021-09-10T06:31:35.000Z</time>
      </trkpt>
      <trkpt lat="47.39049" lon="2.88795">
        <ele>147.405136</ele>
        <time>2021-09-10T06:31:37.000Z</time>
      </trkpt>
      <trkpt lat="47.39049" lon="2.88788">
        <ele>147.42905</ele>
        <time>2021-09-10T06:31:39.000Z</time>
      </trkpt>
      <trkpt lat="47.3904" lon="2.88781">
        <ele>147.483513</ele>
        <time>2021-09-10T06:31:42.000Z</time>
      </trkpt>
      <trkpt lat="47.39039" lon="2.8878">
        <ele>147.488257</ele>
        <time>2021-09-10T06:31:43.000Z</time>
      </trkpt>
      <trkpt lat="47.39038" lon="2.88779">
        <ele>147.492368</ele>
        <time>2021-09-10T06:31:44.000Z</time>
      </trkpt>
      <trkpt lat="47.39037" lon="2.88779">
        <ele>147.497922</ele>
        <time>2021-09-10T06:31:47.000Z</time>
      </trkpt>
      <trkpt lat="47.39035" lon="2.88777">
        <ele>147.511856</ele>
        <time>2021-09-10T06:32:45.000Z</time>
      </trkpt>
      <trkpt lat="47.39032" lon="2.88774">
        <ele>147.529261</ele>
        <time>2021-09-10T06:32:47.000Z</time>
      </trkpt>
      <trkpt lat="47.3902" lon="2.88765">
        <ele>147.601763</ele>
        <time>2021-09-10T06:32:52.000Z</time>
      </trkpt>
      <trkpt lat="47.39002" lon="2.8875">
        <ele>147.707973</ele>
        <time>2021-09-10T06:32:59.000Z</time>
      </trkpt>
      <trkpt lat="47.38987" lon="2.88738">
        <ele>147.799786</ele>
        <time>2021-09-10T06:33:05.000Z</time>
      </trkpt>
      <trkpt lat="47.38977" lon="2.8873">
        <ele>147.858946</ele>
        <time>2021-09-10T06:33:10.000Z</time>
      </trkpt>
      <trkpt lat="47.38962" lon="2.8872">
        <ele>147.908424</ele>
        <time>2021-09-10T06:33:16.000Z</time>
      </trkpt>
      <trkpt lat="47.38947" lon="2.8871">
        <ele>147.894854</ele>
        <time>2021-09-10T06:33:21.000Z</time>
      </trkpt>
      <trkpt lat="47.38934" lon="2.88702">
        <ele>147.88279</ele>
        <time>2021-09-10T06:33:26.000Z</time>
      </trkpt>
      <trkpt lat="47.3892" lon="2.88693">
        <ele>147.869929</ele>
        <time>2021-09-10T06:33:32.000Z</time>
      </trkpt>
      <trkpt lat="47.38906" lon="2.88685">
        <ele>147.857545</ele>
        <time>2021-09-10T06:33:37.000Z</time>
      </trkpt>
      <trkpt lat="47.38882" lon="2.88672">
        <ele>147.836164</ele>
        <time>2021-09-10T06:33:44.000Z</time>
      </trkpt>
      <trkpt lat="47.38858" lon="2.88659">
        <ele>147.815735</ele>
        <time>2021-09-10T06:33:50.000Z</time>
      </trkpt>
      <trkpt lat="47.38841" lon="2.8865">
        <ele>147.800516</ele>
        <time>2021-09-10T06:33:55.000Z</time>
      </trkpt>
      <trkpt lat="47.38822" lon="2.8864">
        <ele>147.783703</ele>
        <time>2021-09-10T06:34:02.000Z</time>
      </trkpt>
      <trkpt lat="47.388" lon="2.88629">
        <ele>147.76479</ele>
        <time>2021-09-10T06:34:08.000Z</time>
      </trkpt>
      <trkpt lat="47.38773" lon="2.88614">
        <ele>148.085133</ele>
        <time>2021-09-10T06:34:15.000Z</time>
      </trkpt>
      <trkpt lat="47.38755" lon="2.88605">
        <ele>148.2939</ele>
        <time>2021-09-10T06:34:20.000Z</time>
      </trkpt>
      <trkpt lat="47.38734" lon="2.88592">
        <ele>148.545195</ele>
        <time>2021-09-10T06:34:27.000Z</time>
      </trkpt>
      <trkpt lat="47.38718" lon="2.88584">
        <ele>148.735733</ele>
        <time>2021-09-10T06:34:32.000Z</time>
      </trkpt>
      <trkpt lat="47.38705" lon="2.88568">
        <ele>148.919184</ele>
        <time>2021-09-10T06:34:37.000Z</time>
      </trkpt>
      <trkpt lat="47.38687" lon="2.88552">
        <ele>149.155623</ele>
        <time>2021-09-10T06:34:41.000Z</time>
      </trkpt>
      <trkpt lat="47.38683" lon="2.8855">
        <ele>149.203547</ele>
        <time>2021-09-10T06:34:42.000Z</time>
      </trkpt>
      <trkpt lat="47.38654" lon="2.88536">
        <ele>149.53796</ele>
        <time>2021-09-10T06:34:48.000Z</time>
      </trkpt>
      <trkpt lat="47.38639" lon="2.88529">
        <ele>149.718992</ele>
        <time>2021-09-10T06:34:51.000Z</time>
      </trkpt>
      <trkpt lat="47.38629" lon="2.88524">
        <ele>149.81504</ele>
        <time>2021-09-10T06:34:53.000Z</time>
      </trkpt>
      <trkpt lat="47.38619" lon="2.88519">
        <ele>149.900678</ele>
        <time>2021-09-10T06:34:55.000Z</time>
      </trkpt>
      <trkpt lat="47.38598" lon="2.88509">
        <ele>150.077875</ele>
        <time>2021-09-10T06:34:59.000Z</time>
      </trkpt>
      <trkpt lat="47.38583" lon="2.88499">
        <ele>150.210163</ele>
        <time>2021-09-10T06:35:02.000Z</time>
      </trkpt>
      <trkpt lat="47.38574" lon="2.88489">
        <ele>150.301376</ele>
        <time>2021-09-10T06:35:04.000Z</time>
      </trkpt>
      <trkpt lat="47.3855" lon="2.88462">
        <ele>150.547877</ele>
        <time>2021-09-10T06:35:09.000Z</time>
      </trkpt>
      <trkpt lat="47.38514" lon="2.88428">
        <ele>150.896393</ele>
        <time>2021-09-10T06:35:16.000Z</time>
      </trkpt>
      <trkpt lat="47.38498" lon="2.88414">
        <ele>151.044359</ele>
        <time>2021-09-10T06:35:19.000Z</time>
      </trkpt>
      <trkpt lat="47.38483" lon="2.884">
        <ele>151.191057</ele>
        <time>2021-09-10T06:35:22.000Z</time>
      </trkpt>
      <trkpt lat="47.38473" lon="2.88391">
        <ele>151.17967</ele>
        <time>2021-09-10T06:35:24.000Z</time>
      </trkpt>
      <trkpt lat="47.38452" lon="2.88369">
        <ele>151.050475</ele>
        <time>2021-09-10T06:35:28.000Z</time>
      </trkpt>
      <trkpt lat="47.38448" lon="2.88363">
        <ele>151.017291</ele>
        <time>2021-09-10T06:35:29.000Z</time>
      </trkpt>
      <trkpt lat="47.38435" lon="2.88341">
        <ele>150.912135</ele>
        <time>2021-09-10T06:35:32.000Z</time>
      </trkpt>
      <trkpt lat="47.38428" lon="2.88323">
        <ele>150.841984</ele>
        <time>2021-09-10T06:35:34.000Z</time>
      </trkpt>
      <trkpt lat="47.38418" lon="2.88296">
        <ele>150.732727</ele>
        <time>2021-09-10T06:35:37.000Z</time>
      </trkpt>
      <trkpt lat="47.38412" lon="2.88278">
        <ele>150.660403</ele>
        <time>2021-09-10T06:35:39.000Z</time>
      </trkpt>
      <trkpt lat="47.38402" lon="2.88252">
        <ele>150.55816</ele>
        <time>2021-09-10T06:35:42.000Z</time>
      </trkpt>
      <trkpt lat="47.38395" lon="2.88242">
        <ele>150.50625</ele>
        <time>2021-09-10T06:35:44.000Z</time>
      </trkpt>
      <trkpt lat="47.3839" lon="2.88239">
        <ele>150.478647</ele>
        <time>2021-09-10T06:35:45.000Z</time>
      </trkpt>
      <trkpt lat="47.38359" lon="2.88215">
        <ele>150.293884</ele>
        <time>2021-09-10T06:35:51.000Z</time>
      </trkpt>
      <trkpt lat="47.38335" lon="2.88197">
        <ele>150.532823</ele>
        <time>2021-09-10T06:35:56.000Z</time>
      </trkpt>
      <trkpt lat="47.3832" lon="2.88186">
        <ele>150.695848</ele>
        <time>2021-09-10T06:36:01.000Z</time>
      </trkpt>
      <trkpt lat="47.38307" lon="2.8818">
        <ele>150.838029</ele>
        <time>2021-09-10T06:36:07.000Z</time>
      </trkpt>
      <trkpt lat="47.3829" lon="2.88172">
        <ele>151.016603</ele>
        <time>2021-09-10T06:36:15.000Z</time>
      </trkpt>
      <trkpt lat="47.38276" lon="2.88166">
        <ele>151.155685</ele>
        <time>2021-09-10T06:36:21.000Z</time>
      </trkpt>
      <trkpt lat="47.38263" lon="2.88161">
        <ele>151.288514</ele>
        <time>2021-09-10T06:36:27.000Z</time>
      </trkpt>
      <trkpt lat="47.38247" lon="2.88159">
        <ele>151.44922</ele>
        <time>2021-09-10T06:36:33.000Z</time>
      </trkpt>
      <trkpt lat="47.3823" lon="2.88157">
        <ele>151.620277</ele>
        <time>2021-09-10T06:36:39.000Z</time>
      </trkpt>
      <trkpt lat="47.38222" lon="2.88155">
        <ele>151.70337</ele>
        <time>2021-09-10T06:36:40.000Z</time>
      </trkpt>
      <trkpt lat="47.38213" lon="2.88154">
        <ele>151.790418</ele>
        <time>2021-09-10T06:36:42.000Z</time>
      </trkpt>
      <trkpt lat="47.38198" lon="2.88152">
        <ele>151.937316</ele>
        <time>2021-09-10T06:36:45.000Z</time>
      </trkpt>
      <trkpt lat="47.38172" lon="2.88148">
        <ele>151.987996</ele>
        <time>2021-09-10T06:36:50.000Z</time>
      </trkpt>
      <trkpt lat="47.38167" lon="2.88149">
        <ele>151.95131</ele>
        <time>2021-09-10T06:36:51.000Z</time>
      </trkpt>
      <trkpt lat="47.38163" lon="2.88157">
        <ele>151.904082</ele>
        <time>2021-09-10T06:36:52.000Z</time>
      </trkpt>
      <trkpt lat="47.3816" lon="2.88174">
        <ele>151.82108</ele>
        <time>2021-09-10T06:36:54.000Z</time>
      </trkpt>
      <trkpt lat="47.38157" lon="2.88192">
        <ele>151.734468</ele>
        <time>2021-09-10T06:36:56.000Z</time>
      </trkpt>
      <trkpt lat="47.38156" lon="2.88205">
        <ele>151.67502</ele>
        <time>2021-09-10T06:36:58.000Z</time>
      </trkpt>
      <trkpt lat="47.38146" lon="2.88207">
        <ele>151.605022</ele>
        <time>2021-09-10T06:37:01.000Z</time>
      </trkpt>
      <trkpt lat="47.38141" lon="2.88208">
        <ele>151.570999</ele>
        <time>2021-09-10T06:37:02.000Z</time>
      </trkpt>
      <trkpt lat="47.38129" lon="2.88204">
        <ele>151.490542</ele>
        <time>2021-09-10T06:37:04.000Z</time>
      </trkpt>
      <trkpt lat="47.38096" lon="2.88184">
        <ele>151.241462</ele>
        <time>2021-09-10T06:37:10.000Z</time>
      </trkpt>
      <trkpt lat="47.38058" lon="2.8816">
        <ele>150.957045</ele>
        <time>2021-09-10T06:37:17.000Z</time>
      </trkpt>
      <trkpt lat="47.38037" lon="2.88146">
        <ele>150.816697</ele>
        <time>2021-09-10T06:37:21.000Z</time>
      </trkpt>
      <trkpt lat="47.38022" lon="2.88137">
        <ele>150.765186</ele>
        <time>2021-09-10T06:37:24.000Z</time>
      </trkpt>
      <trkpt lat="47.38009" lon="2.88129">
        <ele>150.722164</ele>
        <time>2021-09-10T06:37:27.000Z</time>
      </trkpt>
      <trkpt lat="47.38003" lon="2.88125">
        <ele>150.702847</ele>
        <time>2021-09-10T06:37:29.000Z</time>
      </trkpt>
      <trkpt lat="47.37994" lon="2.88133">
        <ele>150.670382</ele>
        <time>2021-09-10T06:37:32.000Z</time>
      </trkpt>
      <trkpt lat="47.37987" lon="2.88136">
        <ele>150.645513</ele>
        <time>2021-09-10T06:37:34.000Z</time>
      </trkpt>
      <trkpt lat="47.37982" lon="2.88137">
        <ele>150.631745</ele>
        <time>2021-09-10T06:37:35.000Z</time>
      </trkpt>
      <trkpt lat="47.37968" lon="2.88132">
        <ele>150.58623</ele>
        <time>2021-09-10T06:37:38.000Z</time>
      </trkpt>
      <trkpt lat="47.3796" lon="2.8813">
        <ele>150.56075</ele>
        <time>2021-09-10T06:37:40.000Z</time>
      </trkpt>
      <trkpt lat="47.37954" lon="2.88131">
        <ele>150.542578</ele>
        <time>2021-09-10T06:37:41.000Z</time>
      </trkpt>
      <trkpt lat="47.37952" lon="2.8814">
        <ele>150.520763</ele>
        <time>2021-09-10T06:37:43.000Z</time>
      </trkpt>
      <trkpt lat="47.37947" lon="2.88161">
        <ele>150.474897</ele>
        <time>2021-09-10T06:37:47.000Z</time>
      </trkpt>
      <trkpt lat="47.37944" lon="2.88168">
        <ele>150.457245</ele>
        <time>2021-09-10T06:37:48.000Z</time>
      </trkpt>
      <trkpt lat="47.37934" lon="2.88163">
        <ele>150.42688</ele>
        <time>2021-09-10T06:37:50.000Z</time>
      </trkpt>
      <trkpt lat="47.37922" lon="2.88158">
        <ele>150.387963</ele>
        <time>2021-09-10T06:37:52.000Z</time>
      </trkpt>
      <trkpt lat="47.37908" lon="2.88151">
        <ele>150.341937</ele>
        <time>2021-09-10T06:37:54.000Z</time>
      </trkpt>
      <trkpt lat="47.3786" lon="2.88134">
        <ele>150.103302</ele>
        <time>2021-09-10T06:38:01.000Z</time>
      </trkpt>
      <trkpt lat="47.37824" lon="2.88122">
        <ele>149.872432</ele>
        <time>2021-09-10T06:38:07.000Z</time>
      </trkpt>
      <trkpt lat="47.37788" lon="2.88104">
        <ele>149.635986</ele>
        <time>2021-09-10T06:38:13.000Z</time>
      </trkpt>
      <trkpt lat="47.37753" lon="2.88082">
        <ele>149.403857</ele>
        <time>2021-09-10T06:38:19.000Z</time>
      </trkpt>
      <trkpt lat="47.37737" lon="2.8807">
        <ele>149.290927</ele>
        <time>2021-09-10T06:38:22.000Z</time>
      </trkpt>
      <trkpt lat="47.37725" lon="2.88062">
        <ele>149.214124</ele>
        <time>2021-09-10T06:38:24.000Z</time>
      </trkpt>
      <trkpt lat="47.37685" lon="2.88034">
        <ele>148.821474</ele>
        <time>2021-09-10T06:38:31.000Z</time>
      </trkpt>
      <trkpt lat="47.37649" lon="2.88008">
        <ele>148.451518</ele>
        <time>2021-09-10T06:38:37.000Z</time>
      </trkpt>
      <trkpt lat="47.37621" lon="2.87989">
        <ele>148.163246</ele>
        <time>2021-09-10T06:38:42.000Z</time>
      </trkpt>
      <trkpt lat="47.37593" lon="2.87956">
        <ele>147.825994</ele>
        <time>2021-09-10T06:38:48.000Z</time>
      </trkpt>
      <trkpt lat="47.37578" lon="2.87938">
        <ele>147.648703</ele>
        <time>2021-09-10T06:38:51.000Z</time>
      </trkpt>
      <trkpt lat="47.37566" lon="2.87925">
        <ele>147.514472</ele>
        <time>2021-09-10T06:38:53.000Z</time>
      </trkpt>
      <trkpt lat="47.37533" lon="2.87902">
        <ele>147.389283</ele>
        <time>2021-09-10T06:38:58.000Z</time>
      </trkpt>
      <trkpt lat="47.37487" lon="2.8788">
        <ele>147.254332</ele>
        <time>2021-09-10T06:39:05.000Z</time>
      </trkpt>
      <trkpt lat="47.37444" lon="2.8786">
        <ele>147.127236</ele>
        <time>2021-09-10T06:39:12.000Z</time>
      </trkpt>
      <trkpt lat="47.37407" lon="2.87847">
        <ele>147.020817</ele>
        <time>2021-09-10T06:39:18.000Z</time>
      </trkpt>
      <trkpt lat="47.37401" lon="2.87846">
        <ele>147.005654</ele>
        <time>2021-09-10T06:39:19.000Z</time>
      </trkpt>
      <trkpt lat="47.37391" lon="2.87843">
        <ele>146.984441</ele>
        <time>2021-09-10T06:39:21.000Z</time>
      </trkpt>
      <trkpt lat="47.37374" lon="2.87839">
        <ele>147.050731</ele>
        <time>2021-09-10T06:39:24.000Z</time>
      </trkpt>
      <trkpt lat="47.37331" lon="2.87827">
        <ele>147.218239</ele>
        <time>2021-09-10T06:39:31.000Z</time>
      </trkpt>
      <trkpt lat="47.37301" lon="2.8782">
        <ele>147.334153</ele>
        <time>2021-09-10T06:39:36.000Z</time>
      </trkpt>
      <trkpt lat="47.37271" lon="2.87812">
        <ele>147.450488</ele>
        <time>2021-09-10T06:39:41.000Z</time>
      </trkpt>
      <trkpt lat="47.37237" lon="2.87801">
        <ele>147.584219</ele>
        <time>2021-09-10T06:39:47.000Z</time>
      </trkpt>
      <trkpt lat="47.37209" lon="2.87789">
        <ele>147.679061</ele>
        <time>2021-09-10T06:39:52.000Z</time>
      </trkpt>
      <trkpt lat="47.3718" lon="2.87776">
        <ele>147.730995</ele>
        <time>2021-09-10T06:39:57.000Z</time>
      </trkpt>
      <trkpt lat="47.37156" lon="2.87767">
        <ele>147.774149</ele>
        <time>2021-09-10T06:40:01.000Z</time>
      </trkpt>
      <trkpt lat="47.37144" lon="2.87763">
        <ele>147.795701</ele>
        <time>2021-09-10T06:40:03.000Z</time>
      </trkpt>
      <trkpt lat="47.37138" lon="2.87761">
        <ele>147.806452</ele>
        <time>2021-09-10T06:40:04.000Z</time>
      </trkpt>
      <trkpt lat="47.371" lon="2.87755">
        <ele>147.871</ele>
        <time>2021-09-10T06:40:10.000Z</time>
      </trkpt>
      <trkpt lat="47.37062" lon="2.87752">
        <ele>147.937649</ele>
        <time>2021-09-10T06:40:16.000Z</time>
      </trkpt>
      <trkpt lat="47.37025" lon="2.87748">
        <ele>148.072139</ele>
        <time>2021-09-10T06:40:22.000Z</time>
      </trkpt>
      <trkpt lat="47.36989" lon="2.8774">
        <ele>148.315013</ele>
        <time>2021-09-10T06:40:28.000Z</time>
      </trkpt>
      <trkpt lat="47.36959" lon="2.87731">
        <ele>148.515843</ele>
        <time>2021-09-10T06:40:33.000Z</time>
      </trkpt>
      <trkpt lat="47.36934" lon="2.87723">
        <ele>148.687481</ele>
        <time>2021-09-10T06:40:38.000Z</time>
      </trkpt>
      <trkpt lat="47.36918" lon="2.87717">
        <ele>148.798464</ele>
        <time>2021-09-10T06:40:42.000Z</time>
      </trkpt>
      <trkpt lat="47.36913" lon="2.87714">
        <ele>148.829994</ele>
        <time>2021-09-10T06:40:43.000Z</time>
      </trkpt>
      <trkpt lat="47.36902" lon="2.87709">
        <ele>148.908361</ele>
        <time>2021-09-10T06:40:45.000Z</time>
      </trkpt>
      <trkpt lat="47.36896" lon="2.87706">
        <ele>148.953024</ele>
        <time>2021-09-10T06:40:46.000Z</time>
      </trkpt>
      <trkpt lat="47.36859" lon="2.87688">
        <ele>149.172768</ele>
        <time>2021-09-10T06:40:51.000Z</time>
      </trkpt>
      <trkpt lat="47.36818" lon="2.87669">
        <ele>149.168883</ele>
        <time>2021-09-10T06:40:57.000Z</time>
      </trkpt>
      <trkpt lat="47.3678" lon="2.87651">
        <ele>149.165301</ele>
        <time>2021-09-10T06:41:03.000Z</time>
      </trkpt>
      <trkpt lat="47.3675" lon="2.87636">
        <ele>149.162385</ele>
        <time>2021-09-10T06:41:08.000Z</time>
      </trkpt>
      <trkpt lat="47.36723" lon="2.87623">
        <ele>149.15984</ele>
        <time>2021-09-10T06:41:12.000Z</time>
      </trkpt>
      <trkpt lat="47.36685" lon="2.87597">
        <ele>149.057664</ele>
        <time>2021-09-10T06:41:18.000Z</time>
      </trkpt>
      <trkpt lat="47.36675" lon="2.87587">
        <ele>148.934811</ele>
        <time>2021-09-10T06:41:20.000Z</time>
      </trkpt>
      <trkpt lat="47.36664" lon="2.87577">
        <ele>148.815107</ele>
        <time>2021-09-10T06:41:22.000Z</time>
      </trkpt>
      <trkpt lat="47.36659" lon="2.87572">
        <ele>148.757768</ele>
        <time>2021-09-10T06:41:23.000Z</time>
      </trkpt>
      <trkpt lat="47.36639" lon="2.87553">
        <ele>148.528874</ele>
        <time>2021-09-10T06:41:27.000Z</time>
      </trkpt>
      <trkpt lat="47.36622" lon="2.87537">
        <ele>148.332682</ele>
        <time>2021-09-10T06:41:30.000Z</time>
      </trkpt>
      <trkpt lat="47.36611" lon="2.87527">
        <ele>148.207233</ele>
        <time>2021-09-10T06:41:32.000Z</time>
      </trkpt>
      <trkpt lat="47.36596" lon="2.87514">
        <ele>148.032626</ele>
        <time>2021-09-10T06:41:35.000Z</time>
      </trkpt>
      <trkpt lat="47.36587" lon="2.87506">
        <ele>147.93183</ele>
        <time>2021-09-10T06:41:37.000Z</time>
      </trkpt>
      <trkpt lat="47.36582" lon="2.87501">
        <ele>147.876351</ele>
        <time>2021-09-10T06:41:38.000Z</time>
      </trkpt>
      <trkpt lat="47.36576" lon="2.87496">
        <ele>147.808375</ele>
        <time>2021-09-10T06:41:39.000Z</time>
      </trkpt>
      <trkpt lat="47.36555" lon="2.87477">
        <ele>147.572795</ele>
        <time>2021-09-10T06:41:43.000Z</time>
      </trkpt>
      <trkpt lat="47.36543" lon="2.87469">
        <ele>147.444325</ele>
        <time>2021-09-10T06:41:45.000Z</time>
      </trkpt>
      <trkpt lat="47.36525" lon="2.87457">
        <ele>147.320235</ele>
        <time>2021-09-10T06:41:48.000Z</time>
      </trkpt>
      <trkpt lat="47.36518" lon="2.87453">
        <ele>147.282759</ele>
        <time>2021-09-10T06:41:49.000Z</time>
      </trkpt>
      <trkpt lat="47.36512" lon="2.87449">
        <ele>147.245137</ele>
        <time>2021-09-10T06:41:50.000Z</time>
      </trkpt>
      <trkpt lat="47.36486" lon="2.87433">
        <ele>147.085535</ele>
        <time>2021-09-10T06:41:54.000Z</time>
      </trkpt>
      <trkpt lat="47.36454" lon="2.87412">
        <ele>146.892388</ele>
        <time>2021-09-10T06:41:59.000Z</time>
      </trkpt>
      <trkpt lat="47.36427" lon="2.87394">
        <ele>146.724503</ele>
        <time>2021-09-10T06:42:04.000Z</time>
      </trkpt>
      <trkpt lat="47.36391" lon="2.8737">
        <ele>146.502819</ele>
        <time>2021-09-10T06:42:10.000Z</time>
      </trkpt>
      <trkpt lat="47.36359" lon="2.87352">
        <ele>146.338975</ele>
        <time>2021-09-10T06:42:15.000Z</time>
      </trkpt>
      <trkpt lat="47.36333" lon="2.87339">
        <ele>146.222359</ele>
        <time>2021-09-10T06:42:19.000Z</time>
      </trkpt>
      <trkpt lat="47.36327" lon="2.87337">
        <ele>146.19588</ele>
        <time>2021-09-10T06:42:20.000Z</time>
      </trkpt>
      <trkpt lat="47.36309" lon="2.87328">
        <ele>146.115581</ele>
        <time>2021-09-10T06:42:23.000Z</time>
      </trkpt>
      <trkpt lat="47.36298" lon="2.87323">
        <ele>146.064687</ele>
        <time>2021-09-10T06:42:25.000Z</time>
      </trkpt>
      <trkpt lat="47.36263" lon="2.87294">
        <ele>145.893692</ele>
        <time>2021-09-10T06:42:31.000Z</time>
      </trkpt>
      <trkpt lat="47.36248" lon="2.87282">
        <ele>145.820858</ele>
        <time>2021-09-10T06:42:34.000Z</time>
      </trkpt>
      <trkpt lat="47.36215" lon="2.87253">
        <ele>145.656442</ele>
        <time>2021-09-10T06:42:40.000Z</time>
      </trkpt>
      <trkpt lat="47.3621" lon="2.87249">
        <ele>145.6455</ele>
        <time>2021-09-10T06:42:41.000Z</time>
      </trkpt>
      <trkpt lat="47.36194" lon="2.87236">
        <ele>145.637546</ele>
        <time>2021-09-10T06:42:44.000Z</time>
      </trkpt>
      <trkpt lat="47.36177" lon="2.87223">
        <ele>145.629094</ele>
        <time>2021-09-10T06:42:47.000Z</time>
      </trkpt>
      <trkpt lat="47.36147" lon="2.87206">
        <ele>145.614843</ele>
        <time>2021-09-10T06:42:52.000Z</time>
      </trkpt>
      <trkpt lat="47.36121" lon="2.87191">
        <ele>145.602367</ele>
        <time>2021-09-10T06:42:56.000Z</time>
      </trkpt>
      <trkpt lat="47.36096" lon="2.87179">
        <ele>145.590713</ele>
        <time>2021-09-10T06:43:00.000Z</time>
      </trkpt>
      <trkpt lat="47.36071" lon="2.87168">
        <ele>145.579299</ele>
        <time>2021-09-10T06:43:04.000Z</time>
      </trkpt>
      <trkpt lat="47.36058" lon="2.87161">
        <ele>145.573242</ele>
        <time>2021-09-10T06:43:06.000Z</time>
      </trkpt>
      <trkpt lat="47.36047" lon="2.87154">
        <ele>145.567633</ele>
        <time>2021-09-10T06:43:08.000Z</time>
      </trkpt>
      <trkpt lat="47.36016" lon="2.87137">
        <ele>145.481932</ele>
        <time>2021-09-10T06:43:13.000Z</time>
      </trkpt>
      <trkpt lat="47.35992" lon="2.87123">
        <ele>145.412149</ele>
        <time>2021-09-10T06:43:17.000Z</time>
      </trkpt>
      <trkpt lat="47.35954" lon="2.87103">
        <ele>145.302588</ele>
        <time>2021-09-10T06:43:23.000Z</time>
      </trkpt>
      <trkpt lat="47.35916" lon="2.87083">
        <ele>145.194982</ele>
        <time>2021-09-10T06:43:29.000Z</time>
      </trkpt>
      <trkpt lat="47.35886" lon="2.87066">
        <ele>145.107648</ele>
        <time>2021-09-10T06:43:34.000Z</time>
      </trkpt>
      <trkpt lat="47.35855" lon="2.8705">
        <ele>144.979832</ele>
        <time>2021-09-10T06:43:39.000Z</time>
      </trkpt>
      <trkpt lat="47.35829" lon="2.87026">
        <ele>144.844905</ele>
        <time>2021-09-10T06:43:44.000Z</time>
      </trkpt>
      <trkpt lat="47.35801" lon="2.87001">
        <ele>144.704335</ele>
        <time>2021-09-10T06:43:49.000Z</time>
      </trkpt>
      <trkpt lat="47.3579" lon="2.86991">
        <ele>144.647473</ele>
        <time>2021-09-10T06:43:51.000Z</time>
      </trkpt>
      <trkpt lat="47.3578" lon="2.8698">
        <ele>144.594537</ele>
        <time>2021-09-10T06:43:53.000Z</time>
      </trkpt>
      <trkpt lat="47.3577" lon="2.8697">
        <ele>144.540185</ele>
        <time>2021-09-10T06:43:55.000Z</time>
      </trkpt>
      <trkpt lat="47.35759" lon="2.86959">
        <ele>144.481973</ele>
        <time>2021-09-10T06:43:57.000Z</time>
      </trkpt>
      <trkpt lat="47.35732" lon="2.86932">
        <ele>144.340219</ele>
        <time>2021-09-10T06:44:02.000Z</time>
      </trkpt>
      <trkpt lat="47.35707" lon="2.86907">
        <ele>144.271856</ele>
        <time>2021-09-10T06:44:07.000Z</time>
      </trkpt>
      <trkpt lat="47.35689" lon="2.86888">
        <ele>144.243759</ele>
        <time>2021-09-10T06:44:11.000Z</time>
      </trkpt>
      <trkpt lat="47.35684" lon="2.86884">
        <ele>144.237309</ele>
        <time>2021-09-10T06:44:12.000Z</time>
      </trkpt>
      <trkpt lat="47.35663" lon="2.86863">
        <ele>144.205864</ele>
        <time>2021-09-10T06:44:16.000Z</time>
      </trkpt>
      <trkpt lat="47.35633" lon="2.86834">
        <ele>144.161364</ele>
        <time>2021-09-10T06:44:21.000Z</time>
      </trkpt>
      <trkpt lat="47.35606" lon="2.86813">
        <ele>144.122467</ele>
        <time>2021-09-10T06:44:26.000Z</time>
      </trkpt>
      <trkpt lat="47.35601" lon="2.86809">
        <ele>144.115742</ele>
        <time>2021-09-10T06:44:27.000Z</time>
      </trkpt>
      <trkpt lat="47.35583" lon="2.86796">
        <ele>144.091077</ele>
        <time>2021-09-10T06:44:30.000Z</time>
      </trkpt>
      <trkpt lat="47.35554" lon="2.86777">
        <ele>144.201114</ele>
        <time>2021-09-10T06:44:35.000Z</time>
      </trkpt>
      <trkpt lat="47.35523" lon="2.86761">
        <ele>144.43101</ele>
        <time>2021-09-10T06:44:40.000Z</time>
      </trkpt>
      <trkpt lat="47.35486" lon="2.86742">
        <ele>144.704438</ele>
        <time>2021-09-10T06:44:46.000Z</time>
      </trkpt>
      <trkpt lat="47.35455" lon="2.86725">
        <ele>144.938126</ele>
        <time>2021-09-10T06:44:51.000Z</time>
      </trkpt>
      <trkpt lat="47.35431" lon="2.8671">
        <ele>145.121292</ele>
        <time>2021-09-10T06:44:55.000Z</time>
      </trkpt>
      <trkpt lat="47.35407" lon="2.8669">
        <ele>145.31516</ele>
        <time>2021-09-10T06:44:59.000Z</time>
      </trkpt>
      <trkpt lat="47.35384" lon="2.86654">
        <ele>145.334321</ele>
        <time>2021-09-10T06:45:04.000Z</time>
      </trkpt>
      <trkpt lat="47.35357" lon="2.86611">
        <ele>145.328722</ele>
        <time>2021-09-10T06:45:10.000Z</time>
      </trkpt>
      <trkpt lat="47.35335" lon="2.86569">
        <ele>145.323697</ele>
        <time>2021-09-10T06:45:16.000Z</time>
      </trkpt>
      <trkpt lat="47.35324" lon="2.86549">
        <ele>145.321193</ele>
        <time>2021-09-10T06:45:19.000Z</time>
      </trkpt>
      <trkpt lat="47.35303" lon="2.86517">
        <ele>145.317049</ele>
        <time>2021-09-10T06:45:24.000Z</time>
      </trkpt>
      <trkpt lat="47.35274" lon="2.86474">
        <ele>145.404148</ele>
        <time>2021-09-10T06:45:30.000Z</time>
      </trkpt>
      <trkpt lat="47.35266" lon="2.86462">
        <ele>145.482152</ele>
        <time>2021-09-10T06:45:32.000Z</time>
      </trkpt>
      <trkpt lat="47.35254" lon="2.86446">
        <ele>145.584879</ele>
        <time>2021-09-10T06:45:34.000Z</time>
      </trkpt>
      <trkpt lat="47.3522" lon="2.86403">
        <ele>145.868652</ele>
        <time>2021-09-10T06:45:40.000Z</time>
      </trkpt>
      <trkpt lat="47.35203" lon="2.86383">
        <ele>146.012175</ele>
        <time>2021-09-10T06:45:45.000Z</time>
      </trkpt>
      <trkpt lat="47.35188" lon="2.86367">
        <ele>146.132597</ele>
        <time>2021-09-10T06:45:50.000Z</time>
      </trkpt>
      <trkpt lat="47.35165" lon="2.86351">
        <ele>146.295309</ele>
        <time>2021-09-10T06:45:54.000Z</time>
      </trkpt>
      <trkpt lat="47.35126" lon="2.86316">
        <ele>146.495446</ele>
        <time>2021-09-10T06:46:00.000Z</time>
      </trkpt>
      <trkpt lat="47.35081" lon="2.86289">
        <ele>146.565841</ele>
        <time>2021-09-10T06:46:07.000Z</time>
      </trkpt>
      <trkpt lat="47.35026" lon="2.86258">
        <ele>146.650378</ele>
        <time>2021-09-10T06:46:16.000Z</time>
      </trkpt>
      <trkpt lat="47.35014" lon="2.86251">
        <ele>146.668358</ele>
        <time>2021-09-10T06:46:18.000Z</time>
      </trkpt>
      <trkpt lat="47.34991" lon="2.86238">
        <ele>146.703737</ele>
        <time>2021-09-10T06:46:22.000Z</time>
      </trkpt>
      <trkpt lat="47.34945" lon="2.86212">
        <ele>146.743879</ele>
        <time>2021-09-10T06:46:30.000Z</time>
      </trkpt>
      <trkpt lat="47.34905" lon="2.86189">
        <ele>146.764296</ele>
        <time>2021-09-10T06:46:37.000Z</time>
      </trkpt>
      <trkpt lat="47.34859" lon="2.86163">
        <ele>146.787715</ele>
        <time>2021-09-10T06:46:45.000Z</time>
      </trkpt>
      <trkpt lat="47.34807" lon="2.86134">
        <ele>146.813833</ele>
        <time>2021-09-10T06:46:54.000Z</time>
      </trkpt>
      <trkpt lat="47.34773" lon="2.86115">
        <ele>146.811057</ele>
        <time>2021-09-10T06:47:00.000Z</time>
      </trkpt>
      <trkpt lat="47.34721" lon="2.86085">
        <ele>146.806722</ele>
        <time>2021-09-10T06:47:09.000Z</time>
      </trkpt>
      <trkpt lat="47.34669" lon="2.86055">
        <ele>146.802384</ele>
        <time>2021-09-10T06:47:18.000Z</time>
      </trkpt>
      <trkpt lat="47.34663" lon="2.86052">
        <ele>146.801905</ele>
        <time>2021-09-10T06:47:19.000Z</time>
      </trkpt>
      <trkpt lat="47.34617" lon="2.86026">
        <ele>146.823008</ele>
        <time>2021-09-10T06:47:27.000Z</time>
      </trkpt>
      <trkpt lat="47.34571" lon="2.86">
        <ele>146.869593</ele>
        <time>2021-09-10T06:47:35.000Z</time>
      </trkpt>
      <trkpt lat="47.34521" lon="2.85979">
        <ele>146.91792</ele>
        <time>2021-09-10T06:47:43.000Z</time>
      </trkpt>
      <trkpt lat="47.34478" lon="2.85966">
        <ele>146.959696</ele>
        <time>2021-09-10T06:47:50.000Z</time>
      </trkpt>
      <trkpt lat="47.34427" lon="2.85956">
        <ele>147.116057</ele>
        <time>2021-09-10T06:47:58.000Z</time>
      </trkpt>
      <trkpt lat="47.34389" lon="2.85949">
        <ele>147.253549</ele>
        <time>2021-09-10T06:48:04.000Z</time>
      </trkpt>
      <trkpt lat="47.34377" lon="2.85945">
        <ele>147.30052</ele>
        <time>2021-09-10T06:48:06.000Z</time>
      </trkpt>
      <trkpt lat="47.34344" lon="2.85944">
        <ele>147.419126</ele>
        <time>2021-09-10T06:48:11.000Z</time>
      </trkpt>
      <trkpt lat="47.34291" lon="2.85939">
        <ele>147.608585</ele>
        <time>2021-09-10T06:48:19.000Z</time>
      </trkpt>
      <trkpt lat="47.34246" lon="2.85934">
        <ele>147.771368</ele>
        <time>2021-09-10T06:48:26.000Z</time>
      </trkpt>
      <trkpt lat="47.34202" lon="2.8593">
        <ele>147.930211</ele>
        <time>2021-09-10T06:48:33.000Z</time>
      </trkpt>
      <trkpt lat="47.34159" lon="2.85926">
        <ele>148.087609</ele>
        <time>2021-09-10T06:48:40.000Z</time>
      </trkpt>
      <trkpt lat="47.34104" lon="2.8592">
        <ele>148.311536</ele>
        <time>2021-09-10T06:48:49.000Z</time>
      </trkpt>
      <trkpt lat="47.34098" lon="2.8592">
        <ele>148.35821</ele>
        <time>2021-09-10T06:48:50.000Z</time>
      </trkpt>
      <trkpt lat="47.34073" lon="2.85917">
        <ele>148.545699</ele>
        <time>2021-09-10T06:48:54.000Z</time>
      </trkpt>
      <trkpt lat="47.34061" lon="2.85921">
        <ele>148.63705</ele>
        <time>2021-09-10T06:48:56.000Z</time>
      </trkpt>
      <trkpt lat="47.34037" lon="2.85932">
        <ele>148.830216</ele>
        <time>2021-09-10T06:49:00.000Z</time>
      </trkpt>
      <trkpt lat="47.34031" lon="2.85933">
        <ele>148.877832</ele>
        <time>2021-09-10T06:49:01.000Z</time>
      </trkpt>
      <trkpt lat="47.34013" lon="2.85937">
        <ele>149.013628</ele>
        <time>2021-09-10T06:49:04.000Z</time>
      </trkpt>
      <trkpt lat="47.34006" lon="2.85943">
        <ele>149.080348</ele>
        <time>2021-09-10T06:49:06.000Z</time>
      </trkpt>
      <trkpt lat="47.33996" lon="2.85944">
        <ele>149.15314</ele>
        <time>2021-09-10T06:49:08.000Z</time>
      </trkpt>
      <trkpt lat="47.33987" lon="2.85943">
        <ele>149.219761</ele>
        <time>2021-09-10T06:49:10.000Z</time>
      </trkpt>
      <trkpt lat="47.33954" lon="2.85939">
        <ele>149.478806</ele>
        <time>2021-09-10T06:49:18.000Z</time>
      </trkpt>
      <trkpt lat="47.3393" lon="2.85937">
        <ele>149.646712</ele>
        <time>2021-09-10T06:49:24.000Z</time>
      </trkpt>
      <trkpt lat="47.33904" lon="2.85935">
        <ele>149.705466</ele>
        <time>2021-09-10T06:49:29.000Z</time>
      </trkpt>
      <trkpt lat="47.33899" lon="2.85934">
        <ele>149.716848</ele>
        <time>2021-09-10T06:49:30.000Z</time>
      </trkpt>
      <trkpt lat="47.3389" lon="2.85934">
        <ele>149.738901</ele>
        <time>2021-09-10T06:49:32.000Z</time>
      </trkpt>
      <trkpt lat="47.33877" lon="2.85933">
        <ele>149.768398</ele>
        <time>2021-09-10T06:49:35.000Z</time>
      </trkpt>
      <trkpt lat="47.33871" lon="2.85932">
        <ele>149.783725</ele>
        <time>2021-09-10T06:49:39.000Z</time>
      </trkpt>
      <trkpt lat="47.33869" lon="2.85932">
        <ele>149.786509</ele>
        <time>2021-09-10T06:49:51.000Z</time>
      </trkpt>
      <trkpt lat="47.33864" lon="2.85935">
        <ele>149.800568</ele>
        <time>2021-09-10T06:49:53.000Z</time>
      </trkpt>
      <trkpt lat="47.33845" lon="2.85937">
        <ele>149.842689</ele>
        <time>2021-09-10T06:49:57.000Z</time>
      </trkpt>
      <trkpt lat="47.33835" lon="2.85936">
        <ele>149.867523</ele>
        <time>2021-09-10T06:49:59.000Z</time>
      </trkpt>
      <trkpt lat="47.33817" lon="2.85935">
        <ele>149.909532</ele>
        <time>2021-09-10T06:50:02.000Z</time>
      </trkpt>
      <trkpt lat="47.33783" lon="2.85955">
        <ele>149.993229</ele>
        <time>2021-09-10T06:50:07.000Z</time>
      </trkpt>
      <trkpt lat="47.33756" lon="2.85972">
        <ele>150.041301</ele>
        <time>2021-09-10T06:50:12.000Z</time>
      </trkpt>
      <trkpt lat="47.33746" lon="2.85983">
        <ele>149.969082</ele>
        <time>2021-09-10T06:50:13.000Z</time>
      </trkpt>
      <trkpt lat="47.33745" lon="2.8599">
        <ele>149.936158</ele>
        <time>2021-09-10T06:50:14.000Z</time>
      </trkpt>
      <trkpt lat="47.33743" lon="2.86006">
        <ele>149.869396</ele>
        <time>2021-09-10T06:50:16.000Z</time>
      </trkpt>
      <trkpt lat="47.33738" lon="2.86058">
        <ele>149.652785</ele>
        <time>2021-09-10T06:50:22.000Z</time>
      </trkpt>
      <trkpt lat="47.33737" lon="2.86067">
        <ele>149.614194</ele>
        <time>2021-09-10T06:50:23.000Z</time>
      </trkpt>
      <trkpt lat="47.33735" lon="2.86093">
        <ele>149.504198</ele>
        <time>2021-09-10T06:50:27.000Z</time>
      </trkpt>
      <trkpt lat="47.33729" lon="2.86153">
        <ele>149.253945</ele>
        <time>2021-09-10T06:50:33.000Z</time>
      </trkpt>
      <trkpt lat="47.33725" lon="2.86204">
        <ele>149.038982</ele>
        <time>2021-09-10T06:50:39.000Z</time>
      </trkpt>
      <trkpt lat="47.33719" lon="2.86262">
        <ele>148.932148</ele>
        <time>2021-09-10T06:50:46.000Z</time>
      </trkpt>
      <trkpt lat="47.33712" lon="2.86313">
        <ele>148.904526</ele>
        <time>2021-09-10T06:50:52.000Z</time>
      </trkpt>
      <trkpt lat="47.33708" lon="2.86354">
        <ele>148.882103</ele>
        <time>2021-09-10T06:50:58.000Z</time>
      </trkpt>
      <trkpt lat="47.337" lon="2.86422">
        <ele>148.845211</ele>
        <time>2021-09-10T06:51:05.000Z</time>
      </trkpt>
      <trkpt lat="47.33696" lon="2.86481">
        <ele>148.813526</ele>
        <time>2021-09-10T06:51:12.000Z</time>
      </trkpt>
      <trkpt lat="47.33695" lon="2.86494">
        <ele>148.806185</ele>
        <time>2021-09-10T06:51:14.000Z</time>
      </trkpt>
      <trkpt lat="47.33693" lon="2.86499">
        <ele>148.802451</ele>
        <time>2021-09-10T06:51:15.000Z</time>
      </trkpt>
      <trkpt lat="47.33678" lon="2.86498">
        <ele>148.788486</ele>
        <time>2021-09-10T06:51:18.000Z</time>
      </trkpt>
      <trkpt lat="47.3366" lon="2.86498">
        <ele>148.772</ele>
        <time>2021-09-10T06:51:22.000Z</time>
      </trkpt>
      <trkpt lat="47.33648" lon="2.86499">
        <ele>148.760756</ele>
        <time>2021-09-10T06:51:23.000Z</time>
      </trkpt>
      <trkpt lat="47.33631" lon="2.86492">
        <ele>148.743897</ele>
        <time>2021-09-10T06:51:26.000Z</time>
      </trkpt>
      <trkpt lat="47.33614" lon="2.86485">
        <ele>148.727259</ele>
        <time>2021-09-10T06:51:29.000Z</time>
      </trkpt>
      <trkpt lat="47.33597" lon="2.86478">
        <ele>148.711106</ele>
        <time>2021-09-10T06:51:32.000Z</time>
      </trkpt>
      <trkpt lat="47.33592" lon="2.86477">
        <ele>148.70594</ele>
        <time>2021-09-10T06:51:34.000Z</time>
      </trkpt>
      <trkpt lat="47.33577" lon="2.8646">
        <ele>148.688064</ele>
        <time>2021-09-10T06:51:36.000Z</time>
      </trkpt>
      <trkpt lat="47.33573" lon="2.86452">
        <ele>148.682074</ele>
        <time>2021-09-10T06:51:37.000Z</time>
      </trkpt>
      <trkpt lat="47.33552" lon="2.86406">
        <ele>148.646551</ele>
        <time>2021-09-10T06:51:43.000Z</time>
      </trkpt>
      <trkpt lat="47.33534" lon="2.86365">
        <ele>148.558189</ele>
        <time>2021-09-10T06:51:48.000Z</time>
      </trkpt>
      <trkpt lat="47.33531" lon="2.86356">
        <ele>148.538389</ele>
        <time>2021-09-10T06:51:49.000Z</time>
      </trkpt>
      <trkpt lat="47.33527" lon="2.86348">
        <ele>148.517909</ele>
        <time>2021-09-10T06:51:50.000Z</time>
      </trkpt>
      <trkpt lat="47.33517" lon="2.86322">
        <ele>148.45629</ele>
        <time>2021-09-10T06:51:53.000Z</time>
      </trkpt>
      <trkpt lat="47.33511" lon="2.86315">
        <ele>148.431936</ele>
        <time>2021-09-10T06:51:54.000Z</time>
      </trkpt>
      <trkpt lat="47.33499" lon="2.86305">
        <ele>148.390957</ele>
        <time>2021-09-10T06:51:56.000Z</time>
      </trkpt>
      <trkpt lat="47.33466" lon="2.86283">
        <ele>148.283993</ele>
        <time>2021-09-10T06:52:02.000Z</time>
      </trkpt>
      <trkpt lat="47.33429" lon="2.86265">
        <ele>148.165839</ele>
        <time>2021-09-10T06:52:07.000Z</time>
      </trkpt>
      <trkpt lat="47.33388" lon="2.86259">
        <ele>148.145985</ele>
        <time>2021-09-10T06:52:13.000Z</time>
      </trkpt>
      <trkpt lat="47.33349" lon="2.86258">
        <ele>148.235262</ele>
        <time>2021-09-10T06:52:19.000Z</time>
      </trkpt>
      <trkpt lat="47.33316" lon="2.86264">
        <ele>148.312669</ele>
        <time>2021-09-10T06:52:24.000Z</time>
      </trkpt>
      <trkpt lat="47.33268" lon="2.86274">
        <ele>148.423287</ele>
        <time>2021-09-10T06:52:31.000Z</time>
      </trkpt>
      <trkpt lat="47.33219" lon="2.86295">
        <ele>148.507653</ele>
        <time>2021-09-10T06:52:39.000Z</time>
      </trkpt>
      <trkpt lat="47.33182" lon="2.86306">
        <ele>148.481683</ele>
        <time>2021-09-10T06:52:45.000Z</time>
      </trkpt>
      <trkpt lat="47.33144" lon="2.86311">
        <ele>148.455867</ele>
        <time>2021-09-10T06:52:51.000Z</time>
      </trkpt>
      <trkpt lat="47.33132" lon="2.8631">
        <ele>148.447259</ele>
        <time>2021-09-10T06:52:53.000Z</time>
      </trkpt>
      <trkpt lat="47.33113" lon="2.86308">
        <ele>148.434176</ele>
        <time>2021-09-10T06:52:56.000Z</time>
      </trkpt>
      <trkpt lat="47.331" lon="2.86307">
        <ele>148.425499</ele>
        <time>2021-09-10T06:52:58.000Z</time>
      </trkpt>
      <trkpt lat="47.33081" lon="2.86308">
        <ele>148.412636</ele>
        <time>2021-09-10T06:53:01.000Z</time>
      </trkpt>
      <trkpt lat="47.33025" lon="2.86313">
        <ele>148.367106</ele>
        <time>2021-09-10T06:53:10.000Z</time>
      </trkpt>
      <trkpt lat="47.32975" lon="2.86318">
        <ele>148.320823</ele>
        <time>2021-09-10T06:53:18.000Z</time>
      </trkpt>
      <trkpt lat="47.32951" lon="2.86322">
        <ele>148.298274</ele>
        <time>2021-09-10T06:53:22.000Z</time>
      </trkpt>
      <trkpt lat="47.32946" lon="2.86323">
        <ele>148.293014</ele>
        <time>2021-09-10T06:53:23.000Z</time>
      </trkpt>
      <trkpt lat="47.32901" lon="2.86332">
        <ele>148.25054</ele>
        <time>2021-09-10T06:53:31.000Z</time>
      </trkpt>
      <trkpt lat="47.32847" lon="2.86331">
        <ele>148.268222</ele>
        <time>2021-09-10T06:53:40.000Z</time>
      </trkpt>
      <trkpt lat="47.32835" lon="2.86328">
        <ele>148.289466</ele>
        <time>2021-09-10T06:53:42.000Z</time>
      </trkpt>
      <trkpt lat="47.32817" lon="2.86323">
        <ele>148.320978</ele>
        <time>2021-09-10T06:53:45.000Z</time>
      </trkpt>
      <trkpt lat="47.32807" lon="2.86311">
        <ele>148.34356</ele>
        <time>2021-09-10T06:53:47.000Z</time>
      </trkpt>
      <trkpt lat="47.32798" lon="2.86298">
        <ele>148.365234</ele>
        <time>2021-09-10T06:53:49.000Z</time>
      </trkpt>
      <trkpt lat="47.32772" lon="2.8626">
        <ele>148.429425</ele>
        <time>2021-09-10T06:53:55.000Z</time>
      </trkpt>
      <trkpt lat="47.32768" lon="2.86254">
        <ele>148.4396</ele>
        <time>2021-09-10T06:53:56.000Z</time>
      </trkpt>
      <trkpt lat="47.32761" lon="2.86253">
        <ele>148.450515</ele>
        <time>2021-09-10T06:53:57.000Z</time>
      </trkpt>
      <trkpt lat="47.32757" lon="2.86258">
        <ele>148.460536</ele>
        <time>2021-09-10T06:53:58.000Z</time>
      </trkpt>
      <trkpt lat="47.32752" lon="2.86264">
        <ele>148.472025</ele>
        <time>2021-09-10T06:53:59.000Z</time>
      </trkpt>
      <trkpt lat="47.32736" lon="2.86283">
        <ele>148.507967</ele>
        <time>2021-09-10T06:54:02.000Z</time>
      </trkpt>
      <trkpt lat="47.32704" lon="2.8632">
        <ele>148.556044</ele>
        <time>2021-09-10T06:54:08.000Z</time>
      </trkpt>
      <trkpt lat="47.32701" lon="2.86324">
        <ele>148.559705</ele>
        <time>2021-09-10T06:54:09.000Z</time>
      </trkpt>
      <trkpt lat="47.32697" lon="2.86328">
        <ele>148.56337</ele>
        <time>2021-09-10T06:54:10.000Z</time>
      </trkpt>
      <trkpt lat="47.3269" lon="2.86338">
        <ele>148.571241</ele>
        <time>2021-09-10T06:54:12.000Z</time>
      </trkpt>
      <trkpt lat="47.32685" lon="2.86344">
        <ele>148.576183</ele>
        <time>2021-09-10T06:54:13.000Z</time>
      </trkpt>
      <trkpt lat="47.3268" lon="2.86352">
        <ele>148.581796</ele>
        <time>2021-09-10T06:54:14.000Z</time>
      </trkpt>
      <trkpt lat="47.32667" lon="2.86377">
        <ele>148.599319</ele>
        <time>2021-09-10T06:54:17.000Z</time>
      </trkpt>
      <trkpt lat="47.32631" lon="2.86444">
        <ele>148.645819</ele>
        <time>2021-09-10T06:54:25.000Z</time>
      </trkpt>
      <trkpt lat="47.32597" lon="2.86507">
        <ele>148.674337</ele>
        <time>2021-09-10T06:54:33.000Z</time>
      </trkpt>
      <trkpt lat="47.32577" lon="2.86545">
        <ele>148.646878</ele>
        <time>2021-09-10T06:54:38.000Z</time>
      </trkpt>
      <trkpt lat="47.32565" lon="2.86554">
        <ele>148.635474</ele>
        <time>2021-09-10T06:54:40.000Z</time>
      </trkpt>
      <trkpt lat="47.32524" lon="2.86583">
        <ele>148.598412</ele>
        <time>2021-09-10T06:54:47.000Z</time>
      </trkpt>
      <trkpt lat="47.32473" lon="2.8662">
        <ele>148.550963</ele>
        <time>2021-09-10T06:54:56.000Z</time>
      </trkpt>
      <trkpt lat="47.32421" lon="2.86658">
        <ele>148.460377</ele>
        <time>2021-09-10T06:55:05.000Z</time>
      </trkpt>
      <trkpt lat="47.32409" lon="2.86666">
        <ele>148.435114</ele>
        <time>2021-09-10T06:55:07.000Z</time>
      </trkpt>
      <trkpt lat="47.32362" lon="2.86697">
        <ele>148.332</ele>
        <time>2021-09-10T06:55:15.000Z</time>
      </trkpt>
      <trkpt lat="47.32308" lon="2.86722">
        <ele>148.219226</ele>
        <time>2021-09-10T06:55:24.000Z</time>
      </trkpt>
      <trkpt lat="47.32302" lon="2.86725">
        <ele>148.20688</ele>
        <time>2021-09-10T06:55:25.000Z</time>
      </trkpt>
      <trkpt lat="47.32256" lon="2.86746">
        <ele>148.202449</ele>
        <time>2021-09-10T06:55:33.000Z</time>
      </trkpt>
      <trkpt lat="47.32222" lon="2.86762">
        <ele>148.23362</ele>
        <time>2021-09-10T06:55:39.000Z</time>
      </trkpt>
      <trkpt lat="47.3221" lon="2.86764">
        <ele>148.243921</ele>
        <time>2021-09-10T06:55:41.000Z</time>
      </trkpt>
      <trkpt lat="47.32205" lon="2.86769">
        <ele>148.2496</ele>
        <time>2021-09-10T06:55:42.000Z</time>
      </trkpt>
      <trkpt lat="47.32196" lon="2.86781">
        <ele>148.259865</ele>
        <time>2021-09-10T06:55:44.000Z</time>
      </trkpt>
      <trkpt lat="47.32169" lon="2.86799">
        <ele>148.285557</ele>
        <time>2021-09-10T06:55:49.000Z</time>
      </trkpt>
      <trkpt lat="47.32124" lon="2.86827">
        <ele>148.328049</ele>
        <time>2021-09-10T06:55:57.000Z</time>
      </trkpt>
      <trkpt lat="47.32086" lon="2.86854">
        <ele>148.324193</ele>
        <time>2021-09-10T06:56:04.000Z</time>
      </trkpt>
      <trkpt lat="47.32038" lon="2.86889">
        <ele>148.314289</ele>
        <time>2021-09-10T06:56:12.000Z</time>
      </trkpt>
      <trkpt lat="47.31997" lon="2.86924">
        <ele>148.305626</ele>
        <time>2021-09-10T06:56:19.000Z</time>
      </trkpt>
      <trkpt lat="47.31956" lon="2.86971">
        <ele>148.289899</ele>
        <time>2021-09-10T06:56:27.000Z</time>
      </trkpt>
      <trkpt lat="47.31932" lon="2.87">
        <ele>148.267484</ele>
        <time>2021-09-10T06:56:32.000Z</time>
      </trkpt>
      <trkpt lat="47.31922" lon="2.87012">
        <ele>148.258831</ele>
        <time>2021-09-10T06:56:34.000Z</time>
      </trkpt>
      <trkpt lat="47.3191" lon="2.87019">
        <ele>148.249119</ele>
        <time>2021-09-10T06:56:36.000Z</time>
      </trkpt>
      <trkpt lat="47.31892" lon="2.87027">
        <ele>148.235959</ele>
        <time>2021-09-10T06:56:39.000Z</time>
      </trkpt>
      <trkpt lat="47.31862" lon="2.8704">
        <ele>148.2131</ele>
        <time>2021-09-10T06:56:44.000Z</time>
      </trkpt>
      <trkpt lat="47.31851" lon="2.8705">
        <ele>148.204451</ele>
        <time>2021-09-10T06:56:46.000Z</time>
      </trkpt>
      <trkpt lat="47.31816" lon="2.87088">
        <ele>148.172984</ele>
        <time>2021-09-10T06:56:53.000Z</time>
      </trkpt>
      <trkpt lat="47.3178" lon="2.87129">
        <ele>148.149408</ele>
        <time>2021-09-10T06:57:00.000Z</time>
      </trkpt>
      <trkpt lat="47.31753" lon="2.8718">
        <ele>148.1278</ele>
        <time>2021-09-10T06:57:07.000Z</time>
      </trkpt>
      <trkpt lat="47.31723" lon="2.87237">
        <ele>148.103832</ele>
        <time>2021-09-10T06:57:15.000Z</time>
      </trkpt>
      <trkpt lat="47.3172" lon="2.87243">
        <ele>148.101056</ele>
        <time>2021-09-10T06:57:16.000Z</time>
      </trkpt>
      <trkpt lat="47.31709" lon="2.87264">
        <ele>148.092291</ele>
        <time>2021-09-10T06:57:19.000Z</time>
      </trkpt>
      <trkpt lat="47.3168" lon="2.87316">
        <ele>148.036149</ele>
        <time>2021-09-10T06:57:27.000Z</time>
      </trkpt>
      <trkpt lat="47.31661" lon="2.87349">
        <ele>147.979256</ele>
        <time>2021-09-10T06:57:32.000Z</time>
      </trkpt>
      <trkpt lat="47.31639" lon="2.87412">
        <ele>147.883354</ele>
        <time>2021-09-10T06:57:40.000Z</time>
      </trkpt>
      <trkpt lat="47.31626" lon="2.87448">
        <ele>147.828684</ele>
        <time>2021-09-10T06:57:45.000Z</time>
      </trkpt>
      <trkpt lat="47.31609" lon="2.87483">
        <ele>147.770576</ele>
        <time>2021-09-10T06:57:50.000Z</time>
      </trkpt>
      <trkpt lat="47.31592" lon="2.87523">
        <ele>147.688231</ele>
        <time>2021-09-10T06:57:55.000Z</time>
      </trkpt>
      <trkpt lat="47.31585" lon="2.8754">
        <ele>147.633978</ele>
        <time>2021-09-10T06:57:57.000Z</time>
      </trkpt>
      <trkpt lat="47.31571" lon="2.87579">
        <ele>147.50935</ele>
        <time>2021-09-10T06:58:02.000Z</time>
      </trkpt>
      <trkpt lat="47.31556" lon="2.87619">
        <ele>147.379331</ele>
        <time>2021-09-10T06:58:07.000Z</time>
      </trkpt>
      <trkpt lat="47.31553" lon="2.87628">
        <ele>147.352427</ele>
        <time>2021-09-10T06:58:08.000Z</time>
      </trkpt>
      <trkpt lat="47.31546" lon="2.87644">
        <ele>147.299807</ele>
        <time>2021-09-10T06:58:10.000Z</time>
      </trkpt>
      <trkpt lat="47.31542" lon="2.87651">
        <ele>147.272785</ele>
        <time>2021-09-10T06:58:11.000Z</time>
      </trkpt>
      <trkpt lat="47.31511" lon="2.87687">
        <ele>147.107576</ele>
        <time>2021-09-10T06:58:17.000Z</time>
      </trkpt>
      <trkpt lat="47.31482" lon="2.87738">
        <ele>147.025079</ele>
        <time>2021-09-10T06:58:24.000Z</time>
      </trkpt>
      <trkpt lat="47.31449" lon="2.87805">
        <ele>147.224835</ele>
        <time>2021-09-10T06:58:33.000Z</time>
      </trkpt>
      <trkpt lat="47.31427" lon="2.87851">
        <ele>147.358098</ele>
        <time>2021-09-10T06:58:39.000Z</time>
      </trkpt>
      <trkpt lat="47.31407" lon="2.87914">
        <ele>147.525358</ele>
        <time>2021-09-10T06:58:46.000Z</time>
      </trkpt>
      <trkpt lat="47.31388" lon="2.87977">
        <ele>147.67316</ele>
        <time>2021-09-10T06:58:53.000Z</time>
      </trkpt>
      <trkpt lat="47.3137" lon="2.88028">
        <ele>147.774482</ele>
        <time>2021-09-10T06:58:59.000Z</time>
      </trkpt>
      <trkpt lat="47.31354" lon="2.88067">
        <ele>147.857151</ele>
        <time>2021-09-10T06:59:04.000Z</time>
      </trkpt>
      <trkpt lat="47.31348" lon="2.8808">
        <ele>147.886353</ele>
        <time>2021-09-10T06:59:06.000Z</time>
      </trkpt>
      <trkpt lat="47.31342" lon="2.88094">
        <ele>147.915098</ele>
        <time>2021-09-10T06:59:08.000Z</time>
      </trkpt>
      <trkpt lat="47.31339" lon="2.88102">
        <ele>147.931634</ele>
        <time>2021-09-10T06:59:09.000Z</time>
      </trkpt>
      <trkpt lat="47.31326" lon="2.88133">
        <ele>147.998212</ele>
        <time>2021-09-10T06:59:13.000Z</time>
      </trkpt>
      <trkpt lat="47.31305" lon="2.88179">
        <ele>148.09073</ele>
        <time>2021-09-10T06:59:19.000Z</time>
      </trkpt>
      <trkpt lat="47.31294" lon="2.88201">
        <ele>148.084662</ele>
        <time>2021-09-10T06:59:22.000Z</time>
      </trkpt>
      <trkpt lat="47.3129" lon="2.88208">
        <ele>148.082753</ele>
        <time>2021-09-10T06:59:23.000Z</time>
      </trkpt>
      <trkpt lat="47.31262" lon="2.88266">
        <ele>148.067406</ele>
        <time>2021-09-10T06:59:30.000Z</time>
      </trkpt>
      <trkpt lat="47.31242" lon="2.88316">
        <ele>148.054611</ele>
        <time>2021-09-10T06:59:36.000Z</time>
      </trkpt>
      <trkpt lat="47.31216" lon="2.88382">
        <ele>148.037958</ele>
        <time>2021-09-10T06:59:44.000Z</time>
      </trkpt>
      <trkpt lat="47.31189" lon="2.88448">
        <ele>148.137581</ele>
        <time>2021-09-10T06:59:52.000Z</time>
      </trkpt>
      <trkpt lat="47.31177" lon="2.88469">
        <ele>148.187191</ele>
        <time>2021-09-10T06:59:55.000Z</time>
      </trkpt>
      <trkpt lat="47.3117" lon="2.88483">
        <ele>148.217807</ele>
        <time>2021-09-10T06:59:57.000Z</time>
      </trkpt>
      <trkpt lat="47.31156" lon="2.88484">
        <ele>148.256778</ele>
        <time>2021-09-10T06:59:59.000Z</time>
      </trkpt>
      <trkpt lat="47.31151" lon="2.88482">
        <ele>148.27155</ele>
        <time>2021-09-10T07:00:00.000Z</time>
      </trkpt>
      <trkpt lat="47.3114" lon="2.88479">
        <ele>148.300043</ele>
        <time>2021-09-10T07:00:02.000Z</time>
      </trkpt>
      <trkpt lat="47.31128" lon="2.88485">
        <ele>148.333147</ele>
        <time>2021-09-10T07:00:04.000Z</time>
      </trkpt>
      <trkpt lat="47.31127" lon="2.88502">
        <ele>148.363385</ele>
        <time>2021-09-10T07:00:06.000Z</time>
      </trkpt>
      <trkpt lat="47.31126" lon="2.8852">
        <ele>148.396362</ele>
        <time>2021-09-10T07:00:08.000Z</time>
      </trkpt>
      <trkpt lat="47.31119" lon="2.88603">
        <ele>148.497351</ele>
        <time>2021-09-10T07:00:17.000Z</time>
      </trkpt>
      <trkpt lat="47.31118" lon="2.88612">
        <ele>148.487495</ele>
        <time>2021-09-10T07:00:18.000Z</time>
      </trkpt>
      <trkpt lat="47.31111" lon="2.88697">
        <ele>148.398191</ele>
        <time>2021-09-10T07:00:27.000Z</time>
      </trkpt>
      <trkpt lat="47.31105" lon="2.88771">
        <ele>148.321155</ele>
        <time>2021-09-10T07:00:35.000Z</time>
      </trkpt>
      <trkpt lat="47.31097" lon="2.88837">
        <ele>148.251404</ele>
        <time>2021-09-10T07:00:42.000Z</time>
      </trkpt>
      <trkpt lat="47.31087" lon="2.88889">
        <ele>148.233024</ele>
        <time>2021-09-10T07:00:48.000Z</time>
      </trkpt>
      <trkpt lat="47.31073" lon="2.88956">
        <ele>148.221656</ele>
        <time>2021-09-10T07:00:56.000Z</time>
      </trkpt>
      <trkpt lat="47.31071" lon="2.88965">
        <ele>148.220207</ele>
        <time>2021-09-10T07:00:57.000Z</time>
      </trkpt>
      <trkpt lat="47.31066" lon="2.8899">
        <ele>148.215976</ele>
        <time>2021-09-10T07:01:00.000Z</time>
      </trkpt>
      <trkpt lat="47.31058" lon="2.89013">
        <ele>148.211709</ele>
        <time>2021-09-10T07:01:03.000Z</time>
      </trkpt>
      <trkpt lat="47.31049" lon="2.89035">
        <ele>148.207505</ele>
        <time>2021-09-10T07:01:06.000Z</time>
      </trkpt>
      <trkpt lat="47.31046" lon="2.89042">
        <ele>148.20613</ele>
        <time>2021-09-10T07:01:07.000Z</time>
      </trkpt>
      <trkpt lat="47.31037" lon="2.89062">
        <ele>148.202223</ele>
        <time>2021-09-10T07:01:10.000Z</time>
      </trkpt>
      <trkpt lat="47.31021" lon="2.89099">
        <ele>148.223883</ele>
        <time>2021-09-10T07:01:15.000Z</time>
      </trkpt>
      <trkpt lat="47.31006" lon="2.89137">
        <ele>148.326561</ele>
        <time>2021-09-10T07:01:20.000Z</time>
      </trkpt>
      <trkpt lat="47.30977" lon="2.89201">
        <ele>148.506158</ele>
        <time>2021-09-10T07:01:28.000Z</time>
      </trkpt>
      <trkpt lat="47.30956" lon="2.89247">
        <ele>148.638301</ele>
        <time>2021-09-10T07:01:34.000Z</time>
      </trkpt>
      <trkpt lat="47.30945" lon="2.8927">
        <ele>148.702044</ele>
        <time>2021-09-10T07:01:37.000Z</time>
      </trkpt>
      <trkpt lat="47.30935" lon="2.89292">
        <ele>148.766588</ele>
        <time>2021-09-10T07:01:40.000Z</time>
      </trkpt>
      <trkpt lat="47.30925" lon="2.89312">
        <ele>148.820228</ele>
        <time>2021-09-10T07:01:43.000Z</time>
      </trkpt>
      <trkpt lat="47.30918" lon="2.89325">
        <ele>148.822876</ele>
        <time>2021-09-10T07:01:45.000Z</time>
      </trkpt>
      <trkpt lat="47.30915" lon="2.89332">
        <ele>148.824152</ele>
        <time>2021-09-10T07:01:46.000Z</time>
      </trkpt>
      <trkpt lat="47.30909" lon="2.89345">
        <ele>148.8268</ele>
        <time>2021-09-10T07:01:48.000Z</time>
      </trkpt>
      <trkpt lat="47.30898" lon="2.89363">
        <ele>148.830723</ele>
        <time>2021-09-10T07:01:51.000Z</time>
      </trkpt>
      <trkpt lat="47.30895" lon="2.89368">
        <ele>148.831937</ele>
        <time>2021-09-10T07:01:52.000Z</time>
      </trkpt>
      <trkpt lat="47.30881" lon="2.89387">
        <ele>148.836509</ele>
        <time>2021-09-10T07:01:55.000Z</time>
      </trkpt>
      <trkpt lat="47.30855" lon="2.89422">
        <ele>148.84497</ele>
        <time>2021-09-10T07:02:00.000Z</time>
      </trkpt>
      <trkpt lat="47.3083" lon="2.89456">
        <ele>148.853224</ele>
        <time>2021-09-10T07:02:05.000Z</time>
      </trkpt>
      <trkpt lat="47.30825" lon="2.89463">
        <ele>148.854771</ele>
        <time>2021-09-10T07:02:06.000Z</time>
      </trkpt>
      <trkpt lat="47.30802" lon="2.89495">
        <ele>148.862448</ele>
        <time>2021-09-10T07:02:11.000Z</time>
      </trkpt>
      <trkpt lat="47.30799" lon="2.89502">
        <ele>148.868063</ele>
        <time>2021-09-10T07:02:12.000Z</time>
      </trkpt>
      <trkpt lat="47.30789" lon="2.89522">
        <ele>148.899337</ele>
        <time>2021-09-10T07:02:15.000Z</time>
      </trkpt>
      <trkpt lat="47.30772" lon="2.8956">
        <ele>148.957113</ele>
        <time>2021-09-10T07:02:20.000Z</time>
      </trkpt>
      <trkpt lat="47.30769" lon="2.89567">
        <ele>148.968669</ele>
        <time>2021-09-10T07:02:21.000Z</time>
      </trkpt>
      <trkpt lat="47.30755" lon="2.89596">
        <ele>149.013619</ele>
        <time>2021-09-10T07:02:25.000Z</time>
      </trkpt>
      <trkpt lat="47.3074" lon="2.89635">
        <ele>149.071535</ele>
        <time>2021-09-10T07:02:30.000Z</time>
      </trkpt>
      <trkpt lat="47.30736" lon="2.89651">
        <ele>149.093802</ele>
        <time>2021-09-10T07:02:32.000Z</time>
      </trkpt>
      <trkpt lat="47.30732" lon="2.89665">
        <ele>149.112729</ele>
        <time>2021-09-10T07:02:34.000Z</time>
      </trkpt>
      <trkpt lat="47.3073" lon="2.89673">
        <ele>149.123224</ele>
        <time>2021-09-10T07:02:35.000Z</time>
      </trkpt>
      <trkpt lat="47.3072" lon="2.89706">
        <ele>149.17003</ele>
        <time>2021-09-10T07:02:39.000Z</time>
      </trkpt>
      <trkpt lat="47.3071" lon="2.89728">
        <ele>149.203775</ele>
        <time>2021-09-10T07:02:42.000Z</time>
      </trkpt>
      <trkpt lat="47.30703" lon="2.89743">
        <ele>149.270888</ele>
        <time>2021-09-10T07:02:44.000Z</time>
      </trkpt>
      <trkpt lat="47.30681" lon="2.89792">
        <ele>149.485819</ele>
        <time>2021-09-10T07:02:50.000Z</time>
      </trkpt>
      <trkpt lat="47.30672" lon="2.89814">
        <ele>149.581643</ele>
        <time>2021-09-10T07:02:53.000Z</time>
      </trkpt>
      <trkpt lat="47.30669" lon="2.89821">
        <ele>149.610364</ele>
        <time>2021-09-10T07:02:54.000Z</time>
      </trkpt>
      <trkpt lat="47.30663" lon="2.89833">
        <ele>149.662359</ele>
        <time>2021-09-10T07:02:56.000Z</time>
      </trkpt>
      <trkpt lat="47.3066" lon="2.89839">
        <ele>149.69168</ele>
        <time>2021-09-10T07:02:57.000Z</time>
      </trkpt>
      <trkpt lat="47.3064" lon="2.89885">
        <ele>149.892383</ele>
        <time>2021-09-10T07:03:03.000Z</time>
      </trkpt>
      <trkpt lat="47.30632" lon="2.89901">
        <ele>149.962831</ele>
        <time>2021-09-10T07:03:05.000Z</time>
      </trkpt>
      <trkpt lat="47.30621" lon="2.89923">
        <ele>150.060783</ele>
        <time>2021-09-10T07:03:07.000Z</time>
      </trkpt>
      <trkpt lat="47.306" lon="2.89968">
        <ele>150.216956</ele>
        <time>2021-09-10T07:03:12.000Z</time>
      </trkpt>
      <trkpt lat="47.30596" lon="2.89976">
        <ele>150.235912</ele>
        <time>2021-09-10T07:03:13.000Z</time>
      </trkpt>
      <trkpt lat="47.30592" lon="2.89985">
        <ele>150.255171</ele>
        <time>2021-09-10T07:03:14.000Z</time>
      </trkpt>
      <trkpt lat="47.30577" lon="2.90018">
        <ele>150.327658</ele>
        <time>2021-09-10T07:03:18.000Z</time>
      </trkpt>
      <trkpt lat="47.30544" lon="2.9009">
        <ele>150.486889</ele>
        <time>2021-09-10T07:03:27.000Z</time>
      </trkpt>
      <trkpt lat="47.30516" lon="2.90151">
        <ele>150.621553</ele>
        <time>2021-09-10T07:03:35.000Z</time>
      </trkpt>
      <trkpt lat="47.30485" lon="2.9022">
        <ele>150.831457</ele>
        <time>2021-09-10T07:03:44.000Z</time>
      </trkpt>
      <trkpt lat="47.30478" lon="2.90236">
        <ele>150.882585</ele>
        <time>2021-09-10T07:03:46.000Z</time>
      </trkpt>
      <trkpt lat="47.30468" lon="2.9025">
        <ele>150.937372</ele>
        <time>2021-09-10T07:03:48.000Z</time>
      </trkpt>
      <trkpt lat="47.30456" lon="2.90254">
        <ele>150.988704</ele>
        <time>2021-09-10T07:03:50.000Z</time>
      </trkpt>
      <trkpt lat="47.30437" lon="2.9026">
        <ele>151.06433</ele>
        <time>2021-09-10T07:03:53.000Z</time>
      </trkpt>
      <trkpt lat="47.30428" lon="2.90266">
        <ele>151.106883</ele>
        <time>2021-09-10T07:03:55.000Z</time>
      </trkpt>
      <trkpt lat="47.30428" lon="2.9028">
        <ele>151.1458</ele>
        <time>2021-09-10T07:03:56.000Z</time>
      </trkpt>
      <trkpt lat="47.3043" lon="2.90286">
        <ele>151.16385</ele>
        <time>2021-09-10T07:03:57.000Z</time>
      </trkpt>
      <trkpt lat="47.30435" lon="2.90298">
        <ele>151.20039</ele>
        <time>2021-09-10T07:03:59.000Z</time>
      </trkpt>
      <trkpt lat="47.30437" lon="2.90304">
        <ele>151.220228</ele>
        <time>2021-09-10T07:04:00.000Z</time>
      </trkpt>
      <trkpt lat="47.30441" lon="2.90312">
        <ele>151.247757</ele>
        <time>2021-09-10T07:04:01.000Z</time>
      </trkpt>
      <trkpt lat="47.30449" lon="2.90333">
        <ele>151.312706</ele>
        <time>2021-09-10T07:04:03.000Z</time>
      </trkpt>
      <trkpt lat="47.30472" lon="2.90387">
        <ele>151.285763</ele>
        <time>2021-09-10T07:04:09.000Z</time>
      </trkpt>
      <trkpt lat="47.30501" lon="2.90458">
        <ele>151.08927</ele>
        <time>2021-09-10T07:04:17.000Z</time>
      </trkpt>
      <trkpt lat="47.30504" lon="2.90466">
        <ele>151.065138</ele>
        <time>2021-09-10T07:04:18.000Z</time>
      </trkpt>
      <trkpt lat="47.30525" lon="2.90518">
        <ele>150.922267</ele>
        <time>2021-09-10T07:04:24.000Z</time>
      </trkpt>
      <trkpt lat="47.30532" lon="2.90534">
        <ele>150.876166</ele>
        <time>2021-09-10T07:04:26.000Z</time>
      </trkpt>
      <trkpt lat="47.30554" lon="2.90589">
        <ele>150.725728</ele>
        <time>2021-09-10T07:04:33.000Z</time>
      </trkpt>
      <trkpt lat="47.30582" lon="2.90655">
        <ele>150.55204</ele>
        <time>2021-09-10T07:04:41.000Z</time>
      </trkpt>
      <trkpt lat="47.30605" lon="2.90713">
        <ele>150.399515</ele>
        <time>2021-09-10T07:04:48.000Z</time>
      </trkpt>
      <trkpt lat="47.30632" lon="2.90777">
        <ele>150.230458</ele>
        <time>2021-09-10T07:04:56.000Z</time>
      </trkpt>
      <trkpt lat="47.30658" lon="2.90841">
        <ele>150.125281</ele>
        <time>2021-09-10T07:05:04.000Z</time>
      </trkpt>
      <trkpt lat="47.30679" lon="2.90892">
        <ele>150.085265</ele>
        <time>2021-09-10T07:05:10.000Z</time>
      </trkpt>
      <trkpt lat="47.30698" lon="2.90939">
        <ele>150.048377</ele>
        <time>2021-09-10T07:05:16.000Z</time>
      </trkpt>
      <trkpt lat="47.30705" lon="2.90954">
        <ele>150.036322</ele>
        <time>2021-09-10T07:05:18.000Z</time>
      </trkpt>
      <trkpt lat="47.3071" lon="2.90968">
        <ele>150.024992</ele>
        <time>2021-09-10T07:05:20.000Z</time>
      </trkpt>
      <trkpt lat="47.30718" lon="2.90988">
        <ele>150.009868</ele>
        <time>2021-09-10T07:05:22.000Z</time>
      </trkpt>
      <trkpt lat="47.30711" lon="2.91029">
        <ele>149.98111</ele>
        <time>2021-09-10T07:05:28.000Z</time>
      </trkpt>
      <trkpt lat="47.30701" lon="2.91071">
        <ele>150.035503</ele>
        <time>2021-09-10T07:05:34.000Z</time>
      </trkpt>
      <trkpt lat="47.3067" lon="2.91127">
        <ele>150.17278</ele>
        <time>2021-09-10T07:05:41.000Z</time>
      </trkpt>
      <trkpt lat="47.30643" lon="2.91161">
        <ele>150.270658</ele>
        <time>2021-09-10T07:05:47.000Z</time>
      </trkpt>
      <trkpt lat="47.30622" lon="2.91177">
        <ele>150.33789</ele>
        <time>2021-09-10T07:05:51.000Z</time>
      </trkpt>
      <trkpt lat="47.30617" lon="2.91181">
        <ele>150.353967</ele>
        <time>2021-09-10T07:05:52.000Z</time>
      </trkpt>
      <trkpt lat="47.30592" lon="2.912">
        <ele>150.432167</ele>
        <time>2021-09-10T07:05:57.000Z</time>
      </trkpt>
      <trkpt lat="47.30577" lon="2.91211">
        <ele>150.479175</ele>
        <time>2021-09-10T07:06:00.000Z</time>
      </trkpt>
      <trkpt lat="47.30567" lon="2.91219">
        <ele>150.501854</ele>
        <time>2021-09-10T07:06:02.000Z</time>
      </trkpt>
      <trkpt lat="47.30539" lon="2.9124">
        <ele>150.563424</ele>
        <time>2021-09-10T07:06:07.000Z</time>
      </trkpt>
      <trkpt lat="47.30527" lon="2.91248">
        <ele>150.589249</ele>
        <time>2021-09-10T07:06:09.000Z</time>
      </trkpt>
      <trkpt lat="47.30511" lon="2.91262">
        <ele>150.627152</ele>
        <time>2021-09-10T07:06:12.000Z</time>
      </trkpt>
      <trkpt lat="47.305" lon="2.91272">
        <ele>150.652328</ele>
        <time>2021-09-10T07:06:14.000Z</time>
      </trkpt>
      <trkpt lat="47.30484" lon="2.91289">
        <ele>150.691411</ele>
        <time>2021-09-10T07:06:17.000Z</time>
      </trkpt>
      <trkpt lat="47.30473" lon="2.91299">
        <ele>150.716826</ele>
        <time>2021-09-10T07:06:19.000Z</time>
      </trkpt>
      <trkpt lat="47.30458" lon="2.91314">
        <ele>150.753435</ele>
        <time>2021-09-10T07:06:22.000Z</time>
      </trkpt>
      <trkpt lat="47.30428" lon="2.91347">
        <ele>150.826432</ele>
        <time>2021-09-10T07:06:28.000Z</time>
      </trkpt>
      <trkpt lat="47.30404" lon="2.91375">
        <ele>150.926836</ele>
        <time>2021-09-10T07:06:33.000Z</time>
      </trkpt>
      <trkpt lat="47.30395" lon="2.91386">
        <ele>150.966719</ele>
        <time>2021-09-10T07:06:35.000Z</time>
      </trkpt>
      <trkpt lat="47.30387" lon="2.91395">
        <ele>151.001627</ele>
        <time>2021-09-10T07:06:37.000Z</time>
      </trkpt>
      <trkpt lat="47.30379" lon="2.91405">
        <ele>151.038331</ele>
        <time>2021-09-10T07:06:39.000Z</time>
      </trkpt>
      <trkpt lat="47.30374" lon="2.91411">
        <ele>151.058892</ele>
        <time>2021-09-10T07:06:40.000Z</time>
      </trkpt>
      <trkpt lat="47.30369" lon="2.91416">
        <ele>151.080011</ele>
        <time>2021-09-10T07:06:41.000Z</time>
      </trkpt>
      <trkpt lat="47.3036" lon="2.91428">
        <ele>151.122784</ele>
        <time>2021-09-10T07:06:43.000Z</time>
      </trkpt>
      <trkpt lat="47.30355" lon="2.91434">
        <ele>151.144728</ele>
        <time>2021-09-10T07:06:44.000Z</time>
      </trkpt>
      <trkpt lat="47.30331" lon="2.91462">
        <ele>151.249741</ele>
        <time>2021-09-10T07:06:49.000Z</time>
      </trkpt>
      <trkpt lat="47.30326" lon="2.91467">
        <ele>151.27086</ele>
        <time>2021-09-10T07:06:50.000Z</time>
      </trkpt>
      <trkpt lat="47.30307" lon="2.9149">
        <ele>151.355044</ele>
        <time>2021-09-10T07:06:54.000Z</time>
      </trkpt>
      <trkpt lat="47.30267" lon="2.91542">
        <ele>151.62058</ele>
        <time>2021-09-10T07:07:02.000Z</time>
      </trkpt>
      <trkpt lat="47.30247" lon="2.91568">
        <ele>151.797011</ele>
        <time>2021-09-10T07:07:06.000Z</time>
      </trkpt>
      <trkpt lat="47.30238" lon="2.9158">
        <ele>151.882354</ele>
        <time>2021-09-10T07:07:08.000Z</time>
      </trkpt>
      <trkpt lat="47.30215" lon="2.9161">
        <ele>152.090826</ele>
        <time>2021-09-10T07:07:13.000Z</time>
      </trkpt>
      <trkpt lat="47.30191" lon="2.91641">
        <ele>152.303432</ele>
        <time>2021-09-10T07:07:18.000Z</time>
      </trkpt>
      <trkpt lat="47.30186" lon="2.91648">
        <ele>152.345852</ele>
        <time>2021-09-10T07:07:19.000Z</time>
      </trkpt>
      <trkpt lat="47.30158" lon="2.91684">
        <ele>152.597855</ele>
        <time>2021-09-10T07:07:25.000Z</time>
      </trkpt>
      <trkpt lat="47.30154" lon="2.9169">
        <ele>152.638866</ele>
        <time>2021-09-10T07:07:26.000Z</time>
      </trkpt>
      <trkpt lat="47.30139" lon="2.91707">
        <ele>152.836851</ele>
        <time>2021-09-10T07:07:29.000Z</time>
      </trkpt>
      <trkpt lat="47.30133" lon="2.91712">
        <ele>152.910299</ele>
        <time>2021-09-10T07:07:30.000Z</time>
      </trkpt>
      <trkpt lat="47.30117" lon="2.9173">
        <ele>153.1347</ele>
        <time>2021-09-10T07:07:33.000Z</time>
      </trkpt>
      <trkpt lat="47.30087" lon="2.91762">
        <ele>153.546548</ele>
        <time>2021-09-10T07:07:39.000Z</time>
      </trkpt>
      <trkpt lat="47.30078" lon="2.91772">
        <ele>153.674975</ele>
        <time>2021-09-10T07:07:41.000Z</time>
      </trkpt>
      <trkpt lat="47.30059" lon="2.91791">
        <ele>153.934165</ele>
        <time>2021-09-10T07:07:45.000Z</time>
      </trkpt>
      <trkpt lat="47.3003" lon="2.91821">
        <ele>154.329885</ele>
        <time>2021-09-10T07:07:51.000Z</time>
      </trkpt>
      <trkpt lat="47.3002" lon="2.91831">
        <ele>154.46284</ele>
        <time>2021-09-10T07:07:53.000Z</time>
      </trkpt>
      <trkpt lat="47.30011" lon="2.91842">
        <ele>154.598063</ele>
        <time>2021-09-10T07:07:55.000Z</time>
      </trkpt>
      <trkpt lat="47.30002" lon="2.91851">
        <ele>154.708128</ele>
        <time>2021-09-10T07:07:57.000Z</time>
      </trkpt>
      <trkpt lat="47.29991" lon="2.91862">
        <ele>154.812662</ele>
        <time>2021-09-10T07:07:59.000Z</time>
      </trkpt>
      <trkpt lat="47.29971" lon="2.91882">
        <ele>155.015455</ele>
        <time>2021-09-10T07:08:03.000Z</time>
      </trkpt>
      <trkpt lat="47.29967" lon="2.91887">
        <ele>155.05946</ele>
        <time>2021-09-10T07:08:04.000Z</time>
      </trkpt>
      <trkpt lat="47.29952" lon="2.91902">
        <ele>155.204028</ele>
        <time>2021-09-10T07:08:07.000Z</time>
      </trkpt>
      <trkpt lat="47.29941" lon="2.91914">
        <ele>155.317498</ele>
        <time>2021-09-10T07:08:09.000Z</time>
      </trkpt>
      <trkpt lat="47.29909" lon="2.91947">
        <ele>155.640711</ele>
        <time>2021-09-10T07:08:15.000Z</time>
      </trkpt>
      <trkpt lat="47.29904" lon="2.91952">
        <ele>155.689008</ele>
        <time>2021-09-10T07:08:16.000Z</time>
      </trkpt>
      <trkpt lat="47.29883" lon="2.91974">
        <ele>155.900737</ele>
        <time>2021-09-10T07:08:20.000Z</time>
      </trkpt>
      <trkpt lat="47.29845" lon="2.92014">
        <ele>156.267574</ele>
        <time>2021-09-10T07:08:27.000Z</time>
      </trkpt>
      <trkpt lat="47.29822" lon="2.92041">
        <ele>156.484903</ele>
        <time>2021-09-10T07:08:32.000Z</time>
      </trkpt>
      <trkpt lat="47.29804" lon="2.92066">
        <ele>156.664168</ele>
        <time>2021-09-10T07:08:36.000Z</time>
      </trkpt>
      <trkpt lat="47.29793" lon="2.92087">
        <ele>156.800165</ele>
        <time>2021-09-10T07:08:39.000Z</time>
      </trkpt>
      <trkpt lat="47.29785" lon="2.92101">
        <ele>156.890398</ele>
        <time>2021-09-10T07:08:41.000Z</time>
      </trkpt>
      <trkpt lat="47.2977" lon="2.9213">
        <ele>157.070473</ele>
        <time>2021-09-10T07:08:45.000Z</time>
      </trkpt>
      <trkpt lat="47.29763" lon="2.92143">
        <ele>157.154088</ele>
        <time>2021-09-10T07:08:47.000Z</time>
      </trkpt>
      <trkpt lat="47.29751" lon="2.92166">
        <ele>157.29502</ele>
        <time>2021-09-10T07:08:50.000Z</time>
      </trkpt>
      <trkpt lat="47.29742" lon="2.92182">
        <ele>157.397198</ele>
        <time>2021-09-10T07:08:52.000Z</time>
      </trkpt>
      <trkpt lat="47.29729" lon="2.92206">
        <ele>157.552423</ele>
        <time>2021-09-10T07:08:55.000Z</time>
      </trkpt>
      <trkpt lat="47.29717" lon="2.92229">
        <ele>157.705045</ele>
        <time>2021-09-10T07:08:58.000Z</time>
      </trkpt>
      <trkpt lat="47.29703" lon="2.92251">
        <ele>157.857954</ele>
        <time>2021-09-10T07:09:01.000Z</time>
      </trkpt>
      <trkpt lat="47.29693" lon="2.92264">
        <ele>157.955503</ele>
        <time>2021-09-10T07:09:03.000Z</time>
      </trkpt>
      <trkpt lat="47.29659" lon="2.92306">
        <ele>158.293018</ele>
        <time>2021-09-10T07:09:10.000Z</time>
      </trkpt>
      <trkpt lat="47.29649" lon="2.92318">
        <ele>158.386616</ele>
        <time>2021-09-10T07:09:12.000Z</time>
      </trkpt>
      <trkpt lat="47.2964" lon="2.9233">
        <ele>158.48112</ele>
        <time>2021-09-10T07:09:14.000Z</time>
      </trkpt>
      <trkpt lat="47.29601" lon="2.92377">
        <ele>158.835471</ele>
        <time>2021-09-10T07:09:22.000Z</time>
      </trkpt>
      <trkpt lat="47.29571" lon="2.92414">
        <ele>158.930119</ele>
        <time>2021-09-10T07:09:28.000Z</time>
      </trkpt>
      <trkpt lat="47.29543" lon="2.92454">
        <ele>159.027663</ele>
        <time>2021-09-10T07:09:34.000Z</time>
      </trkpt>
      <trkpt lat="47.29507" lon="2.92507">
        <ele>159.150092</ele>
        <time>2021-09-10T07:09:42.000Z</time>
      </trkpt>
      <trkpt lat="47.29468" lon="2.92533">
        <ele>159.256344</ele>
        <time>2021-09-10T07:09:49.000Z</time>
      </trkpt>
      <trkpt lat="47.29434" lon="2.92572">
        <ele>158.99034</ele>
        <time>2021-09-10T07:09:56.000Z</time>
      </trkpt>
      <trkpt lat="47.2939" lon="2.92625">
        <ele>158.602709</ele>
        <time>2021-09-10T07:10:05.000Z</time>
      </trkpt>
      <trkpt lat="47.29386" lon="2.92631">
        <ele>158.560655</ele>
        <time>2021-09-10T07:10:06.000Z</time>
      </trkpt>
      <trkpt lat="47.29353" lon="2.92672">
        <ele>158.265152</ele>
        <time>2021-09-10T07:10:13.000Z</time>
      </trkpt>
      <trkpt lat="47.29309" lon="2.92725">
        <ele>157.855163</ele>
        <time>2021-09-10T07:10:22.000Z</time>
      </trkpt>
      <trkpt lat="47.29295" lon="2.92743">
        <ele>157.70759</ele>
        <time>2021-09-10T07:10:25.000Z</time>
      </trkpt>
      <trkpt lat="47.29252" lon="2.92796">
        <ele>157.272161</ele>
        <time>2021-09-10T07:10:34.000Z</time>
      </trkpt>
      <trkpt lat="47.29248" lon="2.92802">
        <ele>157.222741</ele>
        <time>2021-09-10T07:10:35.000Z</time>
      </trkpt>
      <trkpt lat="47.29205" lon="2.92854">
        <ele>156.786256</ele>
        <time>2021-09-10T07:10:44.000Z</time>
      </trkpt>
      <trkpt lat="47.29194" lon="2.92862">
        <ele>156.691239</ele>
        <time>2021-09-10T07:10:46.000Z</time>
      </trkpt>
      <trkpt lat="47.29151" lon="2.92897">
        <ele>156.095649</ele>
        <time>2021-09-10T07:10:54.000Z</time>
      </trkpt>
      <trkpt lat="47.29119" lon="2.92923">
        <ele>155.621566</ele>
        <time>2021-09-10T07:11:00.000Z</time>
      </trkpt>
      <trkpt lat="47.2908" lon="2.92954">
        <ele>155.040127</ele>
        <time>2021-09-10T07:11:07.000Z</time>
      </trkpt>
      <trkpt lat="47.29034" lon="2.92991">
        <ele>154.359199</ele>
        <time>2021-09-10T07:11:15.000Z</time>
      </trkpt>
      <trkpt lat="47.29015" lon="2.93016">
        <ele>154.195691</ele>
        <time>2021-09-10T07:11:19.000Z</time>
      </trkpt>
      <trkpt lat="47.29005" lon="2.9303">
        <ele>154.147605</ele>
        <time>2021-09-10T07:11:21.000Z</time>
      </trkpt>
      <trkpt lat="47.28978" lon="2.93071">
        <ele>154.006899</ele>
        <time>2021-09-10T07:11:27.000Z</time>
      </trkpt>
      <trkpt lat="47.28942" lon="2.93127">
        <ele>153.816699</ele>
        <time>2021-09-10T07:11:35.000Z</time>
      </trkpt>
      <trkpt lat="47.28911" lon="2.93176">
        <ele>153.65089</ele>
        <time>2021-09-10T07:11:42.000Z</time>
      </trkpt>
      <trkpt lat="47.28884" lon="2.93228">
        <ele>153.633673</ele>
        <time>2021-09-10T07:11:49.000Z</time>
      </trkpt>
      <trkpt lat="47.28852" lon="2.93297">
        <ele>153.670178</ele>
        <time>2021-09-10T07:11:58.000Z</time>
      </trkpt>
      <trkpt lat="47.28822" lon="2.93342">
        <ele>153.69801</ele>
        <time>2021-09-10T07:12:05.000Z</time>
      </trkpt>
      <trkpt lat="47.28791" lon="2.93388">
        <ele>153.726058</ele>
        <time>2021-09-10T07:12:12.000Z</time>
      </trkpt>
      <trkpt lat="47.28748" lon="2.93439">
        <ele>153.829439</ele>
        <time>2021-09-10T07:12:21.000Z</time>
      </trkpt>
      <trkpt lat="47.28743" lon="2.93445">
        <ele>153.840991</ele>
        <time>2021-09-10T07:12:22.000Z</time>
      </trkpt>
      <trkpt lat="47.28724" lon="2.93468">
        <ele>153.888372</ele>
        <time>2021-09-10T07:12:26.000Z</time>
      </trkpt>
      <trkpt lat="47.28709" lon="2.93485">
        <ele>153.923886</ele>
        <time>2021-09-10T07:12:29.000Z</time>
      </trkpt>
      <trkpt lat="47.28678" lon="2.93513">
        <ele>153.995666</ele>
        <time>2021-09-10T07:12:35.000Z</time>
      </trkpt>
      <trkpt lat="47.28636" lon="2.9355">
        <ele>154.09688</ele>
        <time>2021-09-10T07:12:43.000Z</time>
      </trkpt>
      <trkpt lat="47.2861" lon="2.93574">
        <ele>154.192118</ele>
        <time>2021-09-10T07:12:48.000Z</time>
      </trkpt>
      <trkpt lat="47.28569" lon="2.93616">
        <ele>154.343067</ele>
        <time>2021-09-10T07:12:56.000Z</time>
      </trkpt>
      <trkpt lat="47.28538" lon="2.93662">
        <ele>154.476087</ele>
        <time>2021-09-10T07:13:03.000Z</time>
      </trkpt>
      <trkpt lat="47.28502" lon="2.93724">
        <ele>154.628664</ele>
        <time>2021-09-10T07:13:12.000Z</time>
      </trkpt>
      <trkpt lat="47.28477" lon="2.93766">
        <ele>154.659246</ele>
        <time>2021-09-10T07:13:18.000Z</time>
      </trkpt>
      <trkpt lat="47.28453" lon="2.93807">
        <ele>154.689183</ele>
        <time>2021-09-10T07:13:24.000Z</time>
      </trkpt>
      <trkpt lat="47.28444" lon="2.93818">
        <ele>154.69908</ele>
        <time>2021-09-10T07:13:26.000Z</time>
      </trkpt>
      <trkpt lat="47.28427" lon="2.9383">
        <ele>154.714497</ele>
        <time>2021-09-10T07:13:29.000Z</time>
      </trkpt>
      <trkpt lat="47.2838" lon="2.93861">
        <ele>154.756883</ele>
        <time>2021-09-10T07:13:37.000Z</time>
      </trkpt>
      <trkpt lat="47.28328" lon="2.93895">
        <ele>154.694109</ele>
        <time>2021-09-10T07:13:46.000Z</time>
      </trkpt>
      <trkpt lat="47.28289" lon="2.9392">
        <ele>154.615677</ele>
        <time>2021-09-10T07:13:53.000Z</time>
      </trkpt>
      <trkpt lat="47.28249" lon="2.93942">
        <ele>154.536774</ele>
        <time>2021-09-10T07:14:00.000Z</time>
      </trkpt>
      <trkpt lat="47.28203" lon="2.93969">
        <ele>154.445682</ele>
        <time>2021-09-10T07:14:08.000Z</time>
      </trkpt>
      <trkpt lat="47.28163" lon="2.93991">
        <ele>154.414314</ele>
        <time>2021-09-10T07:14:15.000Z</time>
      </trkpt>
      <trkpt lat="47.2812" lon="2.94026">
        <ele>154.384171</ele>
        <time>2021-09-10T07:14:23.000Z</time>
      </trkpt>
      <trkpt lat="47.28074" lon="2.94065">
        <ele>154.350415</ele>
        <time>2021-09-10T07:14:32.000Z</time>
      </trkpt>
      <trkpt lat="47.2804" lon="2.94081">
        <ele>154.327972</ele>
        <time>2021-09-10T07:14:38.000Z</time>
      </trkpt>
      <trkpt lat="47.28003" lon="2.94092">
        <ele>154.482523</ele>
        <time>2021-09-10T07:14:44.000Z</time>
      </trkpt>
      <trkpt lat="47.27962" lon="2.94128">
        <ele>154.693083</ele>
        <time>2021-09-10T07:14:52.000Z</time>
      </trkpt>
      <trkpt lat="47.27927" lon="2.9416">
        <ele>154.878747</ele>
        <time>2021-09-10T07:14:59.000Z</time>
      </trkpt>
      <trkpt lat="47.27891" lon="2.94192">
        <ele>155.063716</ele>
        <time>2021-09-10T07:15:06.000Z</time>
      </trkpt>
      <trkpt lat="47.27881" lon="2.94201">
        <ele>155.116513</ele>
        <time>2021-09-10T07:15:08.000Z</time>
      </trkpt>
      <trkpt lat="47.27871" lon="2.9421">
        <ele>155.166537</ele>
        <time>2021-09-10T07:15:10.000Z</time>
      </trkpt>
      <trkpt lat="47.27824" lon="2.94251">
        <ele>155.385723</ele>
        <time>2021-09-10T07:15:19.000Z</time>
      </trkpt>
      <trkpt lat="47.27775" lon="2.94284">
        <ele>155.608096</ele>
        <time>2021-09-10T07:15:28.000Z</time>
      </trkpt>
      <trkpt lat="47.27769" lon="2.94287">
        <ele>155.631709</ele>
        <time>2021-09-10T07:15:29.000Z</time>
      </trkpt>
      <trkpt lat="47.27737" lon="2.94308">
        <ele>155.773872</ele>
        <time>2021-09-10T07:15:35.000Z</time>
      </trkpt>
      <trkpt lat="47.27726" lon="2.94316">
        <ele>155.82255</ele>
        <time>2021-09-10T07:15:37.000Z</time>
      </trkpt>
      <trkpt lat="47.27704" lon="2.9433">
        <ele>155.874466</ele>
        <time>2021-09-10T07:15:41.000Z</time>
      </trkpt>
      <trkpt lat="47.27661" lon="2.94361">
        <ele>155.921083</ele>
        <time>2021-09-10T07:15:49.000Z</time>
      </trkpt>
      <trkpt lat="47.27632" lon="2.94393">
        <ele>155.955823</ele>
        <time>2021-09-10T07:15:55.000Z</time>
      </trkpt>
      <trkpt lat="47.27594" lon="2.94449">
        <ele>156.008157</ele>
        <time>2021-09-10T07:16:04.000Z</time>
      </trkpt>
      <trkpt lat="47.27555" lon="2.94505">
        <ele>156.0568</ele>
        <time>2021-09-10T07:16:13.000Z</time>
      </trkpt>
      <trkpt lat="47.27551" lon="2.94511">
        <ele>156.061825</ele>
        <time>2021-09-10T07:16:14.000Z</time>
      </trkpt>
      <trkpt lat="47.27513" lon="2.9457">
        <ele>156.107525</ele>
        <time>2021-09-10T07:16:23.000Z</time>
      </trkpt>
      <trkpt lat="47.27475" lon="2.9463">
        <ele>156.154089</ele>
        <time>2021-09-10T07:16:32.000Z</time>
      </trkpt>
      <trkpt lat="47.27471" lon="2.94637">
        <ele>156.159097</ele>
        <time>2021-09-10T07:16:33.000Z</time>
      </trkpt>
      <trkpt lat="47.27459" lon="2.94657">
        <ele>156.174287</ele>
        <time>2021-09-10T07:16:36.000Z</time>
      </trkpt>
      <trkpt lat="47.27436" lon="2.947">
        <ele>156.206353</ele>
        <time>2021-09-10T07:16:42.000Z</time>
      </trkpt>
      <trkpt lat="47.27418" lon="2.94736">
        <ele>156.232688</ele>
        <time>2021-09-10T07:16:47.000Z</time>
      </trkpt>
      <trkpt lat="47.27388" lon="2.9479">
        <ele>156.273641</ele>
        <time>2021-09-10T07:16:55.000Z</time>
      </trkpt>
      <trkpt lat="47.2738" lon="2.94803">
        <ele>156.283601</ele>
        <time>2021-09-10T07:16:57.000Z</time>
      </trkpt>
      <trkpt lat="47.2737" lon="2.94823">
        <ele>156.298468</ele>
        <time>2021-09-10T07:17:00.000Z</time>
      </trkpt>
      <trkpt lat="47.2735" lon="2.94867">
        <ele>156.329711</ele>
        <time>2021-09-10T07:17:06.000Z</time>
      </trkpt>
      <trkpt lat="47.2733" lon="2.94901">
        <ele>156.322924</ele>
        <time>2021-09-10T07:17:11.000Z</time>
      </trkpt>
      <trkpt lat="47.27326" lon="2.94907">
        <ele>156.317445</ele>
        <time>2021-09-10T07:17:12.000Z</time>
      </trkpt>
      <trkpt lat="47.27309" lon="2.94933">
        <ele>156.296239</ele>
        <time>2021-09-10T07:17:16.000Z</time>
      </trkpt>
      <trkpt lat="47.27278" lon="2.94963">
        <ele>156.264045</ele>
        <time>2021-09-10T07:17:22.000Z</time>
      </trkpt>
      <trkpt lat="47.27262" lon="2.9498">
        <ele>156.246585</ele>
        <time>2021-09-10T07:17:26.000Z</time>
      </trkpt>
      <trkpt lat="47.27258" lon="2.94984">
        <ele>156.242653</ele>
        <time>2021-09-10T07:17:27.000Z</time>
      </trkpt>
      <trkpt lat="47.27237" lon="2.95001">
        <ele>156.221311</ele>
        <time>2021-09-10T07:17:32.000Z</time>
      </trkpt>
      <trkpt lat="47.27232" lon="2.95005">
        <ele>156.216469</ele>
        <time>2021-09-10T07:17:33.000Z</time>
      </trkpt>
      <trkpt lat="47.27199" lon="2.9503">
        <ele>156.183386</ele>
        <time>2021-09-10T07:17:40.000Z</time>
      </trkpt>
      <trkpt lat="47.27179" lon="2.95044">
        <ele>156.184731</ele>
        <time>2021-09-10T07:17:44.000Z</time>
      </trkpt>
      <trkpt lat="47.27175" lon="2.95046">
        <ele>156.185432</ele>
        <time>2021-09-10T07:17:45.000Z</time>
      </trkpt>
      <trkpt lat="47.2718" lon="2.95057">
        <ele>156.186876</ele>
        <time>2021-09-10T07:17:47.000Z</time>
      </trkpt>
      <trkpt lat="47.27184" lon="2.95062">
        <ele>156.187706</ele>
        <time>2021-09-10T07:17:48.000Z</time>
      </trkpt>
      <trkpt lat="47.27207" lon="2.95086">
        <ele>156.192396</ele>
        <time>2021-09-10T07:17:53.000Z</time>
      </trkpt>
      <trkpt lat="47.27243" lon="2.95125">
        <ele>156.199617</ele>
        <time>2021-09-10T07:18:00.000Z</time>
      </trkpt>
      <trkpt lat="47.27281" lon="2.95167">
        <ele>156.207483</ele>
        <time>2021-09-10T07:18:08.000Z</time>
      </trkpt>
      <trkpt lat="47.27293" lon="2.95184">
        <ele>156.210246</ele>
        <time>2021-09-10T07:18:11.000Z</time>
      </trkpt>
      <trkpt lat="47.27296" lon="2.9519">
        <ele>156.210199</ele>
        <time>2021-09-10T07:18:12.000Z</time>
      </trkpt>
      <trkpt lat="47.27297" lon="2.95199">
        <ele>156.206177</ele>
        <time>2021-09-10T07:18:13.000Z</time>
      </trkpt>
      <trkpt lat="47.27295" lon="2.95215">
        <ele>156.198282</ele>
        <time>2021-09-10T07:18:15.000Z</time>
      </trkpt>
      <trkpt lat="47.27291" lon="2.95233">
        <ele>156.18936</ele>
        <time>2021-09-10T07:18:17.000Z</time>
      </trkpt>
      <trkpt lat="47.27286" lon="2.9525">
        <ele>156.18062</ele>
        <time>2021-09-10T07:18:19.000Z</time>
      </trkpt>
      <trkpt lat="47.27276" lon="2.95301">
        <ele>156.155273</ele>
        <time>2021-09-10T07:18:25.000Z</time>
      </trkpt>
      <trkpt lat="47.27272" lon="2.95374">
        <ele>156.120707</ele>
        <time>2021-09-10T07:18:33.000Z</time>
      </trkpt>
      <trkpt lat="47.2728" lon="2.95437">
        <ele>156.090367</ele>
        <time>2021-09-10T07:18:40.000Z</time>
      </trkpt>
      <trkpt lat="47.27295" lon="2.95508">
        <ele>156.098245</ele>
        <time>2021-09-10T07:18:48.000Z</time>
      </trkpt>
      <trkpt lat="47.27314" lon="2.95584">
        <ele>156.114483</ele>
        <time>2021-09-10T07:18:57.000Z</time>
      </trkpt>
      <trkpt lat="47.2732" lon="2.9561">
        <ele>156.119917</ele>
        <time>2021-09-10T07:19:00.000Z</time>
      </trkpt>
      <trkpt lat="47.27325" lon="2.95626">
        <ele>156.123551</ele>
        <time>2021-09-10T07:19:02.000Z</time>
      </trkpt>
      <trkpt lat="47.27324" lon="2.95645">
        <ele>156.127231</ele>
        <time>2021-09-10T07:19:04.000Z</time>
      </trkpt>
      <trkpt lat="47.27321" lon="2.95652">
        <ele>156.128951</ele>
        <time>2021-09-10T07:19:05.000Z</time>
      </trkpt>
      <trkpt lat="47.27318" lon="2.95659">
        <ele>156.130691</ele>
        <time>2021-09-10T07:19:06.000Z</time>
      </trkpt>
      <trkpt lat="47.2731" lon="2.95672">
        <ele>156.134177</ele>
        <time>2021-09-10T07:19:08.000Z</time>
      </trkpt>
      <trkpt lat="47.27278" lon="2.95716">
        <ele>156.214927</ele>
        <time>2021-09-10T07:19:15.000Z</time>
      </trkpt>
      <trkpt lat="47.27246" lon="2.9576">
        <ele>156.328127</ele>
        <time>2021-09-10T07:19:22.000Z</time>
      </trkpt>
      <trkpt lat="47.27205" lon="2.95817">
        <ele>156.477044</ele>
        <time>2021-09-10T07:19:31.000Z</time>
      </trkpt>
      <trkpt lat="47.2717" lon="2.95868">
        <ele>156.606551</ele>
        <time>2021-09-10T07:19:39.000Z</time>
      </trkpt>
      <trkpt lat="47.27138" lon="2.95914">
        <ele>156.724267</ele>
        <time>2021-09-10T07:19:46.000Z</time>
      </trkpt>
      <trkpt lat="47.27103" lon="2.95963">
        <ele>156.853075</ele>
        <time>2021-09-10T07:19:54.000Z</time>
      </trkpt>
      <trkpt lat="47.27063" lon="2.96018">
        <ele>156.996758</ele>
        <time>2021-09-10T07:20:03.000Z</time>
      </trkpt>
      <trkpt lat="47.27028" lon="2.96066">
        <ele>157.115956</ele>
        <time>2021-09-10T07:20:11.000Z</time>
      </trkpt>
      <trkpt lat="47.26992" lon="2.96116">
        <ele>157.220807</ele>
        <time>2021-09-10T07:20:19.000Z</time>
      </trkpt>
      <trkpt lat="47.26955" lon="2.96167">
        <ele>157.327367</ele>
        <time>2021-09-10T07:20:27.000Z</time>
      </trkpt>
      <trkpt lat="47.26913" lon="2.96224">
        <ele>157.448901</ele>
        <time>2021-09-10T07:20:36.000Z</time>
      </trkpt>
      <trkpt lat="47.26908" lon="2.96231">
        <ele>157.462613</ele>
        <time>2021-09-10T07:20:37.000Z</time>
      </trkpt>
      <trkpt lat="47.2687" lon="2.96284">
        <ele>157.479592</ele>
        <time>2021-09-10T07:20:45.000Z</time>
      </trkpt>
      <trkpt lat="47.26841" lon="2.96323">
        <ele>157.489916</ele>
        <time>2021-09-10T07:20:51.000Z</time>
      </trkpt>
      <trkpt lat="47.26812" lon="2.96363">
        <ele>157.50028</ele>
        <time>2021-09-10T07:20:57.000Z</time>
      </trkpt>
      <trkpt lat="47.2677" lon="2.96421">
        <ele>157.517017</ele>
        <time>2021-09-10T07:21:06.000Z</time>
      </trkpt>
      <trkpt lat="47.26765" lon="2.96428">
        <ele>157.520004</ele>
        <time>2021-09-10T07:21:07.000Z</time>
      </trkpt>
      <trkpt lat="47.26727" lon="2.96479">
        <ele>157.542917</ele>
        <time>2021-09-10T07:21:15.000Z</time>
      </trkpt>
      <trkpt lat="47.26684" lon="2.96537">
        <ele>157.568862</ele>
        <time>2021-09-10T07:21:24.000Z</time>
      </trkpt>
      <trkpt lat="47.26642" lon="2.96593">
        <ele>157.593314</ele>
        <time>2021-09-10T07:21:33.000Z</time>
      </trkpt>
      <trkpt lat="47.26638" lon="2.966">
        <ele>157.585604</ele>
        <time>2021-09-10T07:21:34.000Z</time>
      </trkpt>
      <trkpt lat="47.26594" lon="2.96659">
        <ele>157.514282</ele>
        <time>2021-09-10T07:21:43.000Z</time>
      </trkpt>
      <trkpt lat="47.26556" lon="2.96711">
        <ele>157.451301</ele>
        <time>2021-09-10T07:21:51.000Z</time>
      </trkpt>
      <trkpt lat="47.26523" lon="2.96755">
        <ele>157.397981</ele>
        <time>2021-09-10T07:21:58.000Z</time>
      </trkpt>
      <trkpt lat="47.26481" lon="2.96812">
        <ele>157.350922</ele>
        <time>2021-09-10T07:22:07.000Z</time>
      </trkpt>
      <trkpt lat="47.26449" lon="2.96856">
        <ele>157.321775</ele>
        <time>2021-09-10T07:22:14.000Z</time>
      </trkpt>
      <trkpt lat="47.26408" lon="2.96901">
        <ele>157.287643</ele>
        <time>2021-09-10T07:22:22.000Z</time>
      </trkpt>
      <trkpt lat="47.2636" lon="2.96949">
        <ele>157.262012</ele>
        <time>2021-09-10T07:22:31.000Z</time>
      </trkpt>
      <trkpt lat="47.26319" lon="2.96991">
        <ele>157.278027</ele>
        <time>2021-09-10T07:22:39.000Z</time>
      </trkpt>
      <trkpt lat="47.26284" lon="2.97026">
        <ele>157.291535</ele>
        <time>2021-09-10T07:22:46.000Z</time>
      </trkpt>
      <trkpt lat="47.26244" lon="2.97067">
        <ele>157.306936</ele>
        <time>2021-09-10T07:22:54.000Z</time>
      </trkpt>
      <trkpt lat="47.26198" lon="2.97112">
        <ele>157.330377</ele>
        <time>2021-09-10T07:23:03.000Z</time>
      </trkpt>
      <trkpt lat="47.2616" lon="2.97142">
        <ele>157.353167</ele>
        <time>2021-09-10T07:23:10.000Z</time>
      </trkpt>
      <trkpt lat="47.26155" lon="2.97146">
        <ele>157.356334</ele>
        <time>2021-09-10T07:23:11.000Z</time>
      </trkpt>
      <trkpt lat="47.26116" lon="2.97176">
        <ele>157.379193</ele>
        <time>2021-09-10T07:23:18.000Z</time>
      </trkpt>
      <trkpt lat="47.26064" lon="2.97212">
        <ele>157.409357</ele>
        <time>2021-09-10T07:23:27.000Z</time>
      </trkpt>
      <trkpt lat="47.26059" lon="2.97215">
        <ele>157.415339</ele>
        <time>2021-09-10T07:23:28.000Z</time>
      </trkpt>
      <trkpt lat="47.26008" lon="2.97248">
        <ele>157.472545</ele>
        <time>2021-09-10T07:23:37.000Z</time>
      </trkpt>
      <trkpt lat="47.25964" lon="2.97277">
        <ele>157.522631</ele>
        <time>2021-09-10T07:23:45.000Z</time>
      </trkpt>
      <trkpt lat="47.25913" lon="2.97307">
        <ele>157.579344</ele>
        <time>2021-09-10T07:23:54.000Z</time>
      </trkpt>
      <trkpt lat="47.25862" lon="2.97334">
        <ele>157.619938</ele>
        <time>2021-09-10T07:24:03.000Z</time>
      </trkpt>
      <trkpt lat="47.25807" lon="2.97358">
        <ele>157.655473</ele>
        <time>2021-09-10T07:24:12.000Z</time>
      </trkpt>
      <trkpt lat="47.2576" lon="2.97378">
        <ele>157.686271</ele>
        <time>2021-09-10T07:24:20.000Z</time>
      </trkpt>
      <trkpt lat="47.25706" lon="2.97398">
        <ele>157.718592</ele>
        <time>2021-09-10T07:24:29.000Z</time>
      </trkpt>
      <trkpt lat="47.25652" lon="2.97418">
        <ele>157.747045</ele>
        <time>2021-09-10T07:24:38.000Z</time>
      </trkpt>
      <trkpt lat="47.25599" lon="2.97438">
        <ele>157.775019</ele>
        <time>2021-09-10T07:24:47.000Z</time>
      </trkpt>
      <trkpt lat="47.25593" lon="2.97439">
        <ele>157.7782</ele>
        <time>2021-09-10T07:24:48.000Z</time>
      </trkpt>
      <trkpt lat="47.25544" lon="2.97451">
        <ele>157.811686</ele>
        <time>2021-09-10T07:24:56.000Z</time>
      </trkpt>
      <trkpt lat="47.25502" lon="2.9746">
        <ele>157.895429</ele>
        <time>2021-09-10T07:25:03.000Z</time>
      </trkpt>
      <trkpt lat="47.25454" lon="2.9747">
        <ele>157.99131</ele>
        <time>2021-09-10T07:25:11.000Z</time>
      </trkpt>
      <trkpt lat="47.25411" lon="2.97478">
        <ele>158.075948</ele>
        <time>2021-09-10T07:25:18.000Z</time>
      </trkpt>
      <trkpt lat="47.25374" lon="2.97482">
        <ele>158.148299</ele>
        <time>2021-09-10T07:25:24.000Z</time>
      </trkpt>
      <trkpt lat="47.25361" lon="2.97483">
        <ele>158.195724</ele>
        <time>2021-09-10T07:25:26.000Z</time>
      </trkpt>
      <trkpt lat="47.25305" lon="2.97484">
        <ele>158.428992</ele>
        <time>2021-09-10T07:25:35.000Z</time>
      </trkpt>
      <trkpt lat="47.25249" lon="2.97485">
        <ele>158.658953</ele>
        <time>2021-09-10T07:25:44.000Z</time>
      </trkpt>
      <trkpt lat="47.25243" lon="2.97486">
        <ele>158.684185</ele>
        <time>2021-09-10T07:25:45.000Z</time>
      </trkpt>
      <trkpt lat="47.25194" lon="2.97487">
        <ele>158.887679</ele>
        <time>2021-09-10T07:25:53.000Z</time>
      </trkpt>
      <trkpt lat="47.25138" lon="2.97488">
        <ele>158.998371</ele>
        <time>2021-09-10T07:26:02.000Z</time>
      </trkpt>
      <trkpt lat="47.25095" lon="2.97483">
        <ele>159.078503</ele>
        <time>2021-09-10T07:26:09.000Z</time>
      </trkpt>
      <trkpt lat="47.25041" lon="2.97478">
        <ele>159.182496</ele>
        <time>2021-09-10T07:26:18.000Z</time>
      </trkpt>
      <trkpt lat="47.24986" lon="2.97472">
        <ele>159.283137</ele>
        <time>2021-09-10T07:26:27.000Z</time>
      </trkpt>
      <trkpt lat="47.2498" lon="2.97472">
        <ele>159.293579</ele>
        <time>2021-09-10T07:26:28.000Z</time>
      </trkpt>
      <trkpt lat="47.24931" lon="2.97467">
        <ele>159.3803</ele>
        <time>2021-09-10T07:26:36.000Z</time>
      </trkpt>
      <trkpt lat="47.24899" lon="2.97465">
        <ele>159.435803</ele>
        <time>2021-09-10T07:26:41.000Z</time>
      </trkpt>
      <trkpt lat="47.24844" lon="2.97461">
        <ele>159.533894</ele>
        <time>2021-09-10T07:26:50.000Z</time>
      </trkpt>
      <trkpt lat="47.24838" lon="2.97461">
        <ele>159.544851</ele>
        <time>2021-09-10T07:26:51.000Z</time>
      </trkpt>
      <trkpt lat="47.24778" lon="2.97457">
        <ele>159.674343</ele>
        <time>2021-09-10T07:27:01.000Z</time>
      </trkpt>
      <trkpt lat="47.24773" lon="2.97456">
        <ele>159.687238</ele>
        <time>2021-09-10T07:27:02.000Z</time>
      </trkpt>
      <trkpt lat="47.24725" lon="2.97453">
        <ele>159.793729</ele>
        <time>2021-09-10T07:27:10.000Z</time>
      </trkpt>
      <trkpt lat="47.24683" lon="2.9745">
        <ele>159.885771</ele>
        <time>2021-09-10T07:27:17.000Z</time>
      </trkpt>
      <trkpt lat="47.24647" lon="2.97448">
        <ele>159.956638</ele>
        <time>2021-09-10T07:27:23.000Z</time>
      </trkpt>
      <trkpt lat="47.24602" lon="2.97448">
        <ele>159.984038</ele>
        <time>2021-09-10T07:27:30.000Z</time>
      </trkpt>
      <trkpt lat="47.24552" lon="2.97455">
        <ele>160.014878</ele>
        <time>2021-09-10T07:27:38.000Z</time>
      </trkpt>
      <trkpt lat="47.24503" lon="2.97463">
        <ele>160.045638</ele>
        <time>2021-09-10T07:27:46.000Z</time>
      </trkpt>
      <trkpt lat="47.24459" lon="2.97467">
        <ele>160.058811</ele>
        <time>2021-09-10T07:27:53.000Z</time>
      </trkpt>
      <trkpt lat="47.24424" lon="2.97458">
        <ele>160.048278</ele>
        <time>2021-09-10T07:27:59.000Z</time>
      </trkpt>
      <trkpt lat="47.24377" lon="2.9744">
        <ele>160.034067</ele>
        <time>2021-09-10T07:28:07.000Z</time>
      </trkpt>
      <trkpt lat="47.24343" lon="2.97427">
        <ele>160.023636</ele>
        <time>2021-09-10T07:28:13.000Z</time>
      </trkpt>
      <trkpt lat="47.24296" lon="2.97408">
        <ele>160.006415</ele>
        <time>2021-09-10T07:28:21.000Z</time>
      </trkpt>
      <trkpt lat="47.24255" lon="2.97392">
        <ele>159.956634</ele>
        <time>2021-09-10T07:28:28.000Z</time>
      </trkpt>
      <trkpt lat="47.24202" lon="2.97371">
        <ele>159.893725</ele>
        <time>2021-09-10T07:28:37.000Z</time>
      </trkpt>
      <trkpt lat="47.24156" lon="2.97352">
        <ele>159.837692</ele>
        <time>2021-09-10T07:28:45.000Z</time>
      </trkpt>
      <trkpt lat="47.24108" lon="2.97333">
        <ele>159.809344</ele>
        <time>2021-09-10T07:28:53.000Z</time>
      </trkpt>
      <trkpt lat="47.24056" lon="2.9731">
        <ele>159.834594</ele>
        <time>2021-09-10T07:29:02.000Z</time>
      </trkpt>
      <trkpt lat="47.24004" lon="2.97289">
        <ele>159.859686</ele>
        <time>2021-09-10T07:29:11.000Z</time>
      </trkpt>
      <trkpt lat="47.23961" lon="2.97285">
        <ele>159.879495</ele>
        <time>2021-09-10T07:29:18.000Z</time>
      </trkpt>
      <trkpt lat="47.23912" lon="2.97288">
        <ele>159.957103</ele>
        <time>2021-09-10T07:29:26.000Z</time>
      </trkpt>
      <trkpt lat="47.23856" lon="2.97291">
        <ele>160.062634</ele>
        <time>2021-09-10T07:29:35.000Z</time>
      </trkpt>
      <trkpt lat="47.23818" lon="2.97293">
        <ele>160.133234</ele>
        <time>2021-09-10T07:29:41.000Z</time>
      </trkpt>
      <trkpt lat="47.23806" lon="2.97294">
        <ele>160.156333</ele>
        <time>2021-09-10T07:29:43.000Z</time>
      </trkpt>
      <trkpt lat="47.23749" lon="2.97297">
        <ele>160.301468</ele>
        <time>2021-09-10T07:29:52.000Z</time>
      </trkpt>
      <trkpt lat="47.23743" lon="2.97297">
        <ele>160.323214</ele>
        <time>2021-09-10T07:29:53.000Z</time>
      </trkpt>
      <trkpt lat="47.237" lon="2.97299">
        <ele>160.479808</ele>
        <time>2021-09-10T07:30:00.000Z</time>
      </trkpt>
      <trkpt lat="47.2365" lon="2.97301">
        <ele>160.659235</ele>
        <time>2021-09-10T07:30:08.000Z</time>
      </trkpt>
      <trkpt lat="47.23596" lon="2.97303">
        <ele>160.85643</ele>
        <time>2021-09-10T07:30:17.000Z</time>
      </trkpt>
      <trkpt lat="47.2354" lon="2.97305">
        <ele>161.123754</ele>
        <time>2021-09-10T07:30:26.000Z</time>
      </trkpt>
      <trkpt lat="47.23497" lon="2.97307">
        <ele>161.33872</ele>
        <time>2021-09-10T07:30:33.000Z</time>
      </trkpt>
      <trkpt lat="47.23453" lon="2.97309">
        <ele>161.554178</ele>
        <time>2021-09-10T07:30:40.000Z</time>
      </trkpt>
      <trkpt lat="47.23409" lon="2.97312">
        <ele>161.772007</ele>
        <time>2021-09-10T07:30:47.000Z</time>
      </trkpt>
      <trkpt lat="47.23364" lon="2.97316">
        <ele>162.020729</ele>
        <time>2021-09-10T07:30:54.000Z</time>
      </trkpt>
      <trkpt lat="47.2332" lon="2.9732">
        <ele>162.268336</ele>
        <time>2021-09-10T07:31:01.000Z</time>
      </trkpt>
      <trkpt lat="47.23282" lon="2.97331">
        <ele>162.48569</ele>
        <time>2021-09-10T07:31:07.000Z</time>
      </trkpt>
      <trkpt lat="47.23246" lon="2.97341">
        <ele>162.690012</ele>
        <time>2021-09-10T07:31:13.000Z</time>
      </trkpt>
      <trkpt lat="47.23234" lon="2.97345">
        <ele>162.760068</ele>
        <time>2021-09-10T07:31:15.000Z</time>
      </trkpt>
      <trkpt lat="47.23221" lon="2.97349">
        <ele>162.892445</ele>
        <time>2021-09-10T07:31:17.000Z</time>
      </trkpt>
      <trkpt lat="47.23184" lon="2.9736">
        <ele>163.29567</ele>
        <time>2021-09-10T07:31:23.000Z</time>
      </trkpt>
      <trkpt lat="47.23178" lon="2.97362">
        <ele>163.366631</ele>
        <time>2021-09-10T07:31:24.000Z</time>
      </trkpt>
      <trkpt lat="47.23143" lon="2.97375">
        <ele>163.755472</ele>
        <time>2021-09-10T07:31:30.000Z</time>
      </trkpt>
      <trkpt lat="47.23136" lon="2.97377">
        <ele>163.823797</ele>
        <time>2021-09-10T07:31:31.000Z</time>
      </trkpt>
      <trkpt lat="47.23119" lon="2.97383">
        <ele>164.0177</ele>
        <time>2021-09-10T07:31:34.000Z</time>
      </trkpt>
      <trkpt lat="47.23107" lon="2.97388">
        <ele>164.14985</ele>
        <time>2021-09-10T07:31:36.000Z</time>
      </trkpt>
      <trkpt lat="47.2309" lon="2.97394">
        <ele>164.335968</ele>
        <time>2021-09-10T07:31:39.000Z</time>
      </trkpt>
      <trkpt lat="47.23066" lon="2.97403">
        <ele>164.601481</ele>
        <time>2021-09-10T07:31:43.000Z</time>
      </trkpt>
      <trkpt lat="47.23029" lon="2.97414">
        <ele>164.787222</ele>
        <time>2021-09-10T07:31:49.000Z</time>
      </trkpt>
      <trkpt lat="47.23023" lon="2.97416">
        <ele>164.808662</ele>
        <time>2021-09-10T07:31:50.000Z</time>
      </trkpt>
      <trkpt lat="47.23005" lon="2.97418">
        <ele>164.872566</ele>
        <time>2021-09-10T07:31:53.000Z</time>
      </trkpt>
      <trkpt lat="47.22976" lon="2.97414">
        <ele>164.9756</ele>
        <time>2021-09-10T07:31:58.000Z</time>
      </trkpt>
      <trkpt lat="47.2294" lon="2.97405">
        <ele>165.103359</ele>
        <time>2021-09-10T07:32:04.000Z</time>
      </trkpt>
      <trkpt lat="47.22906" lon="2.97397">
        <ele>165.224049</ele>
        <time>2021-09-10T07:32:10.000Z</time>
      </trkpt>
      <trkpt lat="47.22868" lon="2.97392">
        <ele>165.291425</ele>
        <time>2021-09-10T07:32:16.000Z</time>
      </trkpt>
      <trkpt lat="47.22831" lon="2.97385">
        <ele>165.223343</ele>
        <time>2021-09-10T07:32:22.000Z</time>
      </trkpt>
      <trkpt lat="47.22787" lon="2.97378">
        <ele>165.140905</ele>
        <time>2021-09-10T07:32:29.000Z</time>
      </trkpt>
      <trkpt lat="47.22749" lon="2.97384">
        <ele>165.071323</ele>
        <time>2021-09-10T07:32:35.000Z</time>
      </trkpt>
      <trkpt lat="47.22705" lon="2.974">
        <ele>164.98779</ele>
        <time>2021-09-10T07:32:42.000Z</time>
      </trkpt>
      <trkpt lat="47.22699" lon="2.97402">
        <ele>164.999643</ele>
        <time>2021-09-10T07:32:43.000Z</time>
      </trkpt>
      <trkpt lat="47.22687" lon="2.97406">
        <ele>165.054871</ele>
        <time>2021-09-10T07:32:45.000Z</time>
      </trkpt>
      <trkpt lat="47.22681" lon="2.97406">
        <ele>165.080568</ele>
        <time>2021-09-10T07:32:46.000Z</time>
      </trkpt>
      <trkpt lat="47.22638" lon="2.97407">
        <ele>165.267702</ele>
        <time>2021-09-10T07:32:53.000Z</time>
      </trkpt>
      <trkpt lat="47.22603" lon="2.97407">
        <ele>165.420858</ele>
        <time>2021-09-10T07:32:59.000Z</time>
      </trkpt>
      <trkpt lat="47.22566" lon="2.97406">
        <ele>165.580975</ele>
        <time>2021-09-10T07:33:05.000Z</time>
      </trkpt>
      <trkpt lat="47.22522" lon="2.97406">
        <ele>165.769874</ele>
        <time>2021-09-10T07:33:12.000Z</time>
      </trkpt>
      <trkpt lat="47.22484" lon="2.97414">
        <ele>165.858043</ele>
        <time>2021-09-10T07:33:18.000Z</time>
      </trkpt>
      <trkpt lat="47.2244" lon="2.97424">
        <ele>165.963388</ele>
        <time>2021-09-10T07:33:25.000Z</time>
      </trkpt>
      <trkpt lat="47.22385" lon="2.97438">
        <ele>166.093208</ele>
        <time>2021-09-10T07:33:34.000Z</time>
      </trkpt>
      <trkpt lat="47.22332" lon="2.9745">
        <ele>166.237242</ele>
        <time>2021-09-10T07:33:43.000Z</time>
      </trkpt>
      <trkpt lat="47.22289" lon="2.97458">
        <ele>166.393116</ele>
        <time>2021-09-10T07:33:50.000Z</time>
      </trkpt>
      <trkpt lat="47.2224" lon="2.97465">
        <ele>166.569</ele>
        <time>2021-09-10T07:33:58.000Z</time>
      </trkpt>
      <trkpt lat="47.22204" lon="2.97471">
        <ele>166.702205</ele>
        <time>2021-09-10T07:34:04.000Z</time>
      </trkpt>
      <trkpt lat="47.22162" lon="2.97477">
        <ele>166.843298</ele>
        <time>2021-09-10T07:34:11.000Z</time>
      </trkpt>
      <trkpt lat="47.22129" lon="2.9748">
        <ele>166.896581</ele>
        <time>2021-09-10T07:34:17.000Z</time>
      </trkpt>
      <trkpt lat="47.2208" lon="2.97485">
        <ele>166.977481</ele>
        <time>2021-09-10T07:34:25.000Z</time>
      </trkpt>
      <trkpt lat="47.22037" lon="2.97489">
        <ele>167.049175</ele>
        <time>2021-09-10T07:34:32.000Z</time>
      </trkpt>
      <trkpt lat="47.21992" lon="2.97493">
        <ele>167.122023</ele>
        <time>2021-09-10T07:34:39.000Z</time>
      </trkpt>
      <trkpt lat="47.21955" lon="2.97497">
        <ele>167.163474</ele>
        <time>2021-09-10T07:34:45.000Z</time>
      </trkpt>
      <trkpt lat="47.21943" lon="2.97501">
        <ele>167.176193</ele>
        <time>2021-09-10T07:34:47.000Z</time>
      </trkpt>
      <trkpt lat="47.21926" lon="2.97509">
        <ele>167.195365</ele>
        <time>2021-09-10T07:34:50.000Z</time>
      </trkpt>
      <trkpt lat="47.21921" lon="2.97513">
        <ele>167.201504</ele>
        <time>2021-09-10T07:34:51.000Z</time>
      </trkpt>
      <trkpt lat="47.21896" lon="2.97537">
        <ele>167.232157</ele>
        <time>2021-09-10T07:34:56.000Z</time>
      </trkpt>
      <trkpt lat="47.21848" lon="2.97581">
        <ele>167.290653</ele>
        <time>2021-09-10T07:35:05.000Z</time>
      </trkpt>
      <trkpt lat="47.21811" lon="2.97615">
        <ele>167.338373</ele>
        <time>2021-09-10T07:35:12.000Z</time>
      </trkpt>
      <trkpt lat="47.2178" lon="2.97644">
        <ele>167.381018</ele>
        <time>2021-09-10T07:35:18.000Z</time>
      </trkpt>
      <trkpt lat="47.21737" lon="2.97683">
        <ele>167.439043</ele>
        <time>2021-09-10T07:35:26.000Z</time>
      </trkpt>
      <trkpt lat="47.21705" lon="2.97713">
        <ele>167.483222</ele>
        <time>2021-09-10T07:35:32.000Z</time>
      </trkpt>
      <trkpt lat="47.21699" lon="2.97718">
        <ele>167.490543</ele>
        <time>2021-09-10T07:35:33.000Z</time>
      </trkpt>
      <trkpt lat="47.21677" lon="2.97738">
        <ele>167.520584</ele>
        <time>2021-09-10T07:35:37.000Z</time>
      </trkpt>
      <trkpt lat="47.21655" lon="2.97758">
        <ele>167.461319</ele>
        <time>2021-09-10T07:35:41.000Z</time>
      </trkpt>
      <trkpt lat="47.21644" lon="2.97768">
        <ele>167.424031</ele>
        <time>2021-09-10T07:35:43.000Z</time>
      </trkpt>
      <trkpt lat="47.21606" lon="2.97802">
        <ele>167.29407</ele>
        <time>2021-09-10T07:35:50.000Z</time>
      </trkpt>
      <trkpt lat="47.21564" lon="2.97842">
        <ele>167.148953</ele>
        <time>2021-09-10T07:35:58.000Z</time>
      </trkpt>
      <trkpt lat="47.21528" lon="2.9788">
        <ele>167.022126</ele>
        <time>2021-09-10T07:36:05.000Z</time>
      </trkpt>
      <trkpt lat="47.21495" lon="2.97921">
        <ele>166.723247</ele>
        <time>2021-09-10T07:36:12.000Z</time>
      </trkpt>
      <trkpt lat="47.2146" lon="2.97962">
        <ele>166.390445</ele>
        <time>2021-09-10T07:36:19.000Z</time>
      </trkpt>
      <trkpt lat="47.21428" lon="2.98002">
        <ele>166.071273</ele>
        <time>2021-09-10T07:36:26.000Z</time>
      </trkpt>
      <trkpt lat="47.21384" lon="2.98053">
        <ele>165.650473</ele>
        <time>2021-09-10T07:36:35.000Z</time>
      </trkpt>
      <trkpt lat="47.21374" lon="2.98064">
        <ele>165.578427</ele>
        <time>2021-09-10T07:36:37.000Z</time>
      </trkpt>
      <trkpt lat="47.21336" lon="2.98107">
        <ele>165.28757</ele>
        <time>2021-09-10T07:36:45.000Z</time>
      </trkpt>
      <trkpt lat="47.21292" lon="2.98156">
        <ele>164.951803</ele>
        <time>2021-09-10T07:36:54.000Z</time>
      </trkpt>
      <trkpt lat="47.21287" lon="2.98162">
        <ele>164.914442</ele>
        <time>2021-09-10T07:36:55.000Z</time>
      </trkpt>
      <trkpt lat="47.21248" lon="2.98207">
        <ele>164.611644</ele>
        <time>2021-09-10T07:37:03.000Z</time>
      </trkpt>
      <trkpt lat="47.21213" lon="2.98245">
        <ele>164.411525</ele>
        <time>2021-09-10T07:37:10.000Z</time>
      </trkpt>
      <trkpt lat="47.21168" lon="2.98295">
        <ele>164.172296</ele>
        <time>2021-09-10T07:37:19.000Z</time>
      </trkpt>
      <trkpt lat="47.21162" lon="2.983">
        <ele>164.145439</ele>
        <time>2021-09-10T07:37:20.000Z</time>
      </trkpt>
      <trkpt lat="47.21114" lon="2.98351">
        <ele>163.891816</ele>
        <time>2021-09-10T07:37:29.000Z</time>
      </trkpt>
      <trkpt lat="47.21081" lon="2.98386">
        <ele>163.837505</ele>
        <time>2021-09-10T07:37:35.000Z</time>
      </trkpt>
      <trkpt lat="47.21066" lon="2.98402">
        <ele>163.878362</ele>
        <time>2021-09-10T07:37:38.000Z</time>
      </trkpt>
      <trkpt lat="47.21055" lon="2.98412">
        <ele>163.905563</ele>
        <time>2021-09-10T07:37:40.000Z</time>
      </trkpt>
      <trkpt lat="47.21038" lon="2.98427">
        <ele>163.946411</ele>
        <time>2021-09-10T07:37:43.000Z</time>
      </trkpt>
      <trkpt lat="47.21027" lon="2.98437">
        <ele>163.974336</ele>
        <time>2021-09-10T07:37:45.000Z</time>
      </trkpt>
      <trkpt lat="47.20996" lon="2.98469">
        <ele>164.055453</ele>
        <time>2021-09-10T07:37:51.000Z</time>
      </trkpt>
      <trkpt lat="47.20966" lon="2.98503">
        <ele>164.134706</ele>
        <time>2021-09-10T07:37:57.000Z</time>
      </trkpt>
      <trkpt lat="47.20929" lon="2.98541">
        <ele>164.209461</ele>
        <time>2021-09-10T07:38:04.000Z</time>
      </trkpt>
      <trkpt lat="47.20892" lon="2.98575">
        <ele>164.264972</ele>
        <time>2021-09-10T07:38:11.000Z</time>
      </trkpt>
      <trkpt lat="47.20859" lon="2.98604">
        <ele>164.312822</ele>
        <time>2021-09-10T07:38:17.000Z</time>
      </trkpt>
      <trkpt lat="47.20821" lon="2.98638">
        <ele>164.36844</ele>
        <time>2021-09-10T07:38:24.000Z</time>
      </trkpt>
      <trkpt lat="47.2079" lon="2.98668">
        <ele>164.418543</ele>
        <time>2021-09-10T07:38:30.000Z</time>
      </trkpt>
      <trkpt lat="47.20785" lon="2.98674">
        <ele>164.429144</ele>
        <time>2021-09-10T07:38:31.000Z</time>
      </trkpt>
      <trkpt lat="47.2077" lon="2.98691">
        <ele>164.460603</ele>
        <time>2021-09-10T07:38:34.000Z</time>
      </trkpt>
      <trkpt lat="47.20741" lon="2.98726">
        <ele>164.523188</ele>
        <time>2021-09-10T07:38:40.000Z</time>
      </trkpt>
      <trkpt lat="47.20715" lon="2.98763">
        <ele>164.58491</ele>
        <time>2021-09-10T07:38:46.000Z</time>
      </trkpt>
      <trkpt lat="47.2071" lon="2.9877">
        <ele>164.595189</ele>
        <time>2021-09-10T07:38:47.000Z</time>
      </trkpt>
      <trkpt lat="47.20697" lon="2.98789">
        <ele>164.626147</ele>
        <time>2021-09-10T07:38:50.000Z</time>
      </trkpt>
      <trkpt lat="47.20688" lon="2.98801">
        <ele>164.646826</ele>
        <time>2021-09-10T07:38:52.000Z</time>
      </trkpt>
      <trkpt lat="47.20679" lon="2.98814">
        <ele>164.668183</ele>
        <time>2021-09-10T07:38:54.000Z</time>
      </trkpt>
      <trkpt lat="47.2065" lon="2.98848">
        <ele>164.61121</ele>
        <time>2021-09-10T07:39:00.000Z</time>
      </trkpt>
      <trkpt lat="47.20639" lon="2.98859">
        <ele>164.523676</ele>
        <time>2021-09-10T07:39:02.000Z</time>
      </trkpt>
      <trkpt lat="47.20629" lon="2.98869">
        <ele>164.438063</ele>
        <time>2021-09-10T07:39:04.000Z</time>
      </trkpt>
      <trkpt lat="47.20592" lon="2.98907">
        <ele>164.129282</ele>
        <time>2021-09-10T07:39:11.000Z</time>
      </trkpt>
      <trkpt lat="47.2057" lon="2.98926">
        <ele>163.959288</ele>
        <time>2021-09-10T07:39:15.000Z</time>
      </trkpt>
      <trkpt lat="47.20565" lon="2.9893">
        <ele>163.915462</ele>
        <time>2021-09-10T07:39:16.000Z</time>
      </trkpt>
      <trkpt lat="47.20532" lon="2.9896">
        <ele>163.648714</ele>
        <time>2021-09-10T07:39:22.000Z</time>
      </trkpt>
      <trkpt lat="47.2052" lon="2.98969">
        <ele>163.560233</ele>
        <time>2021-09-10T07:39:24.000Z</time>
      </trkpt>
      <trkpt lat="47.20504" lon="2.98983">
        <ele>163.430279</ele>
        <time>2021-09-10T07:39:27.000Z</time>
      </trkpt>
      <trkpt lat="47.20498" lon="2.98988">
        <ele>163.387783</ele>
        <time>2021-09-10T07:39:28.000Z</time>
      </trkpt>
      <trkpt lat="47.20475" lon="2.99005">
        <ele>163.220361</ele>
        <time>2021-09-10T07:39:32.000Z</time>
      </trkpt>
      <trkpt lat="47.20439" lon="2.99019">
        <ele>162.976283</ele>
        <time>2021-09-10T07:39:38.000Z</time>
      </trkpt>
      <trkpt lat="47.20404" lon="2.9903">
        <ele>162.742588</ele>
        <time>2021-09-10T07:39:44.000Z</time>
      </trkpt>
      <trkpt lat="47.20364" lon="2.99047">
        <ele>162.471289</ele>
        <time>2021-09-10T07:39:51.000Z</time>
      </trkpt>
      <trkpt lat="47.20336" lon="2.99062">
        <ele>162.305617</ele>
        <time>2021-09-10T07:39:56.000Z</time>
      </trkpt>
      <trkpt lat="47.20297" lon="2.99082">
        <ele>162.318174</ele>
        <time>2021-09-10T07:40:03.000Z</time>
      </trkpt>
      <trkpt lat="47.20268" lon="2.99097">
        <ele>162.327348</ele>
        <time>2021-09-10T07:40:08.000Z</time>
      </trkpt>
      <trkpt lat="47.20246" lon="2.9911">
        <ele>162.334711</ele>
        <time>2021-09-10T07:40:12.000Z</time>
      </trkpt>
      <trkpt lat="47.20234" lon="2.99116">
        <ele>162.338421</ele>
        <time>2021-09-10T07:40:14.000Z</time>
      </trkpt>
      <trkpt lat="47.2019" lon="2.99141">
        <ele>162.352819</ele>
        <time>2021-09-10T07:40:22.000Z</time>
      </trkpt>
      <trkpt lat="47.20153" lon="2.99162">
        <ele>162.298906</ele>
        <time>2021-09-10T07:40:29.000Z</time>
      </trkpt>
      <trkpt lat="47.20116" lon="2.99184">
        <ele>162.17195</ele>
        <time>2021-09-10T07:40:36.000Z</time>
      </trkpt>
      <trkpt lat="47.20077" lon="2.99205">
        <ele>162.042024</ele>
        <time>2021-09-10T07:40:43.000Z</time>
      </trkpt>
      <trkpt lat="47.20029" lon="2.99235">
        <ele>161.875539</ele>
        <time>2021-09-10T07:40:52.000Z</time>
      </trkpt>
      <trkpt lat="47.1998" lon="2.99265">
        <ele>161.696497</ele>
        <time>2021-09-10T07:41:01.000Z</time>
      </trkpt>
      <trkpt lat="47.19931" lon="2.99295">
        <ele>161.505459</ele>
        <time>2021-09-10T07:41:10.000Z</time>
      </trkpt>
      <trkpt lat="47.19925" lon="2.99297">
        <ele>161.483477</ele>
        <time>2021-09-10T07:41:11.000Z</time>
      </trkpt>
      <trkpt lat="47.19914" lon="2.99303">
        <ele>161.440693</ele>
        <time>2021-09-10T07:41:13.000Z</time>
      </trkpt>
      <trkpt lat="47.1988" lon="2.9932">
        <ele>161.310542</ele>
        <time>2021-09-10T07:41:19.000Z</time>
      </trkpt>
      <trkpt lat="47.19851" lon="2.99334">
        <ele>161.202711</ele>
        <time>2021-09-10T07:41:24.000Z</time>
      </trkpt>
      <trkpt lat="47.19809" lon="2.99356">
        <ele>161.227066</ele>
        <time>2021-09-10T07:41:31.000Z</time>
      </trkpt>
      <trkpt lat="47.19803" lon="2.99359">
        <ele>161.24836</ele>
        <time>2021-09-10T07:41:32.000Z</time>
      </trkpt>
      <trkpt lat="47.1979" lon="2.99365">
        <ele>161.288332</ele>
        <time>2021-09-10T07:41:34.000Z</time>
      </trkpt>
      <trkpt lat="47.19778" lon="2.99371">
        <ele>161.328666</ele>
        <time>2021-09-10T07:41:36.000Z</time>
      </trkpt>
      <trkpt lat="47.19766" lon="2.99377">
        <ele>161.367555</ele>
        <time>2021-09-10T07:41:38.000Z</time>
      </trkpt>
      <trkpt lat="47.19743" lon="2.9939">
        <ele>161.443853</ele>
        <time>2021-09-10T07:41:42.000Z</time>
      </trkpt>
      <trkpt lat="47.19731" lon="2.99396">
        <ele>161.482294</ele>
        <time>2021-09-10T07:41:44.000Z</time>
      </trkpt>
      <trkpt lat="47.1968" lon="2.99425">
        <ele>161.653063</ele>
        <time>2021-09-10T07:41:53.000Z</time>
      </trkpt>
      <trkpt lat="47.19629" lon="2.99454">
        <ele>161.715257</ele>
        <time>2021-09-10T07:42:02.000Z</time>
      </trkpt>
      <trkpt lat="47.19624" lon="2.99457">
        <ele>161.71781</ele>
        <time>2021-09-10T07:42:03.000Z</time>
      </trkpt>
      <trkpt lat="47.19572" lon="2.99486">
        <ele>161.740972</ele>
        <time>2021-09-10T07:42:12.000Z</time>
      </trkpt>
      <trkpt lat="47.19522" lon="2.99514">
        <ele>161.763174</ele>
        <time>2021-09-10T07:42:21.000Z</time>
      </trkpt>
      <trkpt lat="47.19475" lon="2.99539">
        <ele>161.771797</ele>
        <time>2021-09-10T07:42:29.000Z</time>
      </trkpt>
      <trkpt lat="47.19446" lon="2.99547">
        <ele>161.76908</ele>
        <time>2021-09-10T07:42:34.000Z</time>
      </trkpt>
      <trkpt lat="47.19419" lon="2.99552">
        <ele>161.766653</ele>
        <time>2021-09-10T07:42:39.000Z</time>
      </trkpt>
      <trkpt lat="47.19414" lon="2.99555">
        <ele>161.766136</ele>
        <time>2021-09-10T07:42:40.000Z</time>
      </trkpt>
      <trkpt lat="47.19397" lon="2.99562">
        <ele>161.764527</ele>
        <time>2021-09-10T07:42:43.000Z</time>
      </trkpt>
      <trkpt lat="47.19385" lon="2.99567">
        <ele>161.763399</ele>
        <time>2021-09-10T07:42:45.000Z</time>
      </trkpt>
      <trkpt lat="47.19349" lon="2.99582">
        <ele>161.760004</ele>
        <time>2021-09-10T07:42:51.000Z</time>
      </trkpt>
      <trkpt lat="47.19313" lon="2.99592">
        <ele>161.768511</ele>
        <time>2021-09-10T07:42:57.000Z</time>
      </trkpt>
      <trkpt lat="47.19261" lon="2.99606">
        <ele>161.823659</ele>
        <time>2021-09-10T07:43:06.000Z</time>
      </trkpt>
      <trkpt lat="47.19219" lon="2.9962">
        <ele>161.867588</ele>
        <time>2021-09-10T07:43:13.000Z</time>
      </trkpt>
      <trkpt lat="47.19179" lon="2.99639">
        <ele>161.911621</ele>
        <time>2021-09-10T07:43:20.000Z</time>
      </trkpt>
      <trkpt lat="47.19173" lon="2.99643">
        <ele>161.917593</ele>
        <time>2021-09-10T07:43:21.000Z</time>
      </trkpt>
      <trkpt lat="47.19132" lon="2.99666">
        <ele>161.927274</ele>
        <time>2021-09-10T07:43:28.000Z</time>
      </trkpt>
      <trkpt lat="47.19085" lon="2.99693">
        <ele>161.885265</ele>
        <time>2021-09-10T07:43:36.000Z</time>
      </trkpt>
      <trkpt lat="47.19075" lon="2.99704">
        <ele>161.875474</ele>
        <time>2021-09-10T07:43:38.000Z</time>
      </trkpt>
      <trkpt lat="47.19066" lon="2.99714">
        <ele>161.865583</ele>
        <time>2021-09-10T07:43:40.000Z</time>
      </trkpt>
      <trkpt lat="47.19056" lon="2.99725">
        <ele>161.85556</ele>
        <time>2021-09-10T07:43:42.000Z</time>
      </trkpt>
      <trkpt lat="47.19042" lon="2.99742">
        <ele>161.84041</ele>
        <time>2021-09-10T07:43:45.000Z</time>
      </trkpt>
      <trkpt lat="47.19028" lon="2.99761">
        <ele>161.825026</ele>
        <time>2021-09-10T07:43:48.000Z</time>
      </trkpt>
      <trkpt lat="47.18996" lon="2.99803">
        <ele>161.810149</ele>
        <time>2021-09-10T07:43:55.000Z</time>
      </trkpt>
      <trkpt lat="47.18969" lon="2.9984">
        <ele>161.900225</ele>
        <time>2021-09-10T07:44:01.000Z</time>
      </trkpt>
      <trkpt lat="47.18948" lon="2.99871">
        <ele>161.972784</ele>
        <time>2021-09-10T07:44:06.000Z</time>
      </trkpt>
      <trkpt lat="47.18922" lon="2.99901">
        <ele>162.053067</ele>
        <time>2021-09-10T07:44:12.000Z</time>
      </trkpt>
      <trkpt lat="47.18918" lon="2.99904">
        <ele>162.064501</ele>
        <time>2021-09-10T07:44:13.000Z</time>
      </trkpt>
      <trkpt lat="47.18896" lon="2.99914">
        <ele>162.118678</ele>
        <time>2021-09-10T07:44:18.000Z</time>
      </trkpt>
      <trkpt lat="47.1889" lon="2.99907">
        <ele>162.139359</ele>
        <time>2021-09-10T07:44:20.000Z</time>
      </trkpt>
      <trkpt lat="47.18886" lon="2.99903">
        <ele>162.149062</ele>
        <time>2021-09-10T07:44:21.000Z</time>
      </trkpt>
      <trkpt lat="47.18879" lon="2.99896">
        <ele>162.17014</ele>
        <time>2021-09-10T07:44:23.000Z</time>
      </trkpt>
      <trkpt lat="47.18876" lon="2.99897">
        <ele>162.178313</ele>
        <time>2021-09-10T07:44:24.000Z</time>
      </trkpt>
      <trkpt lat="47.18873" lon="2.99902">
        <ele>162.189604</ele>
        <time>2021-09-10T07:44:25.000Z</time>
      </trkpt>
      <trkpt lat="47.18866" lon="2.99913">
        <ele>162.21439</ele>
        <time>2021-09-10T07:44:27.000Z</time>
      </trkpt>
      <trkpt lat="47.18858" lon="2.99924">
        <ele>162.228764</ele>
        <time>2021-09-10T07:44:29.000Z</time>
      </trkpt>
      <trkpt lat="47.18844" lon="2.99937">
        <ele>162.208906</ele>
        <time>2021-09-10T07:44:32.000Z</time>
      </trkpt>
      <trkpt lat="47.1884" lon="2.99941">
        <ele>162.202343</ele>
        <time>2021-09-10T07:44:33.000Z</time>
      </trkpt>
      <trkpt lat="47.18804" lon="2.99968">
        <ele>162.154355</ele>
        <time>2021-09-10T07:44:40.000Z</time>
      </trkpt>
      <trkpt lat="47.18755" lon="2.99999">
        <ele>162.090493</ele>
        <time>2021-09-10T07:44:49.000Z</time>
      </trkpt>
      <trkpt lat="47.18705" lon="3.00031">
        <ele>162.025191</ele>
        <time>2021-09-10T07:44:58.000Z</time>
      </trkpt>
      <trkpt lat="47.18655" lon="3.00063">
        <ele>161.966335</ele>
        <time>2021-09-10T07:45:07.000Z</time>
      </trkpt>
      <trkpt lat="47.18621" lon="3.00085">
        <ele>161.926884</ele>
        <time>2021-09-10T07:45:13.000Z</time>
      </trkpt>
      <trkpt lat="47.18569" lon="3.00119">
        <ele>161.86667</ele>
        <time>2021-09-10T07:45:22.000Z</time>
      </trkpt>
      <trkpt lat="47.18563" lon="3.00122">
        <ele>161.859875</ele>
        <time>2021-09-10T07:45:23.000Z</time>
      </trkpt>
      <trkpt lat="47.18517" lon="3.00152">
        <ele>161.805283</ele>
        <time>2021-09-10T07:45:31.000Z</time>
      </trkpt>
      <trkpt lat="47.18472" lon="3.00181">
        <ele>161.75014</ele>
        <time>2021-09-10T07:45:39.000Z</time>
      </trkpt>
      <trkpt lat="47.18426" lon="3.0021">
        <ele>161.694731</ele>
        <time>2021-09-10T07:45:47.000Z</time>
      </trkpt>
      <trkpt lat="47.18381" lon="3.00239">
        <ele>161.640323</ele>
        <time>2021-09-10T07:45:55.000Z</time>
      </trkpt>
      <trkpt lat="47.18378" lon="3.00241">
        <ele>161.636075</ele>
        <time>2021-09-10T07:45:57.000Z</time>
      </trkpt>
      <trkpt lat="47.18355" lon="3.00252">
        <ele>161.640777</ele>
        <time>2021-09-10T07:46:00.000Z</time>
      </trkpt>
      <trkpt lat="47.18349" lon="3.00254">
        <ele>161.647224</ele>
        <time>2021-09-10T07:46:01.000Z</time>
      </trkpt>
      <trkpt lat="47.18329" lon="3.00261">
        <ele>161.668383</ele>
        <time>2021-09-10T07:46:04.000Z</time>
      </trkpt>
      <trkpt lat="47.18323" lon="3.00262">
        <ele>161.675481</ele>
        <time>2021-09-10T07:46:05.000Z</time>
      </trkpt>
      <trkpt lat="47.18303" lon="3.00258">
        <ele>161.695984</ele>
        <time>2021-09-10T07:46:08.000Z</time>
      </trkpt>
      <trkpt lat="47.18279" lon="3.00252">
        <ele>161.722238</ele>
        <time>2021-09-10T07:46:12.000Z</time>
      </trkpt>
      <trkpt lat="47.18247" lon="3.00243">
        <ele>161.756135</ele>
        <time>2021-09-10T07:46:17.000Z</time>
      </trkpt>
      <trkpt lat="47.18223" lon="3.0024">
        <ele>161.782277</ele>
        <time>2021-09-10T07:46:21.000Z</time>
      </trkpt>
      <trkpt lat="47.18217" lon="3.0024">
        <ele>161.788952</ele>
        <time>2021-09-10T07:46:22.000Z</time>
      </trkpt>
      <trkpt lat="47.18204" lon="3.00243">
        <ele>161.802764</ele>
        <time>2021-09-10T07:46:24.000Z</time>
      </trkpt>
      <trkpt lat="47.18189" lon="3.00246">
        <ele>161.834977</ele>
        <time>2021-09-10T07:46:26.000Z</time>
      </trkpt>
      <trkpt lat="47.18183" lon="3.00249">
        <ele>161.888316</ele>
        <time>2021-09-10T07:46:27.000Z</time>
      </trkpt>
      <trkpt lat="47.1814" lon="3.00268">
        <ele>162.27185</ele>
        <time>2021-09-10T07:46:34.000Z</time>
      </trkpt>
      <trkpt lat="47.1811" lon="3.00274">
        <ele>162.520761</ele>
        <time>2021-09-10T07:46:39.000Z</time>
      </trkpt>
      <trkpt lat="47.18094" lon="3.00277">
        <ele>162.653587</ele>
        <time>2021-09-10T07:46:42.000Z</time>
      </trkpt>
      <trkpt lat="47.18085" lon="3.00278">
        <ele>162.737299</ele>
        <time>2021-09-10T07:46:44.000Z</time>
      </trkpt>
      <trkpt lat="47.18079" lon="3.00279">
        <ele>162.781273</ele>
        <time>2021-09-10T07:46:45.000Z</time>
      </trkpt>
      <trkpt lat="47.18059" lon="3.00283">
        <ele>162.952935</ele>
        <time>2021-09-10T07:46:49.000Z</time>
      </trkpt>
      <trkpt lat="47.18015" lon="3.0029">
        <ele>163.322583</ele>
        <time>2021-09-10T07:46:56.000Z</time>
      </trkpt>
      <trkpt lat="47.18003" lon="3.00293">
        <ele>163.35353</ele>
        <time>2021-09-10T07:46:58.000Z</time>
      </trkpt>
      <trkpt lat="47.17991" lon="3.00301">
        <ele>163.382654</ele>
        <time>2021-09-10T07:47:00.000Z</time>
      </trkpt>
      <trkpt lat="47.17986" lon="3.00306">
        <ele>163.396816</ele>
        <time>2021-09-10T07:47:01.000Z</time>
      </trkpt>
      <trkpt lat="47.17947" lon="3.0034">
        <ele>163.497345</ele>
        <time>2021-09-10T07:47:08.000Z</time>
      </trkpt>
      <trkpt lat="47.17914" lon="3.00367">
        <ele>163.582258</ele>
        <time>2021-09-10T07:47:14.000Z</time>
      </trkpt>
      <trkpt lat="47.17886" lon="3.0039">
        <ele>163.654093</ele>
        <time>2021-09-10T07:47:19.000Z</time>
      </trkpt>
      <trkpt lat="47.17859" lon="3.00411">
        <ele>163.722639</ele>
        <time>2021-09-10T07:47:24.000Z</time>
      </trkpt>
      <trkpt lat="47.17809" lon="3.0045">
        <ele>163.543524</ele>
        <time>2021-09-10T07:47:33.000Z</time>
      </trkpt>
      <trkpt lat="47.17761" lon="3.00488">
        <ele>163.352764</ele>
        <time>2021-09-10T07:47:42.000Z</time>
      </trkpt>
      <trkpt lat="47.17755" lon="3.00492">
        <ele>163.329829</ele>
        <time>2021-09-10T07:47:43.000Z</time>
      </trkpt>
      <trkpt lat="47.17712" lon="3.00527">
        <ele>163.157928</ele>
        <time>2021-09-10T07:47:51.000Z</time>
      </trkpt>
      <trkpt lat="47.17664" lon="3.00569">
        <ele>162.868645</ele>
        <time>2021-09-10T07:48:00.000Z</time>
      </trkpt>
      <trkpt lat="47.17637" lon="3.00608">
        <ele>162.648441</ele>
        <time>2021-09-10T07:48:06.000Z</time>
      </trkpt>
      <trkpt lat="47.17604" lon="3.00659">
        <ele>162.365966</ele>
        <time>2021-09-10T07:48:14.000Z</time>
      </trkpt>
      <trkpt lat="47.17574" lon="3.00705">
        <ele>162.11688</ele>
        <time>2021-09-10T07:48:21.000Z</time>
      </trkpt>
      <trkpt lat="47.17545" lon="3.00749">
        <ele>162.138009</ele>
        <time>2021-09-10T07:48:28.000Z</time>
      </trkpt>
      <trkpt lat="47.1754" lon="3.00755">
        <ele>162.154724</ele>
        <time>2021-09-10T07:48:29.000Z</time>
      </trkpt>
      <trkpt lat="47.17531" lon="3.00765">
        <ele>162.187716</ele>
        <time>2021-09-10T07:48:31.000Z</time>
      </trkpt>
      <trkpt lat="47.17525" lon="3.00769">
        <ele>162.204726</ele>
        <time>2021-09-10T07:48:32.000Z</time>
      </trkpt>
      <trkpt lat="47.17482" lon="3.00796">
        <ele>162.337292</ele>
        <time>2021-09-10T07:48:40.000Z</time>
      </trkpt>
      <trkpt lat="47.17466" lon="3.00805">
        <ele>162.383051</ele>
        <time>2021-09-10T07:48:44.000Z</time>
      </trkpt>
      <trkpt lat="47.17462" lon="3.00807">
        <ele>162.394033</ele>
        <time>2021-09-10T07:48:48.000Z</time>
      </trkpt>
      <trkpt lat="47.1746" lon="3.00808">
        <ele>162.401158</ele>
        <time>2021-09-10T07:48:53.000Z</time>
      </trkpt>
      <trkpt lat="47.1746" lon="3.00811">
        <ele>162.407746</ele>
        <time>2021-09-10T07:48:55.000Z</time>
      </trkpt>
      <trkpt lat="47.17459" lon="3.00835">
        <ele>162.452701</ele>
        <time>2021-09-10T07:48:59.000Z</time>
      </trkpt>
      <trkpt lat="47.17453" lon="3.00839">
        <ele>162.469045</ele>
        <time>2021-09-10T07:49:01.000Z</time>
      </trkpt>
      <trkpt lat="47.17449" lon="3.00839">
        <ele>162.480268</ele>
        <time>2021-09-10T07:49:02.000Z</time>
      </trkpt>
      <trkpt lat="47.17446" lon="3.0084">
        <ele>162.490661</ele>
        <time>2021-09-10T07:49:03.000Z</time>
      </trkpt>
      <trkpt lat="47.17427" lon="3.00843">
        <ele>162.543643</ele>
        <time>2021-09-10T07:49:07.000Z</time>
      </trkpt>
      <trkpt lat="47.17381" lon="3.00851">
        <ele>162.740837</ele>
        <time>2021-09-10T07:49:15.000Z</time>
      </trkpt>
      <trkpt lat="47.17326" lon="3.0086">
        <ele>162.984071</ele>
        <time>2021-09-10T07:49:24.000Z</time>
      </trkpt>
      <trkpt lat="47.17283" lon="3.00867">
        <ele>163.173525</ele>
        <time>2021-09-10T07:49:31.000Z</time>
      </trkpt>
      <trkpt lat="47.17229" lon="3.00876">
        <ele>163.392564</ele>
        <time>2021-09-10T07:49:40.000Z</time>
      </trkpt>
      <trkpt lat="47.1718" lon="3.00884">
        <ele>163.55172</ele>
        <time>2021-09-10T07:49:48.000Z</time>
      </trkpt>
      <trkpt lat="47.17126" lon="3.00893">
        <ele>163.730905</ele>
        <time>2021-09-10T07:49:57.000Z</time>
      </trkpt>
      <trkpt lat="47.17114" lon="3.00895">
        <ele>163.771686</ele>
        <time>2021-09-10T07:49:59.000Z</time>
      </trkpt>
      <trkpt lat="47.17064" lon="3.00904">
        <ele>163.933848</ele>
        <time>2021-09-10T07:50:07.000Z</time>
      </trkpt>
      <trkpt lat="47.1701" lon="3.00913">
        <ele>164.104612</ele>
        <time>2021-09-10T07:50:16.000Z</time>
      </trkpt>
      <trkpt lat="47.16956" lon="3.00922">
        <ele>164.271306</ele>
        <time>2021-09-10T07:50:25.000Z</time>
      </trkpt>
      <trkpt lat="47.1691" lon="3.00929">
        <ele>164.41825</ele>
        <time>2021-09-10T07:50:33.000Z</time>
      </trkpt>
      <trkpt lat="47.16857" lon="3.00938">
        <ele>164.56707</ele>
        <time>2021-09-10T07:50:42.000Z</time>
      </trkpt>
      <trkpt lat="47.16821" lon="3.00944">
        <ele>164.658087</ele>
        <time>2021-09-10T07:50:48.000Z</time>
      </trkpt>
      <trkpt lat="47.16779" lon="3.00952">
        <ele>164.767226</ele>
        <time>2021-09-10T07:50:55.000Z</time>
      </trkpt>
      <trkpt lat="47.16724" lon="3.00962">
        <ele>164.908956</ele>
        <time>2021-09-10T07:51:04.000Z</time>
      </trkpt>
      <trkpt lat="47.16668" lon="3.00971">
        <ele>164.984765</ele>
        <time>2021-09-10T07:51:13.000Z</time>
      </trkpt>
      <trkpt lat="47.16655" lon="3.00973">
        <ele>164.996138</ele>
        <time>2021-09-10T07:51:15.000Z</time>
      </trkpt>
      <trkpt lat="47.16618" lon="3.00978">
        <ele>165.030336</ele>
        <time>2021-09-10T07:51:21.000Z</time>
      </trkpt>
      <trkpt lat="47.16567" lon="3.00986">
        <ele>165.076363</ele>
        <time>2021-09-10T07:51:29.000Z</time>
      </trkpt>
      <trkpt lat="47.16511" lon="3.00997">
        <ele>165.108601</ele>
        <time>2021-09-10T07:51:38.000Z</time>
      </trkpt>
      <trkpt lat="47.16499" lon="3.01">
        <ele>165.107381</ele>
        <time>2021-09-10T07:51:40.000Z</time>
      </trkpt>
      <trkpt lat="47.16443" lon="3.01015">
        <ele>165.101835</ele>
        <time>2021-09-10T07:51:49.000Z</time>
      </trkpt>
      <trkpt lat="47.16437" lon="3.01017">
        <ele>165.10122</ele>
        <time>2021-09-10T07:51:50.000Z</time>
      </trkpt>
      <trkpt lat="47.16388" lon="3.0103">
        <ele>165.096399</ele>
        <time>2021-09-10T07:51:58.000Z</time>
      </trkpt>
      <trkpt lat="47.16333" lon="3.01036">
        <ele>165.116121</ele>
        <time>2021-09-10T07:52:07.000Z</time>
      </trkpt>
      <trkpt lat="47.16277" lon="3.01042">
        <ele>165.18332</ele>
        <time>2021-09-10T07:52:16.000Z</time>
      </trkpt>
      <trkpt lat="47.16222" lon="3.01047">
        <ele>165.24908</ele>
        <time>2021-09-10T07:52:25.000Z</time>
      </trkpt>
      <trkpt lat="47.16168" lon="3.01052">
        <ele>165.310664</ele>
        <time>2021-09-10T07:52:34.000Z</time>
      </trkpt>
      <trkpt lat="47.16113" lon="3.01062">
        <ele>165.339202</ele>
        <time>2021-09-10T07:52:43.000Z</time>
      </trkpt>
      <trkpt lat="47.16059" lon="3.01073">
        <ele>165.367047</ele>
        <time>2021-09-10T07:52:52.000Z</time>
      </trkpt>
      <trkpt lat="47.16004" lon="3.01084">
        <ele>165.39505</ele>
        <time>2021-09-10T07:53:01.000Z</time>
      </trkpt>
      <trkpt lat="47.15998" lon="3.01086">
        <ele>165.398146</ele>
        <time>2021-09-10T07:53:02.000Z</time>
      </trkpt>
      <trkpt lat="47.15945" lon="3.01097">
        <ele>165.45941</ele>
        <time>2021-09-10T07:53:11.000Z</time>
      </trkpt>
      <trkpt lat="47.15908" lon="3.01103">
        <ele>165.502439</ele>
        <time>2021-09-10T07:53:17.000Z</time>
      </trkpt>
      <trkpt lat="47.15855" lon="3.01115">
        <ele>165.566171</ele>
        <time>2021-09-10T07:53:26.000Z</time>
      </trkpt>
      <trkpt lat="47.15843" lon="3.01119">
        <ele>165.580181</ele>
        <time>2021-09-10T07:53:28.000Z</time>
      </trkpt>
      <trkpt lat="47.15786" lon="3.0114">
        <ele>165.606568</ele>
        <time>2021-09-10T07:53:38.000Z</time>
      </trkpt>
      <trkpt lat="47.15749" lon="3.0115">
        <ele>165.600254</ele>
        <time>2021-09-10T07:53:44.000Z</time>
      </trkpt>
      <trkpt lat="47.15699" lon="3.01168">
        <ele>165.591368</ele>
        <time>2021-09-10T07:53:52.000Z</time>
      </trkpt>
      <trkpt lat="47.15651" lon="3.01184">
        <ele>165.58289</ele>
        <time>2021-09-10T07:54:00.000Z</time>
      </trkpt>
      <trkpt lat="47.15602" lon="3.01195">
        <ele>165.481302</ele>
        <time>2021-09-10T07:54:09.000Z</time>
      </trkpt>
      <trkpt lat="47.15565" lon="3.01192">
        <ele>165.391478</ele>
        <time>2021-09-10T07:54:15.000Z</time>
      </trkpt>
      <trkpt lat="47.15511" lon="3.01194">
        <ele>165.258122</ele>
        <time>2021-09-10T07:54:24.000Z</time>
      </trkpt>
      <trkpt lat="47.15471" lon="3.01216">
        <ele>165.152782</ele>
        <time>2021-09-10T07:54:31.000Z</time>
      </trkpt>
      <trkpt lat="47.15428" lon="3.01249">
        <ele>165.093626</ele>
        <time>2021-09-10T07:54:39.000Z</time>
      </trkpt>
      <trkpt lat="47.15379" lon="3.01288">
        <ele>165.036287</ele>
        <time>2021-09-10T07:54:48.000Z</time>
      </trkpt>
      <trkpt lat="47.15328" lon="3.0132">
        <ele>164.979021</ele>
        <time>2021-09-10T07:54:57.000Z</time>
      </trkpt>
      <trkpt lat="47.15322" lon="3.01322">
        <ele>164.972714</ele>
        <time>2021-09-10T07:54:58.000Z</time>
      </trkpt>
      <trkpt lat="47.15279" lon="3.0133">
        <ele>164.90514</ele>
        <time>2021-09-10T07:55:05.000Z</time>
      </trkpt>
      <trkpt lat="47.15229" lon="3.01325">
        <ele>164.805876</ele>
        <time>2021-09-10T07:55:13.000Z</time>
      </trkpt>
      <trkpt lat="47.15174" lon="3.01313">
        <ele>164.697169</ele>
        <time>2021-09-10T07:55:22.000Z</time>
      </trkpt>
      <trkpt lat="47.15168" lon="3.01312">
        <ele>164.685424</ele>
        <time>2021-09-10T07:55:23.000Z</time>
      </trkpt>
      <trkpt lat="47.15126" lon="3.01311">
        <ele>164.601798</ele>
        <time>2021-09-10T07:55:30.000Z</time>
      </trkpt>
      <trkpt lat="47.15078" lon="3.01324">
        <ele>164.587569</ele>
        <time>2021-09-10T07:55:38.000Z</time>
      </trkpt>
      <trkpt lat="47.15022" lon="3.01342">
        <ele>164.576176</ele>
        <time>2021-09-10T07:55:47.000Z</time>
      </trkpt>
      <trkpt lat="47.14973" lon="3.01357">
        <ele>164.566114</ele>
        <time>2021-09-10T07:55:55.000Z</time>
      </trkpt>
      <trkpt lat="47.14919" lon="3.01374">
        <ele>164.59857</ele>
        <time>2021-09-10T07:56:04.000Z</time>
      </trkpt>
      <trkpt lat="47.14865" lon="3.0139">
        <ele>164.671427</ele>
        <time>2021-09-10T07:56:13.000Z</time>
      </trkpt>
      <trkpt lat="47.14853" lon="3.01394">
        <ele>164.687888</ele>
        <time>2021-09-10T07:56:15.000Z</time>
      </trkpt>
      <trkpt lat="47.14799" lon="3.01411">
        <ele>164.760596</ele>
        <time>2021-09-10T07:56:24.000Z</time>
      </trkpt>
      <trkpt lat="47.14787" lon="3.01415">
        <ele>164.776799</ele>
        <time>2021-09-10T07:56:26.000Z</time>
      </trkpt>
      <trkpt lat="47.14732" lon="3.01432">
        <ele>164.810671</ele>
        <time>2021-09-10T07:56:35.000Z</time>
      </trkpt>
      <trkpt lat="47.14726" lon="3.01434">
        <ele>164.81257</ele>
        <time>2021-09-10T07:56:36.000Z</time>
      </trkpt>
      <trkpt lat="47.14673" lon="3.0145">
        <ele>164.829736</ele>
        <time>2021-09-10T07:56:45.000Z</time>
      </trkpt>
      <trkpt lat="47.14625" lon="3.01465">
        <ele>164.845131</ele>
        <time>2021-09-10T07:56:53.000Z</time>
      </trkpt>
      <trkpt lat="47.14576" lon="3.01477">
        <ele>164.842475</ele>
        <time>2021-09-10T07:57:01.000Z</time>
      </trkpt>
      <trkpt lat="47.14529" lon="3.01477">
        <ele>164.811448</ele>
        <time>2021-09-10T07:57:09.000Z</time>
      </trkpt>
      <trkpt lat="47.1447" lon="3.01473">
        <ele>164.773054</ele>
        <time>2021-09-10T07:57:19.000Z</time>
      </trkpt>
      <trkpt lat="47.14412" lon="3.0147">
        <ele>164.731772</ele>
        <time>2021-09-10T07:57:29.000Z</time>
      </trkpt>
      <trkpt lat="47.14352" lon="3.01464">
        <ele>164.639445</ele>
        <time>2021-09-10T07:57:39.000Z</time>
      </trkpt>
      <trkpt lat="47.14346" lon="3.01463">
        <ele>164.630473</ele>
        <time>2021-09-10T07:57:40.000Z</time>
      </trkpt>
      <trkpt lat="47.14299" lon="3.01458">
        <ele>164.557435</ele>
        <time>2021-09-10T07:57:48.000Z</time>
      </trkpt>
      <trkpt lat="47.14245" lon="3.01452">
        <ele>164.473872</ele>
        <time>2021-09-10T07:57:57.000Z</time>
      </trkpt>
      <trkpt lat="47.14227" lon="3.0145">
        <ele>164.469637</ele>
        <time>2021-09-10T07:58:00.000Z</time>
      </trkpt>
      <trkpt lat="47.1418" lon="3.01444">
        <ele>164.521835</ele>
        <time>2021-09-10T07:58:08.000Z</time>
      </trkpt>
      <trkpt lat="47.14145" lon="3.01448">
        <ele>164.560332</ele>
        <time>2021-09-10T07:58:14.000Z</time>
      </trkpt>
      <trkpt lat="47.14106" lon="3.01462">
        <ele>164.604384</ele>
        <time>2021-09-10T07:58:21.000Z</time>
      </trkpt>
      <trkpt lat="47.14061" lon="3.0148">
        <ele>164.655497</ele>
        <time>2021-09-10T07:58:29.000Z</time>
      </trkpt>
      <trkpt lat="47.14021" lon="3.01497">
        <ele>164.769191</ele>
        <time>2021-09-10T07:58:36.000Z</time>
      </trkpt>
      <trkpt lat="47.13987" lon="3.01511">
        <ele>164.86807</ele>
        <time>2021-09-10T07:58:42.000Z</time>
      </trkpt>
      <trkpt lat="47.13947" lon="3.01527">
        <ele>164.984348</ele>
        <time>2021-09-10T07:58:49.000Z</time>
      </trkpt>
      <trkpt lat="47.13895" lon="3.01549">
        <ele>165.134246</ele>
        <time>2021-09-10T07:58:58.000Z</time>
      </trkpt>
      <trkpt lat="47.13849" lon="3.01568">
        <ele>165.171123</ele>
        <time>2021-09-10T07:59:06.000Z</time>
      </trkpt>
      <trkpt lat="47.13802" lon="3.01588">
        <ele>165.185805</ele>
        <time>2021-09-10T07:59:14.000Z</time>
      </trkpt>
      <trkpt lat="47.13754" lon="3.01607">
        <ele>165.200643</ele>
        <time>2021-09-10T07:59:22.000Z</time>
      </trkpt>
      <trkpt lat="47.13706" lon="3.01626">
        <ele>165.213253</ele>
        <time>2021-09-10T07:59:30.000Z</time>
      </trkpt>
      <trkpt lat="47.13659" lon="3.01644">
        <ele>165.211354</ele>
        <time>2021-09-10T07:59:38.000Z</time>
      </trkpt>
      <trkpt lat="47.13606" lon="3.0167">
        <ele>165.209209</ele>
        <time>2021-09-10T07:59:47.000Z</time>
      </trkpt>
      <trkpt lat="47.136" lon="3.01673">
        <ele>165.208966</ele>
        <time>2021-09-10T07:59:48.000Z</time>
      </trkpt>
      <trkpt lat="47.1356" lon="3.01713">
        <ele>165.207081</ele>
        <time>2021-09-10T07:59:56.000Z</time>
      </trkpt>
      <trkpt lat="47.13512" lon="3.01756">
        <ele>165.269365</ele>
        <time>2021-09-10T08:00:05.000Z</time>
      </trkpt>
      <trkpt lat="47.13476" lon="3.01788">
        <ele>165.332771</ele>
        <time>2021-09-10T08:00:12.000Z</time>
      </trkpt>
      <trkpt lat="47.13438" lon="3.01821">
        <ele>165.397253</ele>
        <time>2021-09-10T08:00:19.000Z</time>
      </trkpt>
      <trkpt lat="47.13397" lon="3.01857">
        <ele>165.46829</ele>
        <time>2021-09-10T08:00:27.000Z</time>
      </trkpt>
      <trkpt lat="47.13351" lon="3.01898">
        <ele>165.542191</ele>
        <time>2021-09-10T08:00:36.000Z</time>
      </trkpt>
      <trkpt lat="47.13304" lon="3.0194">
        <ele>165.615855</ele>
        <time>2021-09-10T08:00:45.000Z</time>
      </trkpt>
      <trkpt lat="47.13257" lon="3.01981">
        <ele>165.689154</ele>
        <time>2021-09-10T08:00:54.000Z</time>
      </trkpt>
      <trkpt lat="47.13247" lon="3.01991">
        <ele>165.705568</ele>
        <time>2021-09-10T08:00:56.000Z</time>
      </trkpt>
      <trkpt lat="47.132" lon="3.02034">
        <ele>165.821922</ele>
        <time>2021-09-10T08:01:05.000Z</time>
      </trkpt>
      <trkpt lat="47.13169" lon="3.02061">
        <ele>165.901933</ele>
        <time>2021-09-10T08:01:11.000Z</time>
      </trkpt>
      <trkpt lat="47.13135" lon="3.02093">
        <ele>165.991829</ele>
        <time>2021-09-10T08:01:18.000Z</time>
      </trkpt>
      <trkpt lat="47.13088" lon="3.02135">
        <ele>166.112801</ele>
        <time>2021-09-10T08:01:27.000Z</time>
      </trkpt>
      <trkpt lat="47.13065" lon="3.02156">
        <ele>166.167526</ele>
        <time>2021-09-10T08:01:32.000Z</time>
      </trkpt>
      <trkpt lat="47.1306" lon="3.0216">
        <ele>166.177551</ele>
        <time>2021-09-10T08:01:33.000Z</time>
      </trkpt>
      <trkpt lat="47.13033" lon="3.02185">
        <ele>166.240055</ele>
        <time>2021-09-10T08:01:39.000Z</time>
      </trkpt>
      <trkpt lat="47.13015" lon="3.02201">
        <ele>166.282821</ele>
        <time>2021-09-10T08:01:43.000Z</time>
      </trkpt>
      <trkpt lat="47.13006" lon="3.0221">
        <ele>166.30368</ele>
        <time>2021-09-10T08:01:45.000Z</time>
      </trkpt>
      <trkpt lat="47.12997" lon="3.02218">
        <ele>166.324062</ele>
        <time>2021-09-10T08:01:47.000Z</time>
      </trkpt>
      <trkpt lat="47.12983" lon="3.0223">
        <ele>166.35654</ele>
        <time>2021-09-10T08:01:50.000Z</time>
      </trkpt>
      <trkpt lat="47.12973" lon="3.0224">
        <ele>166.379876</ele>
        <time>2021-09-10T08:01:52.000Z</time>
      </trkpt>
      <trkpt lat="47.12959" lon="3.02252">
        <ele>166.412759</ele>
        <time>2021-09-10T08:01:55.000Z</time>
      </trkpt>
      <trkpt lat="47.12927" lon="3.02275">
        <ele>166.472595</ele>
        <time>2021-09-10T08:02:01.000Z</time>
      </trkpt>
      <trkpt lat="47.12892" lon="3.02285">
        <ele>166.489338</ele>
        <time>2021-09-10T08:02:07.000Z</time>
      </trkpt>
      <trkpt lat="47.1284" lon="3.02293">
        <ele>166.513932</ele>
        <time>2021-09-10T08:02:16.000Z</time>
      </trkpt>
      <trkpt lat="47.12798" lon="3.02299">
        <ele>166.533494</ele>
        <time>2021-09-10T08:02:23.000Z</time>
      </trkpt>
      <trkpt lat="47.12756" lon="3.02305">
        <ele>166.553293</ele>
        <time>2021-09-10T08:02:30.000Z</time>
      </trkpt>
      <trkpt lat="47.12709" lon="3.02312">
        <ele>166.388876</ele>
        <time>2021-09-10T08:02:38.000Z</time>
      </trkpt>
      <trkpt lat="47.12661" lon="3.02319">
        <ele>166.21938</ele>
        <time>2021-09-10T08:02:46.000Z</time>
      </trkpt>
      <trkpt lat="47.12607" lon="3.02327">
        <ele>166.029336</ele>
        <time>2021-09-10T08:02:55.000Z</time>
      </trkpt>
      <trkpt lat="47.1256" lon="3.02335">
        <ele>165.891491</ele>
        <time>2021-09-10T08:03:03.000Z</time>
      </trkpt>
      <trkpt lat="47.12513" lon="3.02343">
        <ele>165.808863</ele>
        <time>2021-09-10T08:03:11.000Z</time>
      </trkpt>
      <trkpt lat="47.12465" lon="3.02351">
        <ele>165.723257</ele>
        <time>2021-09-10T08:03:19.000Z</time>
      </trkpt>
      <trkpt lat="47.12411" lon="3.0236">
        <ele>165.628318</ele>
        <time>2021-09-10T08:03:28.000Z</time>
      </trkpt>
      <trkpt lat="47.12363" lon="3.02368">
        <ele>165.558697</ele>
        <time>2021-09-10T08:03:36.000Z</time>
      </trkpt>
      <trkpt lat="47.12316" lon="3.02376">
        <ele>165.49412</ele>
        <time>2021-09-10T08:03:44.000Z</time>
      </trkpt>
      <trkpt lat="47.12262" lon="3.02384">
        <ele>165.420812</ele>
        <time>2021-09-10T08:03:53.000Z</time>
      </trkpt>
      <trkpt lat="47.12244" lon="3.02387">
        <ele>165.39629</ele>
        <time>2021-09-10T08:03:56.000Z</time>
      </trkpt>
      <trkpt lat="47.1219" lon="3.02395">
        <ele>165.368662</ele>
        <time>2021-09-10T08:04:05.000Z</time>
      </trkpt>
      <trkpt lat="47.12137" lon="3.02403">
        <ele>165.379727</ele>
        <time>2021-09-10T08:04:14.000Z</time>
      </trkpt>
      <trkpt lat="47.12099" lon="3.02409">
        <ele>165.387508</ele>
        <time>2021-09-10T08:04:20.000Z</time>
      </trkpt>
      <trkpt lat="47.1205" lon="3.02416">
        <ele>165.397758</ele>
        <time>2021-09-10T08:04:28.000Z</time>
      </trkpt>
      <trkpt lat="47.11991" lon="3.02425">
        <ele>165.388676</ele>
        <time>2021-09-10T08:04:38.000Z</time>
      </trkpt>
      <trkpt lat="47.11945" lon="3.02432">
        <ele>165.37786</ele>
        <time>2021-09-10T08:04:46.000Z</time>
      </trkpt>
      <trkpt lat="47.11893" lon="3.0244">
        <ele>165.365738</ele>
        <time>2021-09-10T08:04:55.000Z</time>
      </trkpt>
      <trkpt lat="47.11835" lon="3.02448">
        <ele>165.334056</ele>
        <time>2021-09-10T08:05:05.000Z</time>
      </trkpt>
      <trkpt lat="47.11782" lon="3.02456">
        <ele>165.284743</ele>
        <time>2021-09-10T08:05:14.000Z</time>
      </trkpt>
      <trkpt lat="47.11729" lon="3.02459">
        <ele>165.235097</ele>
        <time>2021-09-10T08:05:23.000Z</time>
      </trkpt>
      <trkpt lat="47.11677" lon="3.02461">
        <ele>165.187897</ele>
        <time>2021-09-10T08:05:32.000Z</time>
      </trkpt>
      <trkpt lat="47.11623" lon="3.02464">
        <ele>165.156639</ele>
        <time>2021-09-10T08:05:41.000Z</time>
      </trkpt>
      <trkpt lat="47.11565" lon="3.02466">
        <ele>165.12265</ele>
        <time>2021-09-10T08:05:51.000Z</time>
      </trkpt>
      <trkpt lat="47.11506" lon="3.02469">
        <ele>165.088719</ele>
        <time>2021-09-10T08:06:01.000Z</time>
      </trkpt>
      <trkpt lat="47.115" lon="3.02469">
        <ele>165.086436</ele>
        <time>2021-09-10T08:06:02.000Z</time>
      </trkpt>
      <trkpt lat="47.11465" lon="3.02471">
        <ele>165.096056</ele>
        <time>2021-09-10T08:06:08.000Z</time>
      </trkpt>
      <trkpt lat="47.11418" lon="3.02473">
        <ele>165.109259</ele>
        <time>2021-09-10T08:06:16.000Z</time>
      </trkpt>
      <trkpt lat="47.11371" lon="3.02475">
        <ele>165.122214</ele>
        <time>2021-09-10T08:06:24.000Z</time>
      </trkpt>
      <trkpt lat="47.11313" lon="3.02478">
        <ele>165.133262</ele>
        <time>2021-09-10T08:06:34.000Z</time>
      </trkpt>
      <trkpt lat="47.11266" lon="3.0248">
        <ele>165.119842</ele>
        <time>2021-09-10T08:06:42.000Z</time>
      </trkpt>
      <trkpt lat="47.11217" lon="3.02482">
        <ele>165.106024</ele>
        <time>2021-09-10T08:06:50.000Z</time>
      </trkpt>
      <trkpt lat="47.11159" lon="3.02484">
        <ele>165.089372</ele>
        <time>2021-09-10T08:07:00.000Z</time>
      </trkpt>
      <trkpt lat="47.11147" lon="3.02485">
        <ele>165.085996</ele>
        <time>2021-09-10T08:07:02.000Z</time>
      </trkpt>
      <trkpt lat="47.11093" lon="3.02487">
        <ele>165.107746</ele>
        <time>2021-09-10T08:07:11.000Z</time>
      </trkpt>
      <trkpt lat="47.11081" lon="3.02487">
        <ele>165.113325</ele>
        <time>2021-09-10T08:07:13.000Z</time>
      </trkpt>
      <trkpt lat="47.11028" lon="3.02489">
        <ele>165.138125</ele>
        <time>2021-09-10T08:07:22.000Z</time>
      </trkpt>
      <trkpt lat="47.10975" lon="3.02491">
        <ele>165.163066</ele>
        <time>2021-09-10T08:07:31.000Z</time>
      </trkpt>
      <trkpt lat="47.10952" lon="3.02492">
        <ele>165.245524</ele>
        <time>2021-09-10T08:07:35.000Z</time>
      </trkpt>
      <trkpt lat="47.10946" lon="3.02492">
        <ele>165.287209</ele>
        <time>2021-09-10T08:07:36.000Z</time>
      </trkpt>
      <trkpt lat="47.10936" lon="3.02492">
        <ele>165.367604</ele>
        <time>2021-09-10T08:07:38.000Z</time>
      </trkpt>
      <trkpt lat="47.10919" lon="3.02493">
        <ele>165.490429</ele>
        <time>2021-09-10T08:07:41.000Z</time>
      </trkpt>
      <trkpt lat="47.10903" lon="3.02493">
        <ele>165.611022</ele>
        <time>2021-09-10T08:07:44.000Z</time>
      </trkpt>
      <trkpt lat="47.10887" lon="3.02494">
        <ele>165.730127</ele>
        <time>2021-09-10T08:07:47.000Z</time>
      </trkpt>
      <trkpt lat="47.10859" lon="3.02495">
        <ele>165.940042</ele>
        <time>2021-09-10T08:07:53.000Z</time>
      </trkpt>
      <trkpt lat="47.10845" lon="3.02496">
        <ele>166.039048</ele>
        <time>2021-09-10T08:07:57.000Z</time>
      </trkpt>
      <trkpt lat="47.10844" lon="3.02496">
        <ele>166.046507</ele>
        <time>2021-09-10T08:07:58.000Z</time>
      </trkpt>
      <trkpt lat="47.10844" lon="3.02496">
        <ele>166.051716</ele>
        <time>2021-09-10T08:08:01.000Z</time>
      </trkpt>
      <trkpt lat="47.10842" lon="3.02496">
        <ele>166.062878</ele>
        <time>2021-09-10T08:10:31.000Z</time>
      </trkpt>
      <trkpt lat="47.10841" lon="3.02496">
        <ele>166.070337</ele>
        <time>2021-09-10T08:10:32.000Z</time>
      </trkpt>
      <trkpt lat="47.10839" lon="3.02496">
        <ele>166.082988</ele>
        <time>2021-09-10T08:10:36.000Z</time>
      </trkpt>
      <trkpt lat="47.10837" lon="3.02496">
        <ele>166.101599</ele>
        <time>2021-09-10T08:11:15.000Z</time>
      </trkpt>
      <trkpt lat="47.10828" lon="3.02496">
        <ele>166.170092</ele>
        <time>2021-09-10T08:11:20.000Z</time>
      </trkpt>
      <trkpt lat="47.10814" lon="3.02497">
        <ele>166.272088</ele>
        <time>2021-09-10T08:11:27.000Z</time>
      </trkpt>
      <trkpt lat="47.10813" lon="3.02497">
        <ele>166.280289</ele>
        <time>2021-09-10T08:11:30.000Z</time>
      </trkpt>
      <trkpt lat="47.10808" lon="3.02497">
        <ele>166.318255</ele>
        <time>2021-09-10T08:11:38.000Z</time>
      </trkpt>
      <trkpt lat="47.10789" lon="3.02498">
        <ele>166.459737</ele>
        <time>2021-09-10T08:11:45.000Z</time>
      </trkpt>
      <trkpt lat="47.10765" lon="3.02499">
        <ele>166.561721</ele>
        <time>2021-09-10T08:11:50.000Z</time>
      </trkpt>
      <trkpt lat="47.10725" lon="3.02501">
        <ele>166.689933</ele>
        <time>2021-09-10T08:11:57.000Z</time>
      </trkpt>
      <trkpt lat="47.1069" lon="3.02503">
        <ele>166.798252</ele>
        <time>2021-09-10T08:12:03.000Z</time>
      </trkpt>
      <trkpt lat="47.10684" lon="3.02504">
        <ele>166.817199</ele>
        <time>2021-09-10T08:12:04.000Z</time>
      </trkpt>
      <trkpt lat="47.10641" lon="3.02505">
        <ele>166.955139</ele>
        <time>2021-09-10T08:12:11.000Z</time>
      </trkpt>
      <trkpt lat="47.10598" lon="3.02504">
        <ele>167.084628</ele>
        <time>2021-09-10T08:12:18.000Z</time>
      </trkpt>
      <trkpt lat="47.10558" lon="3.02504">
        <ele>167.177039</ele>
        <time>2021-09-10T08:12:25.000Z</time>
      </trkpt>
      <trkpt lat="47.10552" lon="3.02504">
        <ele>167.189557</ele>
        <time>2021-09-10T08:12:26.000Z</time>
      </trkpt>
      <trkpt lat="47.10525" lon="3.02503">
        <ele>167.25124</ele>
        <time>2021-09-10T08:12:31.000Z</time>
      </trkpt>
      <trkpt lat="47.10489" lon="3.02503">
        <ele>167.334317</ele>
        <time>2021-09-10T08:12:38.000Z</time>
      </trkpt>
      <trkpt lat="47.10458" lon="3.02503">
        <ele>167.403963</ele>
        <time>2021-09-10T08:12:44.000Z</time>
      </trkpt>
      <trkpt lat="47.10427" lon="3.02503">
        <ele>167.47543</ele>
        <time>2021-09-10T08:12:50.000Z</time>
      </trkpt>
      <trkpt lat="47.10421" lon="3.02503">
        <ele>167.488459</ele>
        <time>2021-09-10T08:12:51.000Z</time>
      </trkpt>
      <trkpt lat="47.10397" lon="3.02503">
        <ele>167.540618</ele>
        <time>2021-09-10T08:12:55.000Z</time>
      </trkpt>
      <trkpt lat="47.10385" lon="3.02503">
        <ele>167.567243</ele>
        <time>2021-09-10T08:12:57.000Z</time>
      </trkpt>
      <trkpt lat="47.10361" lon="3.02503">
        <ele>167.619838</ele>
        <time>2021-09-10T08:13:01.000Z</time>
      </trkpt>
      <trkpt lat="47.1031" lon="3.02504">
        <ele>167.730484</ele>
        <time>2021-09-10T08:13:09.000Z</time>
      </trkpt>
      <trkpt lat="47.10259" lon="3.02504">
        <ele>167.841786</ele>
        <time>2021-09-10T08:13:17.000Z</time>
      </trkpt>
      <trkpt lat="47.102" lon="3.02504">
        <ele>167.861936</ele>
        <time>2021-09-10T08:13:26.000Z</time>
      </trkpt>
      <trkpt lat="47.10143" lon="3.02504">
        <ele>167.841721</ele>
        <time>2021-09-10T08:13:35.000Z</time>
      </trkpt>
      <trkpt lat="47.10137" lon="3.02504">
        <ele>167.839608</ele>
        <time>2021-09-10T08:13:36.000Z</time>
      </trkpt>
      <trkpt lat="47.10086" lon="3.02505">
        <ele>167.821787</ele>
        <time>2021-09-10T08:13:44.000Z</time>
      </trkpt>
      <trkpt lat="47.10028" lon="3.02505">
        <ele>167.810993</ele>
        <time>2021-09-10T08:13:53.000Z</time>
      </trkpt>
      <trkpt lat="47.10016" lon="3.02505">
        <ele>167.810023</ele>
        <time>2021-09-10T08:13:55.000Z</time>
      </trkpt>
      <trkpt lat="47.09965" lon="3.02505">
        <ele>167.806169</ele>
        <time>2021-09-10T08:14:03.000Z</time>
      </trkpt>
      <trkpt lat="47.09907" lon="3.02505">
        <ele>167.801806</ele>
        <time>2021-09-10T08:14:12.000Z</time>
      </trkpt>
      <trkpt lat="47.0985" lon="3.02506">
        <ele>167.755183</ele>
        <time>2021-09-10T08:14:21.000Z</time>
      </trkpt>
      <trkpt lat="47.09795" lon="3.02506">
        <ele>167.678693</ele>
        <time>2021-09-10T08:14:30.000Z</time>
      </trkpt>
      <trkpt lat="47.09788" lon="3.02506">
        <ele>167.670209</ele>
        <time>2021-09-10T08:14:31.000Z</time>
      </trkpt>
      <trkpt lat="47.09733" lon="3.02506">
        <ele>167.595087</ele>
        <time>2021-09-10T08:14:40.000Z</time>
      </trkpt>
      <trkpt lat="47.09715" lon="3.02506">
        <ele>167.569499</ele>
        <time>2021-09-10T08:14:43.000Z</time>
      </trkpt>
      <trkpt lat="47.0966" lon="3.02506">
        <ele>167.461144</ele>
        <time>2021-09-10T08:14:52.000Z</time>
      </trkpt>
      <trkpt lat="47.09647" lon="3.02507">
        <ele>167.434974</ele>
        <time>2021-09-10T08:14:54.000Z</time>
      </trkpt>
      <trkpt lat="47.09593" lon="3.02507">
        <ele>167.319018</ele>
        <time>2021-09-10T08:15:03.000Z</time>
      </trkpt>
      <trkpt lat="47.09538" lon="3.02507">
        <ele>167.202423</ele>
        <time>2021-09-10T08:15:12.000Z</time>
      </trkpt>
      <trkpt lat="47.09532" lon="3.02507">
        <ele>167.189232</ele>
        <time>2021-09-10T08:15:13.000Z</time>
      </trkpt>
      <trkpt lat="47.09483" lon="3.02507">
        <ele>167.101045</ele>
        <time>2021-09-10T08:15:21.000Z</time>
      </trkpt>
      <trkpt lat="47.09434" lon="3.02507">
        <ele>167.016842</ele>
        <time>2021-09-10T08:15:29.000Z</time>
      </trkpt>
      <trkpt lat="47.09379" lon="3.02508">
        <ele>166.923703</ele>
        <time>2021-09-10T08:15:38.000Z</time>
      </trkpt>
      <trkpt lat="47.09373" lon="3.02508">
        <ele>166.91322</ele>
        <time>2021-09-10T08:15:39.000Z</time>
      </trkpt>
      <trkpt lat="47.09319" lon="3.02508">
        <ele>166.879057</ele>
        <time>2021-09-10T08:15:48.000Z</time>
      </trkpt>
      <trkpt lat="47.09308" lon="3.02508">
        <ele>166.887295</ele>
        <time>2021-09-10T08:15:50.000Z</time>
      </trkpt>
      <trkpt lat="47.09258" lon="3.02508">
        <ele>166.922204</ele>
        <time>2021-09-10T08:15:59.000Z</time>
      </trkpt>
      <trkpt lat="47.09215" lon="3.02508">
        <ele>166.951876</ele>
        <time>2021-09-10T08:16:06.000Z</time>
      </trkpt>
      <trkpt lat="47.09159" lon="3.02503">
        <ele>166.983054</ele>
        <time>2021-09-10T08:16:15.000Z</time>
      </trkpt>
      <trkpt lat="47.09107" lon="3.02491">
        <ele>166.928687</ele>
        <time>2021-09-10T08:16:24.000Z</time>
      </trkpt>
      <trkpt lat="47.0906" lon="3.02478">
        <ele>166.879454</ele>
        <time>2021-09-10T08:16:32.000Z</time>
      </trkpt>
      <trkpt lat="47.09019" lon="3.02467">
        <ele>166.836504</ele>
        <time>2021-09-10T08:16:39.000Z</time>
      </trkpt>
      <trkpt lat="47.08961" lon="3.02453">
        <ele>166.821535</ele>
        <time>2021-09-10T08:16:49.000Z</time>
      </trkpt>
      <trkpt lat="47.08902" lon="3.02438">
        <ele>166.864287</ele>
        <time>2021-09-10T08:16:59.000Z</time>
      </trkpt>
      <trkpt lat="47.08861" lon="3.02429">
        <ele>166.893925</ele>
        <time>2021-09-10T08:17:06.000Z</time>
      </trkpt>
      <trkpt lat="47.08814" lon="3.02414">
        <ele>166.9287</ele>
        <time>2021-09-10T08:17:14.000Z</time>
      </trkpt>
      <trkpt lat="47.08767" lon="3.02395">
        <ele>166.948589</ele>
        <time>2021-09-10T08:17:22.000Z</time>
      </trkpt>
      <trkpt lat="47.08715" lon="3.02373">
        <ele>166.969329</ele>
        <time>2021-09-10T08:17:31.000Z</time>
      </trkpt>
      <trkpt lat="47.08703" lon="3.02368">
        <ele>166.973908</ele>
        <time>2021-09-10T08:17:33.000Z</time>
      </trkpt>
      <trkpt lat="47.08651" lon="3.02345">
        <ele>166.994365</ele>
        <time>2021-09-10T08:17:42.000Z</time>
      </trkpt>
      <trkpt lat="47.08645" lon="3.02343">
        <ele>166.996694</ele>
        <time>2021-09-10T08:17:43.000Z</time>
      </trkpt>
      <trkpt lat="47.08599" lon="3.02323">
        <ele>167.015596</ele>
        <time>2021-09-10T08:17:51.000Z</time>
      </trkpt>
      <trkpt lat="47.08561" lon="3.02296">
        <ele>167.032018</ele>
        <time>2021-09-10T08:17:58.000Z</time>
      </trkpt>
      <trkpt lat="47.0852" lon="3.0226">
        <ele>167.050849</ele>
        <time>2021-09-10T08:18:06.000Z</time>
      </trkpt>
      <trkpt lat="47.08474" lon="3.02215">
        <ele>167.079548</ele>
        <time>2021-09-10T08:18:15.000Z</time>
      </trkpt>
      <trkpt lat="47.0843" lon="3.02167">
        <ele>167.175852</ele>
        <time>2021-09-10T08:18:24.000Z</time>
      </trkpt>
      <trkpt lat="47.08426" lon="3.02162">
        <ele>167.186545</ele>
        <time>2021-09-10T08:18:25.000Z</time>
      </trkpt>
      <trkpt lat="47.08382" lon="3.02114">
        <ele>167.283713</ele>
        <time>2021-09-10T08:18:34.000Z</time>
      </trkpt>
      <trkpt lat="47.0834" lon="3.02062">
        <ele>167.382249</ele>
        <time>2021-09-10T08:18:43.000Z</time>
      </trkpt>
      <trkpt lat="47.0833" lon="3.0205">
        <ele>167.402094</ele>
        <time>2021-09-10T08:18:45.000Z</time>
      </trkpt>
      <trkpt lat="47.08297" lon="3.02009">
        <ele>167.464408</ele>
        <time>2021-09-10T08:18:52.000Z</time>
      </trkpt>
      <trkpt lat="47.08257" lon="3.01955">
        <ele>167.543227</ele>
        <time>2021-09-10T08:19:01.000Z</time>
      </trkpt>
      <trkpt lat="47.08248" lon="3.01944">
        <ele>167.560262</ele>
        <time>2021-09-10T08:19:03.000Z</time>
      </trkpt>
      <trkpt lat="47.08205" lon="3.01887">
        <ele>167.644626</ele>
        <time>2021-09-10T08:19:13.000Z</time>
      </trkpt>
      <trkpt lat="47.08163" lon="3.01835">
        <ele>167.765793</ele>
        <time>2021-09-10T08:19:22.000Z</time>
      </trkpt>
      <trkpt lat="47.08129" lon="3.01801">
        <ele>167.860714</ele>
        <time>2021-09-10T08:19:29.000Z</time>
      </trkpt>
      <trkpt lat="47.08081" lon="3.01756">
        <ele>167.991245</ele>
        <time>2021-09-10T08:19:39.000Z</time>
      </trkpt>
      <trkpt lat="47.08071" lon="3.01747">
        <ele>168.017036</ele>
        <time>2021-09-10T08:19:41.000Z</time>
      </trkpt>
      <trkpt lat="47.08032" lon="3.0171">
        <ele>168.074179</ele>
        <time>2021-09-10T08:19:49.000Z</time>
      </trkpt>
      <trkpt lat="47.0799" lon="3.01671">
        <ele>168.094418</ele>
        <time>2021-09-10T08:19:57.000Z</time>
      </trkpt>
      <trkpt lat="47.07954" lon="3.01651">
        <ele>168.11004</ele>
        <time>2021-09-10T08:20:03.000Z</time>
      </trkpt>
      <trkpt lat="47.07903" lon="3.01624">
        <ele>168.13237</ele>
        <time>2021-09-10T08:20:12.000Z</time>
      </trkpt>
      <trkpt lat="47.07848" lon="3.01593">
        <ele>168.143535</ele>
        <time>2021-09-10T08:20:22.000Z</time>
      </trkpt>
      <trkpt lat="47.07842" lon="3.0159">
        <ele>168.144368</ele>
        <time>2021-09-10T08:20:23.000Z</time>
      </trkpt>
      <trkpt lat="47.07797" lon="3.01564">
        <ele>168.151161</ele>
        <time>2021-09-10T08:20:31.000Z</time>
      </trkpt>
      <trkpt lat="47.07763" lon="3.01545">
        <ele>168.156241</ele>
        <time>2021-09-10T08:20:37.000Z</time>
      </trkpt>
      <trkpt lat="47.07747" lon="3.01536">
        <ele>168.158565</ele>
        <time>2021-09-10T08:20:40.000Z</time>
      </trkpt>
      <trkpt lat="47.0772" lon="3.01519">
        <ele>168.156506</ele>
        <time>2021-09-10T08:20:45.000Z</time>
      </trkpt>
      <trkpt lat="47.07669" lon="3.01487">
        <ele>168.097929</ele>
        <time>2021-09-10T08:20:54.000Z</time>
      </trkpt>
      <trkpt lat="47.0762" lon="3.01456">
        <ele>168.040496</ele>
        <time>2021-09-10T08:21:03.000Z</time>
      </trkpt>
      <trkpt lat="47.07608" lon="3.01449">
        <ele>168.027597</ele>
        <time>2021-09-10T08:21:05.000Z</time>
      </trkpt>
      <trkpt lat="47.07564" lon="3.01421">
        <ele>167.97699</ele>
        <time>2021-09-10T08:21:13.000Z</time>
      </trkpt>
      <trkpt lat="47.07521" lon="3.01394">
        <ele>167.956849</ele>
        <time>2021-09-10T08:21:21.000Z</time>
      </trkpt>
      <trkpt lat="47.07489" lon="3.01374">
        <ele>167.944678</ele>
        <time>2021-09-10T08:21:27.000Z</time>
      </trkpt>
      <trkpt lat="47.07472" lon="3.01363">
        <ele>167.93856</ele>
        <time>2021-09-10T08:21:30.000Z</time>
      </trkpt>
      <trkpt lat="47.07456" lon="3.01353">
        <ele>167.932465</ele>
        <time>2021-09-10T08:21:33.000Z</time>
      </trkpt>
      <trkpt lat="47.07418" lon="3.01329">
        <ele>167.918006</ele>
        <time>2021-09-10T08:21:40.000Z</time>
      </trkpt>
      <trkpt lat="47.07368" lon="3.01298">
        <ele>167.908222</ele>
        <time>2021-09-10T08:21:49.000Z</time>
      </trkpt>
      <trkpt lat="47.07357" lon="3.01291">
        <ele>167.907806</ele>
        <time>2021-09-10T08:21:51.000Z</time>
      </trkpt>
      <trkpt lat="47.07307" lon="3.01259">
        <ele>167.905938</ele>
        <time>2021-09-10T08:22:00.000Z</time>
      </trkpt>
      <trkpt lat="47.07296" lon="3.01252">
        <ele>167.905526</ele>
        <time>2021-09-10T08:22:02.000Z</time>
      </trkpt>
      <trkpt lat="47.07261" lon="3.0123">
        <ele>167.904211</ele>
        <time>2021-09-10T08:22:09.000Z</time>
      </trkpt>
      <trkpt lat="47.07244" lon="3.01218">
        <ele>167.903573</ele>
        <time>2021-09-10T08:22:13.000Z</time>
      </trkpt>
      <trkpt lat="47.07235" lon="3.01206">
        <ele>167.903148</ele>
        <time>2021-09-10T08:22:16.000Z</time>
      </trkpt>
      <trkpt lat="47.07222" lon="3.0121">
        <ele>167.909881</ele>
        <time>2021-09-10T08:22:18.000Z</time>
      </trkpt>
      <trkpt lat="47.07217" lon="3.01213">
        <ele>167.91367</ele>
        <time>2021-09-10T08:22:19.000Z</time>
      </trkpt>
      <trkpt lat="47.07185" lon="3.01233">
        <ele>167.938467</ele>
        <time>2021-09-10T08:22:25.000Z</time>
      </trkpt>
      <trkpt lat="47.07135" lon="3.01264">
        <ele>167.977177</ele>
        <time>2021-09-10T08:22:34.000Z</time>
      </trkpt>
      <trkpt lat="47.07102" lon="3.01284">
        <ele>168.003281</ele>
        <time>2021-09-10T08:22:40.000Z</time>
      </trkpt>
      <trkpt lat="47.07055" lon="3.01313">
        <ele>168.077198</ele>
        <time>2021-09-10T08:22:49.000Z</time>
      </trkpt>
      <trkpt lat="47.07025" lon="3.01327">
        <ele>168.206568</ele>
        <time>2021-09-10T08:22:55.000Z</time>
      </trkpt>
      <trkpt lat="47.07014" lon="3.01329">
        <ele>168.250248</ele>
        <time>2021-09-10T08:22:57.000Z</time>
      </trkpt>
      <trkpt lat="47.06987" lon="3.01335">
        <ele>168.365148</ele>
        <time>2021-09-10T08:23:02.000Z</time>
      </trkpt>
      <trkpt lat="47.06939" lon="3.01354">
        <ele>168.567874</ele>
        <time>2021-09-10T08:23:10.000Z</time>
      </trkpt>
      <trkpt lat="47.06901" lon="3.01371">
        <ele>168.732837</ele>
        <time>2021-09-10T08:23:16.000Z</time>
      </trkpt>
      <trkpt lat="47.06878" lon="3.01386">
        <ele>168.931861</ele>
        <time>2021-09-10T08:23:21.000Z</time>
      </trkpt>
      <trkpt lat="47.06858" lon="3.01397">
        <ele>169.157749</ele>
        <time>2021-09-10T08:23:27.000Z</time>
      </trkpt>
      <trkpt lat="47.06845" lon="3.01405">
        <ele>169.312681</ele>
        <time>2021-09-10T08:23:32.000Z</time>
      </trkpt>
      <trkpt lat="47.06827" lon="3.01413">
        <ele>169.509684</ele>
        <time>2021-09-10T08:23:39.000Z</time>
      </trkpt>
      <trkpt lat="47.06814" lon="3.01422">
        <ele>169.662576</ele>
        <time>2021-09-10T08:23:43.000Z</time>
      </trkpt>
      <trkpt lat="47.06787" lon="3.01448">
        <ele>170.000391</ele>
        <time>2021-09-10T08:23:50.000Z</time>
      </trkpt>
      <trkpt lat="47.06774" lon="3.0146">
        <ele>170.161068</ele>
        <time>2021-09-10T08:23:53.000Z</time>
      </trkpt>
      <trkpt lat="47.0676" lon="3.01473">
        <ele>170.329248</ele>
        <time>2021-09-10T08:23:56.000Z</time>
      </trkpt>
      <trkpt lat="47.06756" lon="3.01477">
        <ele>170.384635</ele>
        <time>2021-09-10T08:23:57.000Z</time>
      </trkpt>
      <trkpt lat="47.06738" lon="3.01491">
        <ele>170.597246</ele>
        <time>2021-09-10T08:24:01.000Z</time>
      </trkpt>
      <trkpt lat="47.06708" lon="3.0151">
        <ele>170.758614</ele>
        <time>2021-09-10T08:24:07.000Z</time>
      </trkpt>
      <trkpt lat="47.06678" lon="3.01529">
        <ele>170.878274</ele>
        <time>2021-09-10T08:24:13.000Z</time>
      </trkpt>
      <trkpt lat="47.06641" lon="3.01552">
        <ele>171.023874</ele>
        <time>2021-09-10T08:24:20.000Z</time>
      </trkpt>
      <trkpt lat="47.06606" lon="3.01575">
        <ele>171.162418</ele>
        <time>2021-09-10T08:24:26.000Z</time>
      </trkpt>
      <trkpt lat="47.06565" lon="3.01601">
        <ele>171.321722</ele>
        <time>2021-09-10T08:24:33.000Z</time>
      </trkpt>
      <trkpt lat="47.06527" lon="3.01632">
        <ele>171.438263</ele>
        <time>2021-09-10T08:24:40.000Z</time>
      </trkpt>
      <trkpt lat="47.06487" lon="3.01655">
        <ele>171.556078</ele>
        <time>2021-09-10T08:24:47.000Z</time>
      </trkpt>
      <trkpt lat="47.06469" lon="3.01663">
        <ele>171.606305</ele>
        <time>2021-09-10T08:24:50.000Z</time>
      </trkpt>
      <trkpt lat="47.06457" lon="3.01671">
        <ele>171.64078</ele>
        <time>2021-09-10T08:24:52.000Z</time>
      </trkpt>
      <trkpt lat="47.06451" lon="3.01675">
        <ele>171.658373</ele>
        <time>2021-09-10T08:24:53.000Z</time>
      </trkpt>
      <trkpt lat="47.06427" lon="3.01689">
        <ele>171.727466</ele>
        <time>2021-09-10T08:24:57.000Z</time>
      </trkpt>
      <trkpt lat="47.06387" lon="3.01715">
        <ele>171.827412</ele>
        <time>2021-09-10T08:25:04.000Z</time>
      </trkpt>
      <trkpt lat="47.06345" lon="3.01741">
        <ele>171.904391</ele>
        <time>2021-09-10T08:25:12.000Z</time>
      </trkpt>
      <trkpt lat="47.06302" lon="3.01768">
        <ele>171.980824</ele>
        <time>2021-09-10T08:25:20.000Z</time>
      </trkpt>
      <trkpt lat="47.06273" lon="3.01787">
        <ele>172.034196</ele>
        <time>2021-09-10T08:25:26.000Z</time>
      </trkpt>
      <trkpt lat="47.06236" lon="3.0181">
        <ele>172.100649</ele>
        <time>2021-09-10T08:25:34.000Z</time>
      </trkpt>
      <trkpt lat="47.06232" lon="3.01812">
        <ele>172.108406</ele>
        <time>2021-09-10T08:25:35.000Z</time>
      </trkpt>
      <trkpt lat="47.06218" lon="3.01821">
        <ele>172.132878</ele>
        <time>2021-09-10T08:25:38.000Z</time>
      </trkpt>
      <trkpt lat="47.06209" lon="3.01827">
        <ele>172.149833</ele>
        <time>2021-09-10T08:25:40.000Z</time>
      </trkpt>
      <trkpt lat="47.06199" lon="3.01832">
        <ele>172.166592</ele>
        <time>2021-09-10T08:25:42.000Z</time>
      </trkpt>
      <trkpt lat="47.06194" lon="3.01835">
        <ele>172.175244</ele>
        <time>2021-09-10T08:25:43.000Z</time>
      </trkpt>
      <trkpt lat="47.06166" lon="3.01853">
        <ele>172.22622</ele>
        <time>2021-09-10T08:25:49.000Z</time>
      </trkpt>
      <trkpt lat="47.06136" lon="3.01872">
        <ele>172.281216</ele>
        <time>2021-09-10T08:25:56.000Z</time>
      </trkpt>
      <trkpt lat="47.06097" lon="3.01898">
        <ele>172.352164</ele>
        <time>2021-09-10T08:26:04.000Z</time>
      </trkpt>
      <trkpt lat="47.06087" lon="3.01904">
        <ele>172.37</ele>
        <time>2021-09-10T08:26:06.000Z</time>
      </trkpt>
      <trkpt lat="47.06078" lon="3.0191">
        <ele>172.38565</ele>
        <time>2021-09-10T08:26:08.000Z</time>
      </trkpt>
      <trkpt lat="47.06074" lon="3.01913">
        <ele>172.393847</ele>
        <time>2021-09-10T08:26:09.000Z</time>
      </trkpt>
      <trkpt lat="47.06055" lon="3.01925">
        <ele>172.447645</ele>
        <time>2021-09-10T08:26:13.000Z</time>
      </trkpt>
      <trkpt lat="47.06051" lon="3.01928">
        <ele>172.460565</ele>
        <time>2021-09-10T08:26:14.000Z</time>
      </trkpt>
      <trkpt lat="47.06047" lon="3.01931">
        <ele>172.472984</ele>
        <time>2021-09-10T08:26:15.000Z</time>
      </trkpt>
      <trkpt lat="47.06029" lon="3.01943">
        <ele>172.527452</ele>
        <time>2021-09-10T08:26:19.000Z</time>
      </trkpt>
      <trkpt lat="47.0602" lon="3.01949">
        <ele>172.554927</ele>
        <time>2021-09-10T08:26:21.000Z</time>
      </trkpt>
      <trkpt lat="47.06006" lon="3.01957">
        <ele>172.594916</ele>
        <time>2021-09-10T08:26:24.000Z</time>
      </trkpt>
      <trkpt lat="47.0596" lon="3.01988">
        <ele>172.736179</ele>
        <time>2021-09-10T08:26:34.000Z</time>
      </trkpt>
      <trkpt lat="47.05939" lon="3.02002">
        <ele>172.799067</ele>
        <time>2021-09-10T08:26:39.000Z</time>
      </trkpt>
      <trkpt lat="47.05934" lon="3.02004">
        <ele>172.811194</ele>
        <time>2021-09-10T08:26:40.000Z</time>
      </trkpt>
      <trkpt lat="47.0593" lon="3.02006">
        <ele>172.823264</ele>
        <time>2021-09-10T08:26:41.000Z</time>
      </trkpt>
      <trkpt lat="47.05923" lon="3.02009">
        <ele>172.84456</ele>
        <time>2021-09-10T08:26:43.000Z</time>
      </trkpt>
      <trkpt lat="47.05919" lon="3.02011">
        <ele>172.85663</ele>
        <time>2021-09-10T08:26:44.000Z</time>
      </trkpt>
      <trkpt lat="47.05892" lon="3.02022">
        <ele>172.988283</ele>
        <time>2021-09-10T08:26:50.000Z</time>
      </trkpt>
      <trkpt lat="47.05874" lon="3.02029">
        <ele>173.111498</ele>
        <time>2021-09-10T08:26:54.000Z</time>
      </trkpt>
      <trkpt lat="47.05865" lon="3.02032">
        <ele>173.167025</ele>
        <time>2021-09-10T08:26:56.000Z</time>
      </trkpt>
      <trkpt lat="47.05847" lon="3.02039">
        <ele>173.292743</ele>
        <time>2021-09-10T08:27:00.000Z</time>
      </trkpt>
      <trkpt lat="47.05837" lon="3.02043">
        <ele>173.356541</ele>
        <time>2021-09-10T08:27:02.000Z</time>
      </trkpt>
      <trkpt lat="47.05818" lon="3.02049">
        <ele>173.486027</ele>
        <time>2021-09-10T08:27:06.000Z</time>
      </trkpt>
      <trkpt lat="47.05808" lon="3.02053">
        <ele>173.549825</ele>
        <time>2021-09-10T08:27:08.000Z</time>
      </trkpt>
      <trkpt lat="47.05775" lon="3.02064">
        <ele>173.769616</ele>
        <time>2021-09-10T08:27:15.000Z</time>
      </trkpt>
      <trkpt lat="47.05736" lon="3.02077">
        <ele>174.028588</ele>
        <time>2021-09-10T08:27:23.000Z</time>
      </trkpt>
      <trkpt lat="47.05731" lon="3.02078">
        <ele>174.05659</ele>
        <time>2021-09-10T08:27:24.000Z</time>
      </trkpt>
      <trkpt lat="47.05721" lon="3.02082">
        <ele>174.101688</ele>
        <time>2021-09-10T08:27:27.000Z</time>
      </trkpt>
      <trkpt lat="47.05709" lon="3.02085">
        <ele>174.154843</ele>
        <time>2021-09-10T08:27:32.000Z</time>
      </trkpt>
      <trkpt lat="47.05701" lon="3.02092">
        <ele>174.197003</ele>
        <time>2021-09-10T08:27:37.000Z</time>
      </trkpt>
      <trkpt lat="47.05697" lon="3.02096">
        <ele>174.219516</ele>
        <time>2021-09-10T08:27:40.000Z</time>
      </trkpt>
      <trkpt lat="47.05695" lon="3.02088">
        <ele>174.244164</ele>
        <time>2021-09-10T08:27:42.000Z</time>
      </trkpt>
      <trkpt lat="47.05694" lon="3.02084">
        <ele>174.257882</ele>
        <time>2021-09-10T08:27:44.000Z</time>
      </trkpt>
      <trkpt lat="47.05697" lon="3.02096">
        <ele>174.29605</ele>
        <time>2021-09-10T08:27:46.000Z</time>
      </trkpt>
      <trkpt lat="47.05699" lon="3.02094">
        <ele>174.308095</ele>
        <time>2021-09-10T08:28:50.000Z</time>
      </trkpt>
      <trkpt lat="47.057" lon="3.02094">
        <ele>174.311107</ele>
        <time>2021-09-10T08:28:51.000Z</time>
      </trkpt>
      <trkpt lat="47.05693" lon="3.02073">
        <ele>174.37961</ele>
        <time>2021-09-10T08:28:56.000Z</time>
      </trkpt>
      <trkpt lat="47.05689" lon="3.02047">
        <ele>174.457229</ele>
        <time>2021-09-10T08:29:01.000Z</time>
      </trkpt>
      <trkpt lat="47.05683" lon="3.02013">
        <ele>174.562818</ele>
        <time>2021-09-10T08:29:06.000Z</time>
      </trkpt>
      <trkpt lat="47.05679" lon="3.0199">
        <ele>174.632143</ele>
        <time>2021-09-10T08:29:09.000Z</time>
      </trkpt>
      <trkpt lat="47.05671" lon="3.0198">
        <ele>174.67939</ele>
        <time>2021-09-10T08:29:11.000Z</time>
      </trkpt>
      <trkpt lat="47.05661" lon="3.01985">
        <ele>174.72522</ele>
        <time>2021-09-10T08:29:13.000Z</time>
      </trkpt>
      <trkpt lat="47.05656" lon="3.01987">
        <ele>174.750217</ele>
        <time>2021-09-10T08:29:14.000Z</time>
      </trkpt>
      <trkpt lat="47.05651" lon="3.01991">
        <ele>174.773356</ele>
        <time>2021-09-10T08:29:15.000Z</time>
      </trkpt>
      <trkpt lat="47.05638" lon="3.02007">
        <ele>174.823189</ele>
        <time>2021-09-10T08:29:18.000Z</time>
      </trkpt>
      <trkpt lat="47.05603" lon="3.0205">
        <ele>174.508565</ele>
        <time>2021-09-10T08:29:26.000Z</time>
      </trkpt>
      <trkpt lat="47.05583" lon="3.02072">
        <ele>174.329166</ele>
        <time>2021-09-10T08:29:31.000Z</time>
      </trkpt>
      <trkpt lat="47.05579" lon="3.02076">
        <ele>174.293119</ele>
        <time>2021-09-10T08:29:32.000Z</time>
      </trkpt>
      <trkpt lat="47.05569" lon="3.02082">
        <ele>174.222158</ele>
        <time>2021-09-10T08:29:34.000Z</time>
      </trkpt>
      <trkpt lat="47.05548" lon="3.0209">
        <ele>174.067666</ele>
        <time>2021-09-10T08:29:38.000Z</time>
      </trkpt>
      <trkpt lat="47.05506" lon="3.02106">
        <ele>173.761743</ele>
        <time>2021-09-10T08:29:46.000Z</time>
      </trkpt>
      <trkpt lat="47.05463" lon="3.02123">
        <ele>173.537436</ele>
        <time>2021-09-10T08:29:54.000Z</time>
      </trkpt>
      <trkpt lat="47.05423" lon="3.02149">
        <ele>173.446998</ele>
        <time>2021-09-10T08:30:02.000Z</time>
      </trkpt>
      <trkpt lat="47.0539" lon="3.02183">
        <ele>173.363283</ele>
        <time>2021-09-10T08:30:09.000Z</time>
      </trkpt>
      <trkpt lat="47.05358" lon="3.02234">
        <ele>173.263368</ele>
        <time>2021-09-10T08:30:17.000Z</time>
      </trkpt>
      <trkpt lat="47.05332" lon="3.02293">
        <ele>173.20073</ele>
        <time>2021-09-10T08:30:25.000Z</time>
      </trkpt>
      <trkpt lat="47.05304" lon="3.02364">
        <ele>173.2026</ele>
        <time>2021-09-10T08:30:34.000Z</time>
      </trkpt>
      <trkpt lat="47.05283" lon="3.0242">
        <ele>173.204072</ele>
        <time>2021-09-10T08:30:41.000Z</time>
      </trkpt>
      <trkpt lat="47.05256" lon="3.02478">
        <ele>173.205666</ele>
        <time>2021-09-10T08:30:49.000Z</time>
      </trkpt>
      <trkpt lat="47.05226" lon="3.02518">
        <ele>173.334777</ele>
        <time>2021-09-10T08:30:56.000Z</time>
      </trkpt>
      <trkpt lat="47.05189" lon="3.02553">
        <ele>173.567237</ele>
        <time>2021-09-10T08:31:04.000Z</time>
      </trkpt>
      <trkpt lat="47.05154" lon="3.02574">
        <ele>173.763919</ele>
        <time>2021-09-10T08:31:11.000Z</time>
      </trkpt>
      <trkpt lat="47.05115" lon="3.02599">
        <ele>173.986461</ele>
        <time>2021-09-10T08:31:19.000Z</time>
      </trkpt>
      <trkpt lat="47.05085" lon="3.02618">
        <ele>174.153665</ele>
        <time>2021-09-10T08:31:25.000Z</time>
      </trkpt>
      <trkpt lat="47.0508" lon="3.02621">
        <ele>174.172957</ele>
        <time>2021-09-10T08:31:26.000Z</time>
      </trkpt>
      <trkpt lat="47.05034" lon="3.02651">
        <ele>174.352132</ele>
        <time>2021-09-10T08:31:35.000Z</time>
      </trkpt>
      <trkpt lat="47.04995" lon="3.02679">
        <ele>174.50464</ele>
        <time>2021-09-10T08:31:42.000Z</time>
      </trkpt>
      <trkpt lat="47.04952" lon="3.0271">
        <ele>174.675668</ele>
        <time>2021-09-10T08:31:50.000Z</time>
      </trkpt>
      <trkpt lat="47.04914" lon="3.02738">
        <ele>174.819871</ele>
        <time>2021-09-10T08:31:57.000Z</time>
      </trkpt>
      <trkpt lat="47.04874" lon="3.02763">
        <ele>174.94503</ele>
        <time>2021-09-10T08:32:04.000Z</time>
      </trkpt>
      <trkpt lat="47.04828" lon="3.02786">
        <ele>175.085384</ele>
        <time>2021-09-10T08:32:12.000Z</time>
      </trkpt>
      <trkpt lat="47.04781" lon="3.02803">
        <ele>175.225137</ele>
        <time>2021-09-10T08:32:20.000Z</time>
      </trkpt>
      <trkpt lat="47.04739" lon="3.02816">
        <ele>175.313091</ele>
        <time>2021-09-10T08:32:27.000Z</time>
      </trkpt>
      <trkpt lat="47.04694" lon="3.02831">
        <ele>175.339521</ele>
        <time>2021-09-10T08:32:35.000Z</time>
      </trkpt>
      <trkpt lat="47.04646" lon="3.02846">
        <ele>175.367231</ele>
        <time>2021-09-10T08:32:43.000Z</time>
      </trkpt>
      <trkpt lat="47.04605" lon="3.02859">
        <ele>175.391513</ele>
        <time>2021-09-10T08:32:50.000Z</time>
      </trkpt>
      <trkpt lat="47.04576" lon="3.02869">
        <ele>175.392268</ele>
        <time>2021-09-10T08:32:55.000Z</time>
      </trkpt>
      <trkpt lat="47.04532" lon="3.02881">
        <ele>175.162706</ele>
        <time>2021-09-10T08:33:02.000Z</time>
      </trkpt>
      <trkpt lat="47.04486" lon="3.02891">
        <ele>174.924607</ele>
        <time>2021-09-10T08:33:08.000Z</time>
      </trkpt>
      <trkpt lat="47.04447" lon="3.029">
        <ele>174.716477</ele>
        <time>2021-09-10T08:33:13.000Z</time>
      </trkpt>
      <trkpt lat="47.04407" lon="3.02911">
        <ele>174.509049</ele>
        <time>2021-09-10T08:33:18.000Z</time>
      </trkpt>
      <trkpt lat="47.04379" lon="3.02925">
        <ele>174.428611</ele>
        <time>2021-09-10T08:33:22.000Z</time>
      </trkpt>
      <trkpt lat="47.04339" lon="3.02949">
        <ele>174.337297</ele>
        <time>2021-09-10T08:33:28.000Z</time>
      </trkpt>
      <trkpt lat="47.04295" lon="3.02977">
        <ele>174.235686</ele>
        <time>2021-09-10T08:33:35.000Z</time>
      </trkpt>
      <trkpt lat="47.04243" lon="3.03009">
        <ele>174.116242</ele>
        <time>2021-09-10T08:33:44.000Z</time>
      </trkpt>
      <trkpt lat="47.04238" lon="3.03013">
        <ele>174.103252</ele>
        <time>2021-09-10T08:33:45.000Z</time>
      </trkpt>
      <trkpt lat="47.04215" lon="3.03027">
        <ele>174.010821</ele>
        <time>2021-09-10T08:33:49.000Z</time>
      </trkpt>
      <trkpt lat="47.04177" lon="3.0306">
        <ele>173.834298</ele>
        <time>2021-09-10T08:33:56.000Z</time>
      </trkpt>
      <trkpt lat="47.04138" lon="3.03098">
        <ele>173.649924</ele>
        <time>2021-09-10T08:34:03.000Z</time>
      </trkpt>
      <trkpt lat="47.0411" lon="3.03124">
        <ele>173.518094</ele>
        <time>2021-09-10T08:34:08.000Z</time>
      </trkpt>
      <trkpt lat="47.04074" lon="3.03154">
        <ele>173.420707</ele>
        <time>2021-09-10T08:34:14.000Z</time>
      </trkpt>
      <trkpt lat="47.04039" lon="3.03165">
        <ele>173.5787</ele>
        <time>2021-09-10T08:34:19.000Z</time>
      </trkpt>
      <trkpt lat="47.03993" lon="3.0318">
        <ele>173.790479</ele>
        <time>2021-09-10T08:34:26.000Z</time>
      </trkpt>
      <trkpt lat="47.03961" lon="3.0319">
        <ele>173.93571</ele>
        <time>2021-09-10T08:34:32.000Z</time>
      </trkpt>
      <trkpt lat="47.03925" lon="3.03192">
        <ele>174.094835</ele>
        <time>2021-09-10T08:34:40.000Z</time>
      </trkpt>
      <trkpt lat="47.03882" lon="3.0319">
        <ele>174.433499</ele>
        <time>2021-09-10T08:34:50.000Z</time>
      </trkpt>
      <trkpt lat="47.0383" lon="3.03187">
        <ele>175.011674</ele>
        <time>2021-09-10T08:35:02.000Z</time>
      </trkpt>
      <trkpt lat="47.03773" lon="3.03181">
        <ele>175.638767</ele>
        <time>2021-09-10T08:35:14.000Z</time>
      </trkpt>
      <trkpt lat="47.03733" lon="3.03177">
        <ele>176.088579</ele>
        <time>2021-09-10T08:35:22.000Z</time>
      </trkpt>
      <trkpt lat="47.03728" lon="3.03176">
        <ele>176.145102</ele>
        <time>2021-09-10T08:35:23.000Z</time>
      </trkpt>
      <trkpt lat="47.0368" lon="3.03164">
        <ele>176.506302</ele>
        <time>2021-09-10T08:35:32.000Z</time>
      </trkpt>
      <trkpt lat="47.0364" lon="3.03148">
        <ele>176.809354</ele>
        <time>2021-09-10T08:35:39.000Z</time>
      </trkpt>
      <trkpt lat="47.03589" lon="3.03114">
        <ele>177.21778</ele>
        <time>2021-09-10T08:35:48.000Z</time>
      </trkpt>
      <trkpt lat="47.03547" lon="3.03079">
        <ele>177.601207</ele>
        <time>2021-09-10T08:35:56.000Z</time>
      </trkpt>
      <trkpt lat="47.03507" lon="3.03047">
        <ele>178.052444</ele>
        <time>2021-09-10T08:36:04.000Z</time>
      </trkpt>
      <trkpt lat="47.03469" lon="3.0302">
        <ele>178.47852</ele>
        <time>2021-09-10T08:36:12.000Z</time>
      </trkpt>
      <trkpt lat="47.03433" lon="3.03001">
        <ele>178.857603</ele>
        <time>2021-09-10T08:36:19.000Z</time>
      </trkpt>
      <trkpt lat="47.0339" lon="3.02985">
        <ele>179.286189</ele>
        <time>2021-09-10T08:36:27.000Z</time>
      </trkpt>
      <trkpt lat="47.0335" lon="3.02976">
        <ele>179.41708</ele>
        <time>2021-09-10T08:36:34.000Z</time>
      </trkpt>
      <trkpt lat="47.03302" lon="3.02975">
        <ele>179.575205</ele>
        <time>2021-09-10T08:36:42.000Z</time>
      </trkpt>
      <trkpt lat="47.03247" lon="3.02977">
        <ele>179.755263</ele>
        <time>2021-09-10T08:36:50.000Z</time>
      </trkpt>
      <trkpt lat="47.03209" lon="3.02979">
        <ele>179.882002</ele>
        <time>2021-09-10T08:36:56.000Z</time>
      </trkpt>
      <trkpt lat="47.03178" lon="3.02981">
        <ele>180.016432</ele>
        <time>2021-09-10T08:37:02.000Z</time>
      </trkpt>
      <trkpt lat="47.03172" lon="3.02981">
        <ele>180.039262</ele>
        <time>2021-09-10T08:37:03.000Z</time>
      </trkpt>
      <trkpt lat="47.0314" lon="3.02984">
        <ele>180.177475</ele>
        <time>2021-09-10T08:37:09.000Z</time>
      </trkpt>
      <trkpt lat="47.03102" lon="3.02986">
        <ele>180.336843</ele>
        <time>2021-09-10T08:37:16.000Z</time>
      </trkpt>
      <trkpt lat="47.03069" lon="3.02989">
        <ele>180.4776</ele>
        <time>2021-09-10T08:37:22.000Z</time>
      </trkpt>
      <trkpt lat="47.03024" lon="3.02992">
        <ele>180.629663</ele>
        <time>2021-09-10T08:37:30.000Z</time>
      </trkpt>
      <trkpt lat="47.03014" lon="3.02992">
        <ele>180.632964</ele>
        <time>2021-09-10T08:37:32.000Z</time>
      </trkpt>
      <trkpt lat="47.02998" lon="3.02993">
        <ele>180.637776</ele>
        <time>2021-09-10T08:37:35.000Z</time>
      </trkpt>
      <trkpt lat="47.02982" lon="3.02995">
        <ele>180.642772</ele>
        <time>2021-09-10T08:37:38.000Z</time>
      </trkpt>
      <trkpt lat="47.02965" lon="3.02996">
        <ele>180.648016</ele>
        <time>2021-09-10T08:37:41.000Z</time>
      </trkpt>
      <trkpt lat="47.02923" lon="3.02999">
        <ele>180.660815</ele>
        <time>2021-09-10T08:37:48.000Z</time>
      </trkpt>
      <trkpt lat="47.0288" lon="3.03002">
        <ele>180.674078</ele>
        <time>2021-09-10T08:37:56.000Z</time>
      </trkpt>
      <trkpt lat="47.02859" lon="3.03002">
        <ele>180.680609</ele>
        <time>2021-09-10T08:38:00.000Z</time>
      </trkpt>
      <trkpt lat="47.02849" lon="3.02998">
        <ele>180.634135</ele>
        <time>2021-09-10T08:38:02.000Z</time>
      </trkpt>
      <trkpt lat="47.02839" lon="3.02988">
        <ele>180.524834</ele>
        <time>2021-09-10T08:38:05.000Z</time>
      </trkpt>
      <trkpt lat="47.02834" lon="3.0299">
        <ele>180.473795</ele>
        <time>2021-09-10T08:38:06.000Z</time>
      </trkpt>
      <trkpt lat="47.0283" lon="3.02996">
        <ele>180.427704</ele>
        <time>2021-09-10T08:38:07.000Z</time>
      </trkpt>
      <trkpt lat="47.02822" lon="3.03008">
        <ele>180.316573</ele>
        <time>2021-09-10T08:38:09.000Z</time>
      </trkpt>
      <trkpt lat="47.02793" lon="3.03049">
        <ele>179.947456</ele>
        <time>2021-09-10T08:38:15.000Z</time>
      </trkpt>
      <trkpt lat="47.02773" lon="3.03077">
        <ele>179.690258</ele>
        <time>2021-09-10T08:38:19.000Z</time>
      </trkpt>
      <trkpt lat="47.02762" lon="3.03075">
        <ele>179.588617</ele>
        <time>2021-09-10T08:38:20.000Z</time>
      </trkpt>
      <trkpt lat="47.0276" lon="3.03075">
        <ele>179.569186</ele>
        <time>2021-09-10T08:38:21.000Z</time>
      </trkpt>
      <trkpt lat="47.02752" lon="3.03074">
        <ele>179.493052</ele>
        <time>2021-09-10T08:38:22.000Z</time>
      </trkpt>
      <trkpt lat="47.02747" lon="3.03067">
        <ele>179.433286</ele>
        <time>2021-09-10T08:38:23.000Z</time>
      </trkpt>
      <trkpt lat="47.02736" lon="3.03052">
        <ele>179.292359</ele>
        <time>2021-09-10T08:38:26.000Z</time>
      </trkpt>
      <trkpt lat="47.02734" lon="3.03049">
        <ele>179.267883</ele>
        <time>2021-09-10T08:38:27.000Z</time>
      </trkpt>
      <trkpt lat="47.02734" lon="3.03049">
        <ele>179.264132</ele>
        <time>2021-09-10T08:38:28.000Z</time>
      </trkpt>
      <trkpt lat="47.0274" lon="3.03057">
        <ele>179.185182</ele>
        <time>2021-09-10T08:38:31.000Z</time>
      </trkpt>
      <trkpt lat="47.02751" lon="3.03073">
        <ele>179.042717</ele>
        <time>2021-09-10T08:38:35.000Z</time>
      </trkpt>
      <trkpt lat="47.02754" lon="3.03077">
        <ele>179.027068</ele>
        <time>2021-09-10T08:38:36.000Z</time>
      </trkpt>
      <trkpt lat="47.02755" lon="3.03087">
        <ele>179.064629</ele>
        <time>2021-09-10T08:38:37.000Z</time>
      </trkpt>
      <trkpt lat="47.02754" lon="3.03102">
        <ele>179.119306</ele>
        <time>2021-09-10T08:38:39.000Z</time>
      </trkpt>
      <trkpt lat="47.02748" lon="3.03115">
        <ele>179.176683</ele>
        <time>2021-09-10T08:38:41.000Z</time>
      </trkpt>
      <trkpt lat="47.02744" lon="3.03121">
        <ele>179.20509</ele>
        <time>2021-09-10T08:38:42.000Z</time>
      </trkpt>
      <trkpt lat="47.02722" lon="3.03154">
        <ele>179.372401</ele>
        <time>2021-09-10T08:38:48.000Z</time>
      </trkpt>
      <trkpt lat="47.02719" lon="3.03158">
        <ele>179.397613</ele>
        <time>2021-09-10T08:38:49.000Z</time>
      </trkpt>
      <trkpt lat="47.02708" lon="3.03168">
        <ele>179.467118</ele>
        <time>2021-09-10T08:38:52.000Z</time>
      </trkpt>
      <trkpt lat="47.02697" lon="3.03175">
        <ele>179.528911</ele>
        <time>2021-09-10T08:38:55.000Z</time>
      </trkpt>
      <trkpt lat="47.02667" lon="3.03182">
        <ele>179.69041</ele>
        <time>2021-09-10T08:39:03.000Z</time>
      </trkpt>
      <trkpt lat="47.02638" lon="3.03176">
        <ele>179.845352</ele>
        <time>2021-09-10T08:39:11.000Z</time>
      </trkpt>
      <trkpt lat="47.02604" lon="3.03166">
        <ele>180.039113</ele>
        <time>2021-09-10T08:39:21.000Z</time>
      </trkpt>
      <trkpt lat="47.02575" lon="3.03157">
        <ele>180.218436</ele>
        <time>2021-09-10T08:39:29.000Z</time>
      </trkpt>
      <trkpt lat="47.02548" lon="3.03148">
        <ele>180.384359</ele>
        <time>2021-09-10T08:39:36.000Z</time>
      </trkpt>
      <trkpt lat="47.02522" lon="3.0314">
        <ele>180.540653</ele>
        <time>2021-09-10T08:39:42.000Z</time>
      </trkpt>
      <trkpt lat="47.0248" lon="3.03134">
        <ele>180.794239</ele>
        <time>2021-09-10T08:39:50.000Z</time>
      </trkpt>
      <trkpt lat="47.02478" lon="3.03134">
        <ele>180.807443</ele>
        <time>2021-09-10T08:39:51.000Z</time>
      </trkpt>
      <trkpt lat="47.02462" lon="3.03136">
        <ele>180.900946</ele>
        <time>2021-09-10T08:39:53.000Z</time>
      </trkpt>
      <trkpt lat="47.02462" lon="3.03151">
        <ele>180.961802</ele>
        <time>2021-09-10T08:39:54.000Z</time>
      </trkpt>
      <trkpt lat="47.02458" lon="3.03175">
        <ele>181.045032</ele>
        <time>2021-09-10T08:39:57.000Z</time>
      </trkpt>
      <trkpt lat="47.02458" lon="3.03229">
        <ele>180.620381</ele>
        <time>2021-09-10T08:40:02.000Z</time>
      </trkpt>
      <trkpt lat="47.02461" lon="3.03312">
        <ele>179.978323</ele>
        <time>2021-09-10T08:40:09.000Z</time>
      </trkpt>
      <trkpt lat="47.02461" lon="3.03322">
        <ele>179.896438</ele>
        <time>2021-09-10T08:40:10.000Z</time>
      </trkpt>
      <trkpt lat="47.02461" lon="3.03387">
        <ele>179.390743</ele>
        <time>2021-09-10T08:40:16.000Z</time>
      </trkpt>
      <trkpt lat="47.0246" lon="3.03468">
        <ele>178.701221</ele>
        <time>2021-09-10T08:40:22.000Z</time>
      </trkpt>
      <trkpt lat="47.02459" lon="3.03549">
        <ele>177.902097</ele>
        <time>2021-09-10T08:40:28.000Z</time>
      </trkpt>
      <trkpt lat="47.02458" lon="3.03613">
        <ele>177.274581</ele>
        <time>2021-09-10T08:40:33.000Z</time>
      </trkpt>
      <trkpt lat="47.02458" lon="3.03699">
        <ele>176.435359</ele>
        <time>2021-09-10T08:40:40.000Z</time>
      </trkpt>
      <trkpt lat="47.02457" lon="3.03734">
        <ele>176.139364</ele>
        <time>2021-09-10T08:40:43.000Z</time>
      </trkpt>
      <trkpt lat="47.02457" lon="3.03815">
        <ele>175.461698</ele>
        <time>2021-09-10T08:40:50.000Z</time>
      </trkpt>
      <trkpt lat="47.02456" lon="3.0386">
        <ele>175.084384</ele>
        <time>2021-09-10T08:40:54.000Z</time>
      </trkpt>
      <trkpt lat="47.02455" lon="3.03946">
        <ele>174.362335</ele>
        <time>2021-09-10T08:41:02.000Z</time>
      </trkpt>
      <trkpt lat="47.02455" lon="3.04021">
        <ele>173.926487</ele>
        <time>2021-09-10T08:41:09.000Z</time>
      </trkpt>
      <trkpt lat="47.02454" lon="3.04104">
        <ele>173.512814</ele>
        <time>2021-09-10T08:41:17.000Z</time>
      </trkpt>
      <trkpt lat="47.02453" lon="3.04182">
        <ele>173.122616</ele>
        <time>2021-09-10T08:41:25.000Z</time>
      </trkpt>
      <trkpt lat="47.02447" lon="3.0426">
        <ele>172.69269</ele>
        <time>2021-09-10T08:41:33.000Z</time>
      </trkpt>
      <trkpt lat="47.02436" lon="3.04339">
        <ele>172.203232</ele>
        <time>2021-09-10T08:41:41.000Z</time>
      </trkpt>
      <trkpt lat="47.02435" lon="3.04349">
        <ele>172.142061</ele>
        <time>2021-09-10T08:41:42.000Z</time>
      </trkpt>
      <trkpt lat="47.02417" lon="3.04425">
        <ele>171.654226</ele>
        <time>2021-09-10T08:41:50.000Z</time>
      </trkpt>
      <trkpt lat="47.02412" lon="3.04444">
        <ele>171.531399</ele>
        <time>2021-09-10T08:41:52.000Z</time>
      </trkpt>
      <trkpt lat="47.0239" lon="3.04517">
        <ele>171.107438</ele>
        <time>2021-09-10T08:42:00.000Z</time>
      </trkpt>
      <trkpt lat="47.02384" lon="3.04534">
        <ele>171.018882</ele>
        <time>2021-09-10T08:42:02.000Z</time>
      </trkpt>
      <trkpt lat="47.02354" lon="3.04608">
        <ele>170.633398</ele>
        <time>2021-09-10T08:42:11.000Z</time>
      </trkpt>
      <trkpt lat="47.02328" lon="3.04672">
        <ele>170.297233</ele>
        <time>2021-09-10T08:42:19.000Z</time>
      </trkpt>
      <trkpt lat="47.02298" lon="3.04742">
        <ele>170.007766</ele>
        <time>2021-09-10T08:42:28.000Z</time>
      </trkpt>
      <trkpt lat="47.02268" lon="3.04812">
        <ele>169.822348</ele>
        <time>2021-09-10T08:42:37.000Z</time>
      </trkpt>
      <trkpt lat="47.02239" lon="3.0488">
        <ele>169.642162</ele>
        <time>2021-09-10T08:42:46.000Z</time>
      </trkpt>
      <trkpt lat="47.0223" lon="3.04903">
        <ele>169.580909</ele>
        <time>2021-09-10T08:42:49.000Z</time>
      </trkpt>
      <trkpt lat="47.02204" lon="3.04966">
        <ele>169.441035</ele>
        <time>2021-09-10T08:42:57.000Z</time>
      </trkpt>
      <trkpt lat="47.02178" lon="3.05027">
        <ele>169.330268</ele>
        <time>2021-09-10T08:43:05.000Z</time>
      </trkpt>
      <trkpt lat="47.0215" lon="3.05097">
        <ele>169.204489</ele>
        <time>2021-09-10T08:43:14.000Z</time>
      </trkpt>
      <trkpt lat="47.0212" lon="3.05169">
        <ele>169.082009</ele>
        <time>2021-09-10T08:43:23.000Z</time>
      </trkpt>
      <trkpt lat="47.02096" lon="3.05228">
        <ele>169.01278</ele>
        <time>2021-09-10T08:43:31.000Z</time>
      </trkpt>
      <trkpt lat="47.02077" lon="3.05274">
        <ele>168.958839</ele>
        <time>2021-09-10T08:43:37.000Z</time>
      </trkpt>
      <trkpt lat="47.02048" lon="3.05343">
        <ele>168.877103</ele>
        <time>2021-09-10T08:43:46.000Z</time>
      </trkpt>
      <trkpt lat="47.02019" lon="3.05413">
        <ele>168.811241</ele>
        <time>2021-09-10T08:43:55.000Z</time>
      </trkpt>
      <trkpt lat="47.02016" lon="3.0542">
        <ele>168.806736</ele>
        <time>2021-09-10T08:43:56.000Z</time>
      </trkpt>
      <trkpt lat="47.01994" lon="3.05472">
        <ele>168.775945</ele>
        <time>2021-09-10T08:44:03.000Z</time>
      </trkpt>
      <trkpt lat="47.01965" lon="3.05542">
        <ele>168.734767</ele>
        <time>2021-09-10T08:44:12.000Z</time>
      </trkpt>
      <trkpt lat="47.01936" lon="3.05611">
        <ele>168.694548</ele>
        <time>2021-09-10T08:44:21.000Z</time>
      </trkpt>
      <trkpt lat="47.0192" lon="3.0565">
        <ele>168.706526</ele>
        <time>2021-09-10T08:44:26.000Z</time>
      </trkpt>
      <trkpt lat="47.0189" lon="3.05722">
        <ele>168.72854</ele>
        <time>2021-09-10T08:44:35.000Z</time>
      </trkpt>
      <trkpt lat="47.01883" lon="3.05738">
        <ele>168.733343</ele>
        <time>2021-09-10T08:44:37.000Z</time>
      </trkpt>
      <trkpt lat="47.01854" lon="3.05809">
        <ele>168.75484</ele>
        <time>2021-09-10T08:44:46.000Z</time>
      </trkpt>
      <trkpt lat="47.01824" lon="3.05879">
        <ele>168.748408</ele>
        <time>2021-09-10T08:44:55.000Z</time>
      </trkpt>
      <trkpt lat="47.01801" lon="3.05934">
        <ele>168.729911</ele>
        <time>2021-09-10T08:45:02.000Z</time>
      </trkpt>
      <trkpt lat="47.01772" lon="3.06005">
        <ele>168.705907</ele>
        <time>2021-09-10T08:45:11.000Z</time>
      </trkpt>
      <trkpt lat="47.01746" lon="3.06068">
        <ele>168.707991</ele>
        <time>2021-09-10T08:45:19.000Z</time>
      </trkpt>
      <trkpt lat="47.01723" lon="3.06122">
        <ele>168.864915</ele>
        <time>2021-09-10T08:45:26.000Z</time>
      </trkpt>
      <trkpt lat="47.01696" lon="3.06185">
        <ele>169.046333</ele>
        <time>2021-09-10T08:45:34.000Z</time>
      </trkpt>
      <trkpt lat="47.01665" lon="3.06259">
        <ele>169.258731</ele>
        <time>2021-09-10T08:45:43.000Z</time>
      </trkpt>
      <trkpt lat="47.01635" lon="3.06333">
        <ele>169.443207</ele>
        <time>2021-09-10T08:45:52.000Z</time>
      </trkpt>
      <trkpt lat="47.01631" lon="3.06341">
        <ele>169.462114</ele>
        <time>2021-09-10T08:45:53.000Z</time>
      </trkpt>
      <trkpt lat="47.01605" lon="3.06405">
        <ele>169.609442</ele>
        <time>2021-09-10T08:46:01.000Z</time>
      </trkpt>
      <trkpt lat="47.01575" lon="3.06476">
        <ele>169.773713</ele>
        <time>2021-09-10T08:46:10.000Z</time>
      </trkpt>
      <trkpt lat="47.01551" lon="3.06529">
        <ele>169.964516</ele>
        <time>2021-09-10T08:46:17.000Z</time>
      </trkpt>
      <trkpt lat="47.01547" lon="3.06536">
        <ele>170.006917</ele>
        <time>2021-09-10T08:46:18.000Z</time>
      </trkpt>
      <trkpt lat="47.01542" lon="3.06541">
        <ele>170.047684</ele>
        <time>2021-09-10T08:46:19.000Z</time>
      </trkpt>
      <trkpt lat="47.01523" lon="3.06557">
        <ele>170.20324</ele>
        <time>2021-09-10T08:46:23.000Z</time>
      </trkpt>
      <trkpt lat="47.01498" lon="3.06574">
        <ele>170.392832</ele>
        <time>2021-09-10T08:46:29.000Z</time>
      </trkpt>
      <trkpt lat="47.01463" lon="3.06594">
        <ele>170.650656</ele>
        <time>2021-09-10T08:46:38.000Z</time>
      </trkpt>
      <trkpt lat="47.01438" lon="3.06608">
        <ele>170.83368</ele>
        <time>2021-09-10T08:46:45.000Z</time>
      </trkpt>
      <trkpt lat="47.01413" lon="3.06622">
        <ele>171.019664</ele>
        <time>2021-09-10T08:46:51.000Z</time>
      </trkpt>
      <trkpt lat="47.01381" lon="3.06642">
        <ele>171.058261</ele>
        <time>2021-09-10T08:46:57.000Z</time>
      </trkpt>
      <trkpt lat="47.01349" lon="3.06659">
        <ele>171.000419</ele>
        <time>2021-09-10T08:47:03.000Z</time>
      </trkpt>
      <trkpt lat="47.01345" lon="3.06661">
        <ele>170.99295</ele>
        <time>2021-09-10T08:47:08.000Z</time>
      </trkpt>
      <trkpt lat="47.01326" lon="3.06657">
        <ele>170.959949</ele>
        <time>2021-09-10T08:47:12.000Z</time>
      </trkpt>
      <trkpt lat="47.01321" lon="3.06653">
        <ele>170.951147</ele>
        <time>2021-09-10T08:47:13.000Z</time>
      </trkpt>
      <trkpt lat="47.0131" lon="3.06658">
        <ele>170.930892</ele>
        <time>2021-09-10T08:47:15.000Z</time>
      </trkpt>
      <trkpt lat="47.01307" lon="3.06672">
        <ele>170.913796</ele>
        <time>2021-09-10T08:47:17.000Z</time>
      </trkpt>
      <trkpt lat="47.01309" lon="3.0668">
        <ele>170.904446</ele>
        <time>2021-09-10T08:47:18.000Z</time>
      </trkpt>
      <trkpt lat="47.01301" lon="3.06727">
        <ele>170.84752</ele>
        <time>2021-09-10T08:47:24.000Z</time>
      </trkpt>
      <trkpt lat="47.01287" lon="3.068">
        <ele>170.889492</ele>
        <time>2021-09-10T08:47:33.000Z</time>
      </trkpt>
      <trkpt lat="47.01274" lon="3.06865">
        <ele>171.112051</ele>
        <time>2021-09-10T08:47:41.000Z</time>
      </trkpt>
      <trkpt lat="47.01267" lon="3.06903">
        <ele>171.240005</ele>
        <time>2021-09-10T08:47:46.000Z</time>
      </trkpt>
      <trkpt lat="47.01264" lon="3.06916">
        <ele>171.285736</ele>
        <time>2021-09-10T08:47:48.000Z</time>
      </trkpt>
      <trkpt lat="47.01263" lon="3.06923">
        <ele>171.308093</ele>
        <time>2021-09-10T08:47:49.000Z</time>
      </trkpt>
      <trkpt lat="47.01258" lon="3.06948">
        <ele>171.392153</ele>
        <time>2021-09-10T08:47:53.000Z</time>
      </trkpt>
      <trkpt lat="47.01257" lon="3.06954">
        <ele>171.412618</ele>
        <time>2021-09-10T08:47:54.000Z</time>
      </trkpt>
      <trkpt lat="47.0125" lon="3.06991">
        <ele>171.538998</ele>
        <time>2021-09-10T08:48:00.000Z</time>
      </trkpt>
      <trkpt lat="47.0124" lon="3.07036">
        <ele>171.794872</ele>
        <time>2021-09-10T08:48:08.000Z</time>
      </trkpt>
      <trkpt lat="47.01233" lon="3.07068">
        <ele>172.218743</ele>
        <time>2021-09-10T08:48:15.000Z</time>
      </trkpt>
      <trkpt lat="47.01233" lon="3.07074">
        <ele>172.293541</ele>
        <time>2021-09-10T08:48:17.000Z</time>
      </trkpt>
      <trkpt lat="47.01233" lon="3.07075">
        <ele>172.313854</ele>
        <time>2021-09-10T08:48:19.000Z</time>
      </trkpt>
      <trkpt lat="47.01232" lon="3.07081">
        <ele>172.388651</ele>
        <time>2021-09-10T08:48:58.000Z</time>
      </trkpt>
      <trkpt lat="47.01232" lon="3.07088">
        <ele>172.474699</ele>
        <time>2021-09-10T08:49:00.000Z</time>
      </trkpt>
      <trkpt lat="47.01232" lon="3.07117">
        <ele>172.84007</ele>
        <time>2021-09-10T08:49:06.000Z</time>
      </trkpt>
      <trkpt lat="47.01233" lon="3.07151">
        <ele>173.268664</ele>
        <time>2021-09-10T08:49:12.000Z</time>
      </trkpt>
      <trkpt lat="47.01233" lon="3.07191">
        <ele>173.774365</ele>
        <time>2021-09-10T08:49:20.000Z</time>
      </trkpt>
      <trkpt lat="47.01233" lon="3.07216">
        <ele>174.092959</ele>
        <time>2021-09-10T08:49:26.000Z</time>
      </trkpt>
      <trkpt lat="47.01233" lon="3.07233">
        <ele>174.312945</ele>
        <time>2021-09-10T08:49:30.000Z</time>
      </trkpt>
      <trkpt lat="47.01233" lon="3.07258">
        <ele>174.621426</ele>
        <time>2021-09-10T08:49:36.000Z</time>
      </trkpt>
      <trkpt lat="47.01233" lon="3.0726">
        <ele>174.653032</ele>
        <time>2021-09-10T08:49:37.000Z</time>
      </trkpt>
      <trkpt lat="47.01233" lon="3.0727">
        <ele>174.783249</ele>
        <time>2021-09-10T08:49:40.000Z</time>
      </trkpt>
      <trkpt lat="47.01233" lon="3.073">
        <ele>175.087289</ele>
        <time>2021-09-10T08:49:46.000Z</time>
      </trkpt>
      <trkpt lat="47.01233" lon="3.07331">
        <ele>175.323095</ele>
        <time>2021-09-10T08:49:52.000Z</time>
      </trkpt>
      <trkpt lat="47.01233" lon="3.07358">
        <ele>175.532448</ele>
        <time>2021-09-10T08:49:57.000Z</time>
      </trkpt>
      <trkpt lat="47.01233" lon="3.07383">
        <ele>175.72064</ele>
        <time>2021-09-10T08:50:01.000Z</time>
      </trkpt>
      <trkpt lat="47.01234" lon="3.07421">
        <ele>176.008594</ele>
        <time>2021-09-10T08:50:07.000Z</time>
      </trkpt>
      <trkpt lat="47.01234" lon="3.07453">
        <ele>176.24743</ele>
        <time>2021-09-10T08:50:12.000Z</time>
      </trkpt>
      <trkpt lat="47.01234" lon="3.07459">
        <ele>176.294289</ele>
        <time>2021-09-10T08:50:13.000Z</time>
      </trkpt>
      <trkpt lat="47.01234" lon="3.0749">
        <ele>176.529338</ele>
        <time>2021-09-10T08:50:18.000Z</time>
      </trkpt>
      <trkpt lat="47.01234" lon="3.07497">
        <ele>176.576952</ele>
        <time>2021-09-10T08:50:19.000Z</time>
      </trkpt>
      <trkpt lat="47.01234" lon="3.07526">
        <ele>176.795384</ele>
        <time>2021-09-10T08:50:24.000Z</time>
      </trkpt>
      <trkpt lat="47.01234" lon="3.07555">
        <ele>176.986478</ele>
        <time>2021-09-10T08:50:29.000Z</time>
      </trkpt>
      <trkpt lat="47.01234" lon="3.07562">
        <ele>176.987164</ele>
        <time>2021-09-10T08:50:30.000Z</time>
      </trkpt>
      <trkpt lat="47.01234" lon="3.07569">
        <ele>176.98782</ele>
        <time>2021-09-10T08:50:31.000Z</time>
      </trkpt>
      <trkpt lat="47.01234" lon="3.07595">
        <ele>176.990425</ele>
        <time>2021-09-10T08:50:35.000Z</time>
      </trkpt>
      <trkpt lat="47.01234" lon="3.07622">
        <ele>176.993159</ele>
        <time>2021-09-10T08:50:40.000Z</time>
      </trkpt>
      <trkpt lat="47.01234" lon="3.07656">
        <ele>176.996459</ele>
        <time>2021-09-10T08:50:46.000Z</time>
      </trkpt>
      <trkpt lat="47.01234" lon="3.07703">
        <ele>177.001212</ele>
        <time>2021-09-10T08:50:53.000Z</time>
      </trkpt>
      <trkpt lat="47.01234" lon="3.07725">
        <ele>177.003319</ele>
        <time>2021-09-10T08:50:56.000Z</time>
      </trkpt>
      <trkpt lat="47.01234" lon="3.07746">
        <ele>177.005447</ele>
        <time>2021-09-10T08:50:59.000Z</time>
      </trkpt>
      <trkpt lat="47.01234" lon="3.0778">
        <ele>177.008817</ele>
        <time>2021-09-10T08:51:05.000Z</time>
      </trkpt>
      <trkpt lat="47.01234" lon="3.07784">
        <ele>177.009234</ele>
        <time>2021-09-10T08:51:07.000Z</time>
      </trkpt>
      <trkpt lat="47.01234" lon="3.07789">
        <ele>177.009712</ele>
        <time>2021-09-10T08:51:10.000Z</time>
      </trkpt>
      <trkpt lat="47.01234" lon="3.07807">
        <ele>177.011501</ele>
        <time>2021-09-10T08:51:14.000Z</time>
      </trkpt>
      <trkpt lat="47.01234" lon="3.07814">
        <ele>177.012157</ele>
        <time>2021-09-10T08:51:18.000Z</time>
      </trkpt>
      <trkpt lat="47.01229" lon="3.07834">
        <ele>177.038788</ele>
        <time>2021-09-10T08:51:24.000Z</time>
      </trkpt>
      <trkpt lat="47.01225" lon="3.07851">
        <ele>177.062139</ele>
        <time>2021-09-10T08:51:28.000Z</time>
      </trkpt>
      <trkpt lat="47.01239" lon="3.07876">
        <ele>177.102961</ele>
        <time>2021-09-10T08:51:33.000Z</time>
      </trkpt>
      <trkpt lat="47.01246" lon="3.07922">
        <ele>177.162963</ele>
        <time>2021-09-10T08:51:40.000Z</time>
      </trkpt>
      <trkpt lat="47.01255" lon="3.07981">
        <ele>177.240536</ele>
        <time>2021-09-10T08:51:49.000Z</time>
      </trkpt>
      <trkpt lat="47.01262" lon="3.08035">
        <ele>177.310314</ele>
        <time>2021-09-10T08:51:58.000Z</time>
      </trkpt>
      <trkpt lat="47.01267" lon="3.08076">
        <ele>177.496</ele>
        <time>2021-09-10T08:52:05.000Z</time>
      </trkpt>
      <trkpt lat="47.01273" lon="3.0812">
        <ele>178.045057</ele>
        <time>2021-09-10T08:52:13.000Z</time>
      </trkpt>
      <trkpt lat="47.01278" lon="3.0816">
        <ele>178.550398</ele>
        <time>2021-09-10T08:52:21.000Z</time>
      </trkpt>
      <trkpt lat="47.01283" lon="3.082">
        <ele>179.045195</ele>
        <time>2021-09-10T08:52:29.000Z</time>
      </trkpt>
      <trkpt lat="47.01289" lon="3.08239">
        <ele>179.537082</ele>
        <time>2021-09-10T08:52:37.000Z</time>
      </trkpt>
      <trkpt lat="47.01294" lon="3.08278">
        <ele>180.031191</ele>
        <time>2021-09-10T08:52:44.000Z</time>
      </trkpt>
      <trkpt lat="47.013" lon="3.08326">
        <ele>180.60397</ele>
        <time>2021-09-10T08:52:51.000Z</time>
      </trkpt>
      <trkpt lat="47.01308" lon="3.08389">
        <ele>180.720815</ele>
        <time>2021-09-10T08:52:59.000Z</time>
      </trkpt>
      <trkpt lat="47.01315" lon="3.0844">
        <ele>180.815458</ele>
        <time>2021-09-10T08:53:05.000Z</time>
      </trkpt>
      <trkpt lat="47.01324" lon="3.08517">
        <ele>180.957139</ele>
        <time>2021-09-10T08:53:13.000Z</time>
      </trkpt>
      <trkpt lat="47.0133" lon="3.08591">
        <ele>181.047656</ele>
        <time>2021-09-10T08:53:20.000Z</time>
      </trkpt>
      <trkpt lat="47.01324" lon="3.08652">
        <ele>180.787701</ele>
        <time>2021-09-10T08:53:26.000Z</time>
      </trkpt>
      <trkpt lat="47.01312" lon="3.08708">
        <ele>180.536102</ele>
        <time>2021-09-10T08:53:32.000Z</time>
      </trkpt>
      <trkpt lat="47.01307" lon="3.08727">
        <ele>180.451441</ele>
        <time>2021-09-10T08:53:34.000Z</time>
      </trkpt>
      <trkpt lat="47.01295" lon="3.0874">
        <ele>180.358702</ele>
        <time>2021-09-10T08:53:36.000Z</time>
      </trkpt>
      <trkpt lat="47.01266" lon="3.08794">
        <ele>180.069732</ele>
        <time>2021-09-10T08:53:43.000Z</time>
      </trkpt>
      <trkpt lat="47.01237" lon="3.0883">
        <ele>179.822053</ele>
        <time>2021-09-10T08:53:49.000Z</time>
      </trkpt>
      <trkpt lat="47.01209" lon="3.08861">
        <ele>179.581485</ele>
        <time>2021-09-10T08:53:55.000Z</time>
      </trkpt>
      <trkpt lat="47.01163" lon="3.08914">
        <ele>179.18522</ele>
        <time>2021-09-10T08:54:05.000Z</time>
      </trkpt>
      <trkpt lat="47.0113" lon="3.08952">
        <ele>178.898783</ele>
        <time>2021-09-10T08:54:12.000Z</time>
      </trkpt>
      <trkpt lat="47.01084" lon="3.09005">
        <ele>178.693893</ele>
        <time>2021-09-10T08:54:22.000Z</time>
      </trkpt>
      <trkpt lat="47.01041" lon="3.09053">
        <ele>178.629574</ele>
        <time>2021-09-10T08:54:31.000Z</time>
      </trkpt>
      <trkpt lat="47.01005" lon="3.09094">
        <ele>178.574554</ele>
        <time>2021-09-10T08:54:39.000Z</time>
      </trkpt>
      <trkpt lat="47.00962" lon="3.09143">
        <ele>178.52778</ele>
        <time>2021-09-10T08:54:49.000Z</time>
      </trkpt>
      <trkpt lat="47.00918" lon="3.09191">
        <ele>178.573655</ele>
        <time>2021-09-10T08:54:59.000Z</time>
      </trkpt>
      <trkpt lat="47.00878" lon="3.09235">
        <ele>178.614863</ele>
        <time>2021-09-10T08:55:08.000Z</time>
      </trkpt>
      <trkpt lat="47.00854" lon="3.09263">
        <ele>178.640723</ele>
        <time>2021-09-10T08:55:14.000Z</time>
      </trkpt>
      <trkpt lat="47.00821" lon="3.09302">
        <ele>178.650003</ele>
        <time>2021-09-10T08:55:22.000Z</time>
      </trkpt>
      <trkpt lat="47.00791" lon="3.09335">
        <ele>178.549497</ele>
        <time>2021-09-10T08:55:29.000Z</time>
      </trkpt>
      <trkpt lat="47.00756" lon="3.09375">
        <ele>178.428154</ele>
        <time>2021-09-10T08:55:37.000Z</time>
      </trkpt>
      <trkpt lat="47.0072" lon="3.09411">
        <ele>178.310161</ele>
        <time>2021-09-10T08:55:45.000Z</time>
      </trkpt>
      <trkpt lat="47.00689" lon="3.09434">
        <ele>178.215659</ele>
        <time>2021-09-10T08:55:51.000Z</time>
      </trkpt>
      <trkpt lat="47.00668" lon="3.09446">
        <ele>178.105643</ele>
        <time>2021-09-10T08:55:55.000Z</time>
      </trkpt>
      <trkpt lat="47.00657" lon="3.09452">
        <ele>178.023362</ele>
        <time>2021-09-10T08:55:57.000Z</time>
      </trkpt>
      <trkpt lat="47.00637" lon="3.09464">
        <ele>177.861245</ele>
        <time>2021-09-10T08:56:01.000Z</time>
      </trkpt>
      <trkpt lat="47.00627" lon="3.0947">
        <ele>177.777397</ele>
        <time>2021-09-10T08:56:03.000Z</time>
      </trkpt>
      <trkpt lat="47.00606" lon="3.09482">
        <ele>177.616156</ele>
        <time>2021-09-10T08:56:07.000Z</time>
      </trkpt>
      <trkpt lat="47.00583" lon="3.09494">
        <ele>177.430379</ele>
        <time>2021-09-10T08:56:12.000Z</time>
      </trkpt>
      <trkpt lat="47.00572" lon="3.09491">
        <ele>177.349774</ele>
        <time>2021-09-10T08:56:14.000Z</time>
      </trkpt>
      <trkpt lat="47.00562" lon="3.09486">
        <ele>177.272739</ele>
        <time>2021-09-10T08:56:16.000Z</time>
      </trkpt>
      <trkpt lat="47.00557" lon="3.09486">
        <ele>177.236235</ele>
        <time>2021-09-10T08:56:17.000Z</time>
      </trkpt>
      <trkpt lat="47.00548" lon="3.09485">
        <ele>177.164077</ele>
        <time>2021-09-10T08:56:19.000Z</time>
      </trkpt>
      <trkpt lat="47.00538" lon="3.09484">
        <ele>177.089829</ele>
        <time>2021-09-10T08:56:21.000Z</time>
      </trkpt>
      <trkpt lat="47.00532" lon="3.09486">
        <ele>177.049117</ele>
        <time>2021-09-10T08:56:22.000Z</time>
      </trkpt>
      <trkpt lat="47.00526" lon="3.09495">
        <ele>176.980625</ele>
        <time>2021-09-10T08:56:24.000Z</time>
      </trkpt>
      <trkpt lat="47.00515" lon="3.09517">
        <ele>176.84761</ele>
        <time>2021-09-10T08:56:28.000Z</time>
      </trkpt>
      <trkpt lat="47.00513" lon="3.09523">
        <ele>176.852521</ele>
        <time>2021-09-10T08:56:29.000Z</time>
      </trkpt>
      <trkpt lat="47.00513" lon="3.09531">
        <ele>176.85854</ele>
        <time>2021-09-10T08:56:30.000Z</time>
      </trkpt>
      <trkpt lat="47.00509" lon="3.09545">
        <ele>176.870976</ele>
        <time>2021-09-10T08:56:32.000Z</time>
      </trkpt>
      <trkpt lat="47.00505" lon="3.0955">
        <ele>176.877447</ele>
        <time>2021-09-10T08:56:33.000Z</time>
      </trkpt>
      <trkpt lat="47.0047" lon="3.09584">
        <ele>176.925779</ele>
        <time>2021-09-10T08:56:40.000Z</time>
      </trkpt>
      <trkpt lat="47.00421" lon="3.09631">
        <ele>176.995197</ele>
        <time>2021-09-10T08:56:50.000Z</time>
      </trkpt>
      <trkpt lat="47.00393" lon="3.09658">
        <ele>177.033738</ele>
        <time>2021-09-10T08:56:56.000Z</time>
      </trkpt>
      <trkpt lat="47.00357" lon="3.09693">
        <ele>177.184449</ele>
        <time>2021-09-10T08:57:04.000Z</time>
      </trkpt>
      <trkpt lat="47.00308" lon="3.09741">
        <ele>177.50116</ele>
        <time>2021-09-10T08:57:15.000Z</time>
      </trkpt>
      <trkpt lat="47.00278" lon="3.0977">
        <ele>177.6969</ele>
        <time>2021-09-10T08:57:22.000Z</time>
      </trkpt>
      <trkpt lat="47.00248" lon="3.09803">
        <ele>177.89705</ele>
        <time>2021-09-10T08:57:29.000Z</time>
      </trkpt>
      <trkpt lat="47.00215" lon="3.09843">
        <ele>178.177385</ele>
        <time>2021-09-10T08:57:37.000Z</time>
      </trkpt>
      <trkpt lat="47.00191" lon="3.09876">
        <ele>178.450854</ele>
        <time>2021-09-10T08:57:43.000Z</time>
      </trkpt>
      <trkpt lat="47.00155" lon="3.09933">
        <ele>178.887698</ele>
        <time>2021-09-10T08:57:53.000Z</time>
      </trkpt>
      <trkpt lat="47.00149" lon="3.09944">
        <ele>178.969502</ele>
        <time>2021-09-10T08:57:55.000Z</time>
      </trkpt>
      <trkpt lat="47.00142" lon="3.09955">
        <ele>179.056014</ele>
        <time>2021-09-10T08:57:57.000Z</time>
      </trkpt>
      <trkpt lat="47.00138" lon="3.09961">
        <ele>179.099001</ele>
        <time>2021-09-10T08:57:58.000Z</time>
      </trkpt>
      <trkpt lat="47.0011" lon="3.10018">
        <ele>179.491611</ele>
        <time>2021-09-10T08:58:07.000Z</time>
      </trkpt>
      <trkpt lat="47.00106" lon="3.10022">
        <ele>179.537954</ele>
        <time>2021-09-10T08:58:08.000Z</time>
      </trkpt>
      <trkpt lat="47.00095" lon="3.10039">
        <ele>179.677906</ele>
        <time>2021-09-10T08:58:11.000Z</time>
      </trkpt>
      <trkpt lat="47.00089" lon="3.10052">
        <ele>179.772698</ele>
        <time>2021-09-10T08:58:13.000Z</time>
      </trkpt>
      <trkpt lat="47.00087" lon="3.10067">
        <ele>179.863499</ele>
        <time>2021-09-10T08:58:15.000Z</time>
      </trkpt>
      <trkpt lat="47.00085" lon="3.10074">
        <ele>179.913033</ele>
        <time>2021-09-10T08:58:16.000Z</time>
      </trkpt>
      <trkpt lat="47.00075" lon="3.10102">
        <ele>180.102794</ele>
        <time>2021-09-10T08:58:20.000Z</time>
      </trkpt>
      <trkpt lat="47.00051" lon="3.10169">
        <ele>180.569186</ele>
        <time>2021-09-10T08:58:30.000Z</time>
      </trkpt>
      <trkpt lat="47.00034" lon="3.10224">
        <ele>180.930417</ele>
        <time>2021-09-10T08:58:38.000Z</time>
      </trkpt>
      <trkpt lat="47.00018" lon="3.1028">
        <ele>181.185053</ele>
        <time>2021-09-10T08:58:46.000Z</time>
      </trkpt>
      <trkpt lat="47" lon="3.10341">
        <ele>181.332966</ele>
        <time>2021-09-10T08:58:54.000Z</time>
      </trkpt>
      <trkpt lat="46.99982" lon="3.10404">
        <ele>181.485014</ele>
        <time>2021-09-10T08:59:02.000Z</time>
      </trkpt>
      <trkpt lat="46.99964" lon="3.10469">
        <ele>181.642352</ele>
        <time>2021-09-10T08:59:10.000Z</time>
      </trkpt>
      <trkpt lat="46.99946" lon="3.1053">
        <ele>181.667847</ele>
        <time>2021-09-10T08:59:17.000Z</time>
      </trkpt>
      <trkpt lat="46.99927" lon="3.10597">
        <ele>181.598295</ele>
        <time>2021-09-10T08:59:25.000Z</time>
      </trkpt>
      <trkpt lat="46.99905" lon="3.10658">
        <ele>181.532053</ele>
        <time>2021-09-10T08:59:33.000Z</time>
      </trkpt>
      <trkpt lat="46.99891" lon="3.10694">
        <ele>181.492665</ele>
        <time>2021-09-10T08:59:38.000Z</time>
      </trkpt>
      <trkpt lat="46.99883" lon="3.10704">
        <ele>181.477698</ele>
        <time>2021-09-10T08:59:40.000Z</time>
      </trkpt>
      <trkpt lat="46.99873" lon="3.10708">
        <ele>181.463612</ele>
        <time>2021-09-10T08:59:42.000Z</time>
      </trkpt>
      <trkpt lat="46.99868" lon="3.10708">
        <ele>181.45629</ele>
        <time>2021-09-10T08:59:43.000Z</time>
      </trkpt>
      <trkpt lat="46.99864" lon="3.10715">
        <ele>181.447484</ele>
        <time>2021-09-10T08:59:44.000Z</time>
      </trkpt>
      <trkpt lat="46.9986" lon="3.10725">
        <ele>181.431807</ele>
        <time>2021-09-10T08:59:46.000Z</time>
      </trkpt>
      <trkpt lat="46.99859" lon="3.10739">
        <ele>181.415029</ele>
        <time>2021-09-10T08:59:48.000Z</time>
      </trkpt>
      <trkpt lat="46.99862" lon="3.10745">
        <ele>181.40591</ele>
        <time>2021-09-10T08:59:49.000Z</time>
      </trkpt>
      <trkpt lat="46.99864" lon="3.10761">
        <ele>181.385302</ele>
        <time>2021-09-10T08:59:51.000Z</time>
      </trkpt>
      <trkpt lat="46.99861" lon="3.10776">
        <ele>181.366754</ele>
        <time>2021-09-10T08:59:53.000Z</time>
      </trkpt>
      <trkpt lat="46.99847" lon="3.10808">
        <ele>181.319107</ele>
        <time>2021-09-10T08:59:58.000Z</time>
      </trkpt>
      <trkpt lat="46.99825" lon="3.10855">
        <ele>181.247794</ele>
        <time>2021-09-10T09:00:05.000Z</time>
      </trkpt>
      <trkpt lat="46.99797" lon="3.10902">
        <ele>181.170464</ele>
        <time>2021-09-10T09:00:12.000Z</time>
      </trkpt>
      <trkpt lat="46.99757" lon="3.10961">
        <ele>181.084303</ele>
        <time>2021-09-10T09:00:21.000Z</time>
      </trkpt>
      <trkpt lat="46.99752" lon="3.10966">
        <ele>181.076125</ele>
        <time>2021-09-10T09:00:22.000Z</time>
      </trkpt>
      <trkpt lat="46.99709" lon="3.11017">
        <ele>181.00408</ele>
        <time>2021-09-10T09:00:31.000Z</time>
      </trkpt>
      <trkpt lat="46.99675" lon="3.11055">
        <ele>180.9489</ele>
        <time>2021-09-10T09:00:38.000Z</time>
      </trkpt>
      <trkpt lat="46.99636" lon="3.11104">
        <ele>180.908687</ele>
        <time>2021-09-10T09:00:47.000Z</time>
      </trkpt>
      <trkpt lat="46.99607" lon="3.11145">
        <ele>181.007576</ele>
        <time>2021-09-10T09:00:55.000Z</time>
      </trkpt>
      <trkpt lat="46.99579" lon="3.11197">
        <ele>181.117607</ele>
        <time>2021-09-10T09:01:04.000Z</time>
      </trkpt>
      <trkpt lat="46.99563" lon="3.11233">
        <ele>181.188856</ele>
        <time>2021-09-10T09:01:10.000Z</time>
      </trkpt>
      <trkpt lat="46.99559" lon="3.11236">
        <ele>181.200099</ele>
        <time>2021-09-10T09:01:11.000Z</time>
      </trkpt>
      <trkpt lat="46.99551" lon="3.11244">
        <ele>181.223279</ele>
        <time>2021-09-10T09:01:13.000Z</time>
      </trkpt>
      <trkpt lat="46.99548" lon="3.11255">
        <ele>181.242993</ele>
        <time>2021-09-10T09:01:15.000Z</time>
      </trkpt>
      <trkpt lat="46.99542" lon="3.11278">
        <ele>181.283041</ele>
        <time>2021-09-10T09:01:20.000Z</time>
      </trkpt>
      <trkpt lat="46.99537" lon="3.11291">
        <ele>181.30856</ele>
        <time>2021-09-10T09:01:23.000Z</time>
      </trkpt>
      <trkpt lat="46.99536" lon="3.11298">
        <ele>181.319549</ele>
        <time>2021-09-10T09:01:24.000Z</time>
      </trkpt>
      <trkpt lat="46.99536" lon="3.11305">
        <ele>181.328712</ele>
        <time>2021-09-10T09:01:25.000Z</time>
      </trkpt>
      <trkpt lat="46.99537" lon="3.11318">
        <ele>181.323962</ele>
        <time>2021-09-10T09:01:27.000Z</time>
      </trkpt>
      <trkpt lat="46.99536" lon="3.11326">
        <ele>181.321112</ele>
        <time>2021-09-10T09:01:28.000Z</time>
      </trkpt>
      <trkpt lat="46.99528" lon="3.11364">
        <ele>181.30757</ele>
        <time>2021-09-10T09:01:33.000Z</time>
      </trkpt>
      <trkpt lat="46.99527" lon="3.11372">
        <ele>181.304707</ele>
        <time>2021-09-10T09:01:34.000Z</time>
      </trkpt>
      <trkpt lat="46.9952" lon="3.11422">
        <ele>181.287256</ele>
        <time>2021-09-10T09:01:40.000Z</time>
      </trkpt>
      <trkpt lat="46.99518" lon="3.11455">
        <ele>181.275754</ele>
        <time>2021-09-10T09:01:44.000Z</time>
      </trkpt>
      <trkpt lat="46.99518" lon="3.11464">
        <ele>181.272799</ele>
        <time>2021-09-10T09:01:45.000Z</time>
      </trkpt>
      <trkpt lat="46.99518" lon="3.11538">
        <ele>181.247379</ele>
        <time>2021-09-10T09:01:54.000Z</time>
      </trkpt>
      <trkpt lat="46.99525" lon="3.11617">
        <ele>181.343626</ele>
        <time>2021-09-10T09:02:04.000Z</time>
      </trkpt>
      <trkpt lat="46.99536" lon="3.11677">
        <ele>181.463334</ele>
        <time>2021-09-10T09:02:12.000Z</time>
      </trkpt>
      <trkpt lat="46.99556" lon="3.1175">
        <ele>181.617545</ele>
        <time>2021-09-10T09:02:22.000Z</time>
      </trkpt>
      <trkpt lat="46.99577" lon="3.11816">
        <ele>181.763017</ele>
        <time>2021-09-10T09:02:31.000Z</time>
      </trkpt>
      <trkpt lat="46.99596" lon="3.11877">
        <ele>181.986289</ele>
        <time>2021-09-10T09:02:40.000Z</time>
      </trkpt>
      <trkpt lat="46.99611" lon="3.11924">
        <ele>182.156374</ele>
        <time>2021-09-10T09:02:47.000Z</time>
      </trkpt>
      <trkpt lat="46.99624" lon="3.11973">
        <ele>182.331742</ele>
        <time>2021-09-10T09:02:54.000Z</time>
      </trkpt>
      <trkpt lat="46.99635" lon="3.12029">
        <ele>182.522315</ele>
        <time>2021-09-10T09:03:01.000Z</time>
      </trkpt>
      <trkpt lat="46.99636" lon="3.1207">
        <ele>182.693495</ele>
        <time>2021-09-10T09:03:06.000Z</time>
      </trkpt>
      <trkpt lat="46.99632" lon="3.12133">
        <ele>183.09629</ele>
        <time>2021-09-10T09:03:14.000Z</time>
      </trkpt>
      <trkpt lat="46.99627" lon="3.12186">
        <ele>183.433983</ele>
        <time>2021-09-10T09:03:22.000Z</time>
      </trkpt>
      <trkpt lat="46.99621" lon="3.12225">
        <ele>183.689109</ele>
        <time>2021-09-10T09:03:29.000Z</time>
      </trkpt>
      <trkpt lat="46.99611" lon="3.12246">
        <ele>183.852492</ele>
        <time>2021-09-10T09:03:34.000Z</time>
      </trkpt>
      <trkpt lat="46.99595" lon="3.1226">
        <ele>184.026947</ele>
        <time>2021-09-10T09:03:40.000Z</time>
      </trkpt>
      <trkpt lat="46.99595" lon="3.12264">
        <ele>184.050478</ele>
        <time>2021-09-10T09:03:42.000Z</time>
      </trkpt>
      <trkpt lat="46.99594" lon="3.12269">
        <ele>184.086772</ele>
        <time>2021-09-10T09:03:44.000Z</time>
      </trkpt>
      <trkpt lat="46.99593" lon="3.12285">
        <ele>184.185865</ele>
        <time>2021-09-10T09:03:48.000Z</time>
      </trkpt>
      <trkpt lat="46.99594" lon="3.12289">
        <ele>184.215759</ele>
        <time>2021-09-10T09:03:49.000Z</time>
      </trkpt>
      <trkpt lat="46.99608" lon="3.1231">
        <ele>184.672488</ele>
        <time>2021-09-10T09:03:55.000Z</time>
      </trkpt>
      <trkpt lat="46.99613" lon="3.12334">
        <ele>185.287553</ele>
        <time>2021-09-10T09:04:00.000Z</time>
      </trkpt>
      <trkpt lat="46.99611" lon="3.12372">
        <ele>186.24616</ele>
        <time>2021-09-10T09:04:07.000Z</time>
      </trkpt>
      <trkpt lat="46.99609" lon="3.12411">
        <ele>187.18936</ele>
        <time>2021-09-10T09:04:14.000Z</time>
      </trkpt>
      <trkpt lat="46.99606" lon="3.12439">
        <ele>187.892154</ele>
        <time>2021-09-10T09:04:20.000Z</time>
      </trkpt>
      <trkpt lat="46.99596" lon="3.1243">
        <ele>188.294182</ele>
        <time>2021-09-10T09:04:25.000Z</time>
      </trkpt>
      <trkpt lat="46.99601" lon="3.12448">
        <ele>188.767534</ele>
        <time>2021-09-10T09:04:27.000Z</time>
      </trkpt>
      <trkpt lat="46.99599" lon="3.1243">
        <ele>189.211381</ele>
        <time>2021-09-10T09:10:16.000Z</time>
      </trkpt>
      <trkpt lat="46.99601" lon="3.12443">
        <ele>189.541664</ele>
        <time>2021-09-10T09:10:18.000Z</time>
      </trkpt>
      <trkpt lat="46.99606" lon="3.1243">
        <ele>189.903142</ele>
        <time>2021-09-10T09:10:21.000Z</time>
      </trkpt>
      <trkpt lat="46.99608" lon="3.1243">
        <ele>189.964516</ele>
        <time>2021-09-10T09:10:22.000Z</time>
      </trkpt>
      <trkpt lat="46.9961" lon="3.12431">
        <ele>190.069589</ele>
        <time>2021-09-10T09:10:25.000Z</time>
      </trkpt>
      <trkpt lat="46.99608" lon="3.12444">
        <ele>190.419109</ele>
        <time>2021-09-10T09:10:28.000Z</time>
      </trkpt>
      <trkpt lat="46.99616" lon="3.12455">
        <ele>190.786459</ele>
        <time>2021-09-10T09:10:32.000Z</time>
      </trkpt>
      <trkpt lat="46.99616" lon="3.12459">
        <ele>190.829903</ele>
        <time>2021-09-10T09:10:33.000Z</time>
      </trkpt>
      <trkpt lat="46.99616" lon="3.12465">
        <ele>190.871175</ele>
        <time>2021-09-10T09:10:35.000Z</time>
      </trkpt>
      <trkpt lat="46.99616" lon="3.12486">
        <ele>191.045199</ele>
        <time>2021-09-10T09:10:38.000Z</time>
      </trkpt>
      <trkpt lat="46.99616" lon="3.12513">
        <ele>191.262915</ele>
        <time>2021-09-10T09:10:43.000Z</time>
      </trkpt>
      <trkpt lat="46.99618" lon="3.12552">
        <ele>191.580857</ele>
        <time>2021-09-10T09:10:49.000Z</time>
      </trkpt>
      <trkpt lat="46.9962" lon="3.12585">
        <ele>191.847456</ele>
        <time>2021-09-10T09:10:54.000Z</time>
      </trkpt>
      <trkpt lat="46.99621" lon="3.12598">
        <ele>191.952279</ele>
        <time>2021-09-10T09:10:56.000Z</time>
      </trkpt>
      <trkpt lat="46.99624" lon="3.12645">
        <ele>192.331551</ele>
        <time>2021-09-10T09:11:03.000Z</time>
      </trkpt>
      <trkpt lat="46.99627" lon="3.12708">
        <ele>192.847002</ele>
        <time>2021-09-10T09:11:12.000Z</time>
      </trkpt>
      <trkpt lat="46.9963" lon="3.12765">
        <ele>193.129023</ele>
        <time>2021-09-10T09:11:20.000Z</time>
      </trkpt>
      <trkpt lat="46.99632" lon="3.12821">
        <ele>193.369991</ele>
        <time>2021-09-10T09:11:28.000Z</time>
      </trkpt>
      <trkpt lat="46.99627" lon="3.12878">
        <ele>193.616978</ele>
        <time>2021-09-10T09:11:36.000Z</time>
      </trkpt>
      <trkpt lat="46.99618" lon="3.12935">
        <ele>193.869323</ele>
        <time>2021-09-10T09:11:44.000Z</time>
      </trkpt>
      <trkpt lat="46.99605" lon="3.12986">
        <ele>194.063384</ele>
        <time>2021-09-10T09:11:51.000Z</time>
      </trkpt>
      <trkpt lat="46.9959" lon="3.13032">
        <ele>194.095601</ele>
        <time>2021-09-10T09:11:58.000Z</time>
      </trkpt>
      <trkpt lat="46.99576" lon="3.13077">
        <ele>194.127045</ele>
        <time>2021-09-10T09:12:05.000Z</time>
      </trkpt>
      <trkpt lat="46.9956" lon="3.1313">
        <ele>194.164078</ele>
        <time>2021-09-10T09:12:12.000Z</time>
      </trkpt>
      <trkpt lat="46.99539" lon="3.13194">
        <ele>194.209069</ele>
        <time>2021-09-10T09:12:20.000Z</time>
      </trkpt>
      <trkpt lat="46.99516" lon="3.13269">
        <ele>194.312877</ele>
        <time>2021-09-10T09:12:29.000Z</time>
      </trkpt>
      <trkpt lat="46.9949" lon="3.13346">
        <ele>194.445149</ele>
        <time>2021-09-10T09:12:39.000Z</time>
      </trkpt>
      <trkpt lat="46.99467" lon="3.1342">
        <ele>194.570454</ele>
        <time>2021-09-10T09:12:49.000Z</time>
      </trkpt>
      <trkpt lat="46.99453" lon="3.13468">
        <ele>194.651169</ele>
        <time>2021-09-10T09:12:56.000Z</time>
      </trkpt>
      <trkpt lat="46.9944" lon="3.13516">
        <ele>194.732313</ele>
        <time>2021-09-10T09:13:03.000Z</time>
      </trkpt>
      <trkpt lat="46.99421" lon="3.13572">
        <ele>194.831709</ele>
        <time>2021-09-10T09:13:11.000Z</time>
      </trkpt>
      <trkpt lat="46.99411" lon="3.13606">
        <ele>194.888698</ele>
        <time>2021-09-10T09:13:16.000Z</time>
      </trkpt>
      <trkpt lat="46.9941" lon="3.13609">
        <ele>194.894146</ele>
        <time>2021-09-10T09:13:17.000Z</time>
      </trkpt>
      <trkpt lat="46.99406" lon="3.13619">
        <ele>194.912092</ele>
        <time>2021-09-10T09:13:18.000Z</time>
      </trkpt>
      <trkpt lat="46.99406" lon="3.13634">
        <ele>194.936332</ele>
        <time>2021-09-10T09:13:20.000Z</time>
      </trkpt>
      <trkpt lat="46.99404" lon="3.13642">
        <ele>194.948995</ele>
        <time>2021-09-10T09:13:21.000Z</time>
      </trkpt>
      <trkpt lat="46.99389" lon="3.13697">
        <ele>195.043424</ele>
        <time>2021-09-10T09:13:28.000Z</time>
      </trkpt>
      <trkpt lat="46.9937" lon="3.13771">
        <ele>195.096438</ele>
        <time>2021-09-10T09:13:37.000Z</time>
      </trkpt>
      <trkpt lat="46.99356" lon="3.13818">
        <ele>195.131266</ele>
        <time>2021-09-10T09:13:43.000Z</time>
      </trkpt>
      <trkpt lat="46.99351" lon="3.13834">
        <ele>195.142744</ele>
        <time>2021-09-10T09:13:45.000Z</time>
      </trkpt>
      <trkpt lat="46.99331" lon="3.139">
        <ele>195.190794</ele>
        <time>2021-09-10T09:13:53.000Z</time>
      </trkpt>
      <trkpt lat="46.99309" lon="3.13963">
        <ele>195.290337</ele>
        <time>2021-09-10T09:14:01.000Z</time>
      </trkpt>
      <trkpt lat="46.99293" lon="3.14011">
        <ele>195.434517</ele>
        <time>2021-09-10T09:14:08.000Z</time>
      </trkpt>
      <trkpt lat="46.99278" lon="3.14054">
        <ele>195.560361</ele>
        <time>2021-09-10T09:14:15.000Z</time>
      </trkpt>
      <trkpt lat="46.99271" lon="3.1407">
        <ele>195.611354</ele>
        <time>2021-09-10T09:14:18.000Z</time>
      </trkpt>
      <trkpt lat="46.99261" lon="3.14091">
        <ele>195.678984</ele>
        <time>2021-09-10T09:14:22.000Z</time>
      </trkpt>
      <trkpt lat="46.99258" lon="3.14096">
        <ele>195.695773</ele>
        <time>2021-09-10T09:14:23.000Z</time>
      </trkpt>
      <trkpt lat="46.99231" lon="3.1414">
        <ele>195.85393</ele>
        <time>2021-09-10T09:14:32.000Z</time>
      </trkpt>
      <trkpt lat="46.99225" lon="3.1415">
        <ele>195.890521</ele>
        <time>2021-09-10T09:14:34.000Z</time>
      </trkpt>
      <trkpt lat="46.99212" lon="3.14171">
        <ele>195.901107</ele>
        <time>2021-09-10T09:14:38.000Z</time>
      </trkpt>
      <trkpt lat="46.99199" lon="3.142">
        <ele>195.861844</ele>
        <time>2021-09-10T09:14:43.000Z</time>
      </trkpt>
      <trkpt lat="46.99194" lon="3.14213">
        <ele>195.845068</ele>
        <time>2021-09-10T09:14:45.000Z</time>
      </trkpt>
      <trkpt lat="46.99183" lon="3.14232">
        <ele>195.816869</ele>
        <time>2021-09-10T09:14:48.000Z</time>
      </trkpt>
      <trkpt lat="46.99188" lon="3.1425">
        <ele>195.79496</ele>
        <time>2021-09-10T09:14:50.000Z</time>
      </trkpt>
      <trkpt lat="46.99198" lon="3.14269">
        <ele>195.767884</ele>
        <time>2021-09-10T09:14:53.000Z</time>
      </trkpt>
      <trkpt lat="46.99203" lon="3.14284">
        <ele>195.749587</ele>
        <time>2021-09-10T09:14:55.000Z</time>
      </trkpt>
      <trkpt lat="46.99204" lon="3.14293">
        <ele>195.73901</ele>
        <time>2021-09-10T09:14:56.000Z</time>
      </trkpt>
      <trkpt lat="46.99208" lon="3.14327">
        <ele>195.700683</ele>
        <time>2021-09-10T09:15:00.000Z</time>
      </trkpt>
      <trkpt lat="46.99214" lon="3.14394">
        <ele>195.624158</ele>
        <time>2021-09-10T09:15:08.000Z</time>
      </trkpt>
      <trkpt lat="46.99221" lon="3.14459">
        <ele>195.315305</ele>
        <time>2021-09-10T09:15:16.000Z</time>
      </trkpt>
      <trkpt lat="46.99226" lon="3.14521">
        <ele>195.015352</ele>
        <time>2021-09-10T09:15:24.000Z</time>
      </trkpt>
      <trkpt lat="46.99227" lon="3.14566">
        <ele>194.803684</ele>
        <time>2021-09-10T09:15:30.000Z</time>
      </trkpt>
      <trkpt lat="46.99229" lon="3.14587">
        <ele>194.70136</ele>
        <time>2021-09-10T09:15:33.000Z</time>
      </trkpt>
      <trkpt lat="46.99231" lon="3.14609">
        <ele>194.596197</ele>
        <time>2021-09-10T09:15:36.000Z</time>
      </trkpt>
      <trkpt lat="46.99232" lon="3.14631">
        <ele>194.487635</ele>
        <time>2021-09-10T09:15:39.000Z</time>
      </trkpt>
      <trkpt lat="46.99237" lon="3.14662">
        <ele>194.339354</ele>
        <time>2021-09-10T09:15:43.000Z</time>
      </trkpt>
      <trkpt lat="46.9924" lon="3.14706">
        <ele>194.146218</ele>
        <time>2021-09-10T09:15:49.000Z</time>
      </trkpt>
      <trkpt lat="46.99246" lon="3.14768">
        <ele>193.876611</ele>
        <time>2021-09-10T09:15:57.000Z</time>
      </trkpt>
      <trkpt lat="46.99251" lon="3.14817">
        <ele>193.661578</ele>
        <time>2021-09-10T09:16:04.000Z</time>
      </trkpt>
      <trkpt lat="46.9925" lon="3.14847">
        <ele>193.532502</ele>
        <time>2021-09-10T09:16:08.000Z</time>
      </trkpt>
      <trkpt lat="46.99246" lon="3.14863">
        <ele>193.460558</ele>
        <time>2021-09-10T09:16:10.000Z</time>
      </trkpt>
      <trkpt lat="46.99241" lon="3.14877">
        <ele>193.390282</ele>
        <time>2021-09-10T09:16:12.000Z</time>
      </trkpt>
      <trkpt lat="46.99233" lon="3.14889">
        <ele>193.318942</ele>
        <time>2021-09-10T09:16:14.000Z</time>
      </trkpt>
      <trkpt lat="46.99229" lon="3.14895">
        <ele>193.283489</ele>
        <time>2021-09-10T09:16:16.000Z</time>
      </trkpt>
      <trkpt lat="46.99215" lon="3.14919">
        <ele>193.153277</ele>
        <time>2021-09-10T09:16:19.000Z</time>
      </trkpt>
      <trkpt lat="46.99178" lon="3.14948">
        <ele>192.907488</ele>
        <time>2021-09-10T09:16:26.000Z</time>
      </trkpt>
      <trkpt lat="46.99173" lon="3.14952">
        <ele>192.876024</ele>
        <time>2021-09-10T09:16:27.000Z</time>
      </trkpt>
      <trkpt lat="46.99137" lon="3.14981">
        <ele>192.6403</ele>
        <time>2021-09-10T09:16:35.000Z</time>
      </trkpt>
      <trkpt lat="46.99081" lon="3.14974">
        <ele>192.316736</ele>
        <time>2021-09-10T09:16:41.000Z</time>
      </trkpt>
      <trkpt lat="46.99046" lon="3.14994">
        <ele>192.088124</ele>
        <time>2021-09-10T09:16:49.000Z</time>
      </trkpt>
      <trkpt lat="46.99032" lon="3.15001">
        <ele>191.987327</ele>
        <time>2021-09-10T09:16:52.000Z</time>
      </trkpt>
      <trkpt lat="46.99017" lon="3.15009">
        <ele>191.879408</ele>
        <time>2021-09-10T09:16:55.000Z</time>
      </trkpt>
      <trkpt lat="46.98981" lon="3.15027">
        <ele>191.624439</ele>
        <time>2021-09-10T09:17:02.000Z</time>
      </trkpt>
      <trkpt lat="46.98955" lon="3.1504">
        <ele>191.43848</ele>
        <time>2021-09-10T09:17:08.000Z</time>
      </trkpt>
      <trkpt lat="46.98934" lon="3.15042">
        <ele>191.295982</ele>
        <time>2021-09-10T09:17:13.000Z</time>
      </trkpt>
      <trkpt lat="46.98927" lon="3.15031">
        <ele>191.228738</ele>
        <time>2021-09-10T09:17:16.000Z</time>
      </trkpt>
      <trkpt lat="46.98923" lon="3.15031">
        <ele>191.200427</ele>
        <time>2021-09-10T09:17:17.000Z</time>
      </trkpt>
      <trkpt lat="46.9892" lon="3.15033">
        <ele>191.177816</ele>
        <time>2021-09-10T09:17:18.000Z</time>
      </trkpt>
      <trkpt lat="46.98911" lon="3.15046">
        <ele>191.090343</ele>
        <time>2021-09-10T09:17:20.000Z</time>
      </trkpt>
      <trkpt lat="46.98902" lon="3.15049">
        <ele>191.027458</ele>
        <time>2021-09-10T09:17:22.000Z</time>
      </trkpt>
      <trkpt lat="46.98883" lon="3.15057">
        <ele>190.905374</ele>
        <time>2021-09-10T09:17:26.000Z</time>
      </trkpt>
      <trkpt lat="46.98879" lon="3.15059">
        <ele>190.877531</ele>
        <time>2021-09-10T09:17:27.000Z</time>
      </trkpt>
      <trkpt lat="46.9887" lon="3.15062">
        <ele>190.821627</ele>
        <time>2021-09-10T09:17:29.000Z</time>
      </trkpt>
      <trkpt lat="46.98856" lon="3.15068">
        <ele>190.7346</ele>
        <time>2021-09-10T09:17:32.000Z</time>
      </trkpt>
      <trkpt lat="46.98852" lon="3.1507">
        <ele>190.705468</ele>
        <time>2021-09-10T09:17:33.000Z</time>
      </trkpt>
      <trkpt lat="46.98834" lon="3.15077">
        <ele>190.593882</ele>
        <time>2021-09-10T09:17:37.000Z</time>
      </trkpt>
      <trkpt lat="46.98812" lon="3.15086">
        <ele>190.455543</ele>
        <time>2021-09-10T09:17:42.000Z</time>
      </trkpt>
      <trkpt lat="46.98808" lon="3.15088">
        <ele>190.426063</ele>
        <time>2021-09-10T09:17:43.000Z</time>
      </trkpt>
      <trkpt lat="46.98788" lon="3.15095">
        <ele>190.304306</ele>
        <time>2021-09-10T09:17:47.000Z</time>
      </trkpt>
      <trkpt lat="46.98751" lon="3.15108">
        <ele>190.067422</ele>
        <time>2021-09-10T09:17:55.000Z</time>
      </trkpt>
      <trkpt lat="46.98704" lon="3.15127">
        <ele>189.810423</ele>
        <time>2021-09-10T09:18:04.000Z</time>
      </trkpt>
      <trkpt lat="46.98677" lon="3.15139">
        <ele>189.707189</ele>
        <time>2021-09-10T09:18:10.000Z</time>
      </trkpt>
      <trkpt lat="46.98654" lon="3.15148">
        <ele>189.618712</ele>
        <time>2021-09-10T09:18:17.000Z</time>
      </trkpt>
      <trkpt lat="46.98636" lon="3.15159">
        <ele>189.546497</ele>
        <time>2021-09-10T09:18:24.000Z</time>
      </trkpt>
      <trkpt lat="46.98618" lon="3.1517">
        <ele>189.47289</ele>
        <time>2021-09-10T09:18:30.000Z</time>
      </trkpt>
      <trkpt lat="46.98603" lon="3.1519">
        <ele>189.399088</ele>
        <time>2021-09-10T09:18:35.000Z</time>
      </trkpt>
      <trkpt lat="46.98601" lon="3.15196">
        <ele>189.381405</ele>
        <time>2021-09-10T09:18:36.000Z</time>
      </trkpt>
      <trkpt lat="46.98599" lon="3.15203">
        <ele>189.364179</ele>
        <time>2021-09-10T09:18:37.000Z</time>
      </trkpt>
      <trkpt lat="46.98597" lon="3.15218">
        <ele>189.324914</ele>
        <time>2021-09-10T09:18:39.000Z</time>
      </trkpt>
      <trkpt lat="46.98596" lon="3.15225">
        <ele>189.305889</ele>
        <time>2021-09-10T09:18:40.000Z</time>
      </trkpt>
      <trkpt lat="46.98592" lon="3.15249">
        <ele>189.244242</ele>
        <time>2021-09-10T09:18:43.000Z</time>
      </trkpt>
      <trkpt lat="46.98588" lon="3.15265">
        <ele>189.174458</ele>
        <time>2021-09-10T09:18:45.000Z</time>
      </trkpt>
      <trkpt lat="46.98573" lon="3.15287">
        <ele>188.73671</ele>
        <time>2021-09-10T09:18:48.000Z</time>
      </trkpt>
      <trkpt lat="46.98559" lon="3.15297">
        <ele>188.414426</ele>
        <time>2021-09-10T09:18:50.000Z</time>
      </trkpt>
      <trkpt lat="46.98545" lon="3.15308">
        <ele>188.090287</ele>
        <time>2021-09-10T09:18:52.000Z</time>
      </trkpt>
      <trkpt lat="46.98493" lon="3.15345">
        <ele>186.883451</ele>
        <time>2021-09-10T09:19:00.000Z</time>
      </trkpt>
      <trkpt lat="46.98457" lon="3.15366">
        <ele>186.072132</ele>
        <time>2021-09-10T09:19:06.000Z</time>
      </trkpt>
      <trkpt lat="46.98419" lon="3.15385">
        <ele>185.128949</ele>
        <time>2021-09-10T09:19:13.000Z</time>
      </trkpt>
      <trkpt lat="46.98403" lon="3.15393">
        <ele>184.593768</ele>
        <time>2021-09-10T09:19:18.000Z</time>
      </trkpt>
      <trkpt lat="46.98401" lon="3.15393">
        <ele>184.522132</ele>
        <time>2021-09-10T09:19:19.000Z</time>
      </trkpt>
      <trkpt lat="46.98395" lon="3.15393">
        <ele>184.320484</ele>
        <time>2021-09-10T09:19:21.000Z</time>
      </trkpt>
      <trkpt lat="46.98385" lon="3.15395">
        <ele>184.027774</ele>
        <time>2021-09-10T09:19:23.000Z</time>
      </trkpt>
      <trkpt lat="46.98383" lon="3.15402">
        <ele>183.853853</ele>
        <time>2021-09-10T09:19:24.000Z</time>
      </trkpt>
      <trkpt lat="46.98383" lon="3.15405">
        <ele>183.783245</ele>
        <time>2021-09-10T09:19:25.000Z</time>
      </trkpt>
      <trkpt lat="46.98386" lon="3.15418">
        <ele>183.494664</ele>
        <time>2021-09-10T09:19:27.000Z</time>
      </trkpt>
      <trkpt lat="46.98387" lon="3.15425">
        <ele>183.343565</ele>
        <time>2021-09-10T09:19:28.000Z</time>
      </trkpt>
      <trkpt lat="46.98392" lon="3.15443">
        <ele>182.914652</ele>
        <time>2021-09-10T09:19:31.000Z</time>
      </trkpt>
      <trkpt lat="46.98398" lon="3.15469">
        <ele>182.334468</ele>
        <time>2021-09-10T09:19:36.000Z</time>
      </trkpt>
      <trkpt lat="46.98403" lon="3.15487">
        <ele>181.918091</ele>
        <time>2021-09-10T09:19:39.000Z</time>
      </trkpt>
      <trkpt lat="46.98404" lon="3.15493">
        <ele>181.786454</ele>
        <time>2021-09-10T09:19:40.000Z</time>
      </trkpt>
      <trkpt lat="46.98412" lon="3.15524">
        <ele>181.077301</ele>
        <time>2021-09-10T09:19:45.000Z</time>
      </trkpt>
      <trkpt lat="46.98419" lon="3.15553">
        <ele>180.41972</ele>
        <time>2021-09-10T09:19:49.000Z</time>
      </trkpt>
      <trkpt lat="46.98429" lon="3.15589">
        <ele>179.787484</ele>
        <time>2021-09-10T09:19:55.000Z</time>
      </trkpt>
      <trkpt lat="46.9844" lon="3.1563">
        <ele>179.704963</ele>
        <time>2021-09-10T09:20:02.000Z</time>
      </trkpt>
      <trkpt lat="46.98447" lon="3.15653">
        <ele>179.656741</ele>
        <time>2021-09-10T09:20:06.000Z</time>
      </trkpt>
      <trkpt lat="46.98453" lon="3.15667">
        <ele>179.62435</ele>
        <time>2021-09-10T09:20:09.000Z</time>
      </trkpt>
      <trkpt lat="46.98463" lon="3.15677">
        <ele>179.591747</ele>
        <time>2021-09-10T09:20:13.000Z</time>
      </trkpt>
      <trkpt lat="46.98474" lon="3.15673">
        <ele>179.559639</ele>
        <time>2021-09-10T09:20:18.000Z</time>
      </trkpt>
      <trkpt lat="46.98486" lon="3.15666">
        <ele>179.524991</ele>
        <time>2021-09-10T09:20:23.000Z</time>
      </trkpt>
      <trkpt lat="46.9849" lon="3.15666">
        <ele>179.514674</ele>
        <time>2021-09-10T09:20:24.000Z</time>
      </trkpt>
      <trkpt lat="46.98493" lon="3.15674">
        <ele>179.496821</ele>
        <time>2021-09-10T09:20:26.000Z</time>
      </trkpt>
      <trkpt lat="46.98494" lon="3.15676">
        <ele>179.491245</ele>
        <time>2021-09-10T09:20:27.000Z</time>
      </trkpt>
      <trkpt lat="46.98499" lon="3.15692">
        <ele>179.458484</ele>
        <time>2021-09-10T09:20:32.000Z</time>
      </trkpt>
      <trkpt lat="46.98507" lon="3.15719">
        <ele>179.402733</ele>
        <time>2021-09-10T09:20:41.000Z</time>
      </trkpt>
      <trkpt lat="46.98512" lon="3.15746">
        <ele>179.348826</ele>
        <time>2021-09-10T09:20:49.000Z</time>
      </trkpt>
      <trkpt lat="46.98501" lon="3.15768">
        <ele>179.345688</ele>
        <time>2021-09-10T09:20:56.000Z</time>
      </trkpt>
      <trkpt lat="46.9849" lon="3.15783">
        <ele>179.510709</ele>
        <time>2021-09-10T09:21:03.000Z</time>
      </trkpt>
      <trkpt lat="46.98488" lon="3.1579">
        <ele>179.568768</ele>
        <time>2021-09-10T09:21:05.000Z</time>
      </trkpt>
      <trkpt lat="46.98489" lon="3.15797">
        <ele>179.621304</ele>
        <time>2021-09-10T09:21:07.000Z</time>
      </trkpt>
      <trkpt lat="46.98497" lon="3.1581">
        <ele>179.747131</ele>
        <time>2021-09-10T09:21:12.000Z</time>
      </trkpt>
      <trkpt lat="46.98506" lon="3.15827">
        <ele>179.910927</ele>
        <time>2021-09-10T09:21:18.000Z</time>
      </trkpt>
      <trkpt lat="46.98507" lon="3.15828">
        <ele>179.921461</ele>
        <time>2021-09-10T09:21:19.000Z</time>
      </trkpt>
      <trkpt lat="46.98508" lon="3.1583">
        <ele>179.942672</ele>
        <time>2021-09-10T09:21:25.000Z</time>
      </trkpt>
      <trkpt lat="46.98496" lon="3.15828">
        <ele>180.077997</ele>
        <time>2021-09-10T09:24:07.000Z</time>
      </trkpt>
      <trkpt lat="46.98494" lon="3.15822">
        <ele>180.124792</ele>
        <time>2021-09-10T09:24:09.000Z</time>
      </trkpt>
      <trkpt lat="46.98493" lon="3.15804">
        <ele>180.260178</ele>
        <time>2021-09-10T09:24:15.000Z</time>
      </trkpt>
      <trkpt lat="46.9849" lon="3.15799">
        <ele>180.313679</ele>
        <time>2021-09-10T09:24:20.000Z</time>
      </trkpt>
      <trkpt lat="46.98479" lon="3.15798">
        <ele>180.431284</ele>
        <time>2021-09-10T09:24:25.000Z</time>
      </trkpt>
      <trkpt lat="46.98479" lon="3.15795">
        <ele>180.45221</ele>
        <time>2021-09-10T09:24:27.000Z</time>
      </trkpt>
      <trkpt lat="46.98478" lon="3.15792">
        <ele>180.480656</ele>
        <time>2021-09-10T09:24:30.000Z</time>
      </trkpt>
      <trkpt lat="46.98464" lon="3.15806">
        <ele>180.665055</ele>
        <time>2021-09-10T09:24:35.000Z</time>
      </trkpt>
      <trkpt lat="46.98443" lon="3.15823">
        <ele>180.936498</ele>
        <time>2021-09-10T09:24:42.000Z</time>
      </trkpt>
      <trkpt lat="46.98415" lon="3.15845">
        <ele>181.276285</ele>
        <time>2021-09-10T09:24:51.000Z</time>
      </trkpt>
      <trkpt lat="46.98398" lon="3.15858">
        <ele>181.201874</ele>
        <time>2021-09-10T09:24:57.000Z</time>
      </trkpt>
      <trkpt lat="46.98377" lon="3.15875">
        <ele>181.105009</ele>
        <time>2021-09-10T09:25:03.000Z</time>
      </trkpt>
      <trkpt lat="46.98349" lon="3.15897">
        <ele>180.973099</ele>
        <time>2021-09-10T09:25:11.000Z</time>
      </trkpt>
      <trkpt lat="46.98321" lon="3.15919">
        <ele>180.844836</ele>
        <time>2021-09-10T09:25:19.000Z</time>
      </trkpt>
      <trkpt lat="46.98285" lon="3.15948">
        <ele>180.678499</ele>
        <time>2021-09-10T09:25:28.000Z</time>
      </trkpt>
      <trkpt lat="46.98259" lon="3.15968">
        <ele>180.560821</ele>
        <time>2021-09-10T09:25:35.000Z</time>
      </trkpt>
      <trkpt lat="46.98233" lon="3.15989">
        <ele>180.411927</ele>
        <time>2021-09-10T09:25:42.000Z</time>
      </trkpt>
      <trkpt lat="46.98225" lon="3.15995">
        <ele>180.366208</ele>
        <time>2021-09-10T09:25:44.000Z</time>
      </trkpt>
      <trkpt lat="46.98218" lon="3.16">
        <ele>180.324459</ele>
        <time>2021-09-10T09:25:46.000Z</time>
      </trkpt>
      <trkpt lat="46.98211" lon="3.16006">
        <ele>180.28271</ele>
        <time>2021-09-10T09:25:48.000Z</time>
      </trkpt>
      <trkpt lat="46.98193" lon="3.16022">
        <ele>180.176201</ele>
        <time>2021-09-10T09:25:53.000Z</time>
      </trkpt>
      <trkpt lat="46.98189" lon="3.16025">
        <ele>180.15657</ele>
        <time>2021-09-10T09:25:54.000Z</time>
      </trkpt>
      <trkpt lat="46.98192" lon="3.16034">
        <ele>180.12148</ele>
        <time>2021-09-10T09:25:55.000Z</time>
      </trkpt>
      <trkpt lat="46.98195" lon="3.16045">
        <ele>180.079493</ele>
        <time>2021-09-10T09:25:57.000Z</time>
      </trkpt>
      <trkpt lat="46.98205" lon="3.16083">
        <ele>179.936754</ele>
        <time>2021-09-10T09:26:02.000Z</time>
      </trkpt>
      <trkpt lat="46.98205" lon="3.16099">
        <ele>179.880601</ele>
        <time>2021-09-10T09:26:04.000Z</time>
      </trkpt>
      <trkpt lat="46.98204" lon="3.16115">
        <ele>179.826496</ele>
        <time>2021-09-10T09:26:06.000Z</time>
      </trkpt>
      <trkpt lat="46.98197" lon="3.16166">
        <ele>179.646208</ele>
        <time>2021-09-10T09:26:13.000Z</time>
      </trkpt>
      <trkpt lat="46.98188" lon="3.16225">
        <ele>179.258478</ele>
        <time>2021-09-10T09:26:20.000Z</time>
      </trkpt>
      <trkpt lat="46.9818" lon="3.16276">
        <ele>178.915608</ele>
        <time>2021-09-10T09:26:26.000Z</time>
      </trkpt>
      <trkpt lat="46.98171" lon="3.1634">
        <ele>178.492993</ele>
        <time>2021-09-10T09:26:34.000Z</time>
      </trkpt>
      <trkpt lat="46.98164" lon="3.16391">
        <ele>178.147917</ele>
        <time>2021-09-10T09:26:41.000Z</time>
      </trkpt>
      <trkpt lat="46.98155" lon="3.16451">
        <ele>177.909334</ele>
        <time>2021-09-10T09:26:50.000Z</time>
      </trkpt>
      <trkpt lat="46.98149" lon="3.16468">
        <ele>177.913183</ele>
        <time>2021-09-10T09:26:53.000Z</time>
      </trkpt>
      <trkpt lat="46.98147" lon="3.16468">
        <ele>177.913637</ele>
        <time>2021-09-10T09:26:54.000Z</time>
      </trkpt>
      <trkpt lat="46.98146" lon="3.16469">
        <ele>177.913899</ele>
        <time>2021-09-10T09:26:55.000Z</time>
      </trkpt>
      <trkpt lat="46.98143" lon="3.16471">
        <ele>177.915025</ele>
        <time>2021-09-10T09:27:06.000Z</time>
      </trkpt>
      <trkpt lat="46.9813" lon="3.16478">
        <ele>177.919183</ele>
        <time>2021-09-10T09:27:10.000Z</time>
      </trkpt>
      <trkpt lat="46.98103" lon="3.16493">
        <ele>177.928023</ele>
        <time>2021-09-10T09:27:17.000Z</time>
      </trkpt>
      <trkpt lat="46.98093" lon="3.16498">
        <ele>177.931119</ele>
        <time>2021-09-10T09:27:21.000Z</time>
      </trkpt>
      <trkpt lat="46.9808" lon="3.16506">
        <ele>177.935305</ele>
        <time>2021-09-10T09:27:28.000Z</time>
      </trkpt>
      <trkpt lat="46.98064" lon="3.16514">
        <ele>177.940462</ele>
        <time>2021-09-10T09:27:33.000Z</time>
      </trkpt>
      <trkpt lat="46.98046" lon="3.16524">
        <ele>177.946277</ele>
        <time>2021-09-10T09:27:38.000Z</time>
      </trkpt>
      <trkpt lat="46.98014" lon="3.16541">
        <ele>177.956618</ele>
        <time>2021-09-10T09:27:46.000Z</time>
      </trkpt>
      <trkpt lat="46.97992" lon="3.16553">
        <ele>177.809296</ele>
        <time>2021-09-10T09:27:52.000Z</time>
      </trkpt>
      <trkpt lat="46.97959" lon="3.16571">
        <ele>177.475553</ele>
        <time>2021-09-10T09:28:01.000Z</time>
      </trkpt>
      <trkpt lat="46.9793" lon="3.16586">
        <ele>177.19297</ele>
        <time>2021-09-10T09:28:08.000Z</time>
      </trkpt>
      <trkpt lat="46.97922" lon="3.1659">
        <ele>177.111112</ele>
        <time>2021-09-10T09:28:10.000Z</time>
      </trkpt>
      <trkpt lat="46.97906" lon="3.16599">
        <ele>176.950879</ele>
        <time>2021-09-10T09:28:14.000Z</time>
      </trkpt>
      <trkpt lat="46.9788" lon="3.16613">
        <ele>176.700952</ele>
        <time>2021-09-10T09:28:21.000Z</time>
      </trkpt>
      <trkpt lat="46.97857" lon="3.16625">
        <ele>176.471924</ele>
        <time>2021-09-10T09:28:28.000Z</time>
      </trkpt>
      <trkpt lat="46.97846" lon="3.16631">
        <ele>176.361111</ele>
        <time>2021-09-10T09:28:32.000Z</time>
      </trkpt>
      <trkpt lat="46.97827" lon="3.16642">
        <ele>176.114457</ele>
        <time>2021-09-10T09:28:40.000Z</time>
      </trkpt>
      <trkpt lat="46.97821" lon="3.16645">
        <ele>176.025378</ele>
        <time>2021-09-10T09:28:45.000Z</time>
      </trkpt>
      <trkpt lat="46.97817" lon="3.16647">
        <ele>175.971995</ele>
        <time>2021-09-10T09:28:51.000Z</time>
      </trkpt>
      <trkpt lat="46.97818" lon="3.16646">
        <ele>175.957254</ele>
        <time>2021-09-10T09:30:00.000Z</time>
      </trkpt>
      <trkpt lat="46.97821" lon="3.16645">
        <ele>175.923193</ele>
        <time>2021-09-10T09:30:03.000Z</time>
      </trkpt>
      <trkpt lat="46.97821" lon="3.16645">
        <ele>175.913997</ele>
        <time>2021-09-10T09:30:06.000Z</time>
      </trkpt>
      <trkpt lat="46.97823" lon="3.16644">
        <ele>175.885832</ele>
        <time>2021-09-10T10:51:12.000Z</time>
      </trkpt>
      <trkpt lat="46.97818" lon="3.16647">
        <ele>175.803957</ele>
        <time>2021-09-10T10:52:03.000Z</time>
      </trkpt>
      <trkpt lat="46.97814" lon="3.16648">
        <ele>175.74926</ele>
        <time>2021-09-10T10:52:05.000Z</time>
      </trkpt>
      <trkpt lat="46.97796" lon="3.16658">
        <ele>175.481696</ele>
        <time>2021-09-10T10:52:11.000Z</time>
      </trkpt>
      <trkpt lat="46.97768" lon="3.16673">
        <ele>175.072981</ele>
        <time>2021-09-10T10:52:17.000Z</time>
      </trkpt>
      <trkpt lat="46.97735" lon="3.16691">
        <ele>174.579444</ele>
        <time>2021-09-10T10:52:24.000Z</time>
      </trkpt>
      <trkpt lat="46.97706" lon="3.16706">
        <ele>174.148459</ele>
        <time>2021-09-10T10:52:30.000Z</time>
      </trkpt>
      <trkpt lat="46.97678" lon="3.16722">
        <ele>173.806489</ele>
        <time>2021-09-10T10:52:36.000Z</time>
      </trkpt>
      <trkpt lat="46.97666" lon="3.16731">
        <ele>173.895741</ele>
        <time>2021-09-10T10:52:40.000Z</time>
      </trkpt>
      <trkpt lat="46.97663" lon="3.16734">
        <ele>173.922055</ele>
        <time>2021-09-10T10:52:41.000Z</time>
      </trkpt>
      <trkpt lat="46.97649" lon="3.16762">
        <ele>174.080187</ele>
        <time>2021-09-10T10:52:45.000Z</time>
      </trkpt>
      <trkpt lat="46.97636" lon="3.16789">
        <ele>174.230301</ele>
        <time>2021-09-10T10:52:50.000Z</time>
      </trkpt>
      <trkpt lat="46.97618" lon="3.16832">
        <ele>174.463007</ele>
        <time>2021-09-10T10:52:55.000Z</time>
      </trkpt>
      <trkpt lat="46.97615" lon="3.16839">
        <ele>174.499966</ele>
        <time>2021-09-10T10:52:56.000Z</time>
      </trkpt>
      <trkpt lat="46.97598" lon="3.16877">
        <ele>174.706648</ele>
        <time>2021-09-10T10:53:03.000Z</time>
      </trkpt>
      <trkpt lat="46.97579" lon="3.16916">
        <ele>174.924195</ele>
        <time>2021-09-10T10:53:10.000Z</time>
      </trkpt>
      <trkpt lat="46.97574" lon="3.16928">
        <ele>174.984935</ele>
        <time>2021-09-10T10:53:12.000Z</time>
      </trkpt>
      <trkpt lat="46.9757" lon="3.16939">
        <ele>174.997615</ele>
        <time>2021-09-10T10:53:14.000Z</time>
      </trkpt>
      <trkpt lat="46.97568" lon="3.16945">
        <ele>175.004212</ele>
        <time>2021-09-10T10:53:15.000Z</time>
      </trkpt>
      <trkpt lat="46.97566" lon="3.1695">
        <ele>175.010228</ele>
        <time>2021-09-10T10:53:17.000Z</time>
      </trkpt>
      <trkpt lat="46.97549" lon="3.16952">
        <ele>175.03389</ele>
        <time>2021-09-10T10:53:19.000Z</time>
      </trkpt>
      <trkpt lat="46.97525" lon="3.16965">
        <ele>175.071507</ele>
        <time>2021-09-10T10:53:23.000Z</time>
      </trkpt>
      <trkpt lat="46.97519" lon="3.16968">
        <ele>175.081598</ele>
        <time>2021-09-10T10:53:24.000Z</time>
      </trkpt>
      <trkpt lat="46.97483" lon="3.16989">
        <ele>175.137832</ele>
        <time>2021-09-10T10:53:30.000Z</time>
      </trkpt>
      <trkpt lat="46.97434" lon="3.17018">
        <ele>175.214986</ele>
        <time>2021-09-10T10:53:38.000Z</time>
      </trkpt>
      <trkpt lat="46.97428" lon="3.17021">
        <ele>175.224909</ele>
        <time>2021-09-10T10:53:39.000Z</time>
      </trkpt>
      <trkpt lat="46.97415" lon="3.17028">
        <ele>175.244232</ele>
        <time>2021-09-10T10:53:41.000Z</time>
      </trkpt>
      <trkpt lat="46.97391" lon="3.17041">
        <ele>175.199318</ele>
        <time>2021-09-10T10:53:45.000Z</time>
      </trkpt>
      <trkpt lat="46.9738" lon="3.17047">
        <ele>175.175443</ele>
        <time>2021-09-10T10:53:47.000Z</time>
      </trkpt>
      <trkpt lat="46.97375" lon="3.17049">
        <ele>175.164368</ele>
        <time>2021-09-10T10:53:48.000Z</time>
      </trkpt>
      <trkpt lat="46.97365" lon="3.17055">
        <ele>175.142842</ele>
        <time>2021-09-10T10:53:50.000Z</time>
      </trkpt>
      <trkpt lat="46.97356" lon="3.1706">
        <ele>175.123042</ele>
        <time>2021-09-10T10:53:52.000Z</time>
      </trkpt>
      <trkpt lat="46.97347" lon="3.17065">
        <ele>175.10305</ele>
        <time>2021-09-10T10:53:54.000Z</time>
      </trkpt>
      <trkpt lat="46.97339" lon="3.17069">
        <ele>175.085455</ele>
        <time>2021-09-10T10:53:56.000Z</time>
      </trkpt>
      <trkpt lat="46.97335" lon="3.17071">
        <ele>175.077209</ele>
        <time>2021-09-10T10:53:57.000Z</time>
      </trkpt>
      <trkpt lat="46.97325" lon="3.17076">
        <ele>175.056114</ele>
        <time>2021-09-10T10:53:59.000Z</time>
      </trkpt>
      <trkpt lat="46.97319" lon="3.17079">
        <ele>175.042834</ele>
        <time>2021-09-10T10:54:00.000Z</time>
      </trkpt>
      <trkpt lat="46.97297" lon="3.17091">
        <ele>174.993933</ele>
        <time>2021-09-10T10:54:04.000Z</time>
      </trkpt>
      <trkpt lat="46.97272" lon="3.17104">
        <ele>174.940477</ele>
        <time>2021-09-10T10:54:08.000Z</time>
      </trkpt>
      <trkpt lat="46.9726" lon="3.17111">
        <ele>174.913965</ele>
        <time>2021-09-10T10:54:10.000Z</time>
      </trkpt>
      <trkpt lat="46.97244" lon="3.1712">
        <ele>174.873167</ele>
        <time>2021-09-10T10:54:13.000Z</time>
      </trkpt>
      <trkpt lat="46.97234" lon="3.17125">
        <ele>174.768034</ele>
        <time>2021-09-10T10:54:15.000Z</time>
      </trkpt>
      <trkpt lat="46.97223" lon="3.17131">
        <ele>174.640443</ele>
        <time>2021-09-10T10:54:17.000Z</time>
      </trkpt>
      <trkpt lat="46.97204" lon="3.17141">
        <ele>174.43042</ele>
        <time>2021-09-10T10:54:20.000Z</time>
      </trkpt>
      <trkpt lat="46.9719" lon="3.17148">
        <ele>174.270253</ele>
        <time>2021-09-10T10:54:22.000Z</time>
      </trkpt>
      <trkpt lat="46.97164" lon="3.17162">
        <ele>173.981508</ele>
        <time>2021-09-10T10:54:26.000Z</time>
      </trkpt>
      <trkpt lat="46.97158" lon="3.17165">
        <ele>173.917834</ele>
        <time>2021-09-10T10:54:27.000Z</time>
      </trkpt>
      <trkpt lat="46.9714" lon="3.17175">
        <ele>173.716697</ele>
        <time>2021-09-10T10:54:30.000Z</time>
      </trkpt>
      <trkpt lat="46.97127" lon="3.17182">
        <ele>173.569855</ele>
        <time>2021-09-10T10:54:32.000Z</time>
      </trkpt>
      <trkpt lat="46.97114" lon="3.17189">
        <ele>173.422273</ele>
        <time>2021-09-10T10:54:34.000Z</time>
      </trkpt>
      <trkpt lat="46.97088" lon="3.17203">
        <ele>173.131306</ele>
        <time>2021-09-10T10:54:38.000Z</time>
      </trkpt>
      <trkpt lat="46.97081" lon="3.17206">
        <ele>173.054304</ele>
        <time>2021-09-10T10:54:39.000Z</time>
      </trkpt>
      <trkpt lat="46.97064" lon="3.17216">
        <ele>172.794852</ele>
        <time>2021-09-10T10:54:42.000Z</time>
      </trkpt>
      <trkpt lat="46.97044" lon="3.17226">
        <ele>172.458923</ele>
        <time>2021-09-10T10:54:45.000Z</time>
      </trkpt>
      <trkpt lat="46.97038" lon="3.17229">
        <ele>172.356697</ele>
        <time>2021-09-10T10:54:46.000Z</time>
      </trkpt>
      <trkpt lat="46.97032" lon="3.17233">
        <ele>172.259289</ele>
        <time>2021-09-10T10:54:47.000Z</time>
      </trkpt>
      <trkpt lat="46.97011" lon="3.17244">
        <ele>171.91336</ele>
        <time>2021-09-10T10:54:51.000Z</time>
      </trkpt>
      <trkpt lat="46.97006" lon="3.17246">
        <ele>171.827803</ele>
        <time>2021-09-10T10:54:52.000Z</time>
      </trkpt>
      <trkpt lat="46.96996" lon="3.17252">
        <ele>171.651505</ele>
        <time>2021-09-10T10:54:54.000Z</time>
      </trkpt>
      <trkpt lat="46.9699" lon="3.17255">
        <ele>171.550763</ele>
        <time>2021-09-10T10:54:55.000Z</time>
      </trkpt>
      <trkpt lat="46.96959" lon="3.17272">
        <ele>171.028536</ele>
        <time>2021-09-10T10:55:00.000Z</time>
      </trkpt>
      <trkpt lat="46.96946" lon="3.17278">
        <ele>170.820385</ele>
        <time>2021-09-10T10:55:02.000Z</time>
      </trkpt>
      <trkpt lat="46.9693" lon="3.17287">
        <ele>170.545195</ele>
        <time>2021-09-10T10:55:05.000Z</time>
      </trkpt>
      <trkpt lat="46.96903" lon="3.17301">
        <ele>170.121148</ele>
        <time>2021-09-10T10:55:10.000Z</time>
      </trkpt>
      <trkpt lat="46.96856" lon="3.17326">
        <ele>169.63575</ele>
        <time>2021-09-10T10:55:18.000Z</time>
      </trkpt>
      <trkpt lat="46.96838" lon="3.17336">
        <ele>169.452208</ele>
        <time>2021-09-10T10:55:21.000Z</time>
      </trkpt>
      <trkpt lat="46.96832" lon="3.17339">
        <ele>169.394175</ele>
        <time>2021-09-10T10:55:22.000Z</time>
      </trkpt>
      <trkpt lat="46.96801" lon="3.17356">
        <ele>169.075</ele>
        <time>2021-09-10T10:55:27.000Z</time>
      </trkpt>
      <trkpt lat="46.96778" lon="3.17368">
        <ele>168.839498</ele>
        <time>2021-09-10T10:55:31.000Z</time>
      </trkpt>
      <trkpt lat="46.9676" lon="3.17378">
        <ele>168.657979</ele>
        <time>2021-09-10T10:55:34.000Z</time>
      </trkpt>
      <trkpt lat="46.96755" lon="3.1738">
        <ele>168.605118</ele>
        <time>2021-09-10T10:55:35.000Z</time>
      </trkpt>
      <trkpt lat="46.96743" lon="3.17386">
        <ele>168.487705</ele>
        <time>2021-09-10T10:55:37.000Z</time>
      </trkpt>
      <trkpt lat="46.96737" lon="3.1739">
        <ele>168.423663</ele>
        <time>2021-09-10T10:55:38.000Z</time>
      </trkpt>
      <trkpt lat="46.9673" lon="3.17393">
        <ele>168.379848</ele>
        <time>2021-09-10T10:55:39.000Z</time>
      </trkpt>
      <trkpt lat="46.96718" lon="3.174">
        <ele>168.29777</ele>
        <time>2021-09-10T10:55:41.000Z</time>
      </trkpt>
      <trkpt lat="46.96712" lon="3.17403">
        <ele>168.260089</ele>
        <time>2021-09-10T10:55:42.000Z</time>
      </trkpt>
      <trkpt lat="46.96707" lon="3.17406">
        <ele>168.224307</ele>
        <time>2021-09-10T10:55:43.000Z</time>
      </trkpt>
      <trkpt lat="46.9669" lon="3.17415">
        <ele>168.114334</ele>
        <time>2021-09-10T10:55:46.000Z</time>
      </trkpt>
      <trkpt lat="46.96679" lon="3.1742">
        <ele>168.04423</ele>
        <time>2021-09-10T10:55:48.000Z</time>
      </trkpt>
      <trkpt lat="46.96662" lon="3.1743">
        <ele>167.931628</ele>
        <time>2021-09-10T10:55:51.000Z</time>
      </trkpt>
      <trkpt lat="46.96652" lon="3.17435">
        <ele>167.865468</ele>
        <time>2021-09-10T10:55:53.000Z</time>
      </trkpt>
      <trkpt lat="46.9664" lon="3.17442">
        <ele>167.782075</ele>
        <time>2021-09-10T10:55:55.000Z</time>
      </trkpt>
      <trkpt lat="46.96618" lon="3.17453">
        <ele>167.640993</ele>
        <time>2021-09-10T10:55:59.000Z</time>
      </trkpt>
      <trkpt lat="46.966" lon="3.17463">
        <ele>167.519189</ele>
        <time>2021-09-10T10:56:02.000Z</time>
      </trkpt>
      <trkpt lat="46.96575" lon="3.17476">
        <ele>167.350358</ele>
        <time>2021-09-10T10:56:06.000Z</time>
      </trkpt>
      <trkpt lat="46.9655" lon="3.1749">
        <ele>167.415261</ele>
        <time>2021-09-10T10:56:10.000Z</time>
      </trkpt>
      <trkpt lat="46.96543" lon="3.17493">
        <ele>167.453608</ele>
        <time>2021-09-10T10:56:11.000Z</time>
      </trkpt>
      <trkpt lat="46.9653" lon="3.175">
        <ele>167.529042</ele>
        <time>2021-09-10T10:56:13.000Z</time>
      </trkpt>
      <trkpt lat="46.96523" lon="3.17504">
        <ele>167.565119</ele>
        <time>2021-09-10T10:56:14.000Z</time>
      </trkpt>
      <trkpt lat="46.96518" lon="3.17507">
        <ele>167.597159</ele>
        <time>2021-09-10T10:56:15.000Z</time>
      </trkpt>
      <trkpt lat="46.965" lon="3.17516">
        <ele>167.700597</ele>
        <time>2021-09-10T10:56:18.000Z</time>
      </trkpt>
      <trkpt lat="46.96475" lon="3.17529">
        <ele>167.839481</ele>
        <time>2021-09-10T10:56:22.000Z</time>
      </trkpt>
      <trkpt lat="46.96447" lon="3.17544">
        <ele>168.000818</ele>
        <time>2021-09-10T10:56:27.000Z</time>
      </trkpt>
      <trkpt lat="46.96438" lon="3.17549">
        <ele>168.05279</ele>
        <time>2021-09-10T10:56:29.000Z</time>
      </trkpt>
      <trkpt lat="46.96424" lon="3.17556">
        <ele>168.13062</ele>
        <time>2021-09-10T10:56:32.000Z</time>
      </trkpt>
      <trkpt lat="46.96401" lon="3.17569">
        <ele>168.265594</ele>
        <time>2021-09-10T10:56:38.000Z</time>
      </trkpt>
      <trkpt lat="46.96379" lon="3.1758">
        <ele>168.496548</ele>
        <time>2021-09-10T10:56:43.000Z</time>
      </trkpt>
      <trkpt lat="46.96351" lon="3.17597">
        <ele>168.822966</ele>
        <time>2021-09-10T10:56:49.000Z</time>
      </trkpt>
      <trkpt lat="46.96315" lon="3.17617">
        <ele>169.221707</ele>
        <time>2021-09-10T10:56:56.000Z</time>
      </trkpt>
      <trkpt lat="46.9631" lon="3.1762">
        <ele>169.281597</ele>
        <time>2021-09-10T10:56:57.000Z</time>
      </trkpt>
      <trkpt lat="46.96295" lon="3.17629">
        <ele>169.452452</ele>
        <time>2021-09-10T10:57:00.000Z</time>
      </trkpt>
      <trkpt lat="46.96275" lon="3.17642">
        <ele>169.683867</ele>
        <time>2021-09-10T10:57:04.000Z</time>
      </trkpt>
      <trkpt lat="46.9627" lon="3.17644">
        <ele>169.735123</ele>
        <time>2021-09-10T10:57:05.000Z</time>
      </trkpt>
      <trkpt lat="46.96266" lon="3.17647">
        <ele>169.784435</ele>
        <time>2021-09-10T10:57:06.000Z</time>
      </trkpt>
      <trkpt lat="46.96247" lon="3.17659">
        <ele>170.000707</ele>
        <time>2021-09-10T10:57:10.000Z</time>
      </trkpt>
      <trkpt lat="46.96219" lon="3.17685">
        <ele>170.267457</ele>
        <time>2021-09-10T10:57:16.000Z</time>
      </trkpt>
      <trkpt lat="46.96187" lon="3.17718">
        <ele>170.490862</ele>
        <time>2021-09-10T10:57:23.000Z</time>
      </trkpt>
      <trkpt lat="46.96182" lon="3.17723">
        <ele>170.524042</ele>
        <time>2021-09-10T10:57:24.000Z</time>
      </trkpt>
      <trkpt lat="46.96167" lon="3.1774">
        <ele>170.628029</ele>
        <time>2021-09-10T10:57:27.000Z</time>
      </trkpt>
      <trkpt lat="46.96159" lon="3.17751">
        <ele>170.690484</ele>
        <time>2021-09-10T10:57:29.000Z</time>
      </trkpt>
      <trkpt lat="46.96156" lon="3.17755">
        <ele>170.716466</ele>
        <time>2021-09-10T10:57:30.000Z</time>
      </trkpt>
      <trkpt lat="46.96142" lon="3.17772">
        <ele>170.813789</ele>
        <time>2021-09-10T10:57:33.000Z</time>
      </trkpt>
      <trkpt lat="46.96135" lon="3.17781">
        <ele>170.869391</ele>
        <time>2021-09-10T10:57:35.000Z</time>
      </trkpt>
      <trkpt lat="46.96125" lon="3.17794">
        <ele>170.946657</ele>
        <time>2021-09-10T10:57:38.000Z</time>
      </trkpt>
      <trkpt lat="46.96121" lon="3.17799">
        <ele>170.974923</ele>
        <time>2021-09-10T10:57:39.000Z</time>
      </trkpt>
      <trkpt lat="46.96101" lon="3.17831">
        <ele>171.139961</ele>
        <time>2021-09-10T10:57:44.000Z</time>
      </trkpt>
      <trkpt lat="46.96097" lon="3.17838">
        <ele>171.177919</ele>
        <time>2021-09-10T10:57:45.000Z</time>
      </trkpt>
      <trkpt lat="46.96076" lon="3.17877">
        <ele>171.303805</ele>
        <time>2021-09-10T10:57:50.000Z</time>
      </trkpt>
      <trkpt lat="46.96072" lon="3.17885">
        <ele>171.327915</ele>
        <time>2021-09-10T10:57:51.000Z</time>
      </trkpt>
      <trkpt lat="46.96065" lon="3.17899">
        <ele>171.373862</ele>
        <time>2021-09-10T10:57:53.000Z</time>
      </trkpt>
      <trkpt lat="46.96061" lon="3.17906">
        <ele>171.394855</ele>
        <time>2021-09-10T10:57:54.000Z</time>
      </trkpt>
      <trkpt lat="46.96054" lon="3.17921">
        <ele>171.44117</ele>
        <time>2021-09-10T10:57:56.000Z</time>
      </trkpt>
      <trkpt lat="46.96051" lon="3.1793">
        <ele>171.465515</ele>
        <time>2021-09-10T10:57:57.000Z</time>
      </trkpt>
      <trkpt lat="46.96048" lon="3.17938">
        <ele>171.488795</ele>
        <time>2021-09-10T10:57:58.000Z</time>
      </trkpt>
      <trkpt lat="46.9604" lon="3.17964">
        <ele>171.559538</ele>
        <time>2021-09-10T10:58:01.000Z</time>
      </trkpt>
      <trkpt lat="46.96034" lon="3.1798">
        <ele>171.606776</ele>
        <time>2021-09-10T10:58:03.000Z</time>
      </trkpt>
      <trkpt lat="46.96027" lon="3.18004">
        <ele>171.67287</ele>
        <time>2021-09-10T10:58:06.000Z</time>
      </trkpt>
      <trkpt lat="46.96024" lon="3.18012">
        <ele>171.695536</ele>
        <time>2021-09-10T10:58:07.000Z</time>
      </trkpt>
      <trkpt lat="46.96019" lon="3.18028">
        <ele>171.73919</ele>
        <time>2021-09-10T10:58:09.000Z</time>
      </trkpt>
      <trkpt lat="46.96016" lon="3.18035">
        <ele>171.760791</ele>
        <time>2021-09-10T10:58:10.000Z</time>
      </trkpt>
      <trkpt lat="46.96014" lon="3.18043">
        <ele>171.782005</ele>
        <time>2021-09-10T10:58:11.000Z</time>
      </trkpt>
      <trkpt lat="46.96007" lon="3.18061">
        <ele>171.831754</ele>
        <time>2021-09-10T10:58:13.000Z</time>
      </trkpt>
      <trkpt lat="46.96004" lon="3.18067">
        <ele>171.86911</ele>
        <time>2021-09-10T10:58:14.000Z</time>
      </trkpt>
      <trkpt lat="46.95991" lon="3.18089">
        <ele>172.120817</ele>
        <time>2021-09-10T10:58:17.000Z</time>
      </trkpt>
      <trkpt lat="46.95984" lon="3.18105">
        <ele>172.286416</ele>
        <time>2021-09-10T10:58:19.000Z</time>
      </trkpt>
      <trkpt lat="46.95976" lon="3.18127">
        <ele>172.503837</ele>
        <time>2021-09-10T10:58:23.000Z</time>
      </trkpt>
      <trkpt lat="46.95972" lon="3.18139">
        <ele>172.625401</ele>
        <time>2021-09-10T10:58:24.000Z</time>
      </trkpt>
      <trkpt lat="46.95963" lon="3.18159">
        <ele>172.834628</ele>
        <time>2021-09-10T10:58:28.000Z</time>
      </trkpt>
      <trkpt lat="46.95963" lon="3.18159">
        <ele>172.834628</ele>
        <time>2021-09-10T10:58:30.000Z</time>
      </trkpt>
      <trkpt lat="46.95949" lon="3.18188">
        <ele>173.150295</ele>
        <time>2021-09-10T10:58:33.000Z</time>
      </trkpt>
      <trkpt lat="46.95944" lon="3.18219">
        <ele>173.432482</ele>
        <time>2021-09-10T10:58:37.000Z</time>
      </trkpt>
      <trkpt lat="46.95945" lon="3.18227">
        <ele>173.502367</ele>
        <time>2021-09-10T10:58:39.000Z</time>
      </trkpt>
      <trkpt lat="46.95949" lon="3.1825">
        <ele>173.713326</ele>
        <time>2021-09-10T10:58:41.000Z</time>
      </trkpt>
      <trkpt lat="46.95955" lon="3.18264">
        <ele>173.85673</ele>
        <time>2021-09-10T10:58:43.000Z</time>
      </trkpt>
      <trkpt lat="46.95969" lon="3.18279">
        <ele>174.080923</ele>
        <time>2021-09-10T10:58:46.000Z</time>
      </trkpt>
      <trkpt lat="46.95974" lon="3.18283">
        <ele>174.157874</ele>
        <time>2021-09-10T10:58:47.000Z</time>
      </trkpt>
      <trkpt lat="46.96007" lon="3.18307">
        <ele>174.615626</ele>
        <time>2021-09-10T10:58:53.000Z</time>
      </trkpt>
      <trkpt lat="46.96028" lon="3.18325">
        <ele>174.920927</ele>
        <time>2021-09-10T10:58:57.000Z</time>
      </trkpt>
      <trkpt lat="46.96038" lon="3.18335">
        <ele>175.077133</ele>
        <time>2021-09-10T10:58:59.000Z</time>
      </trkpt>
      <trkpt lat="46.96048" lon="3.18343">
        <ele>175.223644</ele>
        <time>2021-09-10T10:59:01.000Z</time>
      </trkpt>
      <trkpt lat="46.96053" lon="3.18346">
        <ele>175.29033</ele>
        <time>2021-09-10T10:59:02.000Z</time>
      </trkpt>
      <trkpt lat="46.96087" lon="3.18368">
        <ele>175.758669</ele>
        <time>2021-09-10T10:59:08.000Z</time>
      </trkpt>
      <trkpt lat="46.96099" lon="3.18377">
        <ele>175.929068</ele>
        <time>2021-09-10T10:59:10.000Z</time>
      </trkpt>
      <trkpt lat="46.96106" lon="3.18382">
        <ele>176.019351</ele>
        <time>2021-09-10T10:59:11.000Z</time>
      </trkpt>
      <trkpt lat="46.96112" lon="3.18387">
        <ele>176.113383</ele>
        <time>2021-09-10T10:59:12.000Z</time>
      </trkpt>
      <trkpt lat="46.96124" lon="3.18396">
        <ele>176.279648</ele>
        <time>2021-09-10T10:59:14.000Z</time>
      </trkpt>
      <trkpt lat="46.96133" lon="3.18402">
        <ele>176.407921</ele>
        <time>2021-09-10T10:59:16.000Z</time>
      </trkpt>
      <trkpt lat="46.96143" lon="3.1841">
        <ele>176.530308</ele>
        <time>2021-09-10T10:59:18.000Z</time>
      </trkpt>
      <trkpt lat="46.96164" lon="3.18425">
        <ele>176.786643</ele>
        <time>2021-09-10T10:59:22.000Z</time>
      </trkpt>
      <trkpt lat="46.96169" lon="3.18429">
        <ele>176.850897</ele>
        <time>2021-09-10T10:59:23.000Z</time>
      </trkpt>
      <trkpt lat="46.96174" lon="3.18433">
        <ele>176.910208</ele>
        <time>2021-09-10T10:59:24.000Z</time>
      </trkpt>
      <trkpt lat="46.96187" lon="3.18442">
        <ele>177.06671</ele>
        <time>2021-09-10T10:59:27.000Z</time>
      </trkpt>
      <trkpt lat="46.9619" lon="3.18445">
        <ele>177.114815</ele>
        <time>2021-09-10T10:59:28.000Z</time>
      </trkpt>
      <trkpt lat="46.96203" lon="3.18454">
        <ele>177.272978</ele>
        <time>2021-09-10T10:59:31.000Z</time>
      </trkpt>
      <trkpt lat="46.96212" lon="3.18461">
        <ele>177.384358</ele>
        <time>2021-09-10T10:59:33.000Z</time>
      </trkpt>
      <trkpt lat="46.9623" lon="3.18475">
        <ele>177.60781</ele>
        <time>2021-09-10T10:59:37.000Z</time>
      </trkpt>
      <trkpt lat="46.96235" lon="3.18479">
        <ele>177.664822</ele>
        <time>2021-09-10T10:59:38.000Z</time>
      </trkpt>
      <trkpt lat="46.96253" lon="3.18494">
        <ele>177.896946</ele>
        <time>2021-09-10T10:59:42.000Z</time>
      </trkpt>
      <trkpt lat="46.96262" lon="3.18503">
        <ele>178.017793</ele>
        <time>2021-09-10T10:59:44.000Z</time>
      </trkpt>
      <trkpt lat="46.96276" lon="3.18517">
        <ele>178.203572</ele>
        <time>2021-09-10T10:59:47.000Z</time>
      </trkpt>
      <trkpt lat="46.96285" lon="3.18527">
        <ele>178.327548</ele>
        <time>2021-09-10T10:59:49.000Z</time>
      </trkpt>
      <trkpt lat="46.96295" lon="3.18541">
        <ele>178.398423</ele>
        <time>2021-09-10T10:59:52.000Z</time>
      </trkpt>
      <trkpt lat="46.96298" lon="3.18545">
        <ele>178.391084</ele>
        <time>2021-09-10T10:59:53.000Z</time>
      </trkpt>
      <trkpt lat="46.96301" lon="3.1855">
        <ele>178.383745</ele>
        <time>2021-09-10T10:59:54.000Z</time>
      </trkpt>
      <trkpt lat="46.96313" lon="3.18566">
        <ele>178.357462</ele>
        <time>2021-09-10T10:59:58.000Z</time>
      </trkpt>
      <trkpt lat="46.96321" lon="3.18582">
        <ele>178.334297</ele>
        <time>2021-09-10T11:00:02.000Z</time>
      </trkpt>
      <trkpt lat="46.96333" lon="3.18603">
        <ele>178.303943</ele>
        <time>2021-09-10T11:00:07.000Z</time>
      </trkpt>
      <trkpt lat="46.96346" lon="3.18632">
        <ele>178.265607</ele>
        <time>2021-09-10T11:00:14.000Z</time>
      </trkpt>
      <trkpt lat="46.96353" lon="3.18653">
        <ele>178.238818</ele>
        <time>2021-09-10T11:00:18.000Z</time>
      </trkpt>
      <trkpt lat="46.96356" lon="3.18666">
        <ele>178.223261</ele>
        <time>2021-09-10T11:00:20.000Z</time>
      </trkpt>
      <trkpt lat="46.96363" lon="3.18693">
        <ele>178.189847</ele>
        <time>2021-09-10T11:00:24.000Z</time>
      </trkpt>
      <trkpt lat="46.96367" lon="3.18707">
        <ele>178.173222</ele>
        <time>2021-09-10T11:00:26.000Z</time>
      </trkpt>
      <trkpt lat="46.96369" lon="3.18714">
        <ele>178.165362</ele>
        <time>2021-09-10T11:00:27.000Z</time>
      </trkpt>
      <trkpt lat="46.96376" lon="3.18742">
        <ele>178.131361</ele>
        <time>2021-09-10T11:00:30.000Z</time>
      </trkpt>
      <trkpt lat="46.9638" lon="3.18774">
        <ele>177.808581</ele>
        <time>2021-09-10T11:00:35.000Z</time>
      </trkpt>
      <trkpt lat="46.96381" lon="3.1879">
        <ele>177.489165</ele>
        <time>2021-09-10T11:00:37.000Z</time>
      </trkpt>
      <trkpt lat="46.96382" lon="3.18813">
        <ele>177.024999</ele>
        <time>2021-09-10T11:00:40.000Z</time>
      </trkpt>
      <trkpt lat="46.96382" lon="3.18843">
        <ele>176.437959</ele>
        <time>2021-09-10T11:00:44.000Z</time>
      </trkpt>
      <trkpt lat="46.96381" lon="3.18857">
        <ele>176.1497</ele>
        <time>2021-09-10T11:00:46.000Z</time>
      </trkpt>
      <trkpt lat="46.96378" lon="3.18894">
        <ele>175.416932</ele>
        <time>2021-09-10T11:00:51.000Z</time>
      </trkpt>
      <trkpt lat="46.96378" lon="3.18902">
        <ele>175.252261</ele>
        <time>2021-09-10T11:00:52.000Z</time>
      </trkpt>
      <trkpt lat="46.96374" lon="3.18923">
        <ele>174.809524</ele>
        <time>2021-09-10T11:00:55.000Z</time>
      </trkpt>
      <trkpt lat="46.9637" lon="3.18943">
        <ele>174.39446</ele>
        <time>2021-09-10T11:00:58.000Z</time>
      </trkpt>
      <trkpt lat="46.96369" lon="3.1895">
        <ele>174.253455</ele>
        <time>2021-09-10T11:00:59.000Z</time>
      </trkpt>
      <trkpt lat="46.96361" lon="3.18984">
        <ele>173.543842</ele>
        <time>2021-09-10T11:01:04.000Z</time>
      </trkpt>
      <trkpt lat="46.9636" lon="3.1899">
        <ele>173.415337</ele>
        <time>2021-09-10T11:01:05.000Z</time>
      </trkpt>
      <trkpt lat="46.96358" lon="3.18996">
        <ele>173.287747</ele>
        <time>2021-09-10T11:01:06.000Z</time>
      </trkpt>
      <trkpt lat="46.96354" lon="3.19013">
        <ele>172.92961</ele>
        <time>2021-09-10T11:01:09.000Z</time>
      </trkpt>
      <trkpt lat="46.96346" lon="3.19048">
        <ele>172.367363</ele>
        <time>2021-09-10T11:01:14.000Z</time>
      </trkpt>
      <trkpt lat="46.96336" lon="3.19088">
        <ele>171.748266</ele>
        <time>2021-09-10T11:01:19.000Z</time>
      </trkpt>
      <trkpt lat="46.96324" lon="3.19138">
        <ele>170.97732</ele>
        <time>2021-09-10T11:01:26.000Z</time>
      </trkpt>
      <trkpt lat="46.96321" lon="3.1915">
        <ele>170.784724</ele>
        <time>2021-09-10T11:01:28.000Z</time>
      </trkpt>
      <trkpt lat="46.96318" lon="3.19163">
        <ele>170.588015</ele>
        <time>2021-09-10T11:01:30.000Z</time>
      </trkpt>
      <trkpt lat="46.96311" lon="3.19189">
        <ele>170.18151</ele>
        <time>2021-09-10T11:01:34.000Z</time>
      </trkpt>
      <trkpt lat="46.96308" lon="3.19203">
        <ele>169.968906</ele>
        <time>2021-09-10T11:01:36.000Z</time>
      </trkpt>
      <trkpt lat="46.96299" lon="3.19238">
        <ele>169.425729</ele>
        <time>2021-09-10T11:01:41.000Z</time>
      </trkpt>
      <trkpt lat="46.96294" lon="3.19259">
        <ele>169.09718</ele>
        <time>2021-09-10T11:01:44.000Z</time>
      </trkpt>
      <trkpt lat="46.96292" lon="3.19267">
        <ele>169.004678</ele>
        <time>2021-09-10T11:01:45.000Z</time>
      </trkpt>
      <trkpt lat="46.96282" lon="3.19302">
        <ele>168.996995</ele>
        <time>2021-09-10T11:01:50.000Z</time>
      </trkpt>
      <trkpt lat="46.96278" lon="3.19314">
        <ele>168.994484</ele>
        <time>2021-09-10T11:01:52.000Z</time>
      </trkpt>
      <trkpt lat="46.96274" lon="3.19325">
        <ele>168.992087</ele>
        <time>2021-09-10T11:01:54.000Z</time>
      </trkpt>
      <trkpt lat="46.96269" lon="3.19338">
        <ele>168.98915</ele>
        <time>2021-09-10T11:01:56.000Z</time>
      </trkpt>
      <trkpt lat="46.96264" lon="3.19352">
        <ele>168.986003</ele>
        <time>2021-09-10T11:01:58.000Z</time>
      </trkpt>
      <trkpt lat="46.96261" lon="3.1936">
        <ele>168.984298</ele>
        <time>2021-09-10T11:01:59.000Z</time>
      </trkpt>
      <trkpt lat="46.96242" lon="3.19404">
        <ele>168.974183</ele>
        <time>2021-09-10T11:02:05.000Z</time>
      </trkpt>
      <trkpt lat="46.96222" lon="3.19447">
        <ele>168.963847</ele>
        <time>2021-09-10T11:02:11.000Z</time>
      </trkpt>
      <trkpt lat="46.96207" lon="3.19477">
        <ele>168.956677</ele>
        <time>2021-09-10T11:02:15.000Z</time>
      </trkpt>
      <trkpt lat="46.962" lon="3.19491">
        <ele>168.961387</ele>
        <time>2021-09-10T11:02:17.000Z</time>
      </trkpt>
      <trkpt lat="46.96182" lon="3.19527">
        <ele>169.204118</ele>
        <time>2021-09-10T11:02:22.000Z</time>
      </trkpt>
      <trkpt lat="46.96175" lon="3.19541">
        <ele>169.298863</ele>
        <time>2021-09-10T11:02:24.000Z</time>
      </trkpt>
      <trkpt lat="46.96156" lon="3.19575">
        <ele>169.53893</ele>
        <time>2021-09-10T11:02:29.000Z</time>
      </trkpt>
      <trkpt lat="46.96131" lon="3.19613">
        <ele>169.822307</ele>
        <time>2021-09-10T11:02:35.000Z</time>
      </trkpt>
      <trkpt lat="46.96104" lon="3.19648">
        <ele>170.116806</ele>
        <time>2021-09-10T11:02:41.000Z</time>
      </trkpt>
      <trkpt lat="46.96079" lon="3.19675">
        <ele>170.359008</ele>
        <time>2021-09-10T11:02:46.000Z</time>
      </trkpt>
      <trkpt lat="46.9605" lon="3.19704">
        <ele>170.928505</ele>
        <time>2021-09-10T11:02:52.000Z</time>
      </trkpt>
      <trkpt lat="46.96046" lon="3.19708">
        <ele>171.022803</ele>
        <time>2021-09-10T11:02:53.000Z</time>
      </trkpt>
      <trkpt lat="46.96004" lon="3.19739">
        <ele>171.823777</ele>
        <time>2021-09-10T11:03:01.000Z</time>
      </trkpt>
      <trkpt lat="46.95972" lon="3.19761">
        <ele>172.429104</ele>
        <time>2021-09-10T11:03:07.000Z</time>
      </trkpt>
      <trkpt lat="46.95967" lon="3.19764">
        <ele>172.5227</ele>
        <time>2021-09-10T11:03:08.000Z</time>
      </trkpt>
      <trkpt lat="46.95955" lon="3.19772">
        <ele>172.759645</ele>
        <time>2021-09-10T11:03:11.000Z</time>
      </trkpt>
      <trkpt lat="46.95935" lon="3.19784">
        <ele>173.129484</ele>
        <time>2021-09-10T11:03:17.000Z</time>
      </trkpt>
      <trkpt lat="46.95916" lon="3.19793">
        <ele>173.473567</ele>
        <time>2021-09-10T11:03:22.000Z</time>
      </trkpt>
      <trkpt lat="46.95885" lon="3.19808">
        <ele>173.815368</ele>
        <time>2021-09-10T11:03:27.000Z</time>
      </trkpt>
      <trkpt lat="46.95851" lon="3.19827">
        <ele>174.198832</ele>
        <time>2021-09-10T11:03:31.000Z</time>
      </trkpt>
      <trkpt lat="46.95807" lon="3.19854">
        <ele>174.687503</ele>
        <time>2021-09-10T11:03:38.000Z</time>
      </trkpt>
      <trkpt lat="46.95801" lon="3.19858">
        <ele>174.753888</ele>
        <time>2021-09-10T11:03:39.000Z</time>
      </trkpt>
      <trkpt lat="46.95782" lon="3.19868">
        <ele>174.968338</ele>
        <time>2021-09-10T11:03:42.000Z</time>
      </trkpt>
      <trkpt lat="46.9577" lon="3.19874">
        <ele>175.099494</ele>
        <time>2021-09-10T11:03:45.000Z</time>
      </trkpt>
      <trkpt lat="46.95752" lon="3.19883">
        <ele>175.290877</ele>
        <time>2021-09-10T11:03:47.000Z</time>
      </trkpt>
      <trkpt lat="46.95699" lon="3.19898">
        <ele>175.609596</ele>
        <time>2021-09-10T11:03:56.000Z</time>
      </trkpt>
      <trkpt lat="46.95656" lon="3.1991">
        <ele>175.842193</ele>
        <time>2021-09-10T11:04:03.000Z</time>
      </trkpt>
      <trkpt lat="46.95625" lon="3.19919">
        <ele>176.011546</ele>
        <time>2021-09-10T11:04:08.000Z</time>
      </trkpt>
      <trkpt lat="46.95619" lon="3.19921">
        <ele>176.042907</ele>
        <time>2021-09-10T11:04:09.000Z</time>
      </trkpt>
      <trkpt lat="46.956" lon="3.19926">
        <ele>176.14575</ele>
        <time>2021-09-10T11:04:12.000Z</time>
      </trkpt>
      <trkpt lat="46.95594" lon="3.19928">
        <ele>176.179266</ele>
        <time>2021-09-10T11:04:13.000Z</time>
      </trkpt>
      <trkpt lat="46.95563" lon="3.19936">
        <ele>176.329188</ele>
        <time>2021-09-10T11:04:18.000Z</time>
      </trkpt>
      <trkpt lat="46.95532" lon="3.19945">
        <ele>176.417576</ele>
        <time>2021-09-10T11:04:23.000Z</time>
      </trkpt>
      <trkpt lat="46.95495" lon="3.19955">
        <ele>176.521758</ele>
        <time>2021-09-10T11:04:29.000Z</time>
      </trkpt>
      <trkpt lat="46.95483" lon="3.19959">
        <ele>176.556658</ele>
        <time>2021-09-10T11:04:31.000Z</time>
      </trkpt>
      <trkpt lat="46.95471" lon="3.19962">
        <ele>176.591869</ele>
        <time>2021-09-10T11:04:33.000Z</time>
      </trkpt>
      <trkpt lat="46.95437" lon="3.19972">
        <ele>176.688862</ele>
        <time>2021-09-10T11:04:39.000Z</time>
      </trkpt>
      <trkpt lat="46.95403" lon="3.19981">
        <ele>176.786444</ele>
        <time>2021-09-10T11:04:45.000Z</time>
      </trkpt>
      <trkpt lat="46.95386" lon="3.19986">
        <ele>176.771823</ele>
        <time>2021-09-10T11:04:48.000Z</time>
      </trkpt>
      <trkpt lat="46.95376" lon="3.19989">
        <ele>176.708743</ele>
        <time>2021-09-10T11:04:50.000Z</time>
      </trkpt>
      <trkpt lat="46.95365" lon="3.19992">
        <ele>176.644571</ele>
        <time>2021-09-10T11:04:52.000Z</time>
      </trkpt>
      <trkpt lat="46.95333" lon="3.20001">
        <ele>176.451242</ele>
        <time>2021-09-10T11:04:57.000Z</time>
      </trkpt>
      <trkpt lat="46.95322" lon="3.20004">
        <ele>176.380484</ele>
        <time>2021-09-10T11:04:59.000Z</time>
      </trkpt>
      <trkpt lat="46.9531" lon="3.20007">
        <ele>176.311407</ele>
        <time>2021-09-10T11:05:01.000Z</time>
      </trkpt>
      <trkpt lat="46.95268" lon="3.20018">
        <ele>176.057864</ele>
        <time>2021-09-10T11:05:08.000Z</time>
      </trkpt>
      <trkpt lat="46.95238" lon="3.20027">
        <ele>175.875665</ele>
        <time>2021-09-10T11:05:14.000Z</time>
      </trkpt>
      <trkpt lat="46.95191" lon="3.20041">
        <ele>175.648844</ele>
        <time>2021-09-10T11:05:21.000Z</time>
      </trkpt>
      <trkpt lat="46.95179" lon="3.20046">
        <ele>175.604716</ele>
        <time>2021-09-10T11:05:23.000Z</time>
      </trkpt>
      <trkpt lat="46.95167" lon="3.20052">
        <ele>175.558208</ele>
        <time>2021-09-10T11:05:25.000Z</time>
      </trkpt>
      <trkpt lat="46.95142" lon="3.20064">
        <ele>175.463308</ele>
        <time>2021-09-10T11:05:29.000Z</time>
      </trkpt>
      <trkpt lat="46.95131" lon="3.2007">
        <ele>175.419834</ele>
        <time>2021-09-10T11:05:31.000Z</time>
      </trkpt>
      <trkpt lat="46.95109" lon="3.20081">
        <ele>175.335272</ele>
        <time>2021-09-10T11:05:35.000Z</time>
      </trkpt>
      <trkpt lat="46.9508" lon="3.20096">
        <ele>175.222346</ele>
        <time>2021-09-10T11:05:40.000Z</time>
      </trkpt>
      <trkpt lat="46.95074" lon="3.20099">
        <ele>175.199284</ele>
        <time>2021-09-10T11:05:41.000Z</time>
      </trkpt>
      <trkpt lat="46.95045" lon="3.20114">
        <ele>175.089636</ele>
        <time>2021-09-10T11:05:46.000Z</time>
      </trkpt>
      <trkpt lat="46.95034" lon="3.2012">
        <ele>175.094547</ele>
        <time>2021-09-10T11:05:48.000Z</time>
      </trkpt>
      <trkpt lat="46.95023" lon="3.20126">
        <ele>175.099341</ele>
        <time>2021-09-10T11:05:50.000Z</time>
      </trkpt>
      <trkpt lat="46.95" lon="3.20138">
        <ele>175.109578</ele>
        <time>2021-09-10T11:05:54.000Z</time>
      </trkpt>
      <trkpt lat="46.94984" lon="3.20147">
        <ele>175.116739</ele>
        <time>2021-09-10T11:05:57.000Z</time>
      </trkpt>
      <trkpt lat="46.94979" lon="3.20149">
        <ele>175.119057</ele>
        <time>2021-09-10T11:05:58.000Z</time>
      </trkpt>
      <trkpt lat="46.94974" lon="3.20152">
        <ele>175.121029</ele>
        <time>2021-09-10T11:05:59.000Z</time>
      </trkpt>
      <trkpt lat="46.94957" lon="3.20161">
        <ele>175.129038</ele>
        <time>2021-09-10T11:06:02.000Z</time>
      </trkpt>
      <trkpt lat="46.9494" lon="3.2017">
        <ele>175.136554</ele>
        <time>2021-09-10T11:06:05.000Z</time>
      </trkpt>
      <trkpt lat="46.94923" lon="3.20179">
        <ele>175.144158</ele>
        <time>2021-09-10T11:06:08.000Z</time>
      </trkpt>
      <trkpt lat="46.9491" lon="3.20186">
        <ele>175.149782</ele>
        <time>2021-09-10T11:06:10.000Z</time>
      </trkpt>
      <trkpt lat="46.94894" lon="3.20194">
        <ele>175.157103</ele>
        <time>2021-09-10T11:06:13.000Z</time>
      </trkpt>
      <trkpt lat="46.94882" lon="3.202">
        <ele>175.162192</ele>
        <time>2021-09-10T11:06:15.000Z</time>
      </trkpt>
      <trkpt lat="46.94871" lon="3.20206">
        <ele>175.197773</ele>
        <time>2021-09-10T11:06:17.000Z</time>
      </trkpt>
      <trkpt lat="46.94852" lon="3.20216">
        <ele>175.33699</ele>
        <time>2021-09-10T11:06:21.000Z</time>
      </trkpt>
      <trkpt lat="46.94829" lon="3.2023">
        <ele>175.498715</ele>
        <time>2021-09-10T11:06:25.000Z</time>
      </trkpt>
      <trkpt lat="46.94808" lon="3.20244">
        <ele>175.651855</ele>
        <time>2021-09-10T11:06:29.000Z</time>
      </trkpt>
      <trkpt lat="46.94803" lon="3.20248">
        <ele>175.689689</ele>
        <time>2021-09-10T11:06:30.000Z</time>
      </trkpt>
      <trkpt lat="46.9478" lon="3.20259">
        <ele>175.848193</ele>
        <time>2021-09-10T11:06:34.000Z</time>
      </trkpt>
      <trkpt lat="46.9477" lon="3.20264">
        <ele>175.921049</ele>
        <time>2021-09-10T11:06:36.000Z</time>
      </trkpt>
      <trkpt lat="46.94758" lon="3.20266">
        <ele>175.998038</ele>
        <time>2021-09-10T11:06:38.000Z</time>
      </trkpt>
      <trkpt lat="46.94723" lon="3.20271">
        <ele>176.234094</ele>
        <time>2021-09-10T11:06:44.000Z</time>
      </trkpt>
      <trkpt lat="46.94717" lon="3.20272">
        <ele>176.272759</ele>
        <time>2021-09-10T11:06:45.000Z</time>
      </trkpt>
      <trkpt lat="46.94699" lon="3.20274">
        <ele>176.422408</ele>
        <time>2021-09-10T11:06:48.000Z</time>
      </trkpt>
      <trkpt lat="46.94681" lon="3.20273">
        <ele>176.620802</ele>
        <time>2021-09-10T11:06:51.000Z</time>
      </trkpt>
      <trkpt lat="46.94669" lon="3.20272">
        <ele>176.759439</ele>
        <time>2021-09-10T11:06:53.000Z</time>
      </trkpt>
      <trkpt lat="46.94663" lon="3.20271">
        <ele>176.828925</ele>
        <time>2021-09-10T11:06:54.000Z</time>
      </trkpt>
      <trkpt lat="46.94627" lon="3.2026">
        <ele>177.240015</ele>
        <time>2021-09-10T11:07:00.000Z</time>
      </trkpt>
      <trkpt lat="46.94621" lon="3.20258">
        <ele>177.30721</ele>
        <time>2021-09-10T11:07:01.000Z</time>
      </trkpt>
      <trkpt lat="46.94597" lon="3.20251">
        <ele>177.588667</ele>
        <time>2021-09-10T11:07:05.000Z</time>
      </trkpt>
      <trkpt lat="46.94568" lon="3.20237">
        <ele>177.940727</ele>
        <time>2021-09-10T11:07:10.000Z</time>
      </trkpt>
      <trkpt lat="46.94545" lon="3.20224">
        <ele>178.210563</ele>
        <time>2021-09-10T11:07:14.000Z</time>
      </trkpt>
      <trkpt lat="46.94511" lon="3.20204">
        <ele>178.610618</ele>
        <time>2021-09-10T11:07:20.000Z</time>
      </trkpt>
      <trkpt lat="46.94478" lon="3.20183">
        <ele>179.001148</ele>
        <time>2021-09-10T11:07:26.000Z</time>
      </trkpt>
      <trkpt lat="46.94454" lon="3.20168">
        <ele>179.273</ele>
        <time>2021-09-10T11:07:30.000Z</time>
      </trkpt>
      <trkpt lat="46.94413" lon="3.20144">
        <ele>179.746281</ele>
        <time>2021-09-10T11:07:37.000Z</time>
      </trkpt>
      <trkpt lat="46.94372" lon="3.20125">
        <ele>180.20317</ele>
        <time>2021-09-10T11:07:44.000Z</time>
      </trkpt>
      <trkpt lat="46.94348" lon="3.20116">
        <ele>180.412298</ele>
        <time>2021-09-10T11:07:48.000Z</time>
      </trkpt>
      <trkpt lat="46.94311" lon="3.20115">
        <ele>180.679177</ele>
        <time>2021-09-10T11:07:54.000Z</time>
      </trkpt>
      <trkpt lat="46.94294" lon="3.20114">
        <ele>180.805786</ele>
        <time>2021-09-10T11:07:57.000Z</time>
      </trkpt>
      <trkpt lat="46.94288" lon="3.20114">
        <ele>180.846782</ele>
        <time>2021-09-10T11:07:58.000Z</time>
      </trkpt>
      <trkpt lat="46.94282" lon="3.20115">
        <ele>180.890003</ele>
        <time>2021-09-10T11:07:59.000Z</time>
      </trkpt>
      <trkpt lat="46.94251" lon="3.20118">
        <ele>181.1135</ele>
        <time>2021-09-10T11:08:04.000Z</time>
      </trkpt>
      <trkpt lat="46.94245" lon="3.20119">
        <ele>181.16034</ele>
        <time>2021-09-10T11:08:05.000Z</time>
      </trkpt>
      <trkpt lat="46.94232" lon="3.2012">
        <ele>181.251435</ele>
        <time>2021-09-10T11:08:07.000Z</time>
      </trkpt>
      <trkpt lat="46.94203" lon="3.20129">
        <ele>181.464228</ele>
        <time>2021-09-10T11:08:12.000Z</time>
      </trkpt>
      <trkpt lat="46.94167" lon="3.2014">
        <ele>181.639382</ele>
        <time>2021-09-10T11:08:18.000Z</time>
      </trkpt>
      <trkpt lat="46.94144" lon="3.20147">
        <ele>181.692715</ele>
        <time>2021-09-10T11:08:22.000Z</time>
      </trkpt>
      <trkpt lat="46.9412" lon="3.20154">
        <ele>181.745832</ele>
        <time>2021-09-10T11:08:26.000Z</time>
      </trkpt>
      <trkpt lat="46.94088" lon="3.20163">
        <ele>181.818398</ele>
        <time>2021-09-10T11:08:31.000Z</time>
      </trkpt>
      <trkpt lat="46.94075" lon="3.20167">
        <ele>181.848224</ele>
        <time>2021-09-10T11:08:33.000Z</time>
      </trkpt>
      <trkpt lat="46.94063" lon="3.20171">
        <ele>181.87424</ele>
        <time>2021-09-10T11:08:35.000Z</time>
      </trkpt>
      <trkpt lat="46.94026" lon="3.20182">
        <ele>181.958081</ele>
        <time>2021-09-10T11:08:41.000Z</time>
      </trkpt>
      <trkpt lat="46.94002" lon="3.20193">
        <ele>181.980346</ele>
        <time>2021-09-10T11:08:45.000Z</time>
      </trkpt>
      <trkpt lat="46.93978" lon="3.20208">
        <ele>181.916868</ele>
        <time>2021-09-10T11:08:49.000Z</time>
      </trkpt>
      <trkpt lat="46.93957" lon="3.20222">
        <ele>181.856935</ele>
        <time>2021-09-10T11:08:53.000Z</time>
      </trkpt>
      <trkpt lat="46.93923" lon="3.20249">
        <ele>181.76135</ele>
        <time>2021-09-10T11:08:59.000Z</time>
      </trkpt>
      <trkpt lat="46.93892" lon="3.20279">
        <ele>181.666246</ele>
        <time>2021-09-10T11:09:05.000Z</time>
      </trkpt>
      <trkpt lat="46.93876" lon="3.20293">
        <ele>181.620508</ele>
        <time>2021-09-10T11:09:08.000Z</time>
      </trkpt>
      <trkpt lat="46.93866" lon="3.20303">
        <ele>181.590134</ele>
        <time>2021-09-10T11:09:10.000Z</time>
      </trkpt>
      <trkpt lat="46.93851" lon="3.20318">
        <ele>181.540517</ele>
        <time>2021-09-10T11:09:13.000Z</time>
      </trkpt>
      <trkpt lat="46.93847" lon="3.20323">
        <ele>181.505937</ele>
        <time>2021-09-10T11:09:14.000Z</time>
      </trkpt>
      <trkpt lat="46.93842" lon="3.20329">
        <ele>181.470114</ele>
        <time>2021-09-10T11:09:15.000Z</time>
      </trkpt>
      <trkpt lat="46.93827" lon="3.20346">
        <ele>181.348486</ele>
        <time>2021-09-10T11:09:18.000Z</time>
      </trkpt>
      <trkpt lat="46.93799" lon="3.2038">
        <ele>181.119345</ele>
        <time>2021-09-10T11:09:24.000Z</time>
      </trkpt>
      <trkpt lat="46.93785" lon="3.20396">
        <ele>181.011078</ele>
        <time>2021-09-10T11:09:27.000Z</time>
      </trkpt>
      <trkpt lat="46.93776" lon="3.20406">
        <ele>180.940941</ele>
        <time>2021-09-10T11:09:29.000Z</time>
      </trkpt>
      <trkpt lat="46.93768" lon="3.20416">
        <ele>180.87178</ele>
        <time>2021-09-10T11:09:31.000Z</time>
      </trkpt>
      <trkpt lat="46.93759" lon="3.20426">
        <ele>180.803908</ele>
        <time>2021-09-10T11:09:33.000Z</time>
      </trkpt>
      <trkpt lat="46.9375" lon="3.20437">
        <ele>180.73022</ele>
        <time>2021-09-10T11:09:35.000Z</time>
      </trkpt>
      <trkpt lat="46.93741" lon="3.20447">
        <ele>180.658308</ele>
        <time>2021-09-10T11:09:37.000Z</time>
      </trkpt>
      <trkpt lat="46.93729" lon="3.20467">
        <ele>180.545552</ele>
        <time>2021-09-10T11:09:40.000Z</time>
      </trkpt>
      <trkpt lat="46.93718" lon="3.20487">
        <ele>180.438134</ele>
        <time>2021-09-10T11:09:43.000Z</time>
      </trkpt>
      <trkpt lat="46.93714" lon="3.20494">
        <ele>180.397147</ele>
        <time>2021-09-10T11:09:44.000Z</time>
      </trkpt>
      <trkpt lat="46.93711" lon="3.20501">
        <ele>180.355357</ele>
        <time>2021-09-10T11:09:45.000Z</time>
      </trkpt>
      <trkpt lat="46.93704" lon="3.20514">
        <ele>180.27378</ele>
        <time>2021-09-10T11:09:47.000Z</time>
      </trkpt>
      <trkpt lat="46.93691" lon="3.2054">
        <ele>180.11896</ele>
        <time>2021-09-10T11:09:51.000Z</time>
      </trkpt>
      <trkpt lat="46.93688" lon="3.20548">
        <ele>180.076929</ele>
        <time>2021-09-10T11:09:52.000Z</time>
      </trkpt>
      <trkpt lat="46.93683" lon="3.20564">
        <ele>179.990316</ele>
        <time>2021-09-10T11:09:54.000Z</time>
      </trkpt>
      <trkpt lat="46.93678" lon="3.20579">
        <ele>179.911285</ele>
        <time>2021-09-10T11:09:56.000Z</time>
      </trkpt>
      <trkpt lat="46.93676" lon="3.20587">
        <ele>179.872207</ele>
        <time>2021-09-10T11:09:57.000Z</time>
      </trkpt>
      <trkpt lat="46.93673" lon="3.20604">
        <ele>179.787328</ele>
        <time>2021-09-10T11:09:59.000Z</time>
      </trkpt>
      <trkpt lat="46.93669" lon="3.2062">
        <ele>179.70311</ele>
        <time>2021-09-10T11:10:01.000Z</time>
      </trkpt>
      <trkpt lat="46.93658" lon="3.20675">
        <ele>179.429042</ele>
        <time>2021-09-10T11:10:07.000Z</time>
      </trkpt>
      <trkpt lat="46.93657" lon="3.20684">
        <ele>179.386011</ele>
        <time>2021-09-10T11:10:08.000Z</time>
      </trkpt>
      <trkpt lat="46.93653" lon="3.20702">
        <ele>179.296325</ele>
        <time>2021-09-10T11:10:10.000Z</time>
      </trkpt>
      <trkpt lat="46.93651" lon="3.2071">
        <ele>179.254216</ele>
        <time>2021-09-10T11:10:11.000Z</time>
      </trkpt>
      <trkpt lat="46.9365" lon="3.20718">
        <ele>179.21415</ele>
        <time>2021-09-10T11:10:12.000Z</time>
      </trkpt>
      <trkpt lat="46.93646" lon="3.20735">
        <ele>179.145726</ele>
        <time>2021-09-10T11:10:14.000Z</time>
      </trkpt>
      <trkpt lat="46.93644" lon="3.20744">
        <ele>179.13007</ele>
        <time>2021-09-10T11:10:15.000Z</time>
      </trkpt>
      <trkpt lat="46.93643" lon="3.20752">
        <ele>179.114072</ele>
        <time>2021-09-10T11:10:16.000Z</time>
      </trkpt>
      <trkpt lat="46.93635" lon="3.20789">
        <ele>179.046452</ele>
        <time>2021-09-10T11:10:20.000Z</time>
      </trkpt>
      <trkpt lat="46.93623" lon="3.20852">
        <ele>178.927554</ele>
        <time>2021-09-10T11:10:27.000Z</time>
      </trkpt>
      <trkpt lat="46.93619" lon="3.20869">
        <ele>178.896316</ele>
        <time>2021-09-10T11:10:29.000Z</time>
      </trkpt>
      <trkpt lat="46.93616" lon="3.20886">
        <ele>178.865176</ele>
        <time>2021-09-10T11:10:31.000Z</time>
      </trkpt>
      <trkpt lat="46.93609" lon="3.20919">
        <ele>178.803142</ele>
        <time>2021-09-10T11:10:35.000Z</time>
      </trkpt>
      <trkpt lat="46.93606" lon="3.20935">
        <ele>178.773864</ele>
        <time>2021-09-10T11:10:37.000Z</time>
      </trkpt>
      <trkpt lat="46.93596" lon="3.20983">
        <ele>178.673282</ele>
        <time>2021-09-10T11:10:43.000Z</time>
      </trkpt>
      <trkpt lat="46.93587" lon="3.21024">
        <ele>178.29371</ele>
        <time>2021-09-10T11:10:48.000Z</time>
      </trkpt>
      <trkpt lat="46.9358" lon="3.21058">
        <ele>177.98183</ele>
        <time>2021-09-10T11:10:52.000Z</time>
      </trkpt>
      <trkpt lat="46.93577" lon="3.21073">
        <ele>177.838881</ele>
        <time>2021-09-10T11:10:54.000Z</time>
      </trkpt>
      <trkpt lat="46.93571" lon="3.21097">
        <ele>177.61528</ele>
        <time>2021-09-10T11:10:57.000Z</time>
      </trkpt>
      <trkpt lat="46.93568" lon="3.21113">
        <ele>177.467705</ele>
        <time>2021-09-10T11:10:59.000Z</time>
      </trkpt>
      <trkpt lat="46.93559" lon="3.21154">
        <ele>177.085199</ele>
        <time>2021-09-10T11:11:04.000Z</time>
      </trkpt>
      <trkpt lat="46.9355" lon="3.21195">
        <ele>176.700998</ele>
        <time>2021-09-10T11:11:09.000Z</time>
      </trkpt>
      <trkpt lat="46.93549" lon="3.21203">
        <ele>176.625746</ele>
        <time>2021-09-10T11:11:10.000Z</time>
      </trkpt>
      <trkpt lat="46.93545" lon="3.2122">
        <ele>176.471528</ele>
        <time>2021-09-10T11:11:12.000Z</time>
      </trkpt>
      <trkpt lat="46.93539" lon="3.21245">
        <ele>176.319758</ele>
        <time>2021-09-10T11:11:15.000Z</time>
      </trkpt>
      <trkpt lat="46.93537" lon="3.21253">
        <ele>176.300721</ele>
        <time>2021-09-10T11:11:16.000Z</time>
      </trkpt>
      <trkpt lat="46.93526" lon="3.21295">
        <ele>176.205228</ele>
        <time>2021-09-10T11:11:21.000Z</time>
      </trkpt>
      <trkpt lat="46.93514" lon="3.21344">
        <ele>176.095537</ele>
        <time>2021-09-10T11:11:27.000Z</time>
      </trkpt>
      <trkpt lat="46.93504" lon="3.21382">
        <ele>176.009216</ele>
        <time>2021-09-10T11:11:32.000Z</time>
      </trkpt>
      <trkpt lat="46.93501" lon="3.21397">
        <ele>175.975874</ele>
        <time>2021-09-10T11:11:34.000Z</time>
      </trkpt>
      <trkpt lat="46.93493" lon="3.21429">
        <ele>175.902445</ele>
        <time>2021-09-10T11:11:38.000Z</time>
      </trkpt>
      <trkpt lat="46.93489" lon="3.21445">
        <ele>175.866383</ele>
        <time>2021-09-10T11:11:40.000Z</time>
      </trkpt>
      <trkpt lat="46.93476" lon="3.21494">
        <ele>175.792101</ele>
        <time>2021-09-10T11:11:46.000Z</time>
      </trkpt>
      <trkpt lat="46.93472" lon="3.2151">
        <ele>175.799979</ele>
        <time>2021-09-10T11:11:48.000Z</time>
      </trkpt>
      <trkpt lat="46.93466" lon="3.21537">
        <ele>175.812375</ele>
        <time>2021-09-10T11:11:51.000Z</time>
      </trkpt>
      <trkpt lat="46.93462" lon="3.21552">
        <ele>175.819667</ele>
        <time>2021-09-10T11:11:53.000Z</time>
      </trkpt>
      <trkpt lat="46.9346" lon="3.21559">
        <ele>175.823154</ele>
        <time>2021-09-10T11:11:54.000Z</time>
      </trkpt>
      <trkpt lat="46.93453" lon="3.21585">
        <ele>175.835214</ele>
        <time>2021-09-10T11:11:57.000Z</time>
      </trkpt>
      <trkpt lat="46.93451" lon="3.21594">
        <ele>175.839332</ele>
        <time>2021-09-10T11:11:58.000Z</time>
      </trkpt>
      <trkpt lat="46.93447" lon="3.2161">
        <ele>175.847126</ele>
        <time>2021-09-10T11:12:00.000Z</time>
      </trkpt>
      <trkpt lat="46.93442" lon="3.21632">
        <ele>175.857674</ele>
        <time>2021-09-10T11:12:03.000Z</time>
      </trkpt>
      <trkpt lat="46.93431" lon="3.21674">
        <ele>175.877297</ele>
        <time>2021-09-10T11:12:08.000Z</time>
      </trkpt>
      <trkpt lat="46.93419" lon="3.21724">
        <ele>175.900744</ele>
        <time>2021-09-10T11:12:14.000Z</time>
      </trkpt>
      <trkpt lat="46.93399" lon="3.21801">
        <ele>176.170972</ele>
        <time>2021-09-10T11:12:23.000Z</time>
      </trkpt>
      <trkpt lat="46.93393" lon="3.21824">
        <ele>176.25856</ele>
        <time>2021-09-10T11:12:26.000Z</time>
      </trkpt>
      <trkpt lat="46.93385" lon="3.21846">
        <ele>176.343632</ele>
        <time>2021-09-10T11:12:29.000Z</time>
      </trkpt>
      <trkpt lat="46.93376" lon="3.21876">
        <ele>176.456335</ele>
        <time>2021-09-10T11:12:33.000Z</time>
      </trkpt>
      <trkpt lat="46.93374" lon="3.21882">
        <ele>176.479983</ele>
        <time>2021-09-10T11:12:34.000Z</time>
      </trkpt>
      <trkpt lat="46.93372" lon="3.21888">
        <ele>176.504161</ele>
        <time>2021-09-10T11:12:35.000Z</time>
      </trkpt>
      <trkpt lat="46.93364" lon="3.21919">
        <ele>176.618777</ele>
        <time>2021-09-10T11:12:39.000Z</time>
      </trkpt>
      <trkpt lat="46.93354" lon="3.21951">
        <ele>176.738802</ele>
        <time>2021-09-10T11:12:43.000Z</time>
      </trkpt>
      <trkpt lat="46.93348" lon="3.21967">
        <ele>176.800551</ele>
        <time>2021-09-10T11:12:45.000Z</time>
      </trkpt>
      <trkpt lat="46.93331" lon="3.22012">
        <ele>176.905407</ele>
        <time>2021-09-10T11:12:51.000Z</time>
      </trkpt>
      <trkpt lat="46.93323" lon="3.22033">
        <ele>176.952609</ele>
        <time>2021-09-10T11:12:54.000Z</time>
      </trkpt>
      <trkpt lat="46.9332" lon="3.2204">
        <ele>176.968263</ele>
        <time>2021-09-10T11:12:55.000Z</time>
      </trkpt>
      <trkpt lat="46.93315" lon="3.22055">
        <ele>177.001279</ele>
        <time>2021-09-10T11:12:57.000Z</time>
      </trkpt>
      <trkpt lat="46.93307" lon="3.22077">
        <ele>177.04882</ele>
        <time>2021-09-10T11:13:00.000Z</time>
      </trkpt>
      <trkpt lat="46.9328" lon="3.22145">
        <ele>177.202333</ele>
        <time>2021-09-10T11:13:09.000Z</time>
      </trkpt>
      <trkpt lat="46.93277" lon="3.22152">
        <ele>177.218242</ele>
        <time>2021-09-10T11:13:10.000Z</time>
      </trkpt>
      <trkpt lat="46.93271" lon="3.22165">
        <ele>177.248474</ele>
        <time>2021-09-10T11:13:12.000Z</time>
      </trkpt>
      <trkpt lat="46.93266" lon="3.22179">
        <ele>177.279019</ele>
        <time>2021-09-10T11:13:14.000Z</time>
      </trkpt>
      <trkpt lat="46.9326" lon="3.22193">
        <ele>177.310235</ele>
        <time>2021-09-10T11:13:16.000Z</time>
      </trkpt>
      <trkpt lat="46.93257" lon="3.222">
        <ele>177.325385</ele>
        <time>2021-09-10T11:13:17.000Z</time>
      </trkpt>
      <trkpt lat="46.93255" lon="3.22206">
        <ele>177.339385</ele>
        <time>2021-09-10T11:13:18.000Z</time>
      </trkpt>
      <trkpt lat="46.93249" lon="3.22219">
        <ele>177.365663</ele>
        <time>2021-09-10T11:13:20.000Z</time>
      </trkpt>
      <trkpt lat="46.93247" lon="3.22226">
        <ele>177.378652</ele>
        <time>2021-09-10T11:13:21.000Z</time>
      </trkpt>
      <trkpt lat="46.93244" lon="3.22233">
        <ele>177.392502</ele>
        <time>2021-09-10T11:13:22.000Z</time>
      </trkpt>
      <trkpt lat="46.93236" lon="3.22253">
        <ele>177.434651</ele>
        <time>2021-09-10T11:13:25.000Z</time>
      </trkpt>
      <trkpt lat="46.93233" lon="3.2226">
        <ele>177.448801</ele>
        <time>2021-09-10T11:13:26.000Z</time>
      </trkpt>
      <trkpt lat="46.93226" lon="3.22273">
        <ele>177.47749</ele>
        <time>2021-09-10T11:13:28.000Z</time>
      </trkpt>
      <trkpt lat="46.93222" lon="3.22279">
        <ele>177.491462</ele>
        <time>2021-09-10T11:13:29.000Z</time>
      </trkpt>
      <trkpt lat="46.93207" lon="3.22303">
        <ele>177.548127</ele>
        <time>2021-09-10T11:13:33.000Z</time>
      </trkpt>
      <trkpt lat="46.93199" lon="3.22314">
        <ele>177.576396</ele>
        <time>2021-09-10T11:13:35.000Z</time>
      </trkpt>
      <trkpt lat="46.93178" lon="3.22342">
        <ele>177.648588</ele>
        <time>2021-09-10T11:13:40.000Z</time>
      </trkpt>
      <trkpt lat="46.93174" lon="3.22347">
        <ele>177.662979</ele>
        <time>2021-09-10T11:13:41.000Z</time>
      </trkpt>
      <trkpt lat="46.93162" lon="3.22362">
        <ele>177.701471</ele>
        <time>2021-09-10T11:13:44.000Z</time>
      </trkpt>
      <trkpt lat="46.93158" lon="3.22366">
        <ele>177.71508</ele>
        <time>2021-09-10T11:13:45.000Z</time>
      </trkpt>
      <trkpt lat="46.93154" lon="3.2237">
        <ele>177.72838</ele>
        <time>2021-09-10T11:13:46.000Z</time>
      </trkpt>
      <trkpt lat="46.93144" lon="3.2238">
        <ele>177.757047</ele>
        <time>2021-09-10T11:13:48.000Z</time>
      </trkpt>
      <trkpt lat="46.93139" lon="3.22385">
        <ele>177.772301</ele>
        <time>2021-09-10T11:13:49.000Z</time>
      </trkpt>
      <trkpt lat="46.93124" lon="3.22399">
        <ele>177.875012</ele>
        <time>2021-09-10T11:13:52.000Z</time>
      </trkpt>
      <trkpt lat="46.93113" lon="3.22408">
        <ele>177.961567</ele>
        <time>2021-09-10T11:13:54.000Z</time>
      </trkpt>
      <trkpt lat="46.93086" lon="3.22427">
        <ele>178.155482</ele>
        <time>2021-09-10T11:13:59.000Z</time>
      </trkpt>
      <trkpt lat="46.93081" lon="3.2243">
        <ele>178.192061</ele>
        <time>2021-09-10T11:14:00.000Z</time>
      </trkpt>
      <trkpt lat="46.93053" lon="3.22444">
        <ele>178.382291</ele>
        <time>2021-09-10T11:14:05.000Z</time>
      </trkpt>
      <trkpt lat="46.93047" lon="3.22447">
        <ele>178.42255</ele>
        <time>2021-09-10T11:14:06.000Z</time>
      </trkpt>
      <trkpt lat="46.93026" lon="3.22458">
        <ele>178.568372</ele>
        <time>2021-09-10T11:14:10.000Z</time>
      </trkpt>
      <trkpt lat="46.93015" lon="3.22464">
        <ele>178.645355</ele>
        <time>2021-09-10T11:14:12.000Z</time>
      </trkpt>
      <trkpt lat="46.93004" lon="3.22471">
        <ele>178.725874</ele>
        <time>2021-09-10T11:14:14.000Z</time>
      </trkpt>
      <trkpt lat="46.92977" lon="3.22486">
        <ele>178.916418</ele>
        <time>2021-09-10T11:14:19.000Z</time>
      </trkpt>
      <trkpt lat="46.92972" lon="3.22488">
        <ele>178.94869</ele>
        <time>2021-09-10T11:14:20.000Z</time>
      </trkpt>
      <trkpt lat="46.92962" lon="3.22494">
        <ele>179.015224</ele>
        <time>2021-09-10T11:14:22.000Z</time>
      </trkpt>
      <trkpt lat="46.92951" lon="3.225">
        <ele>179.082869</ele>
        <time>2021-09-10T11:14:24.000Z</time>
      </trkpt>
      <trkpt lat="46.92934" lon="3.2251">
        <ele>179.187514</ele>
        <time>2021-09-10T11:14:27.000Z</time>
      </trkpt>
      <trkpt lat="46.92928" lon="3.22513">
        <ele>179.223159</ele>
        <time>2021-09-10T11:14:28.000Z</time>
      </trkpt>
      <trkpt lat="46.92916" lon="3.2252">
        <ele>179.297695</ele>
        <time>2021-09-10T11:14:30.000Z</time>
      </trkpt>
      <trkpt lat="46.92894" lon="3.22533">
        <ele>179.430646</ele>
        <time>2021-09-10T11:14:34.000Z</time>
      </trkpt>
      <trkpt lat="46.9289" lon="3.22536">
        <ele>179.457005</ele>
        <time>2021-09-10T11:14:35.000Z</time>
      </trkpt>
      <trkpt lat="46.92886" lon="3.2254">
        <ele>179.485948</ele>
        <time>2021-09-10T11:14:36.000Z</time>
      </trkpt>
      <trkpt lat="46.92875" lon="3.22548">
        <ele>179.557272</ele>
        <time>2021-09-10T11:14:38.000Z</time>
      </trkpt>
      <trkpt lat="46.9285" lon="3.2257">
        <ele>179.722826</ele>
        <time>2021-09-10T11:14:43.000Z</time>
      </trkpt>
      <trkpt lat="46.92818" lon="3.22605">
        <ele>179.956696</ele>
        <time>2021-09-10T11:14:50.000Z</time>
      </trkpt>
      <trkpt lat="46.92789" lon="3.22647">
        <ele>179.959355</ele>
        <time>2021-09-10T11:14:57.000Z</time>
      </trkpt>
      <trkpt lat="46.92785" lon="3.22653">
        <ele>179.95369</ele>
        <time>2021-09-10T11:14:58.000Z</time>
      </trkpt>
      <trkpt lat="46.92778" lon="3.22666">
        <ele>179.942522</ele>
        <time>2021-09-10T11:15:00.000Z</time>
      </trkpt>
      <trkpt lat="46.92775" lon="3.22672">
        <ele>179.936619</ele>
        <time>2021-09-10T11:15:01.000Z</time>
      </trkpt>
      <trkpt lat="46.92771" lon="3.22679">
        <ele>179.930425</ele>
        <time>2021-09-10T11:15:02.000Z</time>
      </trkpt>
      <trkpt lat="46.92753" lon="3.22715">
        <ele>179.899186</ele>
        <time>2021-09-10T11:15:07.000Z</time>
      </trkpt>
      <trkpt lat="46.92734" lon="3.2276">
        <ele>179.862383</ele>
        <time>2021-09-10T11:15:13.000Z</time>
      </trkpt>
      <trkpt lat="46.92727" lon="3.22784">
        <ele>179.844476</ele>
        <time>2021-09-10T11:15:16.000Z</time>
      </trkpt>
      <trkpt lat="46.92723" lon="3.22799">
        <ele>179.832792</ele>
        <time>2021-09-10T11:15:18.000Z</time>
      </trkpt>
      <trkpt lat="46.9271" lon="3.22855">
        <ele>179.720716</ele>
        <time>2021-09-10T11:15:25.000Z</time>
      </trkpt>
      <trkpt lat="46.92707" lon="3.22872">
        <ele>179.661588</ele>
        <time>2021-09-10T11:15:27.000Z</time>
      </trkpt>
      <trkpt lat="46.92703" lon="3.22888">
        <ele>179.60343</ele>
        <time>2021-09-10T11:15:29.000Z</time>
      </trkpt>
      <trkpt lat="46.92694" lon="3.2293">
        <ele>179.456345</ele>
        <time>2021-09-10T11:15:34.000Z</time>
      </trkpt>
      <trkpt lat="46.92693" lon="3.22937">
        <ele>179.428779</ele>
        <time>2021-09-10T11:15:35.000Z</time>
      </trkpt>
      <trkpt lat="46.92687" lon="3.22962">
        <ele>179.342261</ele>
        <time>2021-09-10T11:15:38.000Z</time>
      </trkpt>
      <trkpt lat="46.92684" lon="3.22977">
        <ele>179.289716</ele>
        <time>2021-09-10T11:15:40.000Z</time>
      </trkpt>
      <trkpt lat="46.92681" lon="3.22992">
        <ele>179.234906</ele>
        <time>2021-09-10T11:15:42.000Z</time>
      </trkpt>
      <trkpt lat="46.92674" lon="3.23026">
        <ele>179.113623</ele>
        <time>2021-09-10T11:15:46.000Z</time>
      </trkpt>
      <trkpt lat="46.92667" lon="3.2306">
        <ele>178.992487</ele>
        <time>2021-09-10T11:15:50.000Z</time>
      </trkpt>
      <trkpt lat="46.92661" lon="3.23086">
        <ele>178.912925</ele>
        <time>2021-09-10T11:15:53.000Z</time>
      </trkpt>
      <trkpt lat="46.92658" lon="3.23101">
        <ele>178.893828</ele>
        <time>2021-09-10T11:15:55.000Z</time>
      </trkpt>
      <trkpt lat="46.92656" lon="3.23109">
        <ele>178.883855</ele>
        <time>2021-09-10T11:15:56.000Z</time>
      </trkpt>
      <trkpt lat="46.92654" lon="3.23118">
        <ele>178.873542</ele>
        <time>2021-09-10T11:15:58.000Z</time>
      </trkpt>
      <trkpt lat="46.92649" lon="3.23142">
        <ele>178.842714</ele>
        <time>2021-09-10T11:16:00.000Z</time>
      </trkpt>
      <trkpt lat="46.92646" lon="3.23159">
        <ele>178.82225</ele>
        <time>2021-09-10T11:16:02.000Z</time>
      </trkpt>
      <trkpt lat="46.92643" lon="3.23176">
        <ele>178.801508</ele>
        <time>2021-09-10T11:16:05.000Z</time>
      </trkpt>
      <trkpt lat="46.92627" lon="3.23254">
        <ele>178.70454</ele>
        <time>2021-09-10T11:16:13.000Z</time>
      </trkpt>
      <trkpt lat="46.92624" lon="3.2327">
        <ele>178.683847</ele>
        <time>2021-09-10T11:16:15.000Z</time>
      </trkpt>
      <trkpt lat="46.92621" lon="3.23286">
        <ele>178.66428</ele>
        <time>2021-09-10T11:16:18.000Z</time>
      </trkpt>
      <trkpt lat="46.92618" lon="3.23301">
        <ele>178.645905</ele>
        <time>2021-09-10T11:16:19.000Z</time>
      </trkpt>
      <trkpt lat="46.9261" lon="3.23341">
        <ele>178.599606</ele>
        <time>2021-09-10T11:16:24.000Z</time>
      </trkpt>
      <trkpt lat="46.92607" lon="3.23356">
        <ele>178.587619</ele>
        <time>2021-09-10T11:16:26.000Z</time>
      </trkpt>
      <trkpt lat="46.92601" lon="3.23385">
        <ele>178.564045</ele>
        <time>2021-09-10T11:16:30.000Z</time>
      </trkpt>
      <trkpt lat="46.926" lon="3.23391">
        <ele>178.559503</ele>
        <time>2021-09-10T11:16:31.000Z</time>
      </trkpt>
      <trkpt lat="46.92594" lon="3.23418">
        <ele>178.537748</ele>
        <time>2021-09-10T11:16:35.000Z</time>
      </trkpt>
      <trkpt lat="46.92583" lon="3.23454">
        <ele>178.508083</ele>
        <time>2021-09-10T11:16:40.000Z</time>
      </trkpt>
      <trkpt lat="46.92581" lon="3.23461">
        <ele>178.502145</ele>
        <time>2021-09-10T11:16:41.000Z</time>
      </trkpt>
      <trkpt lat="46.92576" lon="3.23476">
        <ele>178.489418</ele>
        <time>2021-09-10T11:16:43.000Z</time>
      </trkpt>
      <trkpt lat="46.92573" lon="3.23491">
        <ele>178.477147</ele>
        <time>2021-09-10T11:16:45.000Z</time>
      </trkpt>
      <trkpt lat="46.92572" lon="3.235">
        <ele>178.470398</ele>
        <time>2021-09-10T11:16:46.000Z</time>
      </trkpt>
      <trkpt lat="46.92568" lon="3.23523">
        <ele>178.451798</ele>
        <time>2021-09-10T11:16:49.000Z</time>
      </trkpt>
      <trkpt lat="46.92565" lon="3.23531">
        <ele>178.445159</ele>
        <time>2021-09-10T11:16:50.000Z</time>
      </trkpt>
      <trkpt lat="46.92551" lon="3.23569">
        <ele>178.411549</ele>
        <time>2021-09-10T11:16:55.000Z</time>
      </trkpt>
      <trkpt lat="46.92547" lon="3.23576">
        <ele>178.404834</ele>
        <time>2021-09-10T11:16:56.000Z</time>
      </trkpt>
      <trkpt lat="46.92532" lon="3.23605">
        <ele>178.378561</ele>
        <time>2021-09-10T11:17:00.000Z</time>
      </trkpt>
      <trkpt lat="46.92528" lon="3.23612">
        <ele>178.372271</ele>
        <time>2021-09-10T11:17:01.000Z</time>
      </trkpt>
      <trkpt lat="46.92514" lon="3.23639">
        <ele>178.347517</ele>
        <time>2021-09-10T11:17:05.000Z</time>
      </trkpt>
      <trkpt lat="46.92511" lon="3.23645">
        <ele>178.341521</ele>
        <time>2021-09-10T11:17:06.000Z</time>
      </trkpt>
      <trkpt lat="46.92502" lon="3.23658">
        <ele>178.328615</ele>
        <time>2021-09-10T11:17:08.000Z</time>
      </trkpt>
      <trkpt lat="46.92489" lon="3.23677">
        <ele>178.309458</ele>
        <time>2021-09-10T11:17:11.000Z</time>
      </trkpt>
      <trkpt lat="46.92471" lon="3.23699">
        <ele>178.284341</ele>
        <time>2021-09-10T11:17:15.000Z</time>
      </trkpt>
      <trkpt lat="46.92467" lon="3.23704">
        <ele>178.278343</ele>
        <time>2021-09-10T11:17:16.000Z</time>
      </trkpt>
      <trkpt lat="46.92443" lon="3.23731">
        <ele>178.246153</ele>
        <time>2021-09-10T11:17:21.000Z</time>
      </trkpt>
      <trkpt lat="46.92437" lon="3.23735">
        <ele>178.239853</ele>
        <time>2021-09-10T11:17:22.000Z</time>
      </trkpt>
      <trkpt lat="46.92405" lon="3.23761">
        <ele>178.237295</ele>
        <time>2021-09-10T11:17:28.000Z</time>
      </trkpt>
      <trkpt lat="46.92371" lon="3.23783">
        <ele>178.318482</ele>
        <time>2021-09-10T11:17:34.000Z</time>
      </trkpt>
      <trkpt lat="46.9236" lon="3.2379">
        <ele>178.344729</ele>
        <time>2021-09-10T11:17:36.000Z</time>
      </trkpt>
      <trkpt lat="46.92349" lon="3.23797">
        <ele>178.372141</ele>
        <time>2021-09-10T11:17:38.000Z</time>
      </trkpt>
      <trkpt lat="46.92344" lon="3.23801">
        <ele>178.384919</ele>
        <time>2021-09-10T11:17:39.000Z</time>
      </trkpt>
      <trkpt lat="46.92334" lon="3.23808">
        <ele>178.408489</ele>
        <time>2021-09-10T11:17:41.000Z</time>
      </trkpt>
      <trkpt lat="46.92307" lon="3.23827">
        <ele>178.475493</ele>
        <time>2021-09-10T11:17:46.000Z</time>
      </trkpt>
      <trkpt lat="46.92274" lon="3.23851">
        <ele>178.556334</ele>
        <time>2021-09-10T11:17:52.000Z</time>
      </trkpt>
      <trkpt lat="46.92248" lon="3.23869">
        <ele>178.630105</ele>
        <time>2021-09-10T11:17:57.000Z</time>
      </trkpt>
      <trkpt lat="46.92222" lon="3.23888">
        <ele>178.761797</ele>
        <time>2021-09-10T11:18:02.000Z</time>
      </trkpt>
      <trkpt lat="46.92206" lon="3.23899">
        <ele>178.83998</ele>
        <time>2021-09-10T11:18:05.000Z</time>
      </trkpt>
      <trkpt lat="46.92178" lon="3.23919">
        <ele>178.979718</ele>
        <time>2021-09-10T11:18:10.000Z</time>
      </trkpt>
      <trkpt lat="46.92163" lon="3.2393">
        <ele>179.05589</ele>
        <time>2021-09-10T11:18:13.000Z</time>
      </trkpt>
      <trkpt lat="46.92147" lon="3.23941">
        <ele>179.132868</ele>
        <time>2021-09-10T11:18:16.000Z</time>
      </trkpt>
      <trkpt lat="46.92142" lon="3.23944">
        <ele>179.15875</ele>
        <time>2021-09-10T11:18:17.000Z</time>
      </trkpt>
      <trkpt lat="46.92121" lon="3.23959">
        <ele>179.263086</ele>
        <time>2021-09-10T11:18:21.000Z</time>
      </trkpt>
      <trkpt lat="46.92104" lon="3.2397">
        <ele>179.345153</ele>
        <time>2021-09-10T11:18:24.000Z</time>
      </trkpt>
      <trkpt lat="46.92078" lon="3.23986">
        <ele>179.466019</ele>
        <time>2021-09-10T11:18:29.000Z</time>
      </trkpt>
      <trkpt lat="46.92072" lon="3.2399">
        <ele>179.492159</ele>
        <time>2021-09-10T11:18:30.000Z</time>
      </trkpt>
      <trkpt lat="46.9206" lon="3.23997">
        <ele>179.543034</ele>
        <time>2021-09-10T11:18:32.000Z</time>
      </trkpt>
      <trkpt lat="46.92054" lon="3.24">
        <ele>179.567844</ele>
        <time>2021-09-10T11:18:33.000Z</time>
      </trkpt>
      <trkpt lat="46.92026" lon="3.24014">
        <ele>179.685667</ele>
        <time>2021-09-10T11:18:38.000Z</time>
      </trkpt>
      <trkpt lat="46.91997" lon="3.24027">
        <ele>179.803948</ele>
        <time>2021-09-10T11:18:43.000Z</time>
      </trkpt>
      <trkpt lat="46.91991" lon="3.2403">
        <ele>179.828863</ele>
        <time>2021-09-10T11:18:44.000Z</time>
      </trkpt>
      <trkpt lat="46.91975" lon="3.24038">
        <ele>179.895733</ele>
        <time>2021-09-10T11:18:47.000Z</time>
      </trkpt>
      <trkpt lat="46.91953" lon="3.24049">
        <ele>179.988267</ele>
        <time>2021-09-10T11:18:51.000Z</time>
      </trkpt>
      <trkpt lat="46.91935" lon="3.24057">
        <ele>180.060511</ele>
        <time>2021-09-10T11:18:54.000Z</time>
      </trkpt>
      <trkpt lat="46.9191" lon="3.24069">
        <ele>180.105158</ele>
        <time>2021-09-10T11:18:58.000Z</time>
      </trkpt>
      <trkpt lat="46.91887" lon="3.2408">
        <ele>180.05851</ele>
        <time>2021-09-10T11:19:02.000Z</time>
      </trkpt>
      <trkpt lat="46.91882" lon="3.24083">
        <ele>180.047198</ele>
        <time>2021-09-10T11:19:03.000Z</time>
      </trkpt>
      <trkpt lat="46.91859" lon="3.24094">
        <ele>180.00195</ele>
        <time>2021-09-10T11:19:07.000Z</time>
      </trkpt>
      <trkpt lat="46.91853" lon="3.24097">
        <ele>179.990232</ele>
        <time>2021-09-10T11:19:08.000Z</time>
      </trkpt>
      <trkpt lat="46.91842" lon="3.24102">
        <ele>179.966573</ele>
        <time>2021-09-10T11:19:10.000Z</time>
      </trkpt>
      <trkpt lat="46.9183" lon="3.24108">
        <ele>179.94255</ele>
        <time>2021-09-10T11:19:12.000Z</time>
      </trkpt>
      <trkpt lat="46.91817" lon="3.24114">
        <ele>179.917716</ele>
        <time>2021-09-10T11:19:14.000Z</time>
      </trkpt>
      <trkpt lat="46.91807" lon="3.24119">
        <ele>179.895903</ele>
        <time>2021-09-10T11:19:16.000Z</time>
      </trkpt>
      <trkpt lat="46.91801" lon="3.24122">
        <ele>179.884185</ele>
        <time>2021-09-10T11:19:17.000Z</time>
      </trkpt>
      <trkpt lat="46.91789" lon="3.24128">
        <ele>179.859939</ele>
        <time>2021-09-10T11:19:19.000Z</time>
      </trkpt>
      <trkpt lat="46.91759" lon="3.24142">
        <ele>179.799423</ele>
        <time>2021-09-10T11:19:24.000Z</time>
      </trkpt>
      <trkpt lat="46.91723" lon="3.24161">
        <ele>179.620022</ele>
        <time>2021-09-10T11:19:30.000Z</time>
      </trkpt>
      <trkpt lat="46.91718" lon="3.24164">
        <ele>179.586829</ele>
        <time>2021-09-10T11:19:31.000Z</time>
      </trkpt>
      <trkpt lat="46.91701" lon="3.24172">
        <ele>179.483576</ele>
        <time>2021-09-10T11:19:34.000Z</time>
      </trkpt>
      <trkpt lat="46.91677" lon="3.24184">
        <ele>179.33869</ele>
        <time>2021-09-10T11:19:38.000Z</time>
      </trkpt>
      <trkpt lat="46.91666" lon="3.2419">
        <ele>179.269855</ele>
        <time>2021-09-10T11:19:40.000Z</time>
      </trkpt>
      <trkpt lat="46.91654" lon="3.24196">
        <ele>179.198024</ele>
        <time>2021-09-10T11:19:42.000Z</time>
      </trkpt>
      <trkpt lat="46.91615" lon="3.24216">
        <ele>178.956555</ele>
        <time>2021-09-10T11:19:49.000Z</time>
      </trkpt>
      <trkpt lat="46.9161" lon="3.24219">
        <ele>178.923362</ele>
        <time>2021-09-10T11:19:50.000Z</time>
      </trkpt>
      <trkpt lat="46.91594" lon="3.24228">
        <ele>178.824461</ele>
        <time>2021-09-10T11:19:53.000Z</time>
      </trkpt>
      <trkpt lat="46.91555" lon="3.24255">
        <ele>178.667651</ele>
        <time>2021-09-10T11:20:00.000Z</time>
      </trkpt>
      <trkpt lat="46.91534" lon="3.24271">
        <ele>178.610395</ele>
        <time>2021-09-10T11:20:04.000Z</time>
      </trkpt>
      <trkpt lat="46.91529" lon="3.24275">
        <ele>178.595573</ele>
        <time>2021-09-10T11:20:05.000Z</time>
      </trkpt>
      <trkpt lat="46.91518" lon="3.24283">
        <ele>178.565688</ele>
        <time>2021-09-10T11:20:07.000Z</time>
      </trkpt>
      <trkpt lat="46.91508" lon="3.24292">
        <ele>178.537285</ele>
        <time>2021-09-10T11:20:09.000Z</time>
      </trkpt>
      <trkpt lat="46.91483" lon="3.24312">
        <ele>178.466683</ele>
        <time>2021-09-10T11:20:14.000Z</time>
      </trkpt>
      <trkpt lat="46.91478" lon="3.24317">
        <ele>178.45207</ele>
        <time>2021-09-10T11:20:15.000Z</time>
      </trkpt>
      <trkpt lat="46.91469" lon="3.24327">
        <ele>178.424479</ele>
        <time>2021-09-10T11:20:17.000Z</time>
      </trkpt>
      <trkpt lat="46.91459" lon="3.24338">
        <ele>178.393913</ele>
        <time>2021-09-10T11:20:19.000Z</time>
      </trkpt>
      <trkpt lat="46.91446" lon="3.24353">
        <ele>178.352327</ele>
        <time>2021-09-10T11:20:22.000Z</time>
      </trkpt>
      <trkpt lat="46.91441" lon="3.24358">
        <ele>178.33913</ele>
        <time>2021-09-10T11:20:23.000Z</time>
      </trkpt>
      <trkpt lat="46.91437" lon="3.24362">
        <ele>178.325831</ele>
        <time>2021-09-10T11:20:24.000Z</time>
      </trkpt>
      <trkpt lat="46.91429" lon="3.24372">
        <ele>178.300024</ele>
        <time>2021-09-10T11:20:26.000Z</time>
      </trkpt>
      <trkpt lat="46.91424" lon="3.24377">
        <ele>178.303672</ele>
        <time>2021-09-10T11:20:27.000Z</time>
      </trkpt>
      <trkpt lat="46.91411" lon="3.24392">
        <ele>178.348506</ele>
        <time>2021-09-10T11:20:30.000Z</time>
      </trkpt>
      <trkpt lat="46.91406" lon="3.24397">
        <ele>178.363843</ele>
        <time>2021-09-10T11:20:31.000Z</time>
      </trkpt>
      <trkpt lat="46.91392" lon="3.24413">
        <ele>178.410911</ele>
        <time>2021-09-10T11:20:34.000Z</time>
      </trkpt>
      <trkpt lat="46.91387" lon="3.24418">
        <ele>178.426248</ele>
        <time>2021-09-10T11:20:35.000Z</time>
      </trkpt>
      <trkpt lat="46.91379" lon="3.24428">
        <ele>178.455746</ele>
        <time>2021-09-10T11:20:37.000Z</time>
      </trkpt>
      <trkpt lat="46.91374" lon="3.24433">
        <ele>178.469807</ele>
        <time>2021-09-10T11:20:38.000Z</time>
      </trkpt>
      <trkpt lat="46.91364" lon="3.24444">
        <ele>178.502605</ele>
        <time>2021-09-10T11:20:40.000Z</time>
      </trkpt>
      <trkpt lat="46.91355" lon="3.24454">
        <ele>178.534874</ele>
        <time>2021-09-10T11:20:42.000Z</time>
      </trkpt>
      <trkpt lat="46.9135" lon="3.2446">
        <ele>178.551807</ele>
        <time>2021-09-10T11:20:43.000Z</time>
      </trkpt>
      <trkpt lat="46.9134" lon="3.24471">
        <ele>178.584825</ele>
        <time>2021-09-10T11:20:45.000Z</time>
      </trkpt>
      <trkpt lat="46.91331" lon="3.24481">
        <ele>178.613684</ele>
        <time>2021-09-10T11:20:47.000Z</time>
      </trkpt>
      <trkpt lat="46.91319" lon="3.24495">
        <ele>178.654151</ele>
        <time>2021-09-10T11:20:50.000Z</time>
      </trkpt>
      <trkpt lat="46.91315" lon="3.24499">
        <ele>178.668421</ele>
        <time>2021-09-10T11:20:51.000Z</time>
      </trkpt>
      <trkpt lat="46.91306" lon="3.24509">
        <ele>178.697071</ele>
        <time>2021-09-10T11:20:53.000Z</time>
      </trkpt>
      <trkpt lat="46.91297" lon="3.24519">
        <ele>178.726887</ele>
        <time>2021-09-10T11:20:55.000Z</time>
      </trkpt>
      <trkpt lat="46.91282" lon="3.24536">
        <ele>178.784362</ele>
        <time>2021-09-10T11:20:58.000Z</time>
      </trkpt>
      <trkpt lat="46.91273" lon="3.24546">
        <ele>178.844604</ele>
        <time>2021-09-10T11:21:00.000Z</time>
      </trkpt>
      <trkpt lat="46.91265" lon="3.24557">
        <ele>178.904846</ele>
        <time>2021-09-10T11:21:02.000Z</time>
      </trkpt>
      <trkpt lat="46.9126" lon="3.24562">
        <ele>178.937348</ele>
        <time>2021-09-10T11:21:03.000Z</time>
      </trkpt>
      <trkpt lat="46.91251" lon="3.24573">
        <ele>178.998703</ele>
        <time>2021-09-10T11:21:05.000Z</time>
      </trkpt>
      <trkpt lat="46.91246" lon="3.24579">
        <ele>179.030327</ele>
        <time>2021-09-10T11:21:06.000Z</time>
      </trkpt>
      <trkpt lat="46.91238" lon="3.24589">
        <ele>179.090155</ele>
        <time>2021-09-10T11:21:08.000Z</time>
      </trkpt>
      <trkpt lat="46.91229" lon="3.24599">
        <ele>179.14975</ele>
        <time>2021-09-10T11:21:10.000Z</time>
      </trkpt>
      <trkpt lat="46.9122" lon="3.2461">
        <ele>179.214339</ele>
        <time>2021-09-10T11:21:12.000Z</time>
      </trkpt>
      <trkpt lat="46.91206" lon="3.24627">
        <ele>179.31143</ele>
        <time>2021-09-10T11:21:15.000Z</time>
      </trkpt>
      <trkpt lat="46.91201" lon="3.24633">
        <ele>179.343285</ele>
        <time>2021-09-10T11:21:16.000Z</time>
      </trkpt>
      <trkpt lat="46.91182" lon="3.24656">
        <ele>179.479813</ele>
        <time>2021-09-10T11:21:20.000Z</time>
      </trkpt>
      <trkpt lat="46.91177" lon="3.24662">
        <ele>179.513195</ele>
        <time>2021-09-10T11:21:21.000Z</time>
      </trkpt>
      <trkpt lat="46.91167" lon="3.24674">
        <ele>179.581626</ele>
        <time>2021-09-10T11:21:23.000Z</time>
      </trkpt>
      <trkpt lat="46.91162" lon="3.2468">
        <ele>179.616912</ele>
        <time>2021-09-10T11:21:24.000Z</time>
      </trkpt>
      <trkpt lat="46.91151" lon="3.24691">
        <ele>179.685947</ele>
        <time>2021-09-10T11:21:26.000Z</time>
      </trkpt>
      <trkpt lat="46.91141" lon="3.24702">
        <ele>179.761116</ele>
        <time>2021-09-10T11:21:28.000Z</time>
      </trkpt>
      <trkpt lat="46.91118" lon="3.24728">
        <ele>179.989142</ele>
        <time>2021-09-10T11:21:33.000Z</time>
      </trkpt>
      <trkpt lat="46.91113" lon="3.24733">
        <ele>180.030288</ele>
        <time>2021-09-10T11:21:34.000Z</time>
      </trkpt>
      <trkpt lat="46.91109" lon="3.24738">
        <ele>180.075459</ele>
        <time>2021-09-10T11:21:35.000Z</time>
      </trkpt>
      <trkpt lat="46.91094" lon="3.24754">
        <ele>180.21715</ele>
        <time>2021-09-10T11:21:38.000Z</time>
      </trkpt>
      <trkpt lat="46.9108" lon="3.2477">
        <ele>180.353591</ele>
        <time>2021-09-10T11:21:41.000Z</time>
      </trkpt>
      <trkpt lat="46.91075" lon="3.24775">
        <ele>180.396907</ele>
        <time>2021-09-10T11:21:42.000Z</time>
      </trkpt>
      <trkpt lat="46.91052" lon="3.248">
        <ele>180.615955</ele>
        <time>2021-09-10T11:21:47.000Z</time>
      </trkpt>
      <trkpt lat="46.91025" lon="3.24832">
        <ele>180.884009</ele>
        <time>2021-09-10T11:21:54.000Z</time>
      </trkpt>
      <trkpt lat="46.9101" lon="3.2485">
        <ele>181.032658</ele>
        <time>2021-09-10T11:22:00.000Z</time>
      </trkpt>
      <trkpt lat="46.90998" lon="3.24858">
        <ele>181.129573</ele>
        <time>2021-09-10T11:22:05.000Z</time>
      </trkpt>
      <trkpt lat="46.9098" lon="3.24872">
        <ele>181.247436</ele>
        <time>2021-09-10T11:22:10.000Z</time>
      </trkpt>
      <trkpt lat="46.90976" lon="3.24875">
        <ele>181.272401</ele>
        <time>2021-09-10T11:22:11.000Z</time>
      </trkpt>
      <trkpt lat="46.90967" lon="3.24883">
        <ele>181.332029</ele>
        <time>2021-09-10T11:22:13.000Z</time>
      </trkpt>
      <trkpt lat="46.90963" lon="3.24886">
        <ele>181.360799</ele>
        <time>2021-09-10T11:22:14.000Z</time>
      </trkpt>
      <trkpt lat="46.90958" lon="3.2489">
        <ele>181.390961</ele>
        <time>2021-09-10T11:22:15.000Z</time>
      </trkpt>
      <trkpt lat="46.90949" lon="3.24897">
        <ele>181.452169</ele>
        <time>2021-09-10T11:22:17.000Z</time>
      </trkpt>
      <trkpt lat="46.90938" lon="3.24904">
        <ele>181.517714</ele>
        <time>2021-09-10T11:22:19.000Z</time>
      </trkpt>
      <trkpt lat="46.90906" lon="3.2492">
        <ele>181.713882</ele>
        <time>2021-09-10T11:22:25.000Z</time>
      </trkpt>
      <trkpt lat="46.90879" lon="3.24935">
        <ele>181.883713</ele>
        <time>2021-09-10T11:22:30.000Z</time>
      </trkpt>
      <trkpt lat="46.90873" lon="3.24938">
        <ele>181.918479</ele>
        <time>2021-09-10T11:22:31.000Z</time>
      </trkpt>
      <trkpt lat="46.90862" lon="3.24941">
        <ele>181.985827</ele>
        <time>2021-09-10T11:22:33.000Z</time>
      </trkpt>
      <trkpt lat="46.90856" lon="3.24942">
        <ele>182.019184</ele>
        <time>2021-09-10T11:22:34.000Z</time>
      </trkpt>
      <trkpt lat="46.90829" lon="3.24948">
        <ele>182.155267</ele>
        <time>2021-09-10T11:22:39.000Z</time>
      </trkpt>
      <trkpt lat="46.90818" lon="3.24951">
        <ele>182.160608</ele>
        <time>2021-09-10T11:22:41.000Z</time>
      </trkpt>
      <trkpt lat="46.90806" lon="3.24953">
        <ele>182.166251</ele>
        <time>2021-09-10T11:22:43.000Z</time>
      </trkpt>
      <trkpt lat="46.90766" lon="3.24952">
        <ele>182.184839</ele>
        <time>2021-09-10T11:22:50.000Z</time>
      </trkpt>
      <trkpt lat="46.90736" lon="3.24949">
        <ele>182.19863</ele>
        <time>2021-09-10T11:22:55.000Z</time>
      </trkpt>
      <trkpt lat="46.90731" lon="3.24948">
        <ele>182.201334</ele>
        <time>2021-09-10T11:22:56.000Z</time>
      </trkpt>
      <trkpt lat="46.90701" lon="3.2494">
        <ele>182.215136</ele>
        <time>2021-09-10T11:23:01.000Z</time>
      </trkpt>
      <trkpt lat="46.90691" lon="3.24936">
        <ele>182.220272</ele>
        <time>2021-09-10T11:23:03.000Z</time>
      </trkpt>
      <trkpt lat="46.90665" lon="3.24922">
        <ele>182.232977</ele>
        <time>2021-09-10T11:23:08.000Z</time>
      </trkpt>
      <trkpt lat="46.90643" lon="3.24909">
        <ele>182.238636</ele>
        <time>2021-09-10T11:23:12.000Z</time>
      </trkpt>
      <trkpt lat="46.90626" lon="3.24897">
        <ele>182.240281</ele>
        <time>2021-09-10T11:23:15.000Z</time>
      </trkpt>
      <trkpt lat="46.90621" lon="3.24893">
        <ele>182.240785</ele>
        <time>2021-09-10T11:23:16.000Z</time>
      </trkpt>
      <trkpt lat="46.90597" lon="3.24871">
        <ele>182.243233</ele>
        <time>2021-09-10T11:23:21.000Z</time>
      </trkpt>
      <trkpt lat="46.9058" lon="3.24855">
        <ele>182.245047</ele>
        <time>2021-09-10T11:23:25.000Z</time>
      </trkpt>
      <trkpt lat="46.90554" lon="3.24833">
        <ele>182.247644</ele>
        <time>2021-09-10T11:23:30.000Z</time>
      </trkpt>
      <trkpt lat="46.90531" lon="3.24813">
        <ele>182.249943</ele>
        <time>2021-09-10T11:23:34.000Z</time>
      </trkpt>
      <trkpt lat="46.90507" lon="3.24793">
        <ele>182.252431</ele>
        <time>2021-09-10T11:23:39.000Z</time>
      </trkpt>
      <trkpt lat="46.90471" lon="3.24762">
        <ele>182.341634</ele>
        <time>2021-09-10T11:23:46.000Z</time>
      </trkpt>
      <trkpt lat="46.90434" lon="3.24731">
        <ele>182.454429</ele>
        <time>2021-09-10T11:23:53.000Z</time>
      </trkpt>
      <trkpt lat="46.90398" lon="3.24701">
        <ele>182.562345</ele>
        <time>2021-09-10T11:24:00.000Z</time>
      </trkpt>
      <trkpt lat="46.90374" lon="3.2468">
        <ele>182.636156</ele>
        <time>2021-09-10T11:24:05.000Z</time>
      </trkpt>
      <trkpt lat="46.90349" lon="3.24659">
        <ele>182.711457</ele>
        <time>2021-09-10T11:24:10.000Z</time>
      </trkpt>
      <trkpt lat="46.90318" lon="3.24633">
        <ele>182.863964</ele>
        <time>2021-09-10T11:24:16.000Z</time>
      </trkpt>
      <trkpt lat="46.90277" lon="3.24613">
        <ele>183.059499</ele>
        <time>2021-09-10T11:24:23.000Z</time>
      </trkpt>
      <trkpt lat="46.9026" lon="3.24606">
        <ele>183.141072</ele>
        <time>2021-09-10T11:24:26.000Z</time>
      </trkpt>
      <trkpt lat="46.90228" lon="3.24595">
        <ele>183.289055</ele>
        <time>2021-09-10T11:24:32.000Z</time>
      </trkpt>
      <trkpt lat="46.90187" lon="3.24584">
        <ele>183.478472</ele>
        <time>2021-09-10T11:24:39.000Z</time>
      </trkpt>
      <trkpt lat="46.90154" lon="3.24579">
        <ele>183.53084</ele>
        <time>2021-09-10T11:24:45.000Z</time>
      </trkpt>
      <trkpt lat="46.90127" lon="3.24575">
        <ele>183.517284</ele>
        <time>2021-09-10T11:24:50.000Z</time>
      </trkpt>
      <trkpt lat="46.90122" lon="3.24575">
        <ele>183.514712</ele>
        <time>2021-09-10T11:24:51.000Z</time>
      </trkpt>
      <trkpt lat="46.90088" lon="3.24575">
        <ele>183.497741</ele>
        <time>2021-09-10T11:24:57.000Z</time>
      </trkpt>
      <trkpt lat="46.90065" lon="3.24575">
        <ele>183.486807</ele>
        <time>2021-09-10T11:25:01.000Z</time>
      </trkpt>
      <trkpt lat="46.90036" lon="3.24575">
        <ele>183.472459</ele>
        <time>2021-09-10T11:25:06.000Z</time>
      </trkpt>
      <trkpt lat="46.90015" lon="3.24576">
        <ele>183.461772</ele>
        <time>2021-09-10T11:25:10.000Z</time>
      </trkpt>
      <trkpt lat="46.89993" lon="3.24576">
        <ele>183.45014</ele>
        <time>2021-09-10T11:25:14.000Z</time>
      </trkpt>
      <trkpt lat="46.8996" lon="3.24576">
        <ele>183.360919</ele>
        <time>2021-09-10T11:25:20.000Z</time>
      </trkpt>
      <trkpt lat="46.89933" lon="3.24576">
        <ele>183.290286</ele>
        <time>2021-09-10T11:25:25.000Z</time>
      </trkpt>
      <trkpt lat="46.89928" lon="3.24576">
        <ele>183.276743</ele>
        <time>2021-09-10T11:25:26.000Z</time>
      </trkpt>
      <trkpt lat="46.89906" lon="3.24576">
        <ele>183.219121</ele>
        <time>2021-09-10T11:25:30.000Z</time>
      </trkpt>
      <trkpt lat="46.89874" lon="3.24576">
        <ele>183.13229</ele>
        <time>2021-09-10T11:25:36.000Z</time>
      </trkpt>
      <trkpt lat="46.89843" lon="3.24576">
        <ele>183.051566</ele>
        <time>2021-09-10T11:25:41.000Z</time>
      </trkpt>
      <trkpt lat="46.89838" lon="3.24576">
        <ele>183.036962</ele>
        <time>2021-09-10T11:25:42.000Z</time>
      </trkpt>
      <trkpt lat="46.89821" lon="3.24576">
        <ele>182.993148</ele>
        <time>2021-09-10T11:25:45.000Z</time>
      </trkpt>
      <trkpt lat="46.89777" lon="3.24576">
        <ele>182.825121</ele>
        <time>2021-09-10T11:25:53.000Z</time>
      </trkpt>
      <trkpt lat="46.89746" lon="3.24576">
        <ele>182.705831</ele>
        <time>2021-09-10T11:25:59.000Z</time>
      </trkpt>
      <trkpt lat="46.89725" lon="3.24576">
        <ele>182.621021</ele>
        <time>2021-09-10T11:26:04.000Z</time>
      </trkpt>
      <trkpt lat="46.89698" lon="3.24578">
        <ele>182.512762</ele>
        <time>2021-09-10T11:26:10.000Z</time>
      </trkpt>
      <trkpt lat="46.8969" lon="3.24586">
        <ele>182.47518</ele>
        <time>2021-09-10T11:26:13.000Z</time>
      </trkpt>
      <trkpt lat="46.89681" lon="3.24588">
        <ele>182.44043</ele>
        <time>2021-09-10T11:26:14.000Z</time>
      </trkpt>
      <trkpt lat="46.89658" lon="3.24589">
        <ele>182.34878</ele>
        <time>2021-09-10T11:26:18.000Z</time>
      </trkpt>
      <trkpt lat="46.89615" lon="3.24575">
        <ele>182.289532</ele>
        <time>2021-09-10T11:26:26.000Z</time>
      </trkpt>
      <trkpt lat="46.89589" lon="3.24576">
        <ele>182.322731</ele>
        <time>2021-09-10T11:26:31.000Z</time>
      </trkpt>
      <trkpt lat="46.89579" lon="3.24576">
        <ele>182.336499</ele>
        <time>2021-09-10T11:26:33.000Z</time>
      </trkpt>
      <trkpt lat="46.89573" lon="3.24576">
        <ele>182.343448</ele>
        <time>2021-09-10T11:26:34.000Z</time>
      </trkpt>
      <trkpt lat="46.89556" lon="3.24576">
        <ele>182.365451</ele>
        <time>2021-09-10T11:26:37.000Z</time>
      </trkpt>
      <trkpt lat="46.89523" lon="3.24576">
        <ele>182.408172</ele>
        <time>2021-09-10T11:26:43.000Z</time>
      </trkpt>
      <trkpt lat="46.89495" lon="3.24577">
        <ele>182.444073</ele>
        <time>2021-09-10T11:26:48.000Z</time>
      </trkpt>
      <trkpt lat="46.89466" lon="3.24577">
        <ele>182.481261</ele>
        <time>2021-09-10T11:26:53.000Z</time>
      </trkpt>
      <trkpt lat="46.89449" lon="3.24577">
        <ele>182.491226</ele>
        <time>2021-09-10T11:26:56.000Z</time>
      </trkpt>
      <trkpt lat="46.89438" lon="3.24577">
        <ele>182.489613</ele>
        <time>2021-09-10T11:26:58.000Z</time>
      </trkpt>
      <trkpt lat="46.894" lon="3.24578">
        <ele>182.48398</ele>
        <time>2021-09-10T11:27:05.000Z</time>
      </trkpt>
      <trkpt lat="46.8938" lon="3.24579">
        <ele>182.481016</ele>
        <time>2021-09-10T11:27:09.000Z</time>
      </trkpt>
      <trkpt lat="46.8937" lon="3.24579">
        <ele>182.479608</ele>
        <time>2021-09-10T11:27:11.000Z</time>
      </trkpt>
      <trkpt lat="46.89358" lon="3.24579">
        <ele>182.477877</ele>
        <time>2021-09-10T11:27:13.000Z</time>
      </trkpt>
      <trkpt lat="46.89322" lon="3.2458">
        <ele>182.472625</ele>
        <time>2021-09-10T11:27:19.000Z</time>
      </trkpt>
      <trkpt lat="46.89291" lon="3.24581">
        <ele>182.468018</ele>
        <time>2021-09-10T11:27:25.000Z</time>
      </trkpt>
      <trkpt lat="46.89259" lon="3.24582">
        <ele>182.454195</ele>
        <time>2021-09-10T11:27:31.000Z</time>
      </trkpt>
      <trkpt lat="46.89254" lon="3.24583">
        <ele>182.451293</ele>
        <time>2021-09-10T11:27:32.000Z</time>
      </trkpt>
      <trkpt lat="46.89245" lon="3.24583">
        <ele>182.445298</ele>
        <time>2021-09-10T11:27:34.000Z</time>
      </trkpt>
      <trkpt lat="46.8923" lon="3.24583">
        <ele>182.435959</ele>
        <time>2021-09-10T11:27:37.000Z</time>
      </trkpt>
      <trkpt lat="46.89207" lon="3.24584">
        <ele>182.421825</ele>
        <time>2021-09-10T11:27:42.000Z</time>
      </trkpt>
      <trkpt lat="46.89203" lon="3.24584">
        <ele>182.418796</ele>
        <time>2021-09-10T11:27:43.000Z</time>
      </trkpt>
      <trkpt lat="46.89177" lon="3.24585">
        <ele>182.402326</ele>
        <time>2021-09-10T11:27:48.000Z</time>
      </trkpt>
      <trkpt lat="46.89141" lon="3.24586">
        <ele>182.379926</ele>
        <time>2021-09-10T11:27:55.000Z</time>
      </trkpt>
      <trkpt lat="46.89112" lon="3.24587">
        <ele>182.36169</ele>
        <time>2021-09-10T11:28:00.000Z</time>
      </trkpt>
      <trkpt lat="46.89078" lon="3.24588">
        <ele>182.372683</ele>
        <time>2021-09-10T11:28:06.000Z</time>
      </trkpt>
      <trkpt lat="46.89039" lon="3.24589">
        <ele>182.411559</ele>
        <time>2021-09-10T11:28:13.000Z</time>
      </trkpt>
      <trkpt lat="46.89004" lon="3.24592">
        <ele>182.446285</ele>
        <time>2021-09-10T11:28:19.000Z</time>
      </trkpt>
      <trkpt lat="46.88964" lon="3.24614">
        <ele>182.488455</ele>
        <time>2021-09-10T11:28:26.000Z</time>
      </trkpt>
      <trkpt lat="46.88947" lon="3.24624">
        <ele>182.506807</ele>
        <time>2021-09-10T11:28:29.000Z</time>
      </trkpt>
      <trkpt lat="46.88931" lon="3.24639">
        <ele>182.525756</ele>
        <time>2021-09-10T11:28:32.000Z</time>
      </trkpt>
      <trkpt lat="46.88899" lon="3.24679">
        <ele>182.54578</ele>
        <time>2021-09-10T11:28:39.000Z</time>
      </trkpt>
      <trkpt lat="46.88885" lon="3.24715">
        <ele>182.556488</ele>
        <time>2021-09-10T11:28:44.000Z</time>
      </trkpt>
      <trkpt lat="46.8888" lon="3.24729">
        <ele>182.560545</ele>
        <time>2021-09-10T11:28:46.000Z</time>
      </trkpt>
      <trkpt lat="46.88868" lon="3.24767">
        <ele>182.571691</ele>
        <time>2021-09-10T11:28:52.000Z</time>
      </trkpt>
      <trkpt lat="46.88865" lon="3.24771">
        <ele>182.573251</ele>
        <time>2021-09-10T11:28:53.000Z</time>
      </trkpt>
      <trkpt lat="46.88859" lon="3.24787">
        <ele>182.578095</ele>
        <time>2021-09-10T11:28:55.000Z</time>
      </trkpt>
      <trkpt lat="46.88857" lon="3.24794">
        <ele>182.579962</ele>
        <time>2021-09-10T11:28:56.000Z</time>
      </trkpt>
      <trkpt lat="46.88855" lon="3.24802">
        <ele>182.582175</ele>
        <time>2021-09-10T11:28:57.000Z</time>
      </trkpt>
      <trkpt lat="46.88851" lon="3.24826">
        <ele>182.588886</ele>
        <time>2021-09-10T11:29:00.000Z</time>
      </trkpt>
      <trkpt lat="46.88838" lon="3.24896">
        <ele>182.635744</ele>
        <time>2021-09-10T11:29:08.000Z</time>
      </trkpt>
      <trkpt lat="46.88821" lon="3.2496">
        <ele>182.728079</ele>
        <time>2021-09-10T11:29:16.000Z</time>
      </trkpt>
      <trkpt lat="46.88819" lon="3.24968">
        <ele>182.739417</ele>
        <time>2021-09-10T11:29:17.000Z</time>
      </trkpt>
      <trkpt lat="46.88809" lon="3.24999">
        <ele>182.784241</ele>
        <time>2021-09-10T11:29:21.000Z</time>
      </trkpt>
      <trkpt lat="46.88791" lon="3.2505">
        <ele>182.862067</ele>
        <time>2021-09-10T11:29:28.000Z</time>
      </trkpt>
      <trkpt lat="46.8877" lon="3.25107">
        <ele>182.94772</ele>
        <time>2021-09-10T11:29:36.000Z</time>
      </trkpt>
      <trkpt lat="46.88759" lon="3.25133">
        <ele>183.012093</ele>
        <time>2021-09-10T11:29:41.000Z</time>
      </trkpt>
      <trkpt lat="46.8875" lon="3.25152">
        <ele>183.064049</ele>
        <time>2021-09-10T11:29:46.000Z</time>
      </trkpt>
      <trkpt lat="46.88743" lon="3.25161">
        <ele>183.094873</ele>
        <time>2021-09-10T11:29:49.000Z</time>
      </trkpt>
      <trkpt lat="46.88734" lon="3.25169">
        <ele>183.127795</ele>
        <time>2021-09-10T11:29:51.000Z</time>
      </trkpt>
      <trkpt lat="46.8871" lon="3.25201">
        <ele>183.232924</ele>
        <time>2021-09-10T11:29:56.000Z</time>
      </trkpt>
      <trkpt lat="46.88683" lon="3.2523">
        <ele>183.343493</ele>
        <time>2021-09-10T11:30:01.000Z</time>
      </trkpt>
      <trkpt lat="46.88648" lon="3.25259">
        <ele>183.474667</ele>
        <time>2021-09-10T11:30:07.000Z</time>
      </trkpt>
      <trkpt lat="46.88642" lon="3.25264">
        <ele>183.496436</ele>
        <time>2021-09-10T11:30:08.000Z</time>
      </trkpt>
      <trkpt lat="46.8863" lon="3.25274">
        <ele>183.545423</ele>
        <time>2021-09-10T11:30:10.000Z</time>
      </trkpt>
      <trkpt lat="46.88602" lon="3.25298">
        <ele>183.759801</ele>
        <time>2021-09-10T11:30:15.000Z</time>
      </trkpt>
      <trkpt lat="46.88569" lon="3.25326">
        <ele>184.014606</ele>
        <time>2021-09-10T11:30:21.000Z</time>
      </trkpt>
      <trkpt lat="46.88542" lon="3.25348">
        <ele>184.218221</ele>
        <time>2021-09-10T11:30:26.000Z</time>
      </trkpt>
      <trkpt lat="46.88511" lon="3.25374">
        <ele>184.454128</ele>
        <time>2021-09-10T11:30:32.000Z</time>
      </trkpt>
      <trkpt lat="46.88496" lon="3.25387">
        <ele>184.569229</ele>
        <time>2021-09-10T11:30:35.000Z</time>
      </trkpt>
      <trkpt lat="46.88486" lon="3.25395">
        <ele>184.64718</ele>
        <time>2021-09-10T11:30:37.000Z</time>
      </trkpt>
      <trkpt lat="46.88459" lon="3.25416">
        <ele>184.817851</ele>
        <time>2021-09-10T11:30:42.000Z</time>
      </trkpt>
      <trkpt lat="46.88426" lon="3.25445">
        <ele>185.000393</ele>
        <time>2021-09-10T11:30:48.000Z</time>
      </trkpt>
      <trkpt lat="46.88397" lon="3.25479">
        <ele>185.176183</ele>
        <time>2021-09-10T11:30:54.000Z</time>
      </trkpt>
      <trkpt lat="46.88365" lon="3.25516">
        <ele>185.375154</ele>
        <time>2021-09-10T11:31:01.000Z</time>
      </trkpt>
      <trkpt lat="46.88338" lon="3.2555">
        <ele>185.545342</ele>
        <time>2021-09-10T11:31:07.000Z</time>
      </trkpt>
      <trkpt lat="46.88325" lon="3.25567">
        <ele>185.578736</ele>
        <time>2021-09-10T11:31:10.000Z</time>
      </trkpt>
      <trkpt lat="46.88315" lon="3.25579">
        <ele>185.55993</ele>
        <time>2021-09-10T11:31:12.000Z</time>
      </trkpt>
      <trkpt lat="46.88297" lon="3.25601">
        <ele>185.523666</ele>
        <time>2021-09-10T11:31:16.000Z</time>
      </trkpt>
      <trkpt lat="46.88293" lon="3.25606">
        <ele>185.51561</ele>
        <time>2021-09-10T11:31:17.000Z</time>
      </trkpt>
      <trkpt lat="46.88275" lon="3.25629">
        <ele>185.479711</ele>
        <time>2021-09-10T11:31:21.000Z</time>
      </trkpt>
      <trkpt lat="46.88271" lon="3.25635">
        <ele>185.470375</ele>
        <time>2021-09-10T11:31:22.000Z</time>
      </trkpt>
      <trkpt lat="46.88266" lon="3.25641">
        <ele>185.460539</ele>
        <time>2021-09-10T11:31:23.000Z</time>
      </trkpt>
      <trkpt lat="46.88251" lon="3.25659">
        <ele>185.431464</ele>
        <time>2021-09-10T11:31:26.000Z</time>
      </trkpt>
      <trkpt lat="46.88229" lon="3.25688">
        <ele>185.386937</ele>
        <time>2021-09-10T11:31:31.000Z</time>
      </trkpt>
      <trkpt lat="46.88212" lon="3.25711">
        <ele>185.352131</ele>
        <time>2021-09-10T11:31:35.000Z</time>
      </trkpt>
      <trkpt lat="46.88181" lon="3.25752">
        <ele>185.409611</ele>
        <time>2021-09-10T11:31:42.000Z</time>
      </trkpt>
      <trkpt lat="46.88177" lon="3.25758">
        <ele>185.438408</ele>
        <time>2021-09-10T11:31:43.000Z</time>
      </trkpt>
      <trkpt lat="46.88165" lon="3.25774">
        <ele>185.515566</ele>
        <time>2021-09-10T11:31:46.000Z</time>
      </trkpt>
      <trkpt lat="46.88157" lon="3.25784">
        <ele>185.56586</ele>
        <time>2021-09-10T11:31:48.000Z</time>
      </trkpt>
      <trkpt lat="46.88145" lon="3.258">
        <ele>185.64438</ele>
        <time>2021-09-10T11:31:51.000Z</time>
      </trkpt>
      <trkpt lat="46.88141" lon="3.25805">
        <ele>185.668165</ele>
        <time>2021-09-10T11:31:52.000Z</time>
      </trkpt>
      <trkpt lat="46.88134" lon="3.25815">
        <ele>185.715734</ele>
        <time>2021-09-10T11:31:54.000Z</time>
      </trkpt>
      <trkpt lat="46.88126" lon="3.25825">
        <ele>185.762732</ele>
        <time>2021-09-10T11:31:56.000Z</time>
      </trkpt>
      <trkpt lat="46.88118" lon="3.25835">
        <ele>185.81417</ele>
        <time>2021-09-10T11:31:58.000Z</time>
      </trkpt>
      <trkpt lat="46.8811" lon="3.25846">
        <ele>185.867324</ele>
        <time>2021-09-10T11:32:00.000Z</time>
      </trkpt>
      <trkpt lat="46.88101" lon="3.25858">
        <ele>185.922632</ele>
        <time>2021-09-10T11:32:02.000Z</time>
      </trkpt>
      <trkpt lat="46.88097" lon="3.25863">
        <ele>185.949934</ele>
        <time>2021-09-10T11:32:03.000Z</time>
      </trkpt>
      <trkpt lat="46.88073" lon="3.25895">
        <ele>186.104249</ele>
        <time>2021-09-10T11:32:09.000Z</time>
      </trkpt>
      <trkpt lat="46.88047" lon="3.25932">
        <ele>186.179928</ele>
        <time>2021-09-10T11:32:17.000Z</time>
      </trkpt>
      <trkpt lat="46.88037" lon="3.25947">
        <ele>186.183507</ele>
        <time>2021-09-10T11:32:22.000Z</time>
      </trkpt>
      <trkpt lat="46.88036" lon="3.25948">
        <ele>186.183822</ele>
        <time>2021-09-10T11:32:25.000Z</time>
      </trkpt>
      <trkpt lat="46.88025" lon="3.25966">
        <ele>186.18796</ele>
        <time>2021-09-10T11:32:55.000Z</time>
      </trkpt>
      <trkpt lat="46.88011" lon="3.25987">
        <ele>186.192882</ele>
        <time>2021-09-10T11:33:00.000Z</time>
      </trkpt>
      <trkpt lat="46.87984" lon="3.26027">
        <ele>186.202382</ele>
        <time>2021-09-10T11:33:07.000Z</time>
      </trkpt>
      <trkpt lat="46.87959" lon="3.26063">
        <ele>186.211173</ele>
        <time>2021-09-10T11:33:13.000Z</time>
      </trkpt>
      <trkpt lat="46.87939" lon="3.26094">
        <ele>186.218361</ele>
        <time>2021-09-10T11:33:18.000Z</time>
      </trkpt>
      <trkpt lat="46.87936" lon="3.26099">
        <ele>186.202858</ele>
        <time>2021-09-10T11:33:19.000Z</time>
      </trkpt>
      <trkpt lat="46.87917" lon="3.26128">
        <ele>185.830448</ele>
        <time>2021-09-10T11:33:24.000Z</time>
      </trkpt>
      <trkpt lat="46.87897" lon="3.26159">
        <ele>185.443607</ele>
        <time>2021-09-10T11:33:29.000Z</time>
      </trkpt>
      <trkpt lat="46.87883" lon="3.26182">
        <ele>185.1621</ele>
        <time>2021-09-10T11:33:33.000Z</time>
      </trkpt>
      <trkpt lat="46.87875" lon="3.26194">
        <ele>185.010681</ele>
        <time>2021-09-10T11:33:35.000Z</time>
      </trkpt>
      <trkpt lat="46.87868" lon="3.26205">
        <ele>184.866068</ele>
        <time>2021-09-10T11:33:37.000Z</time>
      </trkpt>
      <trkpt lat="46.87851" lon="3.26233">
        <ele>184.522362</ele>
        <time>2021-09-10T11:33:42.000Z</time>
      </trkpt>
      <trkpt lat="46.87844" lon="3.26242">
        <ele>184.399317</ele>
        <time>2021-09-10T11:33:46.000Z</time>
      </trkpt>
      <trkpt lat="46.87839" lon="3.26251">
        <ele>184.289442</ele>
        <time>2021-09-10T11:41:22.000Z</time>
      </trkpt>
      <trkpt lat="46.87837" lon="3.26254">
        <ele>184.248565</ele>
        <time>2021-09-10T11:41:24.000Z</time>
      </trkpt>
      <trkpt lat="46.87828" lon="3.26268">
        <ele>184.074899</ele>
        <time>2021-09-10T11:41:29.000Z</time>
      </trkpt>
      <trkpt lat="46.87822" lon="3.26278">
        <ele>183.952528</ele>
        <time>2021-09-10T11:41:31.000Z</time>
      </trkpt>
      <trkpt lat="46.87812" lon="3.26294">
        <ele>183.776809</ele>
        <time>2021-09-10T11:41:34.000Z</time>
      </trkpt>
      <trkpt lat="46.87811" lon="3.26296">
        <ele>183.762816</ele>
        <time>2021-09-10T11:41:36.000Z</time>
      </trkpt>
      <trkpt lat="46.8781" lon="3.26297">
        <ele>183.759953</ele>
        <time>2021-09-10T11:41:38.000Z</time>
      </trkpt>
      <trkpt lat="46.87813" lon="3.26292">
        <ele>183.733341</ele>
        <time>2021-09-10T11:41:40.000Z</time>
      </trkpt>
      <trkpt lat="46.87814" lon="3.26291">
        <ele>183.728677</ele>
        <time>2021-09-10T11:41:43.000Z</time>
      </trkpt>
      <trkpt lat="46.87811" lon="3.26295">
        <ele>183.708217</ele>
        <time>2021-09-10T11:43:35.000Z</time>
      </trkpt>
      <trkpt lat="46.8781" lon="3.26297">
        <ele>183.697828</ele>
        <time>2021-09-10T11:43:36.000Z</time>
      </trkpt>
      <trkpt lat="46.87803" lon="3.26308">
        <ele>183.630298</ele>
        <time>2021-09-10T11:43:40.000Z</time>
      </trkpt>
      <trkpt lat="46.87801" lon="3.26311">
        <ele>183.613758</ele>
        <time>2021-09-10T11:43:41.000Z</time>
      </trkpt>
      <trkpt lat="46.87795" lon="3.26321">
        <ele>183.5563</ele>
        <time>2021-09-10T11:43:44.000Z</time>
      </trkpt>
      <trkpt lat="46.87779" lon="3.26346">
        <ele>183.409793</ele>
        <time>2021-09-10T11:43:49.000Z</time>
      </trkpt>
      <trkpt lat="46.87764" lon="3.2637">
        <ele>183.26689</ele>
        <time>2021-09-10T11:43:53.000Z</time>
      </trkpt>
      <trkpt lat="46.8776" lon="3.26376">
        <ele>183.229892</ele>
        <time>2021-09-10T11:43:54.000Z</time>
      </trkpt>
      <trkpt lat="46.87752" lon="3.26389">
        <ele>183.157697</ele>
        <time>2021-09-10T11:43:56.000Z</time>
      </trkpt>
      <trkpt lat="46.87745" lon="3.26401">
        <ele>183.088048</ele>
        <time>2021-09-10T11:43:58.000Z</time>
      </trkpt>
      <trkpt lat="46.87729" lon="3.26425">
        <ele>182.943342</ele>
        <time>2021-09-10T11:44:02.000Z</time>
      </trkpt>
      <trkpt lat="46.87721" lon="3.26437">
        <ele>182.87295</ele>
        <time>2021-09-10T11:44:04.000Z</time>
      </trkpt>
      <trkpt lat="46.87689" lon="3.26488">
        <ele>182.741754</ele>
        <time>2021-09-10T11:44:12.000Z</time>
      </trkpt>
      <trkpt lat="46.87667" lon="3.26524">
        <ele>182.929839</ele>
        <time>2021-09-10T11:44:18.000Z</time>
      </trkpt>
      <trkpt lat="46.87647" lon="3.26554">
        <ele>183.092024</ele>
        <time>2021-09-10T11:44:23.000Z</time>
      </trkpt>
      <trkpt lat="46.87621" lon="3.26595">
        <ele>183.30859</ele>
        <time>2021-09-10T11:44:30.000Z</time>
      </trkpt>
      <trkpt lat="46.87617" lon="3.26602">
        <ele>183.341275</ele>
        <time>2021-09-10T11:44:31.000Z</time>
      </trkpt>
      <trkpt lat="46.87602" lon="3.26626">
        <ele>183.470491</ele>
        <time>2021-09-10T11:44:35.000Z</time>
      </trkpt>
      <trkpt lat="46.87595" lon="3.26637">
        <ele>183.529363</ele>
        <time>2021-09-10T11:44:37.000Z</time>
      </trkpt>
      <trkpt lat="46.87583" lon="3.26656">
        <ele>183.627133</ele>
        <time>2021-09-10T11:44:40.000Z</time>
      </trkpt>
      <trkpt lat="46.87575" lon="3.26668">
        <ele>183.690447</ele>
        <time>2021-09-10T11:44:42.000Z</time>
      </trkpt>
      <trkpt lat="46.87563" lon="3.26688">
        <ele>183.761512</ele>
        <time>2021-09-10T11:44:45.000Z</time>
      </trkpt>
      <trkpt lat="46.87536" lon="3.2673">
        <ele>183.918491</ele>
        <time>2021-09-10T11:44:52.000Z</time>
      </trkpt>
      <trkpt lat="46.87533" lon="3.26736">
        <ele>183.939551</ele>
        <time>2021-09-10T11:44:53.000Z</time>
      </trkpt>
      <trkpt lat="46.87525" lon="3.26748">
        <ele>183.984143</ele>
        <time>2021-09-10T11:44:55.000Z</time>
      </trkpt>
      <trkpt lat="46.87518" lon="3.2676">
        <ele>184.027867</ele>
        <time>2021-09-10T11:44:57.000Z</time>
      </trkpt>
      <trkpt lat="46.87495" lon="3.26795">
        <ele>184.160108</ele>
        <time>2021-09-10T11:45:03.000Z</time>
      </trkpt>
      <trkpt lat="46.87472" lon="3.26831">
        <ele>184.291879</ele>
        <time>2021-09-10T11:45:09.000Z</time>
      </trkpt>
      <trkpt lat="46.87469" lon="3.26836">
        <ele>184.309997</ele>
        <time>2021-09-10T11:45:10.000Z</time>
      </trkpt>
      <trkpt lat="46.8746" lon="3.26851">
        <ele>184.365488</ele>
        <time>2021-09-10T11:45:13.000Z</time>
      </trkpt>
      <trkpt lat="46.87436" lon="3.26889">
        <ele>184.364068</ele>
        <time>2021-09-10T11:45:20.000Z</time>
      </trkpt>
      <trkpt lat="46.87414" lon="3.26924">
        <ele>184.324658</ele>
        <time>2021-09-10T11:45:26.000Z</time>
      </trkpt>
      <trkpt lat="46.87398" lon="3.26948">
        <ele>184.297231</ele>
        <time>2021-09-10T11:45:30.000Z</time>
      </trkpt>
      <trkpt lat="46.87387" lon="3.26967">
        <ele>184.276823</ele>
        <time>2021-09-10T11:45:33.000Z</time>
      </trkpt>
      <trkpt lat="46.87369" lon="3.26995">
        <ele>184.245185</ele>
        <time>2021-09-10T11:45:38.000Z</time>
      </trkpt>
      <trkpt lat="46.87365" lon="3.27">
        <ele>184.238776</ele>
        <time>2021-09-10T11:45:39.000Z</time>
      </trkpt>
      <trkpt lat="46.87344" lon="3.27035">
        <ele>184.200118</ele>
        <time>2021-09-10T11:45:45.000Z</time>
      </trkpt>
      <trkpt lat="46.87321" lon="3.27069">
        <ele>184.023492</ele>
        <time>2021-09-10T11:45:52.000Z</time>
      </trkpt>
      <trkpt lat="46.87308" lon="3.27094">
        <ele>183.813215</ele>
        <time>2021-09-10T11:45:58.000Z</time>
      </trkpt>
      <trkpt lat="46.87305" lon="3.27098">
        <ele>183.773305</ele>
        <time>2021-09-10T11:45:59.000Z</time>
      </trkpt>
      <trkpt lat="46.87298" lon="3.27107">
        <ele>183.6806</ele>
        <time>2021-09-10T11:46:01.000Z</time>
      </trkpt>
      <trkpt lat="46.87294" lon="3.27112">
        <ele>183.632253</ele>
        <time>2021-09-10T11:46:02.000Z</time>
      </trkpt>
      <trkpt lat="46.87291" lon="3.27117">
        <ele>183.582268</ele>
        <time>2021-09-10T11:46:03.000Z</time>
      </trkpt>
      <trkpt lat="46.87284" lon="3.27127">
        <ele>183.487208</ele>
        <time>2021-09-10T11:46:05.000Z</time>
      </trkpt>
      <trkpt lat="46.8728" lon="3.27132">
        <ele>183.441214</ele>
        <time>2021-09-10T11:46:06.000Z</time>
      </trkpt>
      <trkpt lat="46.87273" lon="3.27143">
        <ele>183.336793</ele>
        <time>2021-09-10T11:46:08.000Z</time>
      </trkpt>
      <trkpt lat="46.87261" lon="3.2716">
        <ele>183.172057</ele>
        <time>2021-09-10T11:46:11.000Z</time>
      </trkpt>
      <trkpt lat="46.87233" lon="3.27202">
        <ele>182.777748</ele>
        <time>2021-09-10T11:46:18.000Z</time>
      </trkpt>
      <trkpt lat="46.87218" lon="3.27226">
        <ele>182.559812</ele>
        <time>2021-09-10T11:46:22.000Z</time>
      </trkpt>
      <trkpt lat="46.87214" lon="3.27232">
        <ele>182.503675</ele>
        <time>2021-09-10T11:46:23.000Z</time>
      </trkpt>
      <trkpt lat="46.87187" lon="3.27273">
        <ele>182.298844</ele>
        <time>2021-09-10T11:46:30.000Z</time>
      </trkpt>
      <trkpt lat="46.87176" lon="3.2729">
        <ele>182.240851</ele>
        <time>2021-09-10T11:46:33.000Z</time>
      </trkpt>
      <trkpt lat="46.87168" lon="3.27302">
        <ele>182.197479</ele>
        <time>2021-09-10T11:46:35.000Z</time>
      </trkpt>
      <trkpt lat="46.8714" lon="3.27345">
        <ele>182.043759</ele>
        <time>2021-09-10T11:46:42.000Z</time>
      </trkpt>
      <trkpt lat="46.87127" lon="3.2736">
        <ele>181.979581</ele>
        <time>2021-09-10T11:46:45.000Z</time>
      </trkpt>
      <trkpt lat="46.87118" lon="3.2737">
        <ele>181.937667</ele>
        <time>2021-09-10T11:46:47.000Z</time>
      </trkpt>
      <trkpt lat="46.87096" lon="3.27395">
        <ele>181.832787</ele>
        <time>2021-09-10T11:46:52.000Z</time>
      </trkpt>
      <trkpt lat="46.87092" lon="3.274">
        <ele>181.811136</ele>
        <time>2021-09-10T11:46:53.000Z</time>
      </trkpt>
      <trkpt lat="46.87056" lon="3.27433">
        <ele>181.820931</ele>
        <time>2021-09-10T11:47:00.000Z</time>
      </trkpt>
      <trkpt lat="46.87021" lon="3.27454">
        <ele>181.981213</ele>
        <time>2021-09-10T11:47:07.000Z</time>
      </trkpt>
      <trkpt lat="46.86998" lon="3.27469">
        <ele>182.085683</ele>
        <time>2021-09-10T11:47:13.000Z</time>
      </trkpt>
      <trkpt lat="46.86994" lon="3.27471">
        <ele>182.10241</ele>
        <time>2021-09-10T11:47:14.000Z</time>
      </trkpt>
      <trkpt lat="46.86971" lon="3.27487">
        <ele>182.212216</ele>
        <time>2021-09-10T11:47:20.000Z</time>
      </trkpt>
      <trkpt lat="46.86939" lon="3.27509">
        <ele>182.359125</ele>
        <time>2021-09-10T11:47:27.000Z</time>
      </trkpt>
      <trkpt lat="46.86903" lon="3.27539">
        <ele>182.525285</ele>
        <time>2021-09-10T11:47:35.000Z</time>
      </trkpt>
      <trkpt lat="46.86871" lon="3.27574">
        <ele>182.667507</ele>
        <time>2021-09-10T11:47:43.000Z</time>
      </trkpt>
      <trkpt lat="46.86844" lon="3.27617">
        <ele>182.807108</ele>
        <time>2021-09-10T11:47:51.000Z</time>
      </trkpt>
      <trkpt lat="46.86817" lon="3.27662">
        <ele>182.950039</ele>
        <time>2021-09-10T11:47:59.000Z</time>
      </trkpt>
      <trkpt lat="46.86793" lon="3.27712">
        <ele>183.094895</ele>
        <time>2021-09-10T11:48:07.000Z</time>
      </trkpt>
      <trkpt lat="46.86777" lon="3.27748">
        <ele>183.275914</ele>
        <time>2021-09-10T11:48:13.000Z</time>
      </trkpt>
      <trkpt lat="46.86759" lon="3.27788">
        <ele>183.50003</ele>
        <time>2021-09-10T11:48:19.000Z</time>
      </trkpt>
      <trkpt lat="46.86745" lon="3.27822">
        <ele>183.691933</ele>
        <time>2021-09-10T11:48:24.000Z</time>
      </trkpt>
      <trkpt lat="46.86729" lon="3.27858">
        <ele>183.891311</ele>
        <time>2021-09-10T11:48:29.000Z</time>
      </trkpt>
      <trkpt lat="46.86709" lon="3.27906">
        <ele>184.158556</ele>
        <time>2021-09-10T11:48:36.000Z</time>
      </trkpt>
      <trkpt lat="46.86694" lon="3.2794">
        <ele>184.348461</ele>
        <time>2021-09-10T11:48:41.000Z</time>
      </trkpt>
      <trkpt lat="46.8668" lon="3.27973">
        <ele>184.608401</ele>
        <time>2021-09-10T11:48:46.000Z</time>
      </trkpt>
      <trkpt lat="46.86662" lon="3.28015">
        <ele>184.938588</ele>
        <time>2021-09-10T11:48:52.000Z</time>
      </trkpt>
      <trkpt lat="46.86648" lon="3.28039">
        <ele>185.149322</ele>
        <time>2021-09-10T11:48:56.000Z</time>
      </trkpt>
      <trkpt lat="46.86639" lon="3.28059">
        <ele>185.310289</ele>
        <time>2021-09-10T11:48:59.000Z</time>
      </trkpt>
      <trkpt lat="46.8662" lon="3.28097">
        <ele>185.629641</ele>
        <time>2021-09-10T11:49:05.000Z</time>
      </trkpt>
      <trkpt lat="46.86613" lon="3.2811">
        <ele>185.737405</ele>
        <time>2021-09-10T11:49:07.000Z</time>
      </trkpt>
      <trkpt lat="46.86602" lon="3.28129">
        <ele>185.900239</ele>
        <time>2021-09-10T11:49:10.000Z</time>
      </trkpt>
      <trkpt lat="46.86586" lon="3.28171">
        <ele>186.133341</ele>
        <time>2021-09-10T11:49:16.000Z</time>
      </trkpt>
      <trkpt lat="46.86572" lon="3.28212">
        <ele>186.159339</ele>
        <time>2021-09-10T11:49:22.000Z</time>
      </trkpt>
      <trkpt lat="46.86569" lon="3.28219">
        <ele>186.163614</ele>
        <time>2021-09-10T11:49:23.000Z</time>
      </trkpt>
      <trkpt lat="46.86559" lon="3.2825">
        <ele>186.183107</ele>
        <time>2021-09-10T11:49:27.000Z</time>
      </trkpt>
      <trkpt lat="46.86544" lon="3.28303">
        <ele>186.215535</ele>
        <time>2021-09-10T11:49:34.000Z</time>
      </trkpt>
      <trkpt lat="46.86536" lon="3.28332">
        <ele>186.23341</ele>
        <time>2021-09-10T11:49:38.000Z</time>
      </trkpt>
      <trkpt lat="46.86523" lon="3.28377">
        <ele>186.260975</ele>
        <time>2021-09-10T11:49:44.000Z</time>
      </trkpt>
      <trkpt lat="46.86512" lon="3.28412">
        <ele>186.27281</ele>
        <time>2021-09-10T11:49:49.000Z</time>
      </trkpt>
      <trkpt lat="46.86499" lon="3.28454">
        <ele>186.271425</ele>
        <time>2021-09-10T11:49:55.000Z</time>
      </trkpt>
      <trkpt lat="46.86477" lon="3.28494">
        <ele>186.269936</ele>
        <time>2021-09-10T11:50:01.000Z</time>
      </trkpt>
      <trkpt lat="46.86455" lon="3.2853">
        <ele>186.268512</ele>
        <time>2021-09-10T11:50:07.000Z</time>
      </trkpt>
      <trkpt lat="46.86451" lon="3.28536">
        <ele>186.268282</ele>
        <time>2021-09-10T11:50:08.000Z</time>
      </trkpt>
      <trkpt lat="46.86441" lon="3.28552">
        <ele>186.267619</ele>
        <time>2021-09-10T11:50:11.000Z</time>
      </trkpt>
      <trkpt lat="46.86416" lon="3.28585">
        <ele>186.266168</ele>
        <time>2021-09-10T11:50:17.000Z</time>
      </trkpt>
      <trkpt lat="46.86411" lon="3.2859">
        <ele>186.265937</ele>
        <time>2021-09-10T11:50:18.000Z</time>
      </trkpt>
      <trkpt lat="46.86404" lon="3.286">
        <ele>186.259435</ele>
        <time>2021-09-10T11:50:20.000Z</time>
      </trkpt>
      <trkpt lat="46.86396" lon="3.28609">
        <ele>186.208274</ele>
        <time>2021-09-10T11:50:22.000Z</time>
      </trkpt>
      <trkpt lat="46.86384" lon="3.28623">
        <ele>186.128516</ele>
        <time>2021-09-10T11:50:25.000Z</time>
      </trkpt>
      <trkpt lat="46.86377" lon="3.28633">
        <ele>186.078935</ele>
        <time>2021-09-10T11:50:27.000Z</time>
      </trkpt>
      <trkpt lat="46.86363" lon="3.28651">
        <ele>185.980006</ele>
        <time>2021-09-10T11:50:31.000Z</time>
      </trkpt>
      <trkpt lat="46.86355" lon="3.28661">
        <ele>185.923486</ele>
        <time>2021-09-10T11:50:33.000Z</time>
      </trkpt>
      <trkpt lat="46.86328" lon="3.28696">
        <ele>185.738647</ele>
        <time>2021-09-10T11:50:40.000Z</time>
      </trkpt>
      <trkpt lat="46.86316" lon="3.2871">
        <ele>185.659442</ele>
        <time>2021-09-10T11:50:43.000Z</time>
      </trkpt>
      <trkpt lat="46.86309" lon="3.2872">
        <ele>185.609236</ele>
        <time>2021-09-10T11:50:45.000Z</time>
      </trkpt>
      <trkpt lat="46.86301" lon="3.28729">
        <ele>185.557783</ele>
        <time>2021-09-10T11:50:47.000Z</time>
      </trkpt>
      <trkpt lat="46.86285" lon="3.2875">
        <ele>185.444977</ele>
        <time>2021-09-10T11:50:51.000Z</time>
      </trkpt>
      <trkpt lat="46.86265" lon="3.28769">
        <ele>185.347478</ele>
        <time>2021-09-10T11:50:55.000Z</time>
      </trkpt>
      <trkpt lat="46.86261" lon="3.28773">
        <ele>185.381767</ele>
        <time>2021-09-10T11:50:56.000Z</time>
      </trkpt>
      <trkpt lat="46.86231" lon="3.28797">
        <ele>185.608616</ele>
        <time>2021-09-10T11:51:02.000Z</time>
      </trkpt>
      <trkpt lat="46.8622" lon="3.28806">
        <ele>185.688883</ele>
        <time>2021-09-10T11:51:04.000Z</time>
      </trkpt>
      <trkpt lat="46.86207" lon="3.28819">
        <ele>185.795899</ele>
        <time>2021-09-10T11:51:07.000Z</time>
      </trkpt>
      <trkpt lat="46.86197" lon="3.28827">
        <ele>185.869547</ele>
        <time>2021-09-10T11:51:09.000Z</time>
      </trkpt>
      <trkpt lat="46.86187" lon="3.28836">
        <ele>185.945931</ele>
        <time>2021-09-10T11:51:11.000Z</time>
      </trkpt>
      <trkpt lat="46.86163" lon="3.28858">
        <ele>186.137609</ele>
        <time>2021-09-10T11:51:16.000Z</time>
      </trkpt>
      <trkpt lat="46.86158" lon="3.28863">
        <ele>186.173391</ele>
        <time>2021-09-10T11:51:17.000Z</time>
      </trkpt>
      <trkpt lat="46.86154" lon="3.28867">
        <ele>186.208849</ele>
        <time>2021-09-10T11:51:18.000Z</time>
      </trkpt>
      <trkpt lat="46.86145" lon="3.28875">
        <ele>186.277435</ele>
        <time>2021-09-10T11:51:20.000Z</time>
      </trkpt>
      <trkpt lat="46.86124" lon="3.28894">
        <ele>186.445716</ele>
        <time>2021-09-10T11:51:25.000Z</time>
      </trkpt>
      <trkpt lat="46.86107" lon="3.28909">
        <ele>186.563736</ele>
        <time>2021-09-10T11:51:29.000Z</time>
      </trkpt>
      <trkpt lat="46.86102" lon="3.28914">
        <ele>186.595915</ele>
        <time>2021-09-10T11:51:30.000Z</time>
      </trkpt>
      <trkpt lat="46.86066" lon="3.28944">
        <ele>186.805339</ele>
        <time>2021-09-10T11:51:37.000Z</time>
      </trkpt>
      <trkpt lat="46.86052" lon="3.28955">
        <ele>186.886324</ele>
        <time>2021-09-10T11:51:40.000Z</time>
      </trkpt>
      <trkpt lat="46.86048" lon="3.28958">
        <ele>186.91183</ele>
        <time>2021-09-10T11:51:41.000Z</time>
      </trkpt>
      <trkpt lat="46.86043" lon="3.28962">
        <ele>186.937505</ele>
        <time>2021-09-10T11:51:42.000Z</time>
      </trkpt>
      <trkpt lat="46.86034" lon="3.28969">
        <ele>186.989913</ele>
        <time>2021-09-10T11:51:44.000Z</time>
      </trkpt>
      <trkpt lat="46.8603" lon="3.28972">
        <ele>187.011456</ele>
        <time>2021-09-10T11:51:45.000Z</time>
      </trkpt>
      <trkpt lat="46.86027" lon="3.28976">
        <ele>187.034229</ele>
        <time>2021-09-10T11:51:46.000Z</time>
      </trkpt>
      <trkpt lat="46.86016" lon="3.28984">
        <ele>187.09579</ele>
        <time>2021-09-10T11:51:48.000Z</time>
      </trkpt>
      <trkpt lat="46.86001" lon="3.28997">
        <ele>187.186073</ele>
        <time>2021-09-10T11:51:51.000Z</time>
      </trkpt>
      <trkpt lat="46.85993" lon="3.29004">
        <ele>187.233044</ele>
        <time>2021-09-10T11:51:53.000Z</time>
      </trkpt>
      <trkpt lat="46.8599" lon="3.29007">
        <ele>187.252401</ele>
        <time>2021-09-10T11:51:54.000Z</time>
      </trkpt>
      <trkpt lat="46.85975" lon="3.29021">
        <ele>187.33913</ele>
        <time>2021-09-10T11:51:57.000Z</time>
      </trkpt>
      <trkpt lat="46.8594" lon="3.29051">
        <ele>187.407647</ele>
        <time>2021-09-10T11:52:04.000Z</time>
      </trkpt>
      <trkpt lat="46.85926" lon="3.2906">
        <ele>187.38081</ele>
        <time>2021-09-10T11:52:07.000Z</time>
      </trkpt>
      <trkpt lat="46.85917" lon="3.29065">
        <ele>187.363761</ele>
        <time>2021-09-10T11:52:09.000Z</time>
      </trkpt>
      <trkpt lat="46.85896" lon="3.29078">
        <ele>187.325412</ele>
        <time>2021-09-10T11:52:13.000Z</time>
      </trkpt>
      <trkpt lat="46.85891" lon="3.29081">
        <ele>187.316197</ele>
        <time>2021-09-10T11:52:14.000Z</time>
      </trkpt>
      <trkpt lat="46.85857" lon="3.29095">
        <ele>187.252954</ele>
        <time>2021-09-10T11:52:21.000Z</time>
      </trkpt>
      <trkpt lat="46.85826" lon="3.29108">
        <ele>187.197774</ele>
        <time>2021-09-10T11:52:27.000Z</time>
      </trkpt>
      <trkpt lat="46.85796" lon="3.29123">
        <ele>187.14231</ele>
        <time>2021-09-10T11:52:33.000Z</time>
      </trkpt>
      <trkpt lat="46.85778" lon="3.29131">
        <ele>187.143423</ele>
        <time>2021-09-10T11:52:38.000Z</time>
      </trkpt>
      <trkpt lat="46.85759" lon="3.2914">
        <ele>187.165862</ele>
        <time>2021-09-10T11:52:45.000Z</time>
      </trkpt>
      <trkpt lat="46.85747" lon="3.29147">
        <ele>187.180065</ele>
        <time>2021-09-10T11:52:49.000Z</time>
      </trkpt>
      <trkpt lat="46.85726" lon="3.29158">
        <ele>187.204667</ele>
        <time>2021-09-10T11:52:53.000Z</time>
      </trkpt>
      <trkpt lat="46.85703" lon="3.2917">
        <ele>187.231789</ele>
        <time>2021-09-10T11:52:57.000Z</time>
      </trkpt>
      <trkpt lat="46.85699" lon="3.29175">
        <ele>187.237623</ele>
        <time>2021-09-10T11:52:58.000Z</time>
      </trkpt>
      <trkpt lat="46.85669" lon="3.29203">
        <ele>187.278124</ele>
        <time>2021-09-10T11:53:04.000Z</time>
      </trkpt>
      <trkpt lat="46.85654" lon="3.29221">
        <ele>187.299049</ele>
        <time>2021-09-10T11:53:07.000Z</time>
      </trkpt>
      <trkpt lat="46.85645" lon="3.29232">
        <ele>187.312265</ele>
        <time>2021-09-10T11:53:09.000Z</time>
      </trkpt>
      <trkpt lat="46.8562" lon="3.29266">
        <ele>187.404418</ele>
        <time>2021-09-10T11:53:15.000Z</time>
      </trkpt>
      <trkpt lat="46.85595" lon="3.29299">
        <ele>187.540306</ele>
        <time>2021-09-10T11:53:21.000Z</time>
      </trkpt>
      <trkpt lat="46.85574" lon="3.29327">
        <ele>187.658819</ele>
        <time>2021-09-10T11:53:26.000Z</time>
      </trkpt>
      <trkpt lat="46.8557" lon="3.29333">
        <ele>187.680519</ele>
        <time>2021-09-10T11:53:27.000Z</time>
      </trkpt>
      <trkpt lat="46.85567" lon="3.29337">
        <ele>187.700549</ele>
        <time>2021-09-10T11:53:28.000Z</time>
      </trkpt>
      <trkpt lat="46.85551" lon="3.29359">
        <ele>187.789511</ele>
        <time>2021-09-10T11:53:32.000Z</time>
      </trkpt>
      <trkpt lat="46.85539" lon="3.29375">
        <ele>187.855596</ele>
        <time>2021-09-10T11:53:35.000Z</time>
      </trkpt>
      <trkpt lat="46.85531" lon="3.29385">
        <ele>187.89782</ele>
        <time>2021-09-10T11:53:37.000Z</time>
      </trkpt>
      <trkpt lat="46.85527" lon="3.2939">
        <ele>187.919217</ele>
        <time>2021-09-10T11:53:38.000Z</time>
      </trkpt>
      <trkpt lat="46.8551" lon="3.29412">
        <ele>188.012693</ele>
        <time>2021-09-10T11:53:42.000Z</time>
      </trkpt>
      <trkpt lat="46.8548" lon="3.29452">
        <ele>188.189348</ele>
        <time>2021-09-10T11:53:49.000Z</time>
      </trkpt>
      <trkpt lat="46.85456" lon="3.29485">
        <ele>188.338904</ele>
        <time>2021-09-10T11:53:55.000Z</time>
      </trkpt>
      <trkpt lat="46.85435" lon="3.29512">
        <ele>188.462754</ele>
        <time>2021-09-10T11:54:00.000Z</time>
      </trkpt>
      <trkpt lat="46.85431" lon="3.29518">
        <ele>188.489869</ele>
        <time>2021-09-10T11:54:01.000Z</time>
      </trkpt>
      <trkpt lat="46.85422" lon="3.2953">
        <ele>188.544387</ele>
        <time>2021-09-10T11:54:03.000Z</time>
      </trkpt>
      <trkpt lat="46.85414" lon="3.29541">
        <ele>188.592788</ele>
        <time>2021-09-10T11:54:05.000Z</time>
      </trkpt>
      <trkpt lat="46.85402" lon="3.29558">
        <ele>188.667106</ele>
        <time>2021-09-10T11:54:08.000Z</time>
      </trkpt>
      <trkpt lat="46.8539" lon="3.29575">
        <ele>188.742171</ele>
        <time>2021-09-10T11:54:11.000Z</time>
      </trkpt>
      <trkpt lat="46.85366" lon="3.29609">
        <ele>188.932761</ele>
        <time>2021-09-10T11:54:17.000Z</time>
      </trkpt>
      <trkpt lat="46.85358" lon="3.2962">
        <ele>189.115931</ele>
        <time>2021-09-10T11:54:19.000Z</time>
      </trkpt>
      <trkpt lat="46.85345" lon="3.29638">
        <ele>189.398775</ele>
        <time>2021-09-10T11:54:22.000Z</time>
      </trkpt>
      <trkpt lat="46.85325" lon="3.29666">
        <ele>189.848254</ele>
        <time>2021-09-10T11:54:27.000Z</time>
      </trkpt>
      <trkpt lat="46.853" lon="3.29701">
        <ele>190.405474</ele>
        <time>2021-09-10T11:54:33.000Z</time>
      </trkpt>
      <trkpt lat="46.85275" lon="3.29735">
        <ele>190.955391</ele>
        <time>2021-09-10T11:54:39.000Z</time>
      </trkpt>
      <trkpt lat="46.85247" lon="3.29776">
        <ele>191.585343</ele>
        <time>2021-09-10T11:54:46.000Z</time>
      </trkpt>
      <trkpt lat="46.85222" lon="3.29818">
        <ele>191.864834</ele>
        <time>2021-09-10T11:54:53.000Z</time>
      </trkpt>
      <trkpt lat="46.85202" lon="3.29859">
        <ele>191.979343</ele>
        <time>2021-09-10T11:54:59.000Z</time>
      </trkpt>
      <trkpt lat="46.85183" lon="3.2991">
        <ele>192.111426</ele>
        <time>2021-09-10T11:55:06.000Z</time>
      </trkpt>
      <trkpt lat="46.85163" lon="3.29965">
        <ele>192.253924</ele>
        <time>2021-09-10T11:55:14.000Z</time>
      </trkpt>
      <trkpt lat="46.85144" lon="3.30018">
        <ele>192.347965</ele>
        <time>2021-09-10T11:55:21.000Z</time>
      </trkpt>
      <trkpt lat="46.85125" lon="3.30068">
        <ele>192.120773</ele>
        <time>2021-09-10T11:55:28.000Z</time>
      </trkpt>
      <trkpt lat="46.85109" lon="3.30111">
        <ele>191.924435</ele>
        <time>2021-09-10T11:55:34.000Z</time>
      </trkpt>
      <trkpt lat="46.85104" lon="3.30126">
        <ele>191.859081</ele>
        <time>2021-09-10T11:55:36.000Z</time>
      </trkpt>
      <trkpt lat="46.85094" lon="3.30153">
        <ele>191.733353</ele>
        <time>2021-09-10T11:55:40.000Z</time>
      </trkpt>
      <trkpt lat="46.85081" lon="3.30189">
        <ele>191.573827</ele>
        <time>2021-09-10T11:55:45.000Z</time>
      </trkpt>
      <trkpt lat="46.85062" lon="3.30238">
        <ele>191.348244</ele>
        <time>2021-09-10T11:55:52.000Z</time>
      </trkpt>
      <trkpt lat="46.85046" lon="3.30282">
        <ele>190.83571</ele>
        <time>2021-09-10T11:55:58.000Z</time>
      </trkpt>
      <trkpt lat="46.85041" lon="3.30297">
        <ele>190.648413</ele>
        <time>2021-09-10T11:56:00.000Z</time>
      </trkpt>
      <trkpt lat="46.85016" lon="3.30363">
        <ele>189.810442</ele>
        <time>2021-09-10T11:56:09.000Z</time>
      </trkpt>
      <trkpt lat="46.85" lon="3.30407">
        <ele>189.256848</ele>
        <time>2021-09-10T11:56:15.000Z</time>
      </trkpt>
      <trkpt lat="46.84985" lon="3.30451">
        <ele>188.706963</ele>
        <time>2021-09-10T11:56:21.000Z</time>
      </trkpt>
      <trkpt lat="46.84972" lon="3.30487">
        <ele>188.27083</ele>
        <time>2021-09-10T11:56:26.000Z</time>
      </trkpt>
      <trkpt lat="46.84959" lon="3.30523">
        <ele>187.84117</ele>
        <time>2021-09-10T11:56:31.000Z</time>
      </trkpt>
      <trkpt lat="46.8494" lon="3.30576">
        <ele>187.212923</ele>
        <time>2021-09-10T11:56:38.000Z</time>
      </trkpt>
      <trkpt lat="46.84937" lon="3.30584">
        <ele>187.128618</ele>
        <time>2021-09-10T11:56:39.000Z</time>
      </trkpt>
      <trkpt lat="46.84929" lon="3.30607">
        <ele>186.856181</ele>
        <time>2021-09-10T11:56:42.000Z</time>
      </trkpt>
      <trkpt lat="46.8491" lon="3.3066">
        <ele>186.228639</ele>
        <time>2021-09-10T11:56:49.000Z</time>
      </trkpt>
      <trkpt lat="46.84891" lon="3.30713">
        <ele>185.613354</ele>
        <time>2021-09-10T11:56:56.000Z</time>
      </trkpt>
      <trkpt lat="46.84878" lon="3.30751">
        <ele>185.269674</ele>
        <time>2021-09-10T11:57:01.000Z</time>
      </trkpt>
      <trkpt lat="46.8487" lon="3.30773">
        <ele>185.064377</ele>
        <time>2021-09-10T11:57:04.000Z</time>
      </trkpt>
      <trkpt lat="46.84865" lon="3.30789">
        <ele>184.919064</ele>
        <time>2021-09-10T11:57:06.000Z</time>
      </trkpt>
      <trkpt lat="46.84857" lon="3.30811">
        <ele>184.713219</ele>
        <time>2021-09-10T11:57:09.000Z</time>
      </trkpt>
      <trkpt lat="46.84852" lon="3.30826">
        <ele>184.576111</ele>
        <time>2021-09-10T11:57:11.000Z</time>
      </trkpt>
      <trkpt lat="46.84835" lon="3.30874">
        <ele>184.134885</ele>
        <time>2021-09-10T11:57:17.000Z</time>
      </trkpt>
      <trkpt lat="46.84816" lon="3.30929">
        <ele>183.62401</ele>
        <time>2021-09-10T11:57:24.000Z</time>
      </trkpt>
      <trkpt lat="46.84797" lon="3.30982">
        <ele>183.475692</ele>
        <time>2021-09-10T11:57:31.000Z</time>
      </trkpt>
      <trkpt lat="46.84784" lon="3.31011">
        <ele>183.458038</ele>
        <time>2021-09-10T11:57:35.000Z</time>
      </trkpt>
      <trkpt lat="46.84781" lon="3.31018">
        <ele>183.453561</ele>
        <time>2021-09-10T11:57:36.000Z</time>
      </trkpt>
      <trkpt lat="46.84766" lon="3.31052">
        <ele>183.432455</ele>
        <time>2021-09-10T11:57:41.000Z</time>
      </trkpt>
      <trkpt lat="46.84763" lon="3.31059">
        <ele>183.42819</ele>
        <time>2021-09-10T11:57:42.000Z</time>
      </trkpt>
      <trkpt lat="46.84746" lon="3.31101">
        <ele>183.403014</ele>
        <time>2021-09-10T11:57:48.000Z</time>
      </trkpt>
      <trkpt lat="46.84741" lon="3.31113">
        <ele>183.395985</ele>
        <time>2021-09-10T11:57:50.000Z</time>
      </trkpt>
      <trkpt lat="46.84734" lon="3.31129">
        <ele>183.386092</ele>
        <time>2021-09-10T11:57:53.000Z</time>
      </trkpt>
      <trkpt lat="46.84724" lon="3.31151">
        <ele>183.372155</ele>
        <time>2021-09-10T11:57:58.000Z</time>
      </trkpt>
      <trkpt lat="46.84719" lon="3.31161">
        <ele>183.366189</ele>
        <time>2021-09-10T11:58:00.000Z</time>
      </trkpt>
      <trkpt lat="46.84713" lon="3.31173">
        <ele>183.410331</ele>
        <time>2021-09-10T11:58:02.000Z</time>
      </trkpt>
      <trkpt lat="46.84702" lon="3.31195">
        <ele>183.581856</ele>
        <time>2021-09-10T11:58:05.000Z</time>
      </trkpt>
      <trkpt lat="46.84698" lon="3.31202">
        <ele>183.636778</ele>
        <time>2021-09-10T11:58:06.000Z</time>
      </trkpt>
      <trkpt lat="46.84682" lon="3.31232">
        <ele>183.871413</ele>
        <time>2021-09-10T11:58:10.000Z</time>
      </trkpt>
      <trkpt lat="46.84674" lon="3.31246">
        <ele>183.982791</ele>
        <time>2021-09-10T11:58:12.000Z</time>
      </trkpt>
      <trkpt lat="46.84667" lon="3.3126">
        <ele>184.093687</ele>
        <time>2021-09-10T11:58:14.000Z</time>
      </trkpt>
      <trkpt lat="46.84652" lon="3.31286">
        <ele>184.307239</ele>
        <time>2021-09-10T11:58:18.000Z</time>
      </trkpt>
      <trkpt lat="46.84625" lon="3.31336">
        <ele>184.700987</ele>
        <time>2021-09-10T11:58:25.000Z</time>
      </trkpt>
      <trkpt lat="46.84607" lon="3.31368">
        <ele>184.958724</ele>
        <time>2021-09-10T11:58:30.000Z</time>
      </trkpt>
      <trkpt lat="46.84585" lon="3.31408">
        <ele>185.273096</ele>
        <time>2021-09-10T11:58:36.000Z</time>
      </trkpt>
      <trkpt lat="46.84581" lon="3.31414">
        <ele>185.323859</ele>
        <time>2021-09-10T11:58:37.000Z</time>
      </trkpt>
      <trkpt lat="46.84567" lon="3.31441">
        <ele>185.530325</ele>
        <time>2021-09-10T11:58:41.000Z</time>
      </trkpt>
      <trkpt lat="46.84563" lon="3.31447">
        <ele>185.577971</ele>
        <time>2021-09-10T11:58:42.000Z</time>
      </trkpt>
      <trkpt lat="46.84553" lon="3.31465">
        <ele>185.720987</ele>
        <time>2021-09-10T11:58:45.000Z</time>
      </trkpt>
      <trkpt lat="46.84532" lon="3.31503">
        <ele>186.023866</ele>
        <time>2021-09-10T11:58:51.000Z</time>
      </trkpt>
      <trkpt lat="46.84515" lon="3.31534">
        <ele>186.269921</ele>
        <time>2021-09-10T11:58:56.000Z</time>
      </trkpt>
      <trkpt lat="46.84508" lon="3.31547">
        <ele>186.369842</ele>
        <time>2021-09-10T11:58:58.000Z</time>
      </trkpt>
      <trkpt lat="46.84497" lon="3.31567">
        <ele>186.528022</ele>
        <time>2021-09-10T11:59:01.000Z</time>
      </trkpt>
      <trkpt lat="46.8449" lon="3.31581">
        <ele>186.595615</ele>
        <time>2021-09-10T11:59:03.000Z</time>
      </trkpt>
      <trkpt lat="46.84483" lon="3.31593">
        <ele>186.567201</ele>
        <time>2021-09-10T11:59:05.000Z</time>
      </trkpt>
      <trkpt lat="46.84469" lon="3.3162">
        <ele>186.502991</ele>
        <time>2021-09-10T11:59:09.000Z</time>
      </trkpt>
      <trkpt lat="46.84445" lon="3.31662">
        <ele>186.402995</ele>
        <time>2021-09-10T11:59:15.000Z</time>
      </trkpt>
      <trkpt lat="46.84424" lon="3.317">
        <ele>186.312513</ele>
        <time>2021-09-10T11:59:21.000Z</time>
      </trkpt>
      <trkpt lat="46.84417" lon="3.31713">
        <ele>186.281886</ele>
        <time>2021-09-10T11:59:23.000Z</time>
      </trkpt>
      <trkpt lat="46.8441" lon="3.31725">
        <ele>186.251573</ele>
        <time>2021-09-10T11:59:25.000Z</time>
      </trkpt>
      <trkpt lat="46.84406" lon="3.31732">
        <ele>186.235658</ele>
        <time>2021-09-10T11:59:26.000Z</time>
      </trkpt>
      <trkpt lat="46.84391" lon="3.31756">
        <ele>186.175393</ele>
        <time>2021-09-10T11:59:30.000Z</time>
      </trkpt>
      <trkpt lat="46.84387" lon="3.31761">
        <ele>186.161965</ele>
        <time>2021-09-10T11:59:31.000Z</time>
      </trkpt>
      <trkpt lat="46.84375" lon="3.31781">
        <ele>186.122733</ele>
        <time>2021-09-10T11:59:34.000Z</time>
      </trkpt>
      <trkpt lat="46.84367" lon="3.31794">
        <ele>186.155552</ele>
        <time>2021-09-10T11:59:36.000Z</time>
      </trkpt>
      <trkpt lat="46.84341" lon="3.3183">
        <ele>186.248695</ele>
        <time>2021-09-10T11:59:42.000Z</time>
      </trkpt>
      <trkpt lat="46.84337" lon="3.31836">
        <ele>186.263741</ele>
        <time>2021-09-10T11:59:43.000Z</time>
      </trkpt>
      <trkpt lat="46.84321" lon="3.31857">
        <ele>186.32078</ele>
        <time>2021-09-10T11:59:47.000Z</time>
      </trkpt>
      <trkpt lat="46.84317" lon="3.31863">
        <ele>186.335634</ele>
        <time>2021-09-10T11:59:48.000Z</time>
      </trkpt>
      <trkpt lat="46.843" lon="3.31886">
        <ele>186.396397</ele>
        <time>2021-09-10T11:59:52.000Z</time>
      </trkpt>
      <trkpt lat="46.84286" lon="3.31901">
        <ele>186.441053</ele>
        <time>2021-09-10T11:59:55.000Z</time>
      </trkpt>
      <trkpt lat="46.84273" lon="3.31915">
        <ele>186.483694</ele>
        <time>2021-09-10T11:59:58.000Z</time>
      </trkpt>
      <trkpt lat="46.8426" lon="3.31928">
        <ele>186.525599</ele>
        <time>2021-09-10T12:00:01.000Z</time>
      </trkpt>
      <trkpt lat="46.8425" lon="3.31935">
        <ele>186.553838</ele>
        <time>2021-09-10T12:00:03.000Z</time>
      </trkpt>
      <trkpt lat="46.84246" lon="3.31939">
        <ele>186.566741</ele>
        <time>2021-09-10T12:00:04.000Z</time>
      </trkpt>
      <trkpt lat="46.84232" lon="3.31949">
        <ele>186.685519</ele>
        <time>2021-09-10T12:00:07.000Z</time>
      </trkpt>
      <trkpt lat="46.84227" lon="3.31952">
        <ele>186.766384</ele>
        <time>2021-09-10T12:00:08.000Z</time>
      </trkpt>
      <trkpt lat="46.84207" lon="3.31967">
        <ele>187.090689</ele>
        <time>2021-09-10T12:00:12.000Z</time>
      </trkpt>
      <trkpt lat="46.84202" lon="3.31971">
        <ele>187.174576</ele>
        <time>2021-09-10T12:00:13.000Z</time>
      </trkpt>
      <trkpt lat="46.84176" lon="3.3199">
        <ele>187.595742</ele>
        <time>2021-09-10T12:00:18.000Z</time>
      </trkpt>
      <trkpt lat="46.84139" lon="3.32016">
        <ele>188.178195</ele>
        <time>2021-09-10T12:00:25.000Z</time>
      </trkpt>
      <trkpt lat="46.84121" lon="3.3203">
        <ele>188.476554</ele>
        <time>2021-09-10T12:00:29.000Z</time>
      </trkpt>
      <trkpt lat="46.84116" lon="3.32034">
        <ele>188.560441</ele>
        <time>2021-09-10T12:00:30.000Z</time>
      </trkpt>
      <trkpt lat="46.84095" lon="3.32049">
        <ele>188.890389</ele>
        <time>2021-09-10T12:00:34.000Z</time>
      </trkpt>
      <trkpt lat="46.84076" lon="3.32064">
        <ele>189.206497</ele>
        <time>2021-09-10T12:00:38.000Z</time>
      </trkpt>
      <trkpt lat="46.84046" lon="3.32087">
        <ele>189.649543</ele>
        <time>2021-09-10T12:00:44.000Z</time>
      </trkpt>
      <trkpt lat="46.84016" lon="3.32111">
        <ele>190.100535</ele>
        <time>2021-09-10T12:00:50.000Z</time>
      </trkpt>
      <trkpt lat="46.83986" lon="3.32133">
        <ele>190.550369</ele>
        <time>2021-09-10T12:00:56.000Z</time>
      </trkpt>
      <trkpt lat="46.83958" lon="3.32148">
        <ele>190.933859</ele>
        <time>2021-09-10T12:01:01.000Z</time>
      </trkpt>
      <trkpt lat="46.83953" lon="3.32151">
        <ele>191.006046</ele>
        <time>2021-09-10T12:01:02.000Z</time>
      </trkpt>
      <trkpt lat="46.83927" lon="3.32166">
        <ele>191.380856</ele>
        <time>2021-09-10T12:01:08.000Z</time>
      </trkpt>
      <trkpt lat="46.83902" lon="3.32181">
        <ele>191.505955</ele>
        <time>2021-09-10T12:01:14.000Z</time>
      </trkpt>
      <trkpt lat="46.83868" lon="3.32204">
        <ele>191.365784</ele>
        <time>2021-09-10T12:01:22.000Z</time>
      </trkpt>
      <trkpt lat="46.83828" lon="3.32227">
        <ele>191.203061</ele>
        <time>2021-09-10T12:01:31.000Z</time>
      </trkpt>
      <trkpt lat="46.83815" lon="3.32233">
        <ele>191.150341</ele>
        <time>2021-09-10T12:01:34.000Z</time>
      </trkpt>
      <trkpt lat="46.83806" lon="3.32236">
        <ele>191.117734</ele>
        <time>2021-09-10T12:01:36.000Z</time>
      </trkpt>
      <trkpt lat="46.83791" lon="3.32241">
        <ele>191.057262</ele>
        <time>2021-09-10T12:01:40.000Z</time>
      </trkpt>
      <trkpt lat="46.83773" lon="3.32244">
        <ele>190.99164</ele>
        <time>2021-09-10T12:01:45.000Z</time>
      </trkpt>
      <trkpt lat="46.83767" lon="3.32245">
        <ele>190.966481</ele>
        <time>2021-09-10T12:01:48.000Z</time>
      </trkpt>
      <trkpt lat="46.83765" lon="3.32245">
        <ele>190.96116</ele>
        <time>2021-09-10T12:01:49.000Z</time>
      </trkpt>
      <trkpt lat="46.83759" lon="3.32246">
        <ele>190.937127</ele>
        <time>2021-09-10T12:01:54.000Z</time>
      </trkpt>
      <trkpt lat="46.83751" lon="3.32248">
        <ele>190.906617</ele>
        <time>2021-09-10T12:02:01.000Z</time>
      </trkpt>
      <trkpt lat="46.83751" lon="3.32248">
        <ele>190.904332</ele>
        <time>2021-09-10T12:02:03.000Z</time>
      </trkpt>
      <trkpt lat="46.83748" lon="3.32248">
        <ele>190.896321</ele>
        <time>2021-09-10T12:02:05.000Z</time>
      </trkpt>
      <trkpt lat="46.83744" lon="3.32249">
        <ele>190.881049</ele>
        <time>2021-09-10T12:02:08.000Z</time>
      </trkpt>
      <trkpt lat="46.83743" lon="3.32249">
        <ele>190.876046</ele>
        <time>2021-09-10T12:02:09.000Z</time>
      </trkpt>
      <trkpt lat="46.83742" lon="3.3225">
        <ele>190.871713</ele>
        <time>2021-09-10T12:02:10.000Z</time>
      </trkpt>
      <trkpt lat="46.83738" lon="3.3225">
        <ele>190.856354</ele>
        <time>2021-09-10T12:02:14.000Z</time>
      </trkpt>
      <trkpt lat="46.8373" lon="3.32251">
        <ele>190.825834</ele>
        <time>2021-09-10T12:02:19.000Z</time>
      </trkpt>
      <trkpt lat="46.83729" lon="3.32251">
        <ele>190.819579</ele>
        <time>2021-09-10T12:02:20.000Z</time>
      </trkpt>
      <trkpt lat="46.83717" lon="3.32251">
        <ele>190.772659</ele>
        <time>2021-09-10T12:02:28.000Z</time>
      </trkpt>
      <trkpt lat="46.83708" lon="3.32252">
        <ele>190.73825</ele>
        <time>2021-09-10T12:02:36.000Z</time>
      </trkpt>
      <trkpt lat="46.83699" lon="3.32252">
        <ele>190.703834</ele>
        <time>2021-09-10T12:02:41.000Z</time>
      </trkpt>
      <trkpt lat="46.83694" lon="3.32252">
        <ele>190.683491</ele>
        <time>2021-09-10T12:02:43.000Z</time>
      </trkpt>
      <trkpt lat="46.83688" lon="3.32253">
        <ele>190.661184</ele>
        <time>2021-09-10T12:02:45.000Z</time>
      </trkpt>
      <trkpt lat="46.83671" lon="3.32254">
        <ele>190.593091</ele>
        <time>2021-09-10T12:02:51.000Z</time>
      </trkpt>
      <trkpt lat="46.83653" lon="3.32255">
        <ele>190.523448</ele>
        <time>2021-09-10T12:02:58.000Z</time>
      </trkpt>
      <trkpt lat="46.83643" lon="3.32255">
        <ele>190.485921</ele>
        <time>2021-09-10T12:03:01.000Z</time>
      </trkpt>
      <trkpt lat="46.83639" lon="3.32255">
        <ele>190.468722</ele>
        <time>2021-09-10T12:03:02.000Z</time>
      </trkpt>
      <trkpt lat="46.83607" lon="3.32255">
        <ele>190.343242</ele>
        <time>2021-09-10T12:03:08.000Z</time>
      </trkpt>
      <trkpt lat="46.83575" lon="3.3226">
        <ele>190.217352</ele>
        <time>2021-09-10T12:03:14.000Z</time>
      </trkpt>
      <trkpt lat="46.83555" lon="3.32267">
        <ele>190.232633</ele>
        <time>2021-09-10T12:03:18.000Z</time>
      </trkpt>
      <trkpt lat="46.83528" lon="3.3228">
        <ele>190.396552</ele>
        <time>2021-09-10T12:03:23.000Z</time>
      </trkpt>
      <trkpt lat="46.83496" lon="3.32299">
        <ele>190.597415</ele>
        <time>2021-09-10T12:03:29.000Z</time>
      </trkpt>
      <trkpt lat="46.83466" lon="3.32325">
        <ele>190.803488</ele>
        <time>2021-09-10T12:03:35.000Z</time>
      </trkpt>
      <trkpt lat="46.83434" lon="3.3236">
        <ele>191.03243</ele>
        <time>2021-09-10T12:03:42.000Z</time>
      </trkpt>
      <trkpt lat="46.83399" lon="3.32403">
        <ele>191.329473</ele>
        <time>2021-09-10T12:03:50.000Z</time>
      </trkpt>
      <trkpt lat="46.83376" lon="3.32438">
        <ele>191.588979</ele>
        <time>2021-09-10T12:03:56.000Z</time>
      </trkpt>
      <trkpt lat="46.83359" lon="3.32468">
        <ele>191.803317</ele>
        <time>2021-09-10T12:04:01.000Z</time>
      </trkpt>
      <trkpt lat="46.83335" lon="3.32522">
        <ele>192.149345</ele>
        <time>2021-09-10T12:04:08.000Z</time>
      </trkpt>
      <trkpt lat="46.83315" lon="3.32578">
        <ele>192.492271</ele>
        <time>2021-09-10T12:04:15.000Z</time>
      </trkpt>
      <trkpt lat="46.83303" lon="3.32619">
        <ele>192.658919</ele>
        <time>2021-09-10T12:04:20.000Z</time>
      </trkpt>
      <trkpt lat="46.83293" lon="3.32652">
        <ele>192.689394</ele>
        <time>2021-09-10T12:04:24.000Z</time>
      </trkpt>
      <trkpt lat="46.8329" lon="3.32661">
        <ele>192.697208</ele>
        <time>2021-09-10T12:04:25.000Z</time>
      </trkpt>
      <trkpt lat="46.83276" lon="3.32709">
        <ele>192.741018</ele>
        <time>2021-09-10T12:04:31.000Z</time>
      </trkpt>
      <trkpt lat="46.83263" lon="3.32749">
        <ele>192.777719</ele>
        <time>2021-09-10T12:04:36.000Z</time>
      </trkpt>
      <trkpt lat="46.83253" lon="3.32771">
        <ele>192.79967</ele>
        <time>2021-09-10T12:04:39.000Z</time>
      </trkpt>
      <trkpt lat="46.83245" lon="3.32786">
        <ele>192.81531</ele>
        <time>2021-09-10T12:04:41.000Z</time>
      </trkpt>
      <trkpt lat="46.83224" lon="3.32831">
        <ele>192.860788</ele>
        <time>2021-09-10T12:04:47.000Z</time>
      </trkpt>
      <trkpt lat="46.83208" lon="3.32866">
        <ele>192.854827</ele>
        <time>2021-09-10T12:04:52.000Z</time>
      </trkpt>
      <trkpt lat="46.83204" lon="3.32873">
        <ele>192.852852</ele>
        <time>2021-09-10T12:04:53.000Z</time>
      </trkpt>
      <trkpt lat="46.83198" lon="3.32886">
        <ele>192.848759</ele>
        <time>2021-09-10T12:04:55.000Z</time>
      </trkpt>
      <trkpt lat="46.83177" lon="3.32931">
        <ele>192.835361</ele>
        <time>2021-09-10T12:05:02.000Z</time>
      </trkpt>
      <trkpt lat="46.83162" lon="3.32963">
        <ele>192.825689</ele>
        <time>2021-09-10T12:05:07.000Z</time>
      </trkpt>
      <trkpt lat="46.83155" lon="3.32977">
        <ele>192.821556</ele>
        <time>2021-09-10T12:05:09.000Z</time>
      </trkpt>
      <trkpt lat="46.83145" lon="3.32998">
        <ele>192.815345</ele>
        <time>2021-09-10T12:05:12.000Z</time>
      </trkpt>
      <trkpt lat="46.83128" lon="3.33035">
        <ele>192.804166</ele>
        <time>2021-09-10T12:05:18.000Z</time>
      </trkpt>
      <trkpt lat="46.83125" lon="3.33041">
        <ele>192.802212</ele>
        <time>2021-09-10T12:05:19.000Z</time>
      </trkpt>
      <trkpt lat="46.83112" lon="3.33068">
        <ele>192.595201</ele>
        <time>2021-09-10T12:05:23.000Z</time>
      </trkpt>
      <trkpt lat="46.83095" lon="3.3311">
        <ele>192.09822</ele>
        <time>2021-09-10T12:05:29.000Z</time>
      </trkpt>
      <trkpt lat="46.83078" lon="3.33156">
        <ele>191.576411</ele>
        <time>2021-09-10T12:05:35.000Z</time>
      </trkpt>
      <trkpt lat="46.8307" lon="3.33187">
        <ele>191.239681</ele>
        <time>2021-09-10T12:05:39.000Z</time>
      </trkpt>
      <trkpt lat="46.83068" lon="3.33195">
        <ele>191.15562</ele>
        <time>2021-09-10T12:05:40.000Z</time>
      </trkpt>
      <trkpt lat="46.83057" lon="3.33254">
        <ele>190.543881</ele>
        <time>2021-09-10T12:05:47.000Z</time>
      </trkpt>
      <trkpt lat="46.83051" lon="3.33294">
        <ele>190.130862</ele>
        <time>2021-09-10T12:05:52.000Z</time>
      </trkpt>
      <trkpt lat="46.8305" lon="3.33302">
        <ele>190.0434</ele>
        <time>2021-09-10T12:05:53.000Z</time>
      </trkpt>
      <trkpt lat="46.83043" lon="3.33362">
        <ele>189.397543</ele>
        <time>2021-09-10T12:06:00.000Z</time>
      </trkpt>
      <trkpt lat="46.83038" lon="3.33418">
        <ele>188.802228</ele>
        <time>2021-09-10T12:06:06.000Z</time>
      </trkpt>
      <trkpt lat="46.83025" lon="3.3348">
        <ele>188.112177</ele>
        <time>2021-09-10T12:06:13.000Z</time>
      </trkpt>
      <trkpt lat="46.83018" lon="3.33505">
        <ele>187.825645</ele>
        <time>2021-09-10T12:06:16.000Z</time>
      </trkpt>
      <trkpt lat="46.83013" lon="3.33521">
        <ele>187.631937</ele>
        <time>2021-09-10T12:06:18.000Z</time>
      </trkpt>
      <trkpt lat="46.83003" lon="3.33552">
        <ele>187.32531</ele>
        <time>2021-09-10T12:06:22.000Z</time>
      </trkpt>
      <trkpt lat="46.83001" lon="3.33559">
        <ele>187.286429</ele>
        <time>2021-09-10T12:06:23.000Z</time>
      </trkpt>
      <trkpt lat="46.82982" lon="3.33611">
        <ele>187.006987</ele>
        <time>2021-09-10T12:06:30.000Z</time>
      </trkpt>
      <trkpt lat="46.82961" lon="3.3365">
        <ele>186.765219</ele>
        <time>2021-09-10T12:06:36.000Z</time>
      </trkpt>
      <trkpt lat="46.82945" lon="3.33673">
        <ele>186.60587</ele>
        <time>2021-09-10T12:06:40.000Z</time>
      </trkpt>
      <trkpt lat="46.82916" lon="3.33702">
        <ele>186.360931</ele>
        <time>2021-09-10T12:06:46.000Z</time>
      </trkpt>
      <trkpt lat="46.82886" lon="3.33729">
        <ele>186.113812</ele>
        <time>2021-09-10T12:06:52.000Z</time>
      </trkpt>
      <trkpt lat="46.82843" lon="3.33754">
        <ele>186.315304</ele>
        <time>2021-09-10T12:07:00.000Z</time>
      </trkpt>
      <trkpt lat="46.82812" lon="3.33777">
        <ele>186.480487</ele>
        <time>2021-09-10T12:07:06.000Z</time>
      </trkpt>
      <trkpt lat="46.82768" lon="3.33804">
        <ele>186.706306</ele>
        <time>2021-09-10T12:07:14.000Z</time>
      </trkpt>
      <trkpt lat="46.82732" lon="3.33833">
        <ele>186.902392</ele>
        <time>2021-09-10T12:07:21.000Z</time>
      </trkpt>
      <trkpt lat="46.82696" lon="3.33865">
        <ele>187.399279</ele>
        <time>2021-09-10T12:07:28.000Z</time>
      </trkpt>
      <trkpt lat="46.82691" lon="3.33869">
        <ele>187.485586</ele>
        <time>2021-09-10T12:07:29.000Z</time>
      </trkpt>
      <trkpt lat="46.82667" lon="3.33892">
        <ele>187.904573</ele>
        <time>2021-09-10T12:07:34.000Z</time>
      </trkpt>
      <trkpt lat="46.82658" lon="3.33901">
        <ele>188.071183</ele>
        <time>2021-09-10T12:07:36.000Z</time>
      </trkpt>
      <trkpt lat="46.82643" lon="3.33914">
        <ele>188.317969</ele>
        <time>2021-09-10T12:07:39.000Z</time>
      </trkpt>
      <trkpt lat="46.82611" lon="3.33947">
        <ele>188.896945</ele>
        <time>2021-09-10T12:07:46.000Z</time>
      </trkpt>
      <trkpt lat="46.82582" lon="3.33975">
        <ele>189.399813</ele>
        <time>2021-09-10T12:07:52.000Z</time>
      </trkpt>
      <trkpt lat="46.82577" lon="3.3398">
        <ele>189.485985</ele>
        <time>2021-09-10T12:07:53.000Z</time>
      </trkpt>
      <trkpt lat="46.82553" lon="3.34003">
        <ele>189.822721</ele>
        <time>2021-09-10T12:07:58.000Z</time>
      </trkpt>
      <trkpt lat="46.82524" lon="3.34032">
        <ele>190.2056</ele>
        <time>2021-09-10T12:08:04.000Z</time>
      </trkpt>
      <trkpt lat="46.82504" lon="3.34051">
        <ele>190.460853</ele>
        <time>2021-09-10T12:08:08.000Z</time>
      </trkpt>
      <trkpt lat="46.82499" lon="3.34056">
        <ele>190.524666</ele>
        <time>2021-09-10T12:08:09.000Z</time>
      </trkpt>
      <trkpt lat="46.82464" lon="3.3409">
        <ele>190.983157</ele>
        <time>2021-09-10T12:08:16.000Z</time>
      </trkpt>
      <trkpt lat="46.82454" lon="3.341">
        <ele>191.114716</ele>
        <time>2021-09-10T12:08:18.000Z</time>
      </trkpt>
      <trkpt lat="46.8244" lon="3.34114">
        <ele>191.300913</ele>
        <time>2021-09-10T12:08:21.000Z</time>
      </trkpt>
      <trkpt lat="46.824" lon="3.34153">
        <ele>191.566646</ele>
        <time>2021-09-10T12:08:29.000Z</time>
      </trkpt>
      <trkpt lat="46.8237" lon="3.34183">
        <ele>191.616688</ele>
        <time>2021-09-10T12:08:35.000Z</time>
      </trkpt>
      <trkpt lat="46.8233" lon="3.34222">
        <ele>191.682964</ele>
        <time>2021-09-10T12:08:43.000Z</time>
      </trkpt>
      <trkpt lat="46.82296" lon="3.34255">
        <ele>191.737939</ele>
        <time>2021-09-10T12:08:50.000Z</time>
      </trkpt>
      <trkpt lat="46.82261" lon="3.34288">
        <ele>191.656641</ele>
        <time>2021-09-10T12:08:57.000Z</time>
      </trkpt>
      <trkpt lat="46.82222" lon="3.34325">
        <ele>191.240858</ele>
        <time>2021-09-10T12:09:05.000Z</time>
      </trkpt>
      <trkpt lat="46.82189" lon="3.34357">
        <ele>190.884388</ele>
        <time>2021-09-10T12:09:12.000Z</time>
      </trkpt>
      <trkpt lat="46.82161" lon="3.34386">
        <ele>190.571516</ele>
        <time>2021-09-10T12:09:18.000Z</time>
      </trkpt>
      <trkpt lat="46.82125" lon="3.34427">
        <ele>190.161424</ele>
        <time>2021-09-10T12:09:26.000Z</time>
      </trkpt>
      <trkpt lat="46.82098" lon="3.34462">
        <ele>189.797589</ele>
        <time>2021-09-10T12:09:33.000Z</time>
      </trkpt>
      <trkpt lat="46.82076" lon="3.34494">
        <ele>189.481585</ele>
        <time>2021-09-10T12:09:39.000Z</time>
      </trkpt>
      <trkpt lat="46.82055" lon="3.34536">
        <ele>189.116984</ele>
        <time>2021-09-10T12:09:46.000Z</time>
      </trkpt>
      <trkpt lat="46.82028" lon="3.34588">
        <ele>188.666837</ele>
        <time>2021-09-10T12:09:54.000Z</time>
      </trkpt>
      <trkpt lat="46.82003" lon="3.34645">
        <ele>188.232532</ele>
        <time>2021-09-10T12:10:02.000Z</time>
      </trkpt>
      <trkpt lat="46.81989" lon="3.34677">
        <ele>188.040427</ele>
        <time>2021-09-10T12:10:07.000Z</time>
      </trkpt>
      <trkpt lat="46.8197" lon="3.34719">
        <ele>187.790824</ele>
        <time>2021-09-10T12:10:13.000Z</time>
      </trkpt>
      <trkpt lat="46.81954" lon="3.34755">
        <ele>187.574573</ele>
        <time>2021-09-10T12:10:18.000Z</time>
      </trkpt>
      <trkpt lat="46.81951" lon="3.34764">
        <ele>187.526845</ele>
        <time>2021-09-10T12:10:19.000Z</time>
      </trkpt>
      <trkpt lat="46.81938" lon="3.34815">
        <ele>187.252227</ele>
        <time>2021-09-10T12:10:25.000Z</time>
      </trkpt>
      <trkpt lat="46.81937" lon="3.34824">
        <ele>187.209057</ele>
        <time>2021-09-10T12:10:26.000Z</time>
      </trkpt>
      <trkpt lat="46.81935" lon="3.34859">
        <ele>187.035048</ele>
        <time>2021-09-10T12:10:30.000Z</time>
      </trkpt>
      <trkpt lat="46.81935" lon="3.34868">
        <ele>187.010899</ele>
        <time>2021-09-10T12:10:31.000Z</time>
      </trkpt>
      <trkpt lat="46.81937" lon="3.34904">
        <ele>186.964225</ele>
        <time>2021-09-10T12:10:35.000Z</time>
      </trkpt>
      <trkpt lat="46.8194" lon="3.3492">
        <ele>186.942462</ele>
        <time>2021-09-10T12:10:37.000Z</time>
      </trkpt>
      <trkpt lat="46.81946" lon="3.34945">
        <ele>186.908796</ele>
        <time>2021-09-10T12:10:40.000Z</time>
      </trkpt>
      <trkpt lat="46.8195" lon="3.34961">
        <ele>186.887205</ele>
        <time>2021-09-10T12:10:42.000Z</time>
      </trkpt>
      <trkpt lat="46.81957" lon="3.34978">
        <ele>186.862778</ele>
        <time>2021-09-10T12:10:44.000Z</time>
      </trkpt>
      <trkpt lat="46.81982" lon="3.35042">
        <ele>186.767549</ele>
        <time>2021-09-10T12:10:52.000Z</time>
      </trkpt>
      <trkpt lat="46.82001" lon="3.35088">
        <ele>186.698734</ele>
        <time>2021-09-10T12:10:58.000Z</time>
      </trkpt>
      <trkpt lat="46.8203" lon="3.35159">
        <ele>186.36931</ele>
        <time>2021-09-10T12:11:07.000Z</time>
      </trkpt>
      <trkpt lat="46.82053" lon="3.35225">
        <ele>186.037161</ele>
        <time>2021-09-10T12:11:15.000Z</time>
      </trkpt>
      <trkpt lat="46.82064" lon="3.35285">
        <ele>185.755955</ele>
        <time>2021-09-10T12:11:22.000Z</time>
      </trkpt>
      <trkpt lat="46.82066" lon="3.35348">
        <ele>185.45208</ele>
        <time>2021-09-10T12:11:29.000Z</time>
      </trkpt>
      <trkpt lat="46.82061" lon="3.35404">
        <ele>185.018972</ele>
        <time>2021-09-10T12:11:35.000Z</time>
      </trkpt>
      <trkpt lat="46.82047" lon="3.35453">
        <ele>184.603673</ele>
        <time>2021-09-10T12:11:41.000Z</time>
      </trkpt>
      <trkpt lat="46.82026" lon="3.35509">
        <ele>184.10733</ele>
        <time>2021-09-10T12:11:48.000Z</time>
      </trkpt>
      <trkpt lat="46.82001" lon="3.35554">
        <ele>183.660331</ele>
        <time>2021-09-10T12:11:54.000Z</time>
      </trkpt>
      <trkpt lat="46.81974" lon="3.35603">
        <ele>183.508917</ele>
        <time>2021-09-10T12:12:00.000Z</time>
      </trkpt>
      <trkpt lat="46.81946" lon="3.35658">
        <ele>183.590565</ele>
        <time>2021-09-10T12:12:07.000Z</time>
      </trkpt>
      <trkpt lat="46.81932" lon="3.35691">
        <ele>183.637193</ele>
        <time>2021-09-10T12:12:12.000Z</time>
      </trkpt>
      <trkpt lat="46.81925" lon="3.35706">
        <ele>183.65883</ele>
        <time>2021-09-10T12:12:16.000Z</time>
      </trkpt>
      <trkpt lat="46.81914" lon="3.35722">
        <ele>183.686095</ele>
        <time>2021-09-10T12:12:21.000Z</time>
      </trkpt>
      <trkpt lat="46.81897" lon="3.35749">
        <ele>183.729118</ele>
        <time>2021-09-10T12:12:25.000Z</time>
      </trkpt>
      <trkpt lat="46.81873" lon="3.3579">
        <ele>183.76769</ele>
        <time>2021-09-10T12:12:31.000Z</time>
      </trkpt>
      <trkpt lat="46.81838" lon="3.35852">
        <ele>183.700352</ele>
        <time>2021-09-10T12:12:40.000Z</time>
      </trkpt>
      <trkpt lat="46.81822" lon="3.35883">
        <ele>183.666749</ele>
        <time>2021-09-10T12:12:45.000Z</time>
      </trkpt>
      <trkpt lat="46.81818" lon="3.35889">
        <ele>183.660112</ele>
        <time>2021-09-10T12:12:46.000Z</time>
      </trkpt>
      <trkpt lat="46.81799" lon="3.35925">
        <ele>183.62124</ele>
        <time>2021-09-10T12:12:52.000Z</time>
      </trkpt>
      <trkpt lat="46.81782" lon="3.35956">
        <ele>183.587826</ele>
        <time>2021-09-10T12:12:57.000Z</time>
      </trkpt>
      <trkpt lat="46.81755" lon="3.36005">
        <ele>183.571465</ele>
        <time>2021-09-10T12:13:05.000Z</time>
      </trkpt>
      <trkpt lat="46.81733" lon="3.36046">
        <ele>183.601376</ele>
        <time>2021-09-10T12:13:12.000Z</time>
      </trkpt>
      <trkpt lat="46.81718" lon="3.36074">
        <ele>183.621953</ele>
        <time>2021-09-10T12:13:17.000Z</time>
      </trkpt>
      <trkpt lat="46.81712" lon="3.36084">
        <ele>183.629849</ele>
        <time>2021-09-10T12:13:19.000Z</time>
      </trkpt>
      <trkpt lat="46.81694" lon="3.36118">
        <ele>183.654924</ele>
        <time>2021-09-10T12:13:25.000Z</time>
      </trkpt>
      <trkpt lat="46.81668" lon="3.36167">
        <ele>183.690674</ele>
        <time>2021-09-10T12:13:33.000Z</time>
      </trkpt>
      <trkpt lat="46.81655" lon="3.36191">
        <ele>183.708335</ele>
        <time>2021-09-10T12:13:37.000Z</time>
      </trkpt>
      <trkpt lat="46.81645" lon="3.36208">
        <ele>183.773801</ele>
        <time>2021-09-10T12:13:40.000Z</time>
      </trkpt>
      <trkpt lat="46.81626" lon="3.36244">
        <ele>183.910417</ele>
        <time>2021-09-10T12:13:46.000Z</time>
      </trkpt>
      <trkpt lat="46.81602" lon="3.36288">
        <ele>184.081177</ele>
        <time>2021-09-10T12:13:53.000Z</time>
      </trkpt>
      <trkpt lat="46.81575" lon="3.36337">
        <ele>184.27062</ele>
        <time>2021-09-10T12:14:01.000Z</time>
      </trkpt>
      <trkpt lat="46.81555" lon="3.36374">
        <ele>184.410966</ele>
        <time>2021-09-10T12:14:07.000Z</time>
      </trkpt>
      <trkpt lat="46.81529" lon="3.36422">
        <ele>184.643728</ele>
        <time>2021-09-10T12:14:15.000Z</time>
      </trkpt>
      <trkpt lat="46.81506" lon="3.36465">
        <ele>184.894009</ele>
        <time>2021-09-10T12:14:22.000Z</time>
      </trkpt>
      <trkpt lat="46.81488" lon="3.36495">
        <ele>185.075671</ele>
        <time>2021-09-10T12:14:28.000Z</time>
      </trkpt>
      <trkpt lat="46.81474" lon="3.36516">
        <ele>185.210426</ele>
        <time>2021-09-10T12:14:34.000Z</time>
      </trkpt>
      <trkpt lat="46.81463" lon="3.36534">
        <ele>185.31899</ele>
        <time>2021-09-10T12:14:40.000Z</time>
      </trkpt>
      <trkpt lat="46.81451" lon="3.36551">
        <ele>185.430116</ele>
        <time>2021-09-10T12:14:47.000Z</time>
      </trkpt>
      <trkpt lat="46.8144" lon="3.36567">
        <ele>185.533657</ele>
        <time>2021-09-10T12:14:52.000Z</time>
      </trkpt>
      <trkpt lat="46.81431" lon="3.36588">
        <ele>185.646673</ele>
        <time>2021-09-10T12:14:57.000Z</time>
      </trkpt>
      <trkpt lat="46.81423" lon="3.36619">
        <ele>185.80331</ele>
        <time>2021-09-10T12:15:03.000Z</time>
      </trkpt>
      <trkpt lat="46.81407" lon="3.36648">
        <ele>185.980724</ele>
        <time>2021-09-10T12:15:09.000Z</time>
      </trkpt>
      <trkpt lat="46.81401" lon="3.36658">
        <ele>186.0425</ele>
        <time>2021-09-10T12:15:11.000Z</time>
      </trkpt>
      <trkpt lat="46.81392" lon="3.36675">
        <ele>186.146232</ele>
        <time>2021-09-10T12:15:15.000Z</time>
      </trkpt>
      <trkpt lat="46.8139" lon="3.36679">
        <ele>186.169609</ele>
        <time>2021-09-10T12:15:19.000Z</time>
      </trkpt>
      <trkpt lat="46.81386" lon="3.36686">
        <ele>186.213995</ele>
        <time>2021-09-10T12:17:26.000Z</time>
      </trkpt>
      <trkpt lat="46.81383" lon="3.36691">
        <ele>186.245288</ele>
        <time>2021-09-10T12:17:28.000Z</time>
      </trkpt>
      <trkpt lat="46.81375" lon="3.36706">
        <ele>186.339109</ele>
        <time>2021-09-10T12:17:32.000Z</time>
      </trkpt>
      <trkpt lat="46.81357" lon="3.3674">
        <ele>186.543079</ele>
        <time>2021-09-10T12:17:39.000Z</time>
      </trkpt>
      <trkpt lat="46.81344" lon="3.36763">
        <ele>186.686397</ele>
        <time>2021-09-10T12:17:44.000Z</time>
      </trkpt>
      <trkpt lat="46.81327" lon="3.36795">
        <ele>186.882332</ele>
        <time>2021-09-10T12:17:50.000Z</time>
      </trkpt>
      <trkpt lat="46.81306" lon="3.36833">
        <ele>186.943348</ele>
        <time>2021-09-10T12:17:57.000Z</time>
      </trkpt>
      <trkpt lat="46.81294" lon="3.36856">
        <ele>186.933869</ele>
        <time>2021-09-10T12:18:01.000Z</time>
      </trkpt>
      <trkpt lat="46.81288" lon="3.36868">
        <ele>186.928822</ele>
        <time>2021-09-10T12:18:03.000Z</time>
      </trkpt>
      <trkpt lat="46.81268" lon="3.36911">
        <ele>186.912143</ele>
        <time>2021-09-10T12:18:10.000Z</time>
      </trkpt>
      <trkpt lat="46.81257" lon="3.36936">
        <ele>186.90228</ele>
        <time>2021-09-10T12:18:16.000Z</time>
      </trkpt>
      <trkpt lat="46.81251" lon="3.36948">
        <ele>186.897506</ele>
        <time>2021-09-10T12:18:21.000Z</time>
      </trkpt>
      <trkpt lat="46.81244" lon="3.36966">
        <ele>186.890804</ele>
        <time>2021-09-10T12:18:25.000Z</time>
      </trkpt>
      <trkpt lat="46.81241" lon="3.36972">
        <ele>186.888452</ele>
        <time>2021-09-10T12:18:26.000Z</time>
      </trkpt>
      <trkpt lat="46.81234" lon="3.36984">
        <ele>186.883229</ele>
        <time>2021-09-10T12:18:28.000Z</time>
      </trkpt>
      <trkpt lat="46.8123" lon="3.3699">
        <ele>186.880393</ele>
        <time>2021-09-10T12:18:29.000Z</time>
      </trkpt>
      <trkpt lat="46.81219" lon="3.36999">
        <ele>186.874503</ele>
        <time>2021-09-10T12:18:31.000Z</time>
      </trkpt>
      <trkpt lat="46.81206" lon="3.37018">
        <ele>186.839448</ele>
        <time>2021-09-10T12:18:34.000Z</time>
      </trkpt>
      <trkpt lat="46.81184" lon="3.37058">
        <ele>186.647814</ele>
        <time>2021-09-10T12:18:40.000Z</time>
      </trkpt>
      <trkpt lat="46.81155" lon="3.37111">
        <ele>186.399576</ele>
        <time>2021-09-10T12:18:48.000Z</time>
      </trkpt>
      <trkpt lat="46.81128" lon="3.37159">
        <ele>186.174921</ele>
        <time>2021-09-10T12:18:55.000Z</time>
      </trkpt>
      <trkpt lat="46.81098" lon="3.37214">
        <ele>185.917295</ele>
        <time>2021-09-10T12:19:03.000Z</time>
      </trkpt>
      <trkpt lat="46.81087" lon="3.37234">
        <ele>185.818664</ele>
        <time>2021-09-10T12:19:06.000Z</time>
      </trkpt>
      <trkpt lat="46.81077" lon="3.37253">
        <ele>185.723546</ele>
        <time>2021-09-10T12:19:09.000Z</time>
      </trkpt>
      <trkpt lat="46.81063" lon="3.37279">
        <ele>185.598241</ele>
        <time>2021-09-10T12:19:13.000Z</time>
      </trkpt>
      <trkpt lat="46.81053" lon="3.37297">
        <ele>185.506056</ele>
        <time>2021-09-10T12:19:17.000Z</time>
      </trkpt>
      <trkpt lat="46.81042" lon="3.37318">
        <ele>185.404819</ele>
        <time>2021-09-10T12:19:23.000Z</time>
      </trkpt>
      <trkpt lat="46.81032" lon="3.37335">
        <ele>185.317741</ele>
        <time>2021-09-10T12:19:27.000Z</time>
      </trkpt>
      <trkpt lat="46.81016" lon="3.37367">
        <ele>185.163894</ele>
        <time>2021-09-10T12:19:32.000Z</time>
      </trkpt>
      <trkpt lat="46.81" lon="3.374">
        <ele>185.00752</ele>
        <time>2021-09-10T12:19:37.000Z</time>
      </trkpt>
      <trkpt lat="46.80994" lon="3.37415">
        <ele>184.93985</ele>
        <time>2021-09-10T12:19:39.000Z</time>
      </trkpt>
      <trkpt lat="46.80987" lon="3.37441">
        <ele>184.850251</ele>
        <time>2021-09-10T12:19:42.000Z</time>
      </trkpt>
      <trkpt lat="46.80982" lon="3.37468">
        <ele>184.777467</ele>
        <time>2021-09-10T12:19:45.000Z</time>
      </trkpt>
      <trkpt lat="46.80982" lon="3.37487">
        <ele>184.729008</ele>
        <time>2021-09-10T12:19:47.000Z</time>
      </trkpt>
      <trkpt lat="46.80987" lon="3.37522">
        <ele>184.637725</ele>
        <time>2021-09-10T12:19:51.000Z</time>
      </trkpt>
      <trkpt lat="46.8099" lon="3.3753">
        <ele>184.615197</ele>
        <time>2021-09-10T12:19:52.000Z</time>
      </trkpt>
      <trkpt lat="46.81008" lon="3.37571">
        <ele>184.487828</ele>
        <time>2021-09-10T12:19:58.000Z</time>
      </trkpt>
      <trkpt lat="46.81026" lon="3.37602">
        <ele>184.385418</ele>
        <time>2021-09-10T12:20:03.000Z</time>
      </trkpt>
      <trkpt lat="46.81029" lon="3.37607">
        <ele>184.368314</ele>
        <time>2021-09-10T12:20:04.000Z</time>
      </trkpt>
      <trkpt lat="46.81047" lon="3.37636">
        <ele>184.266322</ele>
        <time>2021-09-10T12:20:10.000Z</time>
      </trkpt>
      <trkpt lat="46.81053" lon="3.37644">
        <ele>184.237479</ele>
        <time>2021-09-10T12:20:12.000Z</time>
      </trkpt>
      <trkpt lat="46.81057" lon="3.37652">
        <ele>184.214339</ele>
        <time>2021-09-10T12:20:14.000Z</time>
      </trkpt>
      <trkpt lat="46.81076" lon="3.37681">
        <ele>184.324763</ele>
        <time>2021-09-10T12:20:20.000Z</time>
      </trkpt>
      <trkpt lat="46.81089" lon="3.37701">
        <ele>184.402612</ele>
        <time>2021-09-10T12:20:25.000Z</time>
      </trkpt>
      <trkpt lat="46.81108" lon="3.37726">
        <ele>184.50583</ele>
        <time>2021-09-10T12:20:31.000Z</time>
      </trkpt>
      <trkpt lat="46.81112" lon="3.37728">
        <ele>184.523085</ele>
        <time>2021-09-10T12:20:32.000Z</time>
      </trkpt>
      <trkpt lat="46.81125" lon="3.37735">
        <ele>184.576102</ele>
        <time>2021-09-10T12:20:35.000Z</time>
      </trkpt>
      <trkpt lat="46.81137" lon="3.3775">
        <ele>184.638794</ele>
        <time>2021-09-10T12:20:38.000Z</time>
      </trkpt>
      <trkpt lat="46.81144" lon="3.3776">
        <ele>184.681239</ele>
        <time>2021-09-10T12:20:40.000Z</time>
      </trkpt>
      <trkpt lat="46.81173" lon="3.37797">
        <ele>184.835479</ele>
        <time>2021-09-10T12:20:47.000Z</time>
      </trkpt>
      <trkpt lat="46.8121" lon="3.3785">
        <ele>184.831807</ele>
        <time>2021-09-10T12:20:56.000Z</time>
      </trkpt>
      <trkpt lat="46.81236" lon="3.37887">
        <ele>184.680144</ele>
        <time>2021-09-10T12:21:03.000Z</time>
      </trkpt>
      <trkpt lat="46.81265" lon="3.37935">
        <ele>184.498811</ele>
        <time>2021-09-10T12:21:11.000Z</time>
      </trkpt>
      <trkpt lat="46.81284" lon="3.37975">
        <ele>184.3599</ele>
        <time>2021-09-10T12:21:17.000Z</time>
      </trkpt>
      <trkpt lat="46.81302" lon="3.38018">
        <ele>184.215865</ele>
        <time>2021-09-10T12:21:23.000Z</time>
      </trkpt>
      <trkpt lat="46.81317" lon="3.38071">
        <ele>183.765406</ele>
        <time>2021-09-10T12:21:30.000Z</time>
      </trkpt>
      <trkpt lat="46.81327" lon="3.38119">
        <ele>183.324746</ele>
        <time>2021-09-10T12:21:36.000Z</time>
      </trkpt>
      <trkpt lat="46.81338" lon="3.38175">
        <ele>182.817178</ele>
        <time>2021-09-10T12:21:43.000Z</time>
      </trkpt>
      <trkpt lat="46.81347" lon="3.38224">
        <ele>182.36582</ele>
        <time>2021-09-10T12:21:49.000Z</time>
      </trkpt>
      <trkpt lat="46.81356" lon="3.38274">
        <ele>181.909382</ele>
        <time>2021-09-10T12:21:55.000Z</time>
      </trkpt>
      <trkpt lat="46.81364" lon="3.38314">
        <ele>181.894797</ele>
        <time>2021-09-10T12:22:00.000Z</time>
      </trkpt>
      <trkpt lat="46.81377" lon="3.38374">
        <ele>181.910093</ele>
        <time>2021-09-10T12:22:07.000Z</time>
      </trkpt>
      <trkpt lat="46.81396" lon="3.38436">
        <ele>181.927065</ele>
        <time>2021-09-10T12:22:15.000Z</time>
      </trkpt>
      <trkpt lat="46.81415" lon="3.38488">
        <ele>181.94128</ele>
        <time>2021-09-10T12:22:22.000Z</time>
      </trkpt>
      <trkpt lat="46.81438" lon="3.38548">
        <ele>181.950424</ele>
        <time>2021-09-10T12:22:30.000Z</time>
      </trkpt>
      <trkpt lat="46.81457" lon="3.38595">
        <ele>181.951362</ele>
        <time>2021-09-10T12:22:36.000Z</time>
      </trkpt>
      <trkpt lat="46.81482" lon="3.3866">
        <ele>181.952646</ele>
        <time>2021-09-10T12:22:44.000Z</time>
      </trkpt>
      <trkpt lat="46.815" lon="3.38708">
        <ele>181.953594</ele>
        <time>2021-09-10T12:22:50.000Z</time>
      </trkpt>
      <trkpt lat="46.81515" lon="3.38757">
        <ele>181.9621</ele>
        <time>2021-09-10T12:22:56.000Z</time>
      </trkpt>
      <trkpt lat="46.81526" lon="3.38817">
        <ele>182.014389</ele>
        <time>2021-09-10T12:23:03.000Z</time>
      </trkpt>
      <trkpt lat="46.81535" lon="3.38868">
        <ele>182.058317</ele>
        <time>2021-09-10T12:23:09.000Z</time>
      </trkpt>
      <trkpt lat="46.81541" lon="3.38932">
        <ele>182.113081</ele>
        <time>2021-09-10T12:23:16.000Z</time>
      </trkpt>
      <trkpt lat="46.81546" lon="3.38985">
        <ele>182.157905</ele>
        <time>2021-09-10T12:23:22.000Z</time>
      </trkpt>
      <trkpt lat="46.81547" lon="3.39003">
        <ele>182.173224</ele>
        <time>2021-09-10T12:23:24.000Z</time>
      </trkpt>
      <trkpt lat="46.81549" lon="3.3902">
        <ele>182.20447</ele>
        <time>2021-09-10T12:23:26.000Z</time>
      </trkpt>
      <trkpt lat="46.81555" lon="3.39085">
        <ele>182.339244</ele>
        <time>2021-09-10T12:23:33.000Z</time>
      </trkpt>
      <trkpt lat="46.81559" lon="3.39135">
        <ele>182.441295</ele>
        <time>2021-09-10T12:23:39.000Z</time>
      </trkpt>
      <trkpt lat="46.81564" lon="3.39196">
        <ele>182.566511</ele>
        <time>2021-09-10T12:23:46.000Z</time>
      </trkpt>
      <trkpt lat="46.8157" lon="3.39257">
        <ele>182.690717</ele>
        <time>2021-09-10T12:23:53.000Z</time>
      </trkpt>
      <trkpt lat="46.81575" lon="3.39315">
        <ele>183.165426</ele>
        <time>2021-09-10T12:24:00.000Z</time>
      </trkpt>
      <trkpt lat="46.81581" lon="3.39363">
        <ele>183.624221</ele>
        <time>2021-09-10T12:24:06.000Z</time>
      </trkpt>
      <trkpt lat="46.81583" lon="3.39378">
        <ele>183.762416</ele>
        <time>2021-09-10T12:24:08.000Z</time>
      </trkpt>
      <trkpt lat="46.81585" lon="3.39396">
        <ele>183.933413</ele>
        <time>2021-09-10T12:24:11.000Z</time>
      </trkpt>
      <trkpt lat="46.81587" lon="3.39421">
        <ele>184.167053</ele>
        <time>2021-09-10T12:24:17.000Z</time>
      </trkpt>
      <trkpt lat="46.81589" lon="3.39442">
        <ele>184.366053</ele>
        <time>2021-09-10T12:24:24.000Z</time>
      </trkpt>
      <trkpt lat="46.81592" lon="3.39466">
        <ele>184.592515</ele>
        <time>2021-09-10T12:24:28.000Z</time>
      </trkpt>
      <trkpt lat="46.81595" lon="3.39512">
        <ele>185.019689</ele>
        <time>2021-09-10T12:24:33.000Z</time>
      </trkpt>
      <trkpt lat="46.816" lon="3.39583">
        <ele>185.026147</ele>
        <time>2021-09-10T12:24:40.000Z</time>
      </trkpt>
      <trkpt lat="46.81604" lon="3.39637">
        <ele>184.902841</ele>
        <time>2021-09-10T12:24:46.000Z</time>
      </trkpt>
      <trkpt lat="46.81608" lon="3.3969">
        <ele>184.779762</ele>
        <time>2021-09-10T12:24:52.000Z</time>
      </trkpt>
      <trkpt lat="46.81609" lon="3.397">
        <ele>184.757714</ele>
        <time>2021-09-10T12:24:53.000Z</time>
      </trkpt>
      <trkpt lat="46.81613" lon="3.39738">
        <ele>184.669662</ele>
        <time>2021-09-10T12:24:57.000Z</time>
      </trkpt>
      <trkpt lat="46.81618" lon="3.39802">
        <ele>184.446629</ele>
        <time>2021-09-10T12:25:04.000Z</time>
      </trkpt>
      <trkpt lat="46.81622" lon="3.39836">
        <ele>184.193643</ele>
        <time>2021-09-10T12:25:08.000Z</time>
      </trkpt>
      <trkpt lat="46.81622" lon="3.39844">
        <ele>184.132161</ele>
        <time>2021-09-10T12:25:09.000Z</time>
      </trkpt>
      <trkpt lat="46.81627" lon="3.39897">
        <ele>183.73794</ele>
        <time>2021-09-10T12:25:15.000Z</time>
      </trkpt>
      <trkpt lat="46.81628" lon="3.39905">
        <ele>183.674841</ele>
        <time>2021-09-10T12:25:16.000Z</time>
      </trkpt>
      <trkpt lat="46.81636" lon="3.39976">
        <ele>183.140959</ele>
        <time>2021-09-10T12:25:24.000Z</time>
      </trkpt>
      <trkpt lat="46.81648" lon="3.4003">
        <ele>182.717836</ele>
        <time>2021-09-10T12:25:30.000Z</time>
      </trkpt>
      <trkpt lat="46.81656" lon="3.40056">
        <ele>182.584171</ele>
        <time>2021-09-10T12:25:33.000Z</time>
      </trkpt>
      <trkpt lat="46.81662" lon="3.40073">
        <ele>182.560691</ele>
        <time>2021-09-10T12:25:35.000Z</time>
      </trkpt>
      <trkpt lat="46.81665" lon="3.40081">
        <ele>182.549104</ele>
        <time>2021-09-10T12:25:36.000Z</time>
      </trkpt>
      <trkpt lat="46.81684" lon="3.40135">
        <ele>182.472149</ele>
        <time>2021-09-10T12:25:43.000Z</time>
      </trkpt>
      <trkpt lat="46.8171" lon="3.40183">
        <ele>182.395549</ele>
        <time>2021-09-10T12:25:50.000Z</time>
      </trkpt>
      <trkpt lat="46.81733" lon="3.40219">
        <ele>182.332476</ele>
        <time>2021-09-10T12:25:56.000Z</time>
      </trkpt>
      <trkpt lat="46.81758" lon="3.40252">
        <ele>182.27046</ele>
        <time>2021-09-10T12:26:02.000Z</time>
      </trkpt>
      <trkpt lat="46.81784" lon="3.40277">
        <ele>182.523749</ele>
        <time>2021-09-10T12:26:07.000Z</time>
      </trkpt>
      <trkpt lat="46.8182" lon="3.40309">
        <ele>182.890472</ele>
        <time>2021-09-10T12:26:14.000Z</time>
      </trkpt>
      <trkpt lat="46.81852" lon="3.40336">
        <ele>183.206472</ele>
        <time>2021-09-10T12:26:20.000Z</time>
      </trkpt>
      <trkpt lat="46.81894" lon="3.40372">
        <ele>183.627656</ele>
        <time>2021-09-10T12:26:28.000Z</time>
      </trkpt>
      <trkpt lat="46.8193" lon="3.40402">
        <ele>184.017656</ele>
        <time>2021-09-10T12:26:35.000Z</time>
      </trkpt>
      <trkpt lat="46.81971" lon="3.40442">
        <ele>184.518201</ele>
        <time>2021-09-10T12:26:43.000Z</time>
      </trkpt>
      <trkpt lat="46.82006" lon="3.4049">
        <ele>185.019114</ele>
        <time>2021-09-10T12:26:51.000Z</time>
      </trkpt>
      <trkpt lat="46.82032" lon="3.4054">
        <ele>185.459009</ele>
        <time>2021-09-10T12:26:58.000Z</time>
      </trkpt>
      <trkpt lat="46.82053" lon="3.40596">
        <ele>185.853663</ele>
        <time>2021-09-10T12:27:05.000Z</time>
      </trkpt>
      <trkpt lat="46.8207" lon="3.40664">
        <ele>186.241693</ele>
        <time>2021-09-10T12:27:13.000Z</time>
      </trkpt>
      <trkpt lat="46.82077" lon="3.40716">
        <ele>186.529835</ele>
        <time>2021-09-10T12:27:19.000Z</time>
      </trkpt>
      <trkpt lat="46.82079" lon="3.40743">
        <ele>186.672519</ele>
        <time>2021-09-10T12:27:22.000Z</time>
      </trkpt>
      <trkpt lat="46.82079" lon="3.40767">
        <ele>186.805243</ele>
        <time>2021-09-10T12:27:25.000Z</time>
      </trkpt>
      <trkpt lat="46.82077" lon="3.40832">
        <ele>187.221344</ele>
        <time>2021-09-10T12:27:32.000Z</time>
      </trkpt>
      <trkpt lat="46.8207" lon="3.40905">
        <ele>187.970999</ele>
        <time>2021-09-10T12:27:40.000Z</time>
      </trkpt>
      <trkpt lat="46.82063" lon="3.40986">
        <ele>188.813623</ele>
        <time>2021-09-10T12:27:49.000Z</time>
      </trkpt>
      <trkpt lat="46.82059" lon="3.41037">
        <ele>189.339177</ele>
        <time>2021-09-10T12:27:55.000Z</time>
      </trkpt>
      <trkpt lat="46.82053" lon="3.41106">
        <ele>190.223499</ele>
        <time>2021-09-10T12:28:03.000Z</time>
      </trkpt>
      <trkpt lat="46.82049" lon="3.41148">
        <ele>190.912937</ele>
        <time>2021-09-10T12:28:08.000Z</time>
      </trkpt>
      <trkpt lat="46.82048" lon="3.41161">
        <ele>191.143297</ele>
        <time>2021-09-10T12:28:10.000Z</time>
      </trkpt>
      <trkpt lat="46.82045" lon="3.41201">
        <ele>191.795984</ele>
        <time>2021-09-10T12:28:15.000Z</time>
      </trkpt>
      <trkpt lat="46.8204" lon="3.41258">
        <ele>192.747302</ele>
        <time>2021-09-10T12:28:22.000Z</time>
      </trkpt>
      <trkpt lat="46.82034" lon="3.41319">
        <ele>193.774069</ele>
        <time>2021-09-10T12:28:29.000Z</time>
      </trkpt>
      <trkpt lat="46.82027" lon="3.41394">
        <ele>195.191987</ele>
        <time>2021-09-10T12:28:38.000Z</time>
      </trkpt>
      <trkpt lat="46.82024" lon="3.41428">
        <ele>195.855369</ele>
        <time>2021-09-10T12:28:42.000Z</time>
      </trkpt>
      <trkpt lat="46.82022" lon="3.41445">
        <ele>196.184171</ele>
        <time>2021-09-10T12:28:44.000Z</time>
      </trkpt>
      <trkpt lat="46.82021" lon="3.41453">
        <ele>196.343548</ele>
        <time>2021-09-10T12:28:45.000Z</time>
      </trkpt>
      <trkpt lat="46.82019" lon="3.41476">
        <ele>196.806266</ele>
        <time>2021-09-10T12:28:48.000Z</time>
      </trkpt>
      <trkpt lat="46.82018" lon="3.41491">
        <ele>197.097631</ele>
        <time>2021-09-10T12:28:50.000Z</time>
      </trkpt>
      <trkpt lat="46.82015" lon="3.41515">
        <ele>197.571909</ele>
        <time>2021-09-10T12:28:53.000Z</time>
      </trkpt>
      <trkpt lat="46.82008" lon="3.41571">
        <ele>198.679125</ele>
        <time>2021-09-10T12:29:00.000Z</time>
      </trkpt>
      <trkpt lat="46.81996" lon="3.41628">
        <ele>199.723746</ele>
        <time>2021-09-10T12:29:07.000Z</time>
      </trkpt>
      <trkpt lat="46.81984" lon="3.41673">
        <ele>200.459597</ele>
        <time>2021-09-10T12:29:13.000Z</time>
      </trkpt>
      <trkpt lat="46.81975" lon="3.41709">
        <ele>201.054388</ele>
        <time>2021-09-10T12:29:18.000Z</time>
      </trkpt>
      <trkpt lat="46.81973" lon="3.41717">
        <ele>201.183103</ele>
        <time>2021-09-10T12:29:19.000Z</time>
      </trkpt>
      <trkpt lat="46.81964" lon="3.41755">
        <ele>201.80313</ele>
        <time>2021-09-10T12:29:24.000Z</time>
      </trkpt>
      <trkpt lat="46.81959" lon="3.41787">
        <ele>202.314098</ele>
        <time>2021-09-10T12:29:28.000Z</time>
      </trkpt>
      <trkpt lat="46.81957" lon="3.41804">
        <ele>202.575703</ele>
        <time>2021-09-10T12:29:30.000Z</time>
      </trkpt>
      <trkpt lat="46.81954" lon="3.41854">
        <ele>203.274824</ele>
        <time>2021-09-10T12:29:36.000Z</time>
      </trkpt>
      <trkpt lat="46.81954" lon="3.41862">
        <ele>203.201866</ele>
        <time>2021-09-10T12:29:37.000Z</time>
      </trkpt>
      <trkpt lat="46.81955" lon="3.41877">
        <ele>203.056941</ele>
        <time>2021-09-10T12:29:39.000Z</time>
      </trkpt>
      <trkpt lat="46.81956" lon="3.41926">
        <ele>202.595535</ele>
        <time>2021-09-10T12:29:45.000Z</time>
      </trkpt>
      <trkpt lat="46.81957" lon="3.41949">
        <ele>202.374758</ele>
        <time>2021-09-10T12:29:48.000Z</time>
      </trkpt>
      <trkpt lat="46.81959" lon="3.41966">
        <ele>202.216848</ele>
        <time>2021-09-10T12:29:50.000Z</time>
      </trkpt>
      <trkpt lat="46.81959" lon="3.41974">
        <ele>202.141589</ele>
        <time>2021-09-10T12:29:51.000Z</time>
      </trkpt>
      <trkpt lat="46.8196" lon="3.41989">
        <ele>201.992793</ele>
        <time>2021-09-10T12:29:53.000Z</time>
      </trkpt>
      <trkpt lat="46.81963" lon="3.42004">
        <ele>201.853964</ele>
        <time>2021-09-10T12:29:55.000Z</time>
      </trkpt>
      <trkpt lat="46.81969" lon="3.42039">
        <ele>201.507286</ele>
        <time>2021-09-10T12:30:00.000Z</time>
      </trkpt>
      <trkpt lat="46.81971" lon="3.42047">
        <ele>201.430935</ele>
        <time>2021-09-10T12:30:01.000Z</time>
      </trkpt>
      <trkpt lat="46.81978" lon="3.4208">
        <ele>201.098532</ele>
        <time>2021-09-10T12:30:05.000Z</time>
      </trkpt>
      <trkpt lat="46.81984" lon="3.42105">
        <ele>200.856625</ele>
        <time>2021-09-10T12:30:08.000Z</time>
      </trkpt>
      <trkpt lat="46.81987" lon="3.4212">
        <ele>200.620984</ele>
        <time>2021-09-10T12:30:10.000Z</time>
      </trkpt>
      <trkpt lat="46.81989" lon="3.42128">
        <ele>200.491769</ele>
        <time>2021-09-10T12:30:11.000Z</time>
      </trkpt>
      <trkpt lat="46.81998" lon="3.42169">
        <ele>199.804913</ele>
        <time>2021-09-10T12:30:16.000Z</time>
      </trkpt>
      <trkpt lat="46.82" lon="3.42177">
        <ele>199.662104</ele>
        <time>2021-09-10T12:30:17.000Z</time>
      </trkpt>
      <trkpt lat="46.82006" lon="3.42209">
        <ele>199.132822</ele>
        <time>2021-09-10T12:30:21.000Z</time>
      </trkpt>
      <trkpt lat="46.82011" lon="3.42259">
        <ele>198.33495</ele>
        <time>2021-09-10T12:30:27.000Z</time>
      </trkpt>
      <trkpt lat="46.82011" lon="3.42293">
        <ele>197.77734</ele>
        <time>2021-09-10T12:30:31.000Z</time>
      </trkpt>
      <trkpt lat="46.82011" lon="3.42302">
        <ele>197.644457</ele>
        <time>2021-09-10T12:30:32.000Z</time>
      </trkpt>
      <trkpt lat="46.82009" lon="3.42351">
        <ele>196.863086</ele>
        <time>2021-09-10T12:30:38.000Z</time>
      </trkpt>
      <trkpt lat="46.82002" lon="3.42381">
        <ele>196.483874</ele>
        <time>2021-09-10T12:30:43.000Z</time>
      </trkpt>
      <trkpt lat="46.81994" lon="3.42409">
        <ele>196.237538</ele>
        <time>2021-09-10T12:30:49.000Z</time>
      </trkpt>
      <trkpt lat="46.81982" lon="3.42435">
        <ele>195.987228</ele>
        <time>2021-09-10T12:30:56.000Z</time>
      </trkpt>
      <trkpt lat="46.81971" lon="3.42459">
        <ele>195.750906</ele>
        <time>2021-09-10T12:31:01.000Z</time>
      </trkpt>
      <trkpt lat="46.81955" lon="3.42483">
        <ele>195.483091</ele>
        <time>2021-09-10T12:31:05.000Z</time>
      </trkpt>
      <trkpt lat="46.81951" lon="3.42489">
        <ele>195.41245</ele>
        <time>2021-09-10T12:31:06.000Z</time>
      </trkpt>
      <trkpt lat="46.81946" lon="3.42496">
        <ele>195.338433</ele>
        <time>2021-09-10T12:31:07.000Z</time>
      </trkpt>
      <trkpt lat="46.81933" lon="3.42514">
        <ele>195.12679</ele>
        <time>2021-09-10T12:31:10.000Z</time>
      </trkpt>
      <trkpt lat="46.81907" lon="3.42554">
        <ele>194.681419</ele>
        <time>2021-09-10T12:31:17.000Z</time>
      </trkpt>
      <trkpt lat="46.81889" lon="3.42585">
        <ele>194.539247</ele>
        <time>2021-09-10T12:31:22.000Z</time>
      </trkpt>
      <trkpt lat="46.81885" lon="3.42591">
        <ele>194.555474</ele>
        <time>2021-09-10T12:31:23.000Z</time>
      </trkpt>
      <trkpt lat="46.81876" lon="3.42609">
        <ele>194.600445</ele>
        <time>2021-09-10T12:31:26.000Z</time>
      </trkpt>
      <trkpt lat="46.81867" lon="3.42628">
        <ele>194.647055</ele>
        <time>2021-09-10T12:31:29.000Z</time>
      </trkpt>
      <trkpt lat="46.81851" lon="3.4267">
        <ele>194.742534</ele>
        <time>2021-09-10T12:31:35.000Z</time>
      </trkpt>
      <trkpt lat="46.81839" lon="3.42711">
        <ele>194.831742</ele>
        <time>2021-09-10T12:31:41.000Z</time>
      </trkpt>
      <trkpt lat="46.81835" lon="3.42726">
        <ele>194.86375</ele>
        <time>2021-09-10T12:31:43.000Z</time>
      </trkpt>
      <trkpt lat="46.8183" lon="3.42749">
        <ele>194.911994</ele>
        <time>2021-09-10T12:31:46.000Z</time>
      </trkpt>
      <trkpt lat="46.81821" lon="3.42799">
        <ele>195.014103</ele>
        <time>2021-09-10T12:31:52.000Z</time>
      </trkpt>
      <trkpt lat="46.81813" lon="3.42858">
        <ele>195.85389</ele>
        <time>2021-09-10T12:31:59.000Z</time>
      </trkpt>
      <trkpt lat="46.8181" lon="3.42874">
        <ele>196.11214</ele>
        <time>2021-09-10T12:32:01.000Z</time>
      </trkpt>
      <trkpt lat="46.81808" lon="3.4289">
        <ele>196.360491</ele>
        <time>2021-09-10T12:32:03.000Z</time>
      </trkpt>
      <trkpt lat="46.81807" lon="3.42898">
        <ele>196.48714</ele>
        <time>2021-09-10T12:32:04.000Z</time>
      </trkpt>
      <trkpt lat="46.81799" lon="3.42956">
        <ele>197.396054</ele>
        <time>2021-09-10T12:32:11.000Z</time>
      </trkpt>
      <trkpt lat="46.8179" lon="3.43024">
        <ele>198.46107</ele>
        <time>2021-09-10T12:32:19.000Z</time>
      </trkpt>
      <trkpt lat="46.81789" lon="3.43032">
        <ele>198.584712</ele>
        <time>2021-09-10T12:32:20.000Z</time>
      </trkpt>
      <trkpt lat="46.81783" lon="3.43072">
        <ele>199.115392</ele>
        <time>2021-09-10T12:32:25.000Z</time>
      </trkpt>
      <trkpt lat="46.81774" lon="3.43139">
        <ele>199.499843</ele>
        <time>2021-09-10T12:32:33.000Z</time>
      </trkpt>
      <trkpt lat="46.81768" lon="3.43187">
        <ele>199.777632</ele>
        <time>2021-09-10T12:32:39.000Z</time>
      </trkpt>
      <trkpt lat="46.81759" lon="3.43252">
        <ele>200.157468</ele>
        <time>2021-09-10T12:32:47.000Z</time>
      </trkpt>
      <trkpt lat="46.81754" lon="3.43307">
        <ele>200.470318</ele>
        <time>2021-09-10T12:32:54.000Z</time>
      </trkpt>
      <trkpt lat="46.81755" lon="3.43334">
        <ele>200.38611</ele>
        <time>2021-09-10T12:32:57.000Z</time>
      </trkpt>
      <trkpt lat="46.81756" lon="3.43349">
        <ele>200.181466</ele>
        <time>2021-09-10T12:32:59.000Z</time>
      </trkpt>
      <trkpt lat="46.8176" lon="3.43378">
        <ele>199.805825</ele>
        <time>2021-09-10T12:33:04.000Z</time>
      </trkpt>
      <trkpt lat="46.81761" lon="3.43401">
        <ele>199.507568</ele>
        <time>2021-09-10T12:33:11.000Z</time>
      </trkpt>
      <trkpt lat="46.81762" lon="3.43421">
        <ele>199.259171</ele>
        <time>2021-09-10T12:33:17.000Z</time>
      </trkpt>
      <trkpt lat="46.81768" lon="3.43448">
        <ele>198.886336</ele>
        <time>2021-09-10T12:33:22.000Z</time>
      </trkpt>
      <trkpt lat="46.81772" lon="3.43471">
        <ele>198.590102</ele>
        <time>2021-09-10T12:33:25.000Z</time>
      </trkpt>
      <trkpt lat="46.81774" lon="3.43487">
        <ele>198.366672</ele>
        <time>2021-09-10T12:33:27.000Z</time>
      </trkpt>
      <trkpt lat="46.81777" lon="3.43505">
        <ele>198.128158</ele>
        <time>2021-09-10T12:33:29.000Z</time>
      </trkpt>
      <trkpt lat="46.81776" lon="3.43535">
        <ele>197.74717</ele>
        <time>2021-09-10T12:33:32.000Z</time>
      </trkpt>
      <trkpt lat="46.81785" lon="3.43584">
        <ele>197.065482</ele>
        <time>2021-09-10T12:33:38.000Z</time>
      </trkpt>
      <trkpt lat="46.81795" lon="3.43637">
        <ele>195.979763</ele>
        <time>2021-09-10T12:33:44.000Z</time>
      </trkpt>
      <trkpt lat="46.81807" lon="3.43703">
        <ele>194.650646</ele>
        <time>2021-09-10T12:33:52.000Z</time>
      </trkpt>
      <trkpt lat="46.81812" lon="3.43732">
        <ele>194.066348</ele>
        <time>2021-09-10T12:33:56.000Z</time>
      </trkpt>
      <trkpt lat="46.81815" lon="3.43748">
        <ele>193.760321</ele>
        <time>2021-09-10T12:33:58.000Z</time>
      </trkpt>
      <trkpt lat="46.81822" lon="3.43786">
        <ele>192.990758</ele>
        <time>2021-09-10T12:34:04.000Z</time>
      </trkpt>
      <trkpt lat="46.81823" lon="3.43793">
        <ele>192.852349</ele>
        <time>2021-09-10T12:34:05.000Z</time>
      </trkpt>
      <trkpt lat="46.8183" lon="3.4383">
        <ele>192.100416</ele>
        <time>2021-09-10T12:34:10.000Z</time>
      </trkpt>
      <trkpt lat="46.81832" lon="3.43837">
        <ele>191.944847</ele>
        <time>2021-09-10T12:34:11.000Z</time>
      </trkpt>
      <trkpt lat="46.8184" lon="3.43881">
        <ele>191.005227</ele>
        <time>2021-09-10T12:34:17.000Z</time>
      </trkpt>
      <trkpt lat="46.81843" lon="3.439">
        <ele>190.594865</ele>
        <time>2021-09-10T12:34:20.000Z</time>
      </trkpt>
      <trkpt lat="46.81846" lon="3.43915">
        <ele>190.280991</ele>
        <time>2021-09-10T12:34:22.000Z</time>
      </trkpt>
      <trkpt lat="46.81856" lon="3.43968">
        <ele>189.138802</ele>
        <time>2021-09-10T12:34:29.000Z</time>
      </trkpt>
      <trkpt lat="46.81863" lon="3.44005">
        <ele>188.334901</ele>
        <time>2021-09-10T12:34:34.000Z</time>
      </trkpt>
      <trkpt lat="46.81864" lon="3.44012">
        <ele>188.184371</ele>
        <time>2021-09-10T12:34:35.000Z</time>
      </trkpt>
      <trkpt lat="46.81872" lon="3.44053">
        <ele>187.309608</ele>
        <time>2021-09-10T12:34:41.000Z</time>
      </trkpt>
      <trkpt lat="46.81874" lon="3.44067">
        <ele>187.019357</ele>
        <time>2021-09-10T12:34:43.000Z</time>
      </trkpt>
      <trkpt lat="46.81877" lon="3.44081">
        <ele>186.703481</ele>
        <time>2021-09-10T12:34:45.000Z</time>
      </trkpt>
      <trkpt lat="46.81878" lon="3.44089">
        <ele>186.601253</ele>
        <time>2021-09-10T12:34:46.000Z</time>
      </trkpt>
      <trkpt lat="46.81889" lon="3.44147">
        <ele>186.601253</ele>
        <time>2021-09-10T12:34:53.000Z</time>
      </trkpt>
      <trkpt lat="46.81898" lon="3.44198">
        <ele>186.601253</ele>
        <time>2021-09-10T12:34:59.000Z</time>
      </trkpt>
      <trkpt lat="46.819" lon="3.44206">
        <ele>186.601253</ele>
        <time>2021-09-10T12:35:00.000Z</time>
      </trkpt>
      <trkpt lat="46.81903" lon="3.44221">
        <ele>186.601253</ele>
        <time>2021-09-10T12:35:02.000Z</time>
      </trkpt>
      <trkpt lat="46.81906" lon="3.44236">
        <ele>186.601253</ele>
        <time>2021-09-10T12:35:04.000Z</time>
      </trkpt>
      <trkpt lat="46.8191" lon="3.44258">
        <ele>186.601253</ele>
        <time>2021-09-10T12:35:07.000Z</time>
      </trkpt>
      <trkpt lat="46.81914" lon="3.4428">
        <ele>186.601253</ele>
        <time>2021-09-10T12:35:10.000Z</time>
      </trkpt>
      <trkpt lat="46.81918" lon="3.44303">
        <ele>186.601253</ele>
        <time>2021-09-10T12:35:13.000Z</time>
      </trkpt>
      <trkpt lat="46.81921" lon="3.4432">
        <ele>186.601253</ele>
        <time>2021-09-10T12:35:15.000Z</time>
      </trkpt>
      <trkpt lat="46.81924" lon="3.44336">
        <ele>186.601253</ele>
        <time>2021-09-10T12:35:17.000Z</time>
      </trkpt>
      <trkpt lat="46.81927" lon="3.44351">
        <ele>186.601253</ele>
        <time>2021-09-10T12:35:19.000Z</time>
      </trkpt>
      <trkpt lat="46.8193" lon="3.44366">
        <ele>186.601253</ele>
        <time>2021-09-10T12:35:21.000Z</time>
      </trkpt>
      <trkpt lat="46.81935" lon="3.44395">
        <ele>186.601253</ele>
        <time>2021-09-10T12:35:25.000Z</time>
      </trkpt>
      <trkpt lat="46.81937" lon="3.44408">
        <ele>186.601253</ele>
        <time>2021-09-10T12:35:27.000Z</time>
      </trkpt>
      <trkpt lat="46.81939" lon="3.44415">
        <ele>186.601253</ele>
        <time>2021-09-10T12:35:28.000Z</time>
      </trkpt>
      <trkpt lat="46.81943" lon="3.4444">
        <ele>186.601253</ele>
        <time>2021-09-10T12:35:32.000Z</time>
      </trkpt>
      <trkpt lat="46.81945" lon="3.44448">
        <ele>186.601253</ele>
        <time>2021-09-10T12:35:33.000Z</time>
      </trkpt>
    </trkseg>
  </trk>
</gpx>